<?xml version="1.0" encoding="UTF-8" standalone="no" ?>
<gpx xmlns="http://www.topografix.com/GPX/1/1" xmlns:xsi="http://www.w3.org/2001/XMLSchema-instance" xsi:schemaLocation="http://www.topografix.com/GPX/1/1 http://www.topografix.com/GPX/1/1/gpx.xsd" version="1.1" creator="VisuGPX - https://www.visugpx.com">
  <metadata>
    <name>Balade hivernale</name>
    <desc><![CDATA[Balade effectuée du 9 décembre 2022 au 7 janvier 2023.]]></desc>
  </metadata>
  <trk>
    <name><![CDATA[Nort sur Erdre - Bouguenais]]></name>
    <extensions>
      <line xmlns="http://www.topografix.com/GPX/gpx_style/0/2">
        <color>ff0000</color>
        <width>4</width>
      </line>
    </extensions>
    <trkseg>
      <trkpt lat="47.44293" lon="-1.56048">
        <ele>60.70176</ele>
        <time>2022-12-16T11:30:49.768Z</time>
      </trkpt>
      <trkpt lat="47.44283" lon="-1.56038">
        <ele>60.70176</ele>
        <time>2022-12-16T11:31:02.914Z</time>
      </trkpt>
      <trkpt lat="47.44275" lon="-1.5603">
        <ele>60.70176</ele>
        <time>2022-12-16T11:31:06.902Z</time>
      </trkpt>
      <trkpt lat="47.44267" lon="-1.5602">
        <ele>60.70176</ele>
        <time>2022-12-16T11:31:09.906Z</time>
      </trkpt>
      <trkpt lat="47.44255" lon="-1.56009">
        <ele>60.70176</ele>
        <time>2022-12-16T11:31:12.901Z</time>
      </trkpt>
      <trkpt lat="47.44246" lon="-1.56001">
        <ele>60.70176</ele>
        <time>2022-12-16T11:31:14.896Z</time>
      </trkpt>
      <trkpt lat="47.44238" lon="-1.55992">
        <ele>60.70176</ele>
        <time>2022-12-16T11:31:16.911Z</time>
      </trkpt>
      <trkpt lat="47.4423" lon="-1.55985">
        <ele>60.70176</ele>
        <time>2022-12-16T11:31:18.913Z</time>
      </trkpt>
      <trkpt lat="47.44219" lon="-1.55975">
        <ele>60.70176</ele>
        <time>2022-12-16T11:31:21.907Z</time>
      </trkpt>
      <trkpt lat="47.4421" lon="-1.55967">
        <ele>60.691702</ele>
        <time>2022-12-16T11:31:24.899Z</time>
      </trkpt>
      <trkpt lat="47.44202" lon="-1.55957">
        <ele>60.680772</ele>
        <time>2022-12-16T11:31:27.915Z</time>
      </trkpt>
      <trkpt lat="47.44193" lon="-1.55946">
        <ele>60.668909</ele>
        <time>2022-12-16T11:31:30.895Z</time>
      </trkpt>
      <trkpt lat="47.44184" lon="-1.55934">
        <ele>60.656955</ele>
        <time>2022-12-16T11:31:33.912Z</time>
      </trkpt>
      <trkpt lat="47.44177" lon="-1.55922">
        <ele>60.64569</ele>
        <time>2022-12-16T11:31:36.908Z</time>
      </trkpt>
      <trkpt lat="47.4417" lon="-1.55909">
        <ele>60.634627</ele>
        <time>2022-12-16T11:31:39.901Z</time>
      </trkpt>
      <trkpt lat="47.44164" lon="-1.55896">
        <ele>60.62318</ele>
        <time>2022-12-16T11:31:42.901Z</time>
      </trkpt>
      <trkpt lat="47.44156" lon="-1.55882">
        <ele>60.611036</ele>
        <time>2022-12-16T11:31:45.918Z</time>
      </trkpt>
      <trkpt lat="47.4415" lon="-1.55867">
        <ele>60.59874</ele>
        <time>2022-12-16T11:31:48.918Z</time>
      </trkpt>
      <trkpt lat="47.44143" lon="-1.55853">
        <ele>60.586387</ele>
        <time>2022-12-16T11:31:51.909Z</time>
      </trkpt>
      <trkpt lat="47.44137" lon="-1.5584">
        <ele>60.575233</ele>
        <time>2022-12-16T11:31:54.906Z</time>
      </trkpt>
      <trkpt lat="47.44131" lon="-1.55827">
        <ele>60.564546</ele>
        <time>2022-12-16T11:31:57.907Z</time>
      </trkpt>
      <trkpt lat="47.44124" lon="-1.55813">
        <ele>60.552421</ele>
        <time>2022-12-16T11:32:00.897Z</time>
      </trkpt>
      <trkpt lat="47.44117" lon="-1.55798">
        <ele>60.539896</ele>
        <time>2022-12-16T11:32:03.914Z</time>
      </trkpt>
      <trkpt lat="47.44111" lon="-1.55783">
        <ele>60.527711</ele>
        <time>2022-12-16T11:32:06.910Z</time>
      </trkpt>
      <trkpt lat="47.44105" lon="-1.5577">
        <ele>60.518063</ele>
        <time>2022-12-16T11:32:09.903Z</time>
      </trkpt>
      <trkpt lat="47.44099" lon="-1.55757">
        <ele>60.536227</ele>
        <time>2022-12-16T11:32:12.917Z</time>
      </trkpt>
      <trkpt lat="47.44093" lon="-1.55743">
        <ele>60.556077</ele>
        <time>2022-12-16T11:32:15.908Z</time>
      </trkpt>
      <trkpt lat="47.44088" lon="-1.55727">
        <ele>60.577016</ele>
        <time>2022-12-16T11:32:18.916Z</time>
      </trkpt>
      <trkpt lat="47.44083" lon="-1.55711">
        <ele>60.598239</ele>
        <time>2022-12-16T11:32:21.904Z</time>
      </trkpt>
      <trkpt lat="47.4408" lon="-1.55694">
        <ele>60.618943</ele>
        <time>2022-12-16T11:32:24.899Z</time>
      </trkpt>
      <trkpt lat="47.44079" lon="-1.55678">
        <ele>60.638737</ele>
        <time>2022-12-16T11:32:27.905Z</time>
      </trkpt>
      <trkpt lat="47.44078" lon="-1.55661">
        <ele>60.658767</ele>
        <time>2022-12-16T11:32:30.899Z</time>
      </trkpt>
      <trkpt lat="47.44077" lon="-1.55645">
        <ele>60.677898</ele>
        <time>2022-12-16T11:32:33.919Z</time>
      </trkpt>
      <trkpt lat="47.44078" lon="-1.55629">
        <ele>60.697085</ele>
        <time>2022-12-16T11:32:36.918Z</time>
      </trkpt>
      <trkpt lat="47.44077" lon="-1.5561">
        <ele>60.719186</ele>
        <time>2022-12-16T11:32:39.916Z</time>
      </trkpt>
      <trkpt lat="47.44074" lon="-1.55594">
        <ele>60.739225</ele>
        <time>2022-12-16T11:32:42.909Z</time>
      </trkpt>
      <trkpt lat="47.4407" lon="-1.55578">
        <ele>60.759042</ele>
        <time>2022-12-16T11:32:45.913Z</time>
      </trkpt>
      <trkpt lat="47.44065" lon="-1.55564">
        <ele>60.779021</ele>
        <time>2022-12-16T11:32:48.915Z</time>
      </trkpt>
      <trkpt lat="47.44058" lon="-1.55549">
        <ele>60.799353</ele>
        <time>2022-12-16T11:32:51.907Z</time>
      </trkpt>
      <trkpt lat="47.44052" lon="-1.55536">
        <ele>60.819293</ele>
        <time>2022-12-16T11:32:54.914Z</time>
      </trkpt>
      <trkpt lat="47.44044" lon="-1.55523">
        <ele>60.768286</ele>
        <time>2022-12-16T11:32:57.913Z</time>
      </trkpt>
      <trkpt lat="47.44036" lon="-1.55513">
        <ele>60.517029</ele>
        <time>2022-12-16T11:33:00.900Z</time>
      </trkpt>
      <trkpt lat="47.44027" lon="-1.55502">
        <ele>60.259571</ele>
        <time>2022-12-16T11:33:03.915Z</time>
      </trkpt>
      <trkpt lat="47.44018" lon="-1.55492">
        <ele>60.001084</ele>
        <time>2022-12-16T11:33:06.912Z</time>
      </trkpt>
      <trkpt lat="47.4401" lon="-1.55483">
        <ele>59.777518</ele>
        <time>2022-12-16T11:33:09.913Z</time>
      </trkpt>
      <trkpt lat="47.44001" lon="-1.55472">
        <ele>59.50819</ele>
        <time>2022-12-16T11:33:12.914Z</time>
      </trkpt>
      <trkpt lat="47.43992" lon="-1.55459">
        <ele>59.218413</ele>
        <time>2022-12-16T11:33:15.907Z</time>
      </trkpt>
      <trkpt lat="47.43982" lon="-1.55447">
        <ele>58.927947</ele>
        <time>2022-12-16T11:33:18.906Z</time>
      </trkpt>
      <trkpt lat="47.43974" lon="-1.55435">
        <ele>58.674763</ele>
        <time>2022-12-16T11:33:21.901Z</time>
      </trkpt>
      <trkpt lat="47.43966" lon="-1.55423">
        <ele>58.411318</ele>
        <time>2022-12-16T11:33:24.902Z</time>
      </trkpt>
      <trkpt lat="47.43958" lon="-1.55409">
        <ele>58.127383</ele>
        <time>2022-12-16T11:33:27.900Z</time>
      </trkpt>
      <trkpt lat="47.43952" lon="-1.55394">
        <ele>57.855469</ele>
        <time>2022-12-16T11:33:30.898Z</time>
      </trkpt>
      <trkpt lat="47.43946" lon="-1.55378">
        <ele>57.574615</ele>
        <time>2022-12-16T11:33:33.903Z</time>
      </trkpt>
      <trkpt lat="47.4394" lon="-1.55361">
        <ele>57.274982</ele>
        <time>2022-12-16T11:33:36.907Z</time>
      </trkpt>
      <trkpt lat="47.43935" lon="-1.55343">
        <ele>56.985037</ele>
        <time>2022-12-16T11:33:39.904Z</time>
      </trkpt>
      <trkpt lat="47.43933" lon="-1.5533">
        <ele>56.780059</ele>
        <time>2022-12-16T11:33:41.897Z</time>
      </trkpt>
      <trkpt lat="47.43932" lon="-1.55312">
        <ele>56.730205</ele>
        <time>2022-12-16T11:33:44.913Z</time>
      </trkpt>
      <trkpt lat="47.43932" lon="-1.55295">
        <ele>56.724064</ele>
        <time>2022-12-16T11:33:47.898Z</time>
      </trkpt>
      <trkpt lat="47.43932" lon="-1.55277">
        <ele>56.717737</ele>
        <time>2022-12-16T11:33:50.900Z</time>
      </trkpt>
      <trkpt lat="47.43934" lon="-1.55259">
        <ele>56.711203</ele>
        <time>2022-12-16T11:33:53.901Z</time>
      </trkpt>
      <trkpt lat="47.43937" lon="-1.55242">
        <ele>56.704651</ele>
        <time>2022-12-16T11:33:56.916Z</time>
      </trkpt>
      <trkpt lat="47.4394" lon="-1.55224">
        <ele>56.698155</ele>
        <time>2022-12-16T11:33:59.904Z</time>
      </trkpt>
      <trkpt lat="47.43943" lon="-1.55207">
        <ele>56.691632</ele>
        <time>2022-12-16T11:34:02.904Z</time>
      </trkpt>
      <trkpt lat="47.43946" lon="-1.5519">
        <ele>56.685314</ele>
        <time>2022-12-16T11:34:05.911Z</time>
      </trkpt>
      <trkpt lat="47.43949" lon="-1.55176">
        <ele>56.680008</ele>
        <time>2022-12-16T11:34:08.908Z</time>
      </trkpt>
      <trkpt lat="47.43952" lon="-1.55161">
        <ele>56.674563</ele>
        <time>2022-12-16T11:34:11.913Z</time>
      </trkpt>
      <trkpt lat="47.43955" lon="-1.55146">
        <ele>56.668968</ele>
        <time>2022-12-16T11:34:14.918Z</time>
      </trkpt>
      <trkpt lat="47.43958" lon="-1.55131">
        <ele>56.663255</ele>
        <time>2022-12-16T11:34:17.903Z</time>
      </trkpt>
      <trkpt lat="47.43961" lon="-1.55114">
        <ele>56.65719</ele>
        <time>2022-12-16T11:34:20.903Z</time>
      </trkpt>
      <trkpt lat="47.43964" lon="-1.55098">
        <ele>56.650977</ele>
        <time>2022-12-16T11:34:23.906Z</time>
      </trkpt>
      <trkpt lat="47.43967" lon="-1.55081">
        <ele>56.64489</ele>
        <time>2022-12-16T11:34:26.904Z</time>
      </trkpt>
      <trkpt lat="47.4397" lon="-1.55066">
        <ele>56.620757</ele>
        <time>2022-12-16T11:34:29.902Z</time>
      </trkpt>
      <trkpt lat="47.43972" lon="-1.55052">
        <ele>56.543</ele>
        <time>2022-12-16T11:34:32.913Z</time>
      </trkpt>
      <trkpt lat="47.43976" lon="-1.55036">
        <ele>56.450017</ele>
        <time>2022-12-16T11:34:36.897Z</time>
      </trkpt>
      <trkpt lat="47.4398" lon="-1.55021">
        <ele>56.362053</ele>
        <time>2022-12-16T11:34:39.913Z</time>
      </trkpt>
      <trkpt lat="47.43982" lon="-1.55005">
        <ele>56.271827</ele>
        <time>2022-12-16T11:34:42.915Z</time>
      </trkpt>
      <trkpt lat="47.43985" lon="-1.5499">
        <ele>56.185682</ele>
        <time>2022-12-16T11:34:45.897Z</time>
      </trkpt>
      <trkpt lat="47.43988" lon="-1.54975">
        <ele>56.103174</ele>
        <time>2022-12-16T11:34:48.901Z</time>
      </trkpt>
      <trkpt lat="47.43991" lon="-1.5496">
        <ele>56.014168</ele>
        <time>2022-12-16T11:34:51.900Z</time>
      </trkpt>
      <trkpt lat="47.43996" lon="-1.54943">
        <ele>55.913176</ele>
        <time>2022-12-16T11:34:54.921Z</time>
      </trkpt>
      <trkpt lat="47.43998" lon="-1.5493">
        <ele>55.839666</ele>
        <time>2022-12-16T11:34:56.914Z</time>
      </trkpt>
      <trkpt lat="47.44" lon="-1.54916">
        <ele>55.759973</ele>
        <time>2022-12-16T11:34:58.911Z</time>
      </trkpt>
      <trkpt lat="47.44003" lon="-1.54901">
        <ele>55.67681</ele>
        <time>2022-12-16T11:35:00.900Z</time>
      </trkpt>
      <trkpt lat="47.44005" lon="-1.54888">
        <ele>55.601047</ele>
        <time>2022-12-16T11:35:02.903Z</time>
      </trkpt>
      <trkpt lat="47.44007" lon="-1.54875">
        <ele>55.526476</ele>
        <time>2022-12-16T11:35:04.895Z</time>
      </trkpt>
      <trkpt lat="47.4401" lon="-1.54862">
        <ele>55.452518</ele>
        <time>2022-12-16T11:35:06.900Z</time>
      </trkpt>
      <trkpt lat="47.44013" lon="-1.54842">
        <ele>55.341342</ele>
        <time>2022-12-16T11:35:09.904Z</time>
      </trkpt>
      <trkpt lat="47.44016" lon="-1.54829">
        <ele>55.268043</ele>
        <time>2022-12-16T11:35:11.903Z</time>
      </trkpt>
      <trkpt lat="47.44019" lon="-1.54816">
        <ele>55.193874</ele>
        <time>2022-12-16T11:35:13.904Z</time>
      </trkpt>
      <trkpt lat="47.44021" lon="-1.54803">
        <ele>55.089848</ele>
        <time>2022-12-16T11:35:15.919Z</time>
      </trkpt>
      <trkpt lat="47.44024" lon="-1.5479">
        <ele>54.986403</ele>
        <time>2022-12-16T11:35:17.905Z</time>
      </trkpt>
      <trkpt lat="47.44027" lon="-1.54771">
        <ele>54.834362</ele>
        <time>2022-12-16T11:35:20.895Z</time>
      </trkpt>
      <trkpt lat="47.44032" lon="-1.54752">
        <ele>54.681279</ele>
        <time>2022-12-16T11:35:23.918Z</time>
      </trkpt>
      <trkpt lat="47.44036" lon="-1.54734">
        <ele>54.534788</ele>
        <time>2022-12-16T11:35:26.903Z</time>
      </trkpt>
      <trkpt lat="47.4404" lon="-1.54718">
        <ele>54.400326</ele>
        <time>2022-12-16T11:35:29.905Z</time>
      </trkpt>
      <trkpt lat="47.44044" lon="-1.54701">
        <ele>54.260424</ele>
        <time>2022-12-16T11:35:32.913Z</time>
      </trkpt>
      <trkpt lat="47.44047" lon="-1.54683">
        <ele>54.120164</ele>
        <time>2022-12-16T11:35:35.905Z</time>
      </trkpt>
      <trkpt lat="47.44051" lon="-1.54667">
        <ele>53.982456</ele>
        <time>2022-12-16T11:35:38.917Z</time>
      </trkpt>
      <trkpt lat="47.44055" lon="-1.54648">
        <ele>53.837344</ele>
        <time>2022-12-16T11:35:41.901Z</time>
      </trkpt>
      <trkpt lat="47.44057" lon="-1.54635">
        <ele>53.733449</ele>
        <time>2022-12-16T11:35:43.902Z</time>
      </trkpt>
      <trkpt lat="47.44059" lon="-1.54616">
        <ele>53.583246</ele>
        <time>2022-12-16T11:35:46.907Z</time>
      </trkpt>
      <trkpt lat="47.44062" lon="-1.54598">
        <ele>53.439878</ele>
        <time>2022-12-16T11:35:49.905Z</time>
      </trkpt>
      <trkpt lat="47.44064" lon="-1.54581">
        <ele>53.306122</ele>
        <time>2022-12-16T11:35:52.913Z</time>
      </trkpt>
      <trkpt lat="47.44066" lon="-1.54565">
        <ele>53.176312</ele>
        <time>2022-12-16T11:35:55.915Z</time>
      </trkpt>
      <trkpt lat="47.44067" lon="-1.54548">
        <ele>53.017096</ele>
        <time>2022-12-16T11:35:58.916Z</time>
      </trkpt>
      <trkpt lat="47.44069" lon="-1.54531">
        <ele>52.82432</ele>
        <time>2022-12-16T11:36:01.913Z</time>
      </trkpt>
      <trkpt lat="47.44069" lon="-1.54512">
        <ele>52.618565</ele>
        <time>2022-12-16T11:36:04.918Z</time>
      </trkpt>
      <trkpt lat="47.44069" lon="-1.54492">
        <ele>52.409649</ele>
        <time>2022-12-16T11:36:07.906Z</time>
      </trkpt>
      <trkpt lat="47.44069" lon="-1.54479">
        <ele>52.261391</ele>
        <time>2022-12-16T11:36:09.900Z</time>
      </trkpt>
      <trkpt lat="47.44068" lon="-1.5446">
        <ele>52.054889</ele>
        <time>2022-12-16T11:36:12.915Z</time>
      </trkpt>
      <trkpt lat="47.44067" lon="-1.54446">
        <ele>51.897839</ele>
        <time>2022-12-16T11:36:14.921Z</time>
      </trkpt>
      <trkpt lat="47.44065" lon="-1.54432">
        <ele>51.744943</ele>
        <time>2022-12-16T11:36:16.920Z</time>
      </trkpt>
      <trkpt lat="47.44063" lon="-1.54418">
        <ele>51.589417</ele>
        <time>2022-12-16T11:36:18.898Z</time>
      </trkpt>
      <trkpt lat="47.44062" lon="-1.54405">
        <ele>51.442995</ele>
        <time>2022-12-16T11:36:20.898Z</time>
      </trkpt>
      <trkpt lat="47.44059" lon="-1.54391">
        <ele>51.295768</ele>
        <time>2022-12-16T11:36:22.911Z</time>
      </trkpt>
      <trkpt lat="47.44056" lon="-1.54373">
        <ele>51.092894</ele>
        <time>2022-12-16T11:36:25.919Z</time>
      </trkpt>
      <trkpt lat="47.44053" lon="-1.54359">
        <ele>50.924669</ele>
        <time>2022-12-16T11:36:28.921Z</time>
      </trkpt>
      <trkpt lat="47.44052" lon="-1.54341">
        <ele>50.736036</ele>
        <time>2022-12-16T11:36:32.907Z</time>
      </trkpt>
      <trkpt lat="47.4405" lon="-1.54326">
        <ele>50.57079</ele>
        <time>2022-12-16T11:36:35.900Z</time>
      </trkpt>
      <trkpt lat="47.44047" lon="-1.5431">
        <ele>50.385977</ele>
        <time>2022-12-16T11:36:38.905Z</time>
      </trkpt>
      <trkpt lat="47.44043" lon="-1.54293">
        <ele>50.265216</ele>
        <time>2022-12-16T11:36:41.905Z</time>
      </trkpt>
      <trkpt lat="47.44037" lon="-1.54276">
        <ele>50.462594</ele>
        <time>2022-12-16T11:36:44.916Z</time>
      </trkpt>
      <trkpt lat="47.44034" lon="-1.54262">
        <ele>50.608779</ele>
        <time>2022-12-16T11:36:46.916Z</time>
      </trkpt>
      <trkpt lat="47.4403" lon="-1.54244">
        <ele>50.801543</ele>
        <time>2022-12-16T11:36:49.903Z</time>
      </trkpt>
      <trkpt lat="47.44027" lon="-1.54226">
        <ele>50.990409</ele>
        <time>2022-12-16T11:36:52.906Z</time>
      </trkpt>
      <trkpt lat="47.44023" lon="-1.54209">
        <ele>51.171635</ele>
        <time>2022-12-16T11:36:55.915Z</time>
      </trkpt>
      <trkpt lat="47.4402" lon="-1.54192">
        <ele>51.355822</ele>
        <time>2022-12-16T11:36:58.917Z</time>
      </trkpt>
      <trkpt lat="47.44017" lon="-1.54178">
        <ele>51.500031</ele>
        <time>2022-12-16T11:37:00.897Z</time>
      </trkpt>
      <trkpt lat="47.44013" lon="-1.54161">
        <ele>51.684247</ele>
        <time>2022-12-16T11:37:03.911Z</time>
      </trkpt>
      <trkpt lat="47.4401" lon="-1.54142">
        <ele>51.883102</ele>
        <time>2022-12-16T11:37:06.914Z</time>
      </trkpt>
      <trkpt lat="47.44005" lon="-1.54124">
        <ele>52.079696</ele>
        <time>2022-12-16T11:37:09.915Z</time>
      </trkpt>
      <trkpt lat="47.44001" lon="-1.54105">
        <ele>52.279659</ele>
        <time>2022-12-16T11:37:12.912Z</time>
      </trkpt>
      <trkpt lat="47.43998" lon="-1.5409">
        <ele>52.43385</ele>
        <time>2022-12-16T11:37:14.906Z</time>
      </trkpt>
      <trkpt lat="47.43996" lon="-1.54077">
        <ele>52.571852</ele>
        <time>2022-12-16T11:37:16.912Z</time>
      </trkpt>
      <trkpt lat="47.43992" lon="-1.54059">
        <ele>52.765557</ele>
        <time>2022-12-16T11:37:19.909Z</time>
      </trkpt>
      <trkpt lat="47.43987" lon="-1.54041">
        <ele>52.944467</ele>
        <time>2022-12-16T11:37:22.899Z</time>
      </trkpt>
      <trkpt lat="47.43984" lon="-1.54028">
        <ele>53.013332</ele>
        <time>2022-12-16T11:37:24.916Z</time>
      </trkpt>
      <trkpt lat="47.43979" lon="-1.5401">
        <ele>53.111118</ele>
        <time>2022-12-16T11:37:27.900Z</time>
      </trkpt>
      <trkpt lat="47.43974" lon="-1.53992">
        <ele>53.208443</ele>
        <time>2022-12-16T11:37:30.899Z</time>
      </trkpt>
      <trkpt lat="47.43968" lon="-1.53977">
        <ele>53.295134</ele>
        <time>2022-12-16T11:37:33.903Z</time>
      </trkpt>
      <trkpt lat="47.43962" lon="-1.53962">
        <ele>53.379255</ele>
        <time>2022-12-16T11:37:36.903Z</time>
      </trkpt>
      <trkpt lat="47.43955" lon="-1.53947">
        <ele>53.469569</ele>
        <time>2022-12-16T11:37:39.900Z</time>
      </trkpt>
      <trkpt lat="47.43948" lon="-1.53932">
        <ele>53.5632</ele>
        <time>2022-12-16T11:37:42.917Z</time>
      </trkpt>
      <trkpt lat="47.43939" lon="-1.53917">
        <ele>53.66104</ele>
        <time>2022-12-16T11:37:45.905Z</time>
      </trkpt>
      <trkpt lat="47.4393" lon="-1.53904">
        <ele>53.758207</ele>
        <time>2022-12-16T11:37:48.916Z</time>
      </trkpt>
      <trkpt lat="47.4392" lon="-1.53891">
        <ele>53.852685</ele>
        <time>2022-12-16T11:37:51.917Z</time>
      </trkpt>
      <trkpt lat="47.4391" lon="-1.5388">
        <ele>53.943847</ele>
        <time>2022-12-16T11:37:54.915Z</time>
      </trkpt>
      <trkpt lat="47.439" lon="-1.53871">
        <ele>54.030009</ele>
        <time>2022-12-16T11:37:57.897Z</time>
      </trkpt>
      <trkpt lat="47.4389" lon="-1.53863">
        <ele>54.118997</ele>
        <time>2022-12-16T11:38:00.905Z</time>
      </trkpt>
      <trkpt lat="47.43878" lon="-1.53855">
        <ele>54.214689</ele>
        <time>2022-12-16T11:38:03.917Z</time>
      </trkpt>
      <trkpt lat="47.43866" lon="-1.53848">
        <ele>54.224807</ele>
        <time>2022-12-16T11:38:06.919Z</time>
      </trkpt>
      <trkpt lat="47.43854" lon="-1.53844">
        <ele>54.178827</ele>
        <time>2022-12-16T11:38:09.904Z</time>
      </trkpt>
      <trkpt lat="47.43842" lon="-1.5384">
        <ele>54.132647</ele>
        <time>2022-12-16T11:38:12.914Z</time>
      </trkpt>
      <trkpt lat="47.43829" lon="-1.53837">
        <ele>54.085294</ele>
        <time>2022-12-16T11:38:15.907Z</time>
      </trkpt>
      <trkpt lat="47.43817" lon="-1.53834">
        <ele>54.039272</ele>
        <time>2022-12-16T11:38:18.915Z</time>
      </trkpt>
      <trkpt lat="47.43805" lon="-1.53832">
        <ele>53.99442</ele>
        <time>2022-12-16T11:38:21.907Z</time>
      </trkpt>
      <trkpt lat="47.43794" lon="-1.5383">
        <ele>53.954808</ele>
        <time>2022-12-16T11:38:24.906Z</time>
      </trkpt>
      <trkpt lat="47.43783" lon="-1.53828">
        <ele>53.914891</ele>
        <time>2022-12-16T11:38:27.915Z</time>
      </trkpt>
      <trkpt lat="47.43772" lon="-1.53825">
        <ele>53.87363</ele>
        <time>2022-12-16T11:38:30.896Z</time>
      </trkpt>
      <trkpt lat="47.43761" lon="-1.53823">
        <ele>53.831415</ele>
        <time>2022-12-16T11:38:33.914Z</time>
      </trkpt>
      <trkpt lat="47.43749" lon="-1.53821">
        <ele>53.787476</ele>
        <time>2022-12-16T11:38:36.913Z</time>
      </trkpt>
      <trkpt lat="47.43739" lon="-1.53819">
        <ele>53.749332</ele>
        <time>2022-12-16T11:38:39.912Z</time>
      </trkpt>
      <trkpt lat="47.4373" lon="-1.53815">
        <ele>53.716086</ele>
        <time>2022-12-16T11:38:43.907Z</time>
      </trkpt>
      <trkpt lat="47.4372" lon="-1.53812">
        <ele>53.67808</ele>
        <time>2022-12-16T11:38:48.915Z</time>
      </trkpt>
      <trkpt lat="47.43711" lon="-1.5381">
        <ele>53.644136</ele>
        <time>2022-12-16T11:38:51.915Z</time>
      </trkpt>
      <trkpt lat="47.43698" lon="-1.53808">
        <ele>53.594478</ele>
        <time>2022-12-16T11:38:54.900Z</time>
      </trkpt>
      <trkpt lat="47.43688" lon="-1.53806">
        <ele>53.516351</ele>
        <time>2022-12-16T11:38:56.905Z</time>
      </trkpt>
      <trkpt lat="47.43679" lon="-1.53804">
        <ele>53.430821</ele>
        <time>2022-12-16T11:38:58.903Z</time>
      </trkpt>
      <trkpt lat="47.43668" lon="-1.53802">
        <ele>53.332739</ele>
        <time>2022-12-16T11:39:01.913Z</time>
      </trkpt>
      <trkpt lat="47.43659" lon="-1.53799">
        <ele>53.248198</ele>
        <time>2022-12-16T11:39:04.908Z</time>
      </trkpt>
      <trkpt lat="47.43649" lon="-1.53795">
        <ele>53.156296</ele>
        <time>2022-12-16T11:39:07.904Z</time>
      </trkpt>
      <trkpt lat="47.43639" lon="-1.53792">
        <ele>53.057506</ele>
        <time>2022-12-16T11:39:10.895Z</time>
      </trkpt>
      <trkpt lat="47.43628" lon="-1.5379">
        <ele>52.958716</ele>
        <time>2022-12-16T11:39:13.910Z</time>
      </trkpt>
      <trkpt lat="47.43617" lon="-1.53785">
        <ele>52.855718</ele>
        <time>2022-12-16T11:39:16.898Z</time>
      </trkpt>
      <trkpt lat="47.43606" lon="-1.5378">
        <ele>52.74921</ele>
        <time>2022-12-16T11:39:19.900Z</time>
      </trkpt>
      <trkpt lat="47.43594" lon="-1.53774">
        <ele>52.631999</ele>
        <time>2022-12-16T11:39:22.899Z</time>
      </trkpt>
      <trkpt lat="47.43582" lon="-1.53767">
        <ele>52.516511</ele>
        <time>2022-12-16T11:39:25.908Z</time>
      </trkpt>
      <trkpt lat="47.43571" lon="-1.5376">
        <ele>52.40461</ele>
        <time>2022-12-16T11:39:28.913Z</time>
      </trkpt>
      <trkpt lat="47.4356" lon="-1.53751">
        <ele>52.294861</ele>
        <time>2022-12-16T11:39:31.925Z</time>
      </trkpt>
      <trkpt lat="47.4355" lon="-1.53742">
        <ele>52.183778</ele>
        <time>2022-12-16T11:39:34.915Z</time>
      </trkpt>
      <trkpt lat="47.43539" lon="-1.53732">
        <ele>52.07163</ele>
        <time>2022-12-16T11:39:37.898Z</time>
      </trkpt>
      <trkpt lat="47.4353" lon="-1.5372">
        <ele>51.963767</ele>
        <time>2022-12-16T11:39:40.896Z</time>
      </trkpt>
      <trkpt lat="47.43521" lon="-1.5371">
        <ele>51.930684</ele>
        <time>2022-12-16T11:39:43.899Z</time>
      </trkpt>
      <trkpt lat="47.43513" lon="-1.53698">
        <ele>51.909767</ele>
        <time>2022-12-16T11:39:46.917Z</time>
      </trkpt>
      <trkpt lat="47.43503" lon="-1.53684">
        <ele>51.885681</ele>
        <time>2022-12-16T11:39:49.912Z</time>
      </trkpt>
      <trkpt lat="47.43495" lon="-1.53669">
        <ele>51.861019</ele>
        <time>2022-12-16T11:39:52.911Z</time>
      </trkpt>
      <trkpt lat="47.43488" lon="-1.53659">
        <ele>51.843764</ele>
        <time>2022-12-16T11:39:54.900Z</time>
      </trkpt>
      <trkpt lat="47.43482" lon="-1.53648">
        <ele>51.826505</ele>
        <time>2022-12-16T11:39:56.913Z</time>
      </trkpt>
      <trkpt lat="47.43477" lon="-1.53637">
        <ele>51.809859</ele>
        <time>2022-12-16T11:39:58.907Z</time>
      </trkpt>
      <trkpt lat="47.43472" lon="-1.53626">
        <ele>51.793535</ele>
        <time>2022-12-16T11:40:00.897Z</time>
      </trkpt>
      <trkpt lat="47.43465" lon="-1.53609">
        <ele>51.768712</ele>
        <time>2022-12-16T11:40:03.900Z</time>
      </trkpt>
      <trkpt lat="47.43459" lon="-1.53597">
        <ele>51.751562</ele>
        <time>2022-12-16T11:40:05.920Z</time>
      </trkpt>
      <trkpt lat="47.43454" lon="-1.53586">
        <ele>51.734529</ele>
        <time>2022-12-16T11:40:07.925Z</time>
      </trkpt>
      <trkpt lat="47.43449" lon="-1.53574">
        <ele>51.717164</ele>
        <time>2022-12-16T11:40:09.914Z</time>
      </trkpt>
      <trkpt lat="47.43442" lon="-1.53557">
        <ele>51.693454</ele>
        <time>2022-12-16T11:40:12.898Z</time>
      </trkpt>
      <trkpt lat="47.43436" lon="-1.53542">
        <ele>51.671316</ele>
        <time>2022-12-16T11:40:15.912Z</time>
      </trkpt>
      <trkpt lat="47.43429" lon="-1.53526">
        <ele>51.648055</ele>
        <time>2022-12-16T11:40:18.910Z</time>
      </trkpt>
      <trkpt lat="47.43422" lon="-1.5351">
        <ele>51.623967</ele>
        <time>2022-12-16T11:40:21.920Z</time>
      </trkpt>
      <trkpt lat="47.43415" lon="-1.53493">
        <ele>51.63447</ele>
        <time>2022-12-16T11:40:24.916Z</time>
      </trkpt>
      <trkpt lat="47.43411" lon="-1.53481">
        <ele>51.644113</ele>
        <time>2022-12-16T11:40:26.904Z</time>
      </trkpt>
      <trkpt lat="47.43406" lon="-1.53469">
        <ele>51.653598</ele>
        <time>2022-12-16T11:40:28.918Z</time>
      </trkpt>
      <trkpt lat="47.43402" lon="-1.53452">
        <ele>51.666101</ele>
        <time>2022-12-16T11:40:31.900Z</time>
      </trkpt>
      <trkpt lat="47.43399" lon="-1.53436">
        <ele>51.677807</ele>
        <time>2022-12-16T11:40:34.914Z</time>
      </trkpt>
      <trkpt lat="47.43396" lon="-1.53422">
        <ele>51.687904</ele>
        <time>2022-12-16T11:40:37.920Z</time>
      </trkpt>
      <trkpt lat="47.43394" lon="-1.53405">
        <ele>51.700641</ele>
        <time>2022-12-16T11:40:40.901Z</time>
      </trkpt>
      <trkpt lat="47.43393" lon="-1.53386">
        <ele>51.713661</ele>
        <time>2022-12-16T11:40:43.918Z</time>
      </trkpt>
      <trkpt lat="47.43392" lon="-1.53366">
        <ele>51.727645</ele>
        <time>2022-12-16T11:40:46.901Z</time>
      </trkpt>
      <trkpt lat="47.43392" lon="-1.53346">
        <ele>51.741616</ele>
        <time>2022-12-16T11:40:49.915Z</time>
      </trkpt>
      <trkpt lat="47.43393" lon="-1.53333">
        <ele>51.751069</ele>
        <time>2022-12-16T11:40:51.916Z</time>
      </trkpt>
      <trkpt lat="47.43394" lon="-1.53319">
        <ele>51.760621</ele>
        <time>2022-12-16T11:40:53.922Z</time>
      </trkpt>
      <trkpt lat="47.43395" lon="-1.53301">
        <ele>51.773818</ele>
        <time>2022-12-16T11:40:56.915Z</time>
      </trkpt>
      <trkpt lat="47.43396" lon="-1.53285">
        <ele>51.785119</ele>
        <time>2022-12-16T11:40:59.905Z</time>
      </trkpt>
      <trkpt lat="47.43397" lon="-1.53268">
        <ele>51.797187</ele>
        <time>2022-12-16T11:41:02.908Z</time>
      </trkpt>
      <trkpt lat="47.43398" lon="-1.5325">
        <ele>51.809575</ele>
        <time>2022-12-16T11:41:05.900Z</time>
      </trkpt>
      <trkpt lat="47.434" lon="-1.53231">
        <ele>51.819552</ele>
        <time>2022-12-16T11:41:08.916Z</time>
      </trkpt>
      <trkpt lat="47.43402" lon="-1.53213">
        <ele>51.829411</ele>
        <time>2022-12-16T11:41:11.904Z</time>
      </trkpt>
      <trkpt lat="47.43403" lon="-1.532">
        <ele>51.836613</ele>
        <time>2022-12-16T11:41:13.921Z</time>
      </trkpt>
      <trkpt lat="47.43404" lon="-1.53186">
        <ele>51.843786</ele>
        <time>2022-12-16T11:41:15.916Z</time>
      </trkpt>
      <trkpt lat="47.43405" lon="-1.53167">
        <ele>51.85411</ele>
        <time>2022-12-16T11:41:18.919Z</time>
      </trkpt>
      <trkpt lat="47.43407" lon="-1.53147">
        <ele>51.864768</ele>
        <time>2022-12-16T11:41:21.917Z</time>
      </trkpt>
      <trkpt lat="47.43409" lon="-1.5313">
        <ele>51.87429</ele>
        <time>2022-12-16T11:41:24.899Z</time>
      </trkpt>
      <trkpt lat="47.43411" lon="-1.53113">
        <ele>51.883585</ele>
        <time>2022-12-16T11:41:27.917Z</time>
      </trkpt>
      <trkpt lat="47.43413" lon="-1.53095">
        <ele>51.893074</ele>
        <time>2022-12-16T11:41:30.902Z</time>
      </trkpt>
      <trkpt lat="47.43414" lon="-1.53076">
        <ele>51.903536</ele>
        <time>2022-12-16T11:41:33.924Z</time>
      </trkpt>
      <trkpt lat="47.43415" lon="-1.53062">
        <ele>51.910891</ele>
        <time>2022-12-16T11:41:35.918Z</time>
      </trkpt>
      <trkpt lat="47.43417" lon="-1.53042">
        <ele>51.921703</ele>
        <time>2022-12-16T11:41:38.919Z</time>
      </trkpt>
      <trkpt lat="47.43417" lon="-1.53024">
        <ele>51.931182</ele>
        <time>2022-12-16T11:41:41.918Z</time>
      </trkpt>
      <trkpt lat="47.43417" lon="-1.53007">
        <ele>51.940551</ele>
        <time>2022-12-16T11:41:44.903Z</time>
      </trkpt>
      <trkpt lat="47.43417" lon="-1.52992">
        <ele>51.948581</ele>
        <time>2022-12-16T11:41:47.918Z</time>
      </trkpt>
      <trkpt lat="47.43417" lon="-1.52976">
        <ele>52.007632</ele>
        <time>2022-12-16T11:41:50.904Z</time>
      </trkpt>
      <trkpt lat="47.43415" lon="-1.52958">
        <ele>52.101129</ele>
        <time>2022-12-16T11:41:53.900Z</time>
      </trkpt>
      <trkpt lat="47.43411" lon="-1.5294">
        <ele>52.196574</ele>
        <time>2022-12-16T11:41:56.922Z</time>
      </trkpt>
      <trkpt lat="47.43406" lon="-1.52922">
        <ele>52.295771</ele>
        <time>2022-12-16T11:41:59.900Z</time>
      </trkpt>
      <trkpt lat="47.434" lon="-1.52905">
        <ele>52.393842</ele>
        <time>2022-12-16T11:42:02.900Z</time>
      </trkpt>
      <trkpt lat="47.43392" lon="-1.52889">
        <ele>52.490473</ele>
        <time>2022-12-16T11:42:05.900Z</time>
      </trkpt>
      <trkpt lat="47.43383" lon="-1.52876">
        <ele>52.585295</ele>
        <time>2022-12-16T11:42:08.906Z</time>
      </trkpt>
      <trkpt lat="47.43374" lon="-1.52865">
        <ele>52.67043</ele>
        <time>2022-12-16T11:42:11.916Z</time>
      </trkpt>
      <trkpt lat="47.43365" lon="-1.52856">
        <ele>52.757095</ele>
        <time>2022-12-16T11:42:14.917Z</time>
      </trkpt>
      <trkpt lat="47.43353" lon="-1.52847">
        <ele>52.853814</ele>
        <time>2022-12-16T11:42:17.917Z</time>
      </trkpt>
      <trkpt lat="47.43342" lon="-1.5284">
        <ele>52.947159</ele>
        <time>2022-12-16T11:42:20.900Z</time>
      </trkpt>
      <trkpt lat="47.4333" lon="-1.52833">
        <ele>53.040131</ele>
        <time>2022-12-16T11:42:23.911Z</time>
      </trkpt>
      <trkpt lat="47.43317" lon="-1.52828">
        <ele>53.137394</ele>
        <time>2022-12-16T11:42:26.907Z</time>
      </trkpt>
      <trkpt lat="47.43305" lon="-1.52825">
        <ele>53.233328</ele>
        <time>2022-12-16T11:42:29.920Z</time>
      </trkpt>
      <trkpt lat="47.43293" lon="-1.52823">
        <ele>53.312264</ele>
        <time>2022-12-16T11:42:32.917Z</time>
      </trkpt>
      <trkpt lat="47.43282" lon="-1.5282">
        <ele>53.368255</ele>
        <time>2022-12-16T11:42:35.916Z</time>
      </trkpt>
      <trkpt lat="47.43271" lon="-1.52818">
        <ele>53.423146</ele>
        <time>2022-12-16T11:42:38.922Z</time>
      </trkpt>
      <trkpt lat="47.43261" lon="-1.52817">
        <ele>53.478802</ele>
        <time>2022-12-16T11:42:41.908Z</time>
      </trkpt>
      <trkpt lat="47.4325" lon="-1.52816">
        <ele>53.530938</ele>
        <time>2022-12-16T11:42:44.920Z</time>
      </trkpt>
      <trkpt lat="47.43241" lon="-1.52815">
        <ele>53.579919</ele>
        <time>2022-12-16T11:42:47.921Z</time>
      </trkpt>
      <trkpt lat="47.4323" lon="-1.52814">
        <ele>53.636938</ele>
        <time>2022-12-16T11:42:51.920Z</time>
      </trkpt>
      <trkpt lat="47.43218" lon="-1.52813">
        <ele>53.694552</ele>
        <time>2022-12-16T11:42:55.913Z</time>
      </trkpt>
      <trkpt lat="47.43207" lon="-1.52813">
        <ele>53.750032</ele>
        <time>2022-12-16T11:42:59.922Z</time>
      </trkpt>
      <trkpt lat="47.43197" lon="-1.52816">
        <ele>53.801148</ele>
        <time>2022-12-16T11:43:04.921Z</time>
      </trkpt>
      <trkpt lat="47.43188" lon="-1.52819">
        <ele>53.852514</ele>
        <time>2022-12-16T11:43:09.902Z</time>
      </trkpt>
      <trkpt lat="47.43178" lon="-1.52823">
        <ele>53.901809</ele>
        <time>2022-12-16T11:43:14.903Z</time>
      </trkpt>
      <trkpt lat="47.43168" lon="-1.52828">
        <ele>53.955758</ele>
        <time>2022-12-16T11:43:19.907Z</time>
      </trkpt>
      <trkpt lat="47.43159" lon="-1.52834">
        <ele>54.008411</ele>
        <time>2022-12-16T11:43:37.901Z</time>
      </trkpt>
      <trkpt lat="47.4315" lon="-1.52841">
        <ele>54.061073</ele>
        <time>2022-12-16T11:43:43.900Z</time>
      </trkpt>
      <trkpt lat="47.4314" lon="-1.52851">
        <ele>54.121484</ele>
        <time>2022-12-16T11:43:46.906Z</time>
      </trkpt>
      <trkpt lat="47.43131" lon="-1.5286">
        <ele>54.176786</ele>
        <time>2022-12-16T11:43:48.914Z</time>
      </trkpt>
      <trkpt lat="47.43122" lon="-1.52871">
        <ele>54.17201</ele>
        <time>2022-12-16T11:43:50.901Z</time>
      </trkpt>
      <trkpt lat="47.43114" lon="-1.52884">
        <ele>54.096872</ele>
        <time>2022-12-16T11:43:52.906Z</time>
      </trkpt>
      <trkpt lat="47.43107" lon="-1.52895">
        <ele>54.026595</ele>
        <time>2022-12-16T11:43:54.900Z</time>
      </trkpt>
      <trkpt lat="47.43101" lon="-1.52907">
        <ele>53.962794</ele>
        <time>2022-12-16T11:43:56.919Z</time>
      </trkpt>
      <trkpt lat="47.43094" lon="-1.52922">
        <ele>53.877841</ele>
        <time>2022-12-16T11:43:59.899Z</time>
      </trkpt>
      <trkpt lat="47.43086" lon="-1.52938">
        <ele>53.789547</ele>
        <time>2022-12-16T11:44:02.906Z</time>
      </trkpt>
      <trkpt lat="47.43079" lon="-1.52953">
        <ele>53.710932</ele>
        <time>2022-12-16T11:44:05.907Z</time>
      </trkpt>
      <trkpt lat="47.43071" lon="-1.52967">
        <ele>53.628343</ele>
        <time>2022-12-16T11:44:08.919Z</time>
      </trkpt>
      <trkpt lat="47.43063" lon="-1.52981">
        <ele>53.54789</ele>
        <time>2022-12-16T11:44:11.916Z</time>
      </trkpt>
      <trkpt lat="47.43054" lon="-1.52994">
        <ele>53.461628</ele>
        <time>2022-12-16T11:44:14.920Z</time>
      </trkpt>
      <trkpt lat="47.43047" lon="-1.53003">
        <ele>53.400524</ele>
        <time>2022-12-16T11:44:16.920Z</time>
      </trkpt>
      <trkpt lat="47.43037" lon="-1.53014">
        <ele>53.317715</ele>
        <time>2022-12-16T11:44:19.916Z</time>
      </trkpt>
      <trkpt lat="47.43026" lon="-1.53024">
        <ele>53.232252</ele>
        <time>2022-12-16T11:44:22.901Z</time>
      </trkpt>
      <trkpt lat="47.43014" lon="-1.53033">
        <ele>53.144783</ele>
        <time>2022-12-16T11:44:25.902Z</time>
      </trkpt>
      <trkpt lat="47.43003" lon="-1.5304">
        <ele>53.061081</ele>
        <time>2022-12-16T11:44:28.903Z</time>
      </trkpt>
      <trkpt lat="47.4299" lon="-1.53044">
        <ele>52.923844</ele>
        <time>2022-12-16T11:44:31.901Z</time>
      </trkpt>
      <trkpt lat="47.42979" lon="-1.53049">
        <ele>52.746872</ele>
        <time>2022-12-16T11:44:34.918Z</time>
      </trkpt>
      <trkpt lat="47.42968" lon="-1.53052">
        <ele>52.580457</ele>
        <time>2022-12-16T11:44:37.904Z</time>
      </trkpt>
      <trkpt lat="47.42956" lon="-1.53055">
        <ele>52.412895</ele>
        <time>2022-12-16T11:44:40.899Z</time>
      </trkpt>
      <trkpt lat="47.42944" lon="-1.53056">
        <ele>52.229653</ele>
        <time>2022-12-16T11:44:43.904Z</time>
      </trkpt>
      <trkpt lat="47.42931" lon="-1.53055">
        <ele>52.04206</ele>
        <time>2022-12-16T11:44:46.899Z</time>
      </trkpt>
      <trkpt lat="47.42919" lon="-1.53054">
        <ele>51.858663</ele>
        <time>2022-12-16T11:44:49.915Z</time>
      </trkpt>
      <trkpt lat="47.42907" lon="-1.53054">
        <ele>51.687263</ele>
        <time>2022-12-16T11:44:52.916Z</time>
      </trkpt>
      <trkpt lat="47.42896" lon="-1.53053">
        <ele>51.512708</ele>
        <time>2022-12-16T11:44:55.918Z</time>
      </trkpt>
      <trkpt lat="47.42883" lon="-1.53052">
        <ele>51.326556</ele>
        <time>2022-12-16T11:44:58.917Z</time>
      </trkpt>
      <trkpt lat="47.4287" lon="-1.53051">
        <ele>51.137369</ele>
        <time>2022-12-16T11:45:01.911Z</time>
      </trkpt>
      <trkpt lat="47.42857" lon="-1.53049">
        <ele>50.944859</ele>
        <time>2022-12-16T11:45:04.926Z</time>
      </trkpt>
      <trkpt lat="47.42844" lon="-1.53048">
        <ele>50.754093</ele>
        <time>2022-12-16T11:45:07.922Z</time>
      </trkpt>
      <trkpt lat="47.42831" lon="-1.53047">
        <ele>50.561417</ele>
        <time>2022-12-16T11:45:10.901Z</time>
      </trkpt>
      <trkpt lat="47.42819" lon="-1.53046">
        <ele>50.37683</ele>
        <time>2022-12-16T11:45:13.918Z</time>
      </trkpt>
      <trkpt lat="47.42807" lon="-1.53047">
        <ele>50.256226</ele>
        <time>2022-12-16T11:45:16.918Z</time>
      </trkpt>
      <trkpt lat="47.42794" lon="-1.53048">
        <ele>50.13325</ele>
        <time>2022-12-16T11:45:19.905Z</time>
      </trkpt>
      <trkpt lat="47.42782" lon="-1.5305">
        <ele>50.011568</ele>
        <time>2022-12-16T11:45:22.919Z</time>
      </trkpt>
      <trkpt lat="47.42769" lon="-1.53054">
        <ele>49.889766</ele>
        <time>2022-12-16T11:45:25.909Z</time>
      </trkpt>
      <trkpt lat="47.42755" lon="-1.53059">
        <ele>49.752965</ele>
        <time>2022-12-16T11:45:28.909Z</time>
      </trkpt>
      <trkpt lat="47.42746" lon="-1.53063">
        <ele>49.661197</ele>
        <time>2022-12-16T11:45:30.902Z</time>
      </trkpt>
      <trkpt lat="47.42734" lon="-1.53067">
        <ele>49.543476</ele>
        <time>2022-12-16T11:45:33.907Z</time>
      </trkpt>
      <trkpt lat="47.42724" lon="-1.53073">
        <ele>49.433383</ele>
        <time>2022-12-16T11:45:36.914Z</time>
      </trkpt>
      <trkpt lat="47.42714" lon="-1.53079">
        <ele>49.329772</ele>
        <time>2022-12-16T11:45:39.900Z</time>
      </trkpt>
      <trkpt lat="47.42703" lon="-1.53087">
        <ele>49.20902</ele>
        <time>2022-12-16T11:45:42.915Z</time>
      </trkpt>
      <trkpt lat="47.42691" lon="-1.53097">
        <ele>49.079611</ele>
        <time>2022-12-16T11:45:45.916Z</time>
      </trkpt>
      <trkpt lat="47.42683" lon="-1.53104">
        <ele>48.989727</ele>
        <time>2022-12-16T11:45:47.919Z</time>
      </trkpt>
      <trkpt lat="47.42675" lon="-1.53111">
        <ele>48.899922</ele>
        <time>2022-12-16T11:45:49.917Z</time>
      </trkpt>
      <trkpt lat="47.42664" lon="-1.53122">
        <ele>48.767437</ele>
        <time>2022-12-16T11:45:52.920Z</time>
      </trkpt>
      <trkpt lat="47.42656" lon="-1.53131">
        <ele>48.676852</ele>
        <time>2022-12-16T11:45:54.904Z</time>
      </trkpt>
      <trkpt lat="47.42649" lon="-1.5314">
        <ele>48.729936</ele>
        <time>2022-12-16T11:45:56.913Z</time>
      </trkpt>
      <trkpt lat="47.42642" lon="-1.53149">
        <ele>48.968408</ele>
        <time>2022-12-16T11:45:58.914Z</time>
      </trkpt>
      <trkpt lat="47.42635" lon="-1.5316">
        <ele>49.227678</ele>
        <time>2022-12-16T11:46:00.899Z</time>
      </trkpt>
      <trkpt lat="47.42628" lon="-1.53168">
        <ele>49.456741</ele>
        <time>2022-12-16T11:46:02.904Z</time>
      </trkpt>
      <trkpt lat="47.42621" lon="-1.53178">
        <ele>49.69374</ele>
        <time>2022-12-16T11:46:04.917Z</time>
      </trkpt>
      <trkpt lat="47.42612" lon="-1.53191">
        <ele>50.019385</ele>
        <time>2022-12-16T11:46:07.918Z</time>
      </trkpt>
      <trkpt lat="47.42603" lon="-1.53203">
        <ele>50.309624</ele>
        <time>2022-12-16T11:46:10.899Z</time>
      </trkpt>
      <trkpt lat="47.42596" lon="-1.53213">
        <ele>50.569888</ele>
        <time>2022-12-16T11:46:13.919Z</time>
      </trkpt>
      <trkpt lat="47.42588" lon="-1.53222">
        <ele>50.817719</ele>
        <time>2022-12-16T11:46:16.923Z</time>
      </trkpt>
      <trkpt lat="47.4258" lon="-1.53233">
        <ele>51.098137</ele>
        <time>2022-12-16T11:46:19.914Z</time>
      </trkpt>
      <trkpt lat="47.42571" lon="-1.53244">
        <ele>51.4022</ele>
        <time>2022-12-16T11:46:22.920Z</time>
      </trkpt>
      <trkpt lat="47.4256" lon="-1.53255">
        <ele>51.72259</ele>
        <time>2022-12-16T11:46:25.908Z</time>
      </trkpt>
      <trkpt lat="47.42552" lon="-1.53262">
        <ele>51.956999</ele>
        <time>2022-12-16T11:46:27.918Z</time>
      </trkpt>
      <trkpt lat="47.42544" lon="-1.53268">
        <ele>52.196398</ele>
        <time>2022-12-16T11:46:29.902Z</time>
      </trkpt>
      <trkpt lat="47.42535" lon="-1.53274">
        <ele>52.434443</ele>
        <time>2022-12-16T11:46:31.921Z</time>
      </trkpt>
      <trkpt lat="47.42526" lon="-1.53278">
        <ele>52.661148</ele>
        <time>2022-12-16T11:46:33.917Z</time>
      </trkpt>
      <trkpt lat="47.42517" lon="-1.53283">
        <ele>52.915247</ele>
        <time>2022-12-16T11:46:35.922Z</time>
      </trkpt>
      <trkpt lat="47.42508" lon="-1.53285">
        <ele>53.15063</ele>
        <time>2022-12-16T11:46:37.919Z</time>
      </trkpt>
      <trkpt lat="47.42495" lon="-1.5329">
        <ele>53.050682</ele>
        <time>2022-12-16T11:46:40.899Z</time>
      </trkpt>
      <trkpt lat="47.42482" lon="-1.53294">
        <ele>52.93136</ele>
        <time>2022-12-16T11:46:43.922Z</time>
      </trkpt>
      <trkpt lat="47.42471" lon="-1.53297">
        <ele>52.827146</ele>
        <time>2022-12-16T11:46:46.916Z</time>
      </trkpt>
      <trkpt lat="47.42458" lon="-1.53302">
        <ele>52.7035</ele>
        <time>2022-12-16T11:46:49.912Z</time>
      </trkpt>
      <trkpt lat="47.42444" lon="-1.53306">
        <ele>52.576572</ele>
        <time>2022-12-16T11:46:52.920Z</time>
      </trkpt>
      <trkpt lat="47.42436" lon="-1.5331">
        <ele>52.491018</ele>
        <time>2022-12-16T11:46:54.900Z</time>
      </trkpt>
      <trkpt lat="47.42423" lon="-1.53314">
        <ele>52.373403</ele>
        <time>2022-12-16T11:46:57.905Z</time>
      </trkpt>
      <trkpt lat="47.42413" lon="-1.53317">
        <ele>52.279715</ele>
        <time>2022-12-16T11:46:59.906Z</time>
      </trkpt>
      <trkpt lat="47.42403" lon="-1.53319">
        <ele>52.186345</ele>
        <time>2022-12-16T11:47:01.900Z</time>
      </trkpt>
      <trkpt lat="47.42393" lon="-1.53321">
        <ele>52.095993</ele>
        <time>2022-12-16T11:47:03.916Z</time>
      </trkpt>
      <trkpt lat="47.42383" lon="-1.53326">
        <ele>51.997146</ele>
        <time>2022-12-16T11:47:05.919Z</time>
      </trkpt>
      <trkpt lat="47.42373" lon="-1.53329">
        <ele>51.905812</ele>
        <time>2022-12-16T11:47:07.915Z</time>
      </trkpt>
      <trkpt lat="47.42364" lon="-1.53332">
        <ele>51.818083</ele>
        <time>2022-12-16T11:47:09.917Z</time>
      </trkpt>
      <trkpt lat="47.42352" lon="-1.53335">
        <ele>51.705811</ele>
        <time>2022-12-16T11:47:12.930Z</time>
      </trkpt>
      <trkpt lat="47.42343" lon="-1.53339">
        <ele>51.619305</ele>
        <time>2022-12-16T11:47:14.917Z</time>
      </trkpt>
      <trkpt lat="47.4233" lon="-1.53342">
        <ele>51.503349</ele>
        <time>2022-12-16T11:47:17.921Z</time>
      </trkpt>
      <trkpt lat="47.42321" lon="-1.53346">
        <ele>51.459556</ele>
        <time>2022-12-16T11:47:19.897Z</time>
      </trkpt>
      <trkpt lat="47.42313" lon="-1.53351">
        <ele>51.41733</ele>
        <time>2022-12-16T11:47:21.916Z</time>
      </trkpt>
      <trkpt lat="47.42303" lon="-1.53355">
        <ele>51.371916</ele>
        <time>2022-12-16T11:47:23.919Z</time>
      </trkpt>
      <trkpt lat="47.42293" lon="-1.53361">
        <ele>51.318245</ele>
        <time>2022-12-16T11:47:25.920Z</time>
      </trkpt>
      <trkpt lat="47.42284" lon="-1.53365">
        <ele>51.274186</ele>
        <time>2022-12-16T11:47:27.920Z</time>
      </trkpt>
      <trkpt lat="47.42275" lon="-1.5337">
        <ele>51.231403</ele>
        <time>2022-12-16T11:47:29.920Z</time>
      </trkpt>
      <trkpt lat="47.42264" lon="-1.53377">
        <ele>51.173098</ele>
        <time>2022-12-16T11:47:32.923Z</time>
      </trkpt>
      <trkpt lat="47.42255" lon="-1.53382">
        <ele>51.130352</ele>
        <time>2022-12-16T11:47:34.910Z</time>
      </trkpt>
      <trkpt lat="47.42243" lon="-1.53389">
        <ele>51.067766</ele>
        <time>2022-12-16T11:47:37.920Z</time>
      </trkpt>
      <trkpt lat="47.42234" lon="-1.53395">
        <ele>51.024176</ele>
        <time>2022-12-16T11:47:39.914Z</time>
      </trkpt>
      <trkpt lat="47.42222" lon="-1.53401">
        <ele>50.963571</ele>
        <time>2022-12-16T11:47:42.908Z</time>
      </trkpt>
      <trkpt lat="47.42213" lon="-1.53407">
        <ele>50.915038</ele>
        <time>2022-12-16T11:47:45.913Z</time>
      </trkpt>
      <trkpt lat="47.42204" lon="-1.53413">
        <ele>50.87051</ele>
        <time>2022-12-16T11:47:48.916Z</time>
      </trkpt>
      <trkpt lat="47.42195" lon="-1.53417">
        <ele>50.824729</ele>
        <time>2022-12-16T11:47:51.900Z</time>
      </trkpt>
      <trkpt lat="47.42184" lon="-1.53423">
        <ele>50.76963</ele>
        <time>2022-12-16T11:47:54.910Z</time>
      </trkpt>
      <trkpt lat="47.42172" lon="-1.53428">
        <ele>50.711555</ele>
        <time>2022-12-16T11:47:57.918Z</time>
      </trkpt>
      <trkpt lat="47.42164" lon="-1.53435">
        <ele>50.666715</ele>
        <time>2022-12-16T11:47:59.898Z</time>
      </trkpt>
      <trkpt lat="47.42152" lon="-1.53442">
        <ele>50.835981</ele>
        <time>2022-12-16T11:48:02.900Z</time>
      </trkpt>
      <trkpt lat="47.42143" lon="-1.53448">
        <ele>50.9632</ele>
        <time>2022-12-16T11:48:04.915Z</time>
      </trkpt>
      <trkpt lat="47.42134" lon="-1.53453">
        <ele>51.089033</ele>
        <time>2022-12-16T11:48:06.919Z</time>
      </trkpt>
      <trkpt lat="47.42122" lon="-1.5346">
        <ele>51.270332</ele>
        <time>2022-12-16T11:48:09.920Z</time>
      </trkpt>
      <trkpt lat="47.42113" lon="-1.53465">
        <ele>51.398971</ele>
        <time>2022-12-16T11:48:11.916Z</time>
      </trkpt>
      <trkpt lat="47.42104" lon="-1.53469">
        <ele>51.525084</ele>
        <time>2022-12-16T11:48:13.908Z</time>
      </trkpt>
      <trkpt lat="47.42094" lon="-1.53476">
        <ele>51.674239</ele>
        <time>2022-12-16T11:48:15.915Z</time>
      </trkpt>
      <trkpt lat="47.42085" lon="-1.53482">
        <ele>51.806767</ele>
        <time>2022-12-16T11:48:17.906Z</time>
      </trkpt>
      <trkpt lat="47.42076" lon="-1.53487">
        <ele>51.935104</ele>
        <time>2022-12-16T11:48:19.921Z</time>
      </trkpt>
      <trkpt lat="47.42064" lon="-1.53495">
        <ele>52.109035</ele>
        <time>2022-12-16T11:48:22.917Z</time>
      </trkpt>
      <trkpt lat="47.42053" lon="-1.53501">
        <ele>52.269341</ele>
        <time>2022-12-16T11:48:25.908Z</time>
      </trkpt>
      <trkpt lat="47.42042" lon="-1.53508">
        <ele>52.427529</ele>
        <time>2022-12-16T11:48:28.918Z</time>
      </trkpt>
      <trkpt lat="47.42031" lon="-1.53515">
        <ele>52.594637</ele>
        <time>2022-12-16T11:48:31.918Z</time>
      </trkpt>
      <trkpt lat="47.42018" lon="-1.53521">
        <ele>52.773765</ele>
        <time>2022-12-16T11:48:34.908Z</time>
      </trkpt>
      <trkpt lat="47.42009" lon="-1.53527">
        <ele>52.910932</ele>
        <time>2022-12-16T11:48:36.918Z</time>
      </trkpt>
      <trkpt lat="47.42" lon="-1.53533">
        <ele>53.040281</ele>
        <time>2022-12-16T11:48:38.914Z</time>
      </trkpt>
      <trkpt lat="47.4199" lon="-1.53538">
        <ele>52.998903</ele>
        <time>2022-12-16T11:48:40.905Z</time>
      </trkpt>
      <trkpt lat="47.41982" lon="-1.53544">
        <ele>52.884853</ele>
        <time>2022-12-16T11:48:42.909Z</time>
      </trkpt>
      <trkpt lat="47.4197" lon="-1.53551">
        <ele>52.718532</ele>
        <time>2022-12-16T11:48:45.918Z</time>
      </trkpt>
      <trkpt lat="47.41959" lon="-1.53558">
        <ele>52.570134</ele>
        <time>2022-12-16T11:48:48.920Z</time>
      </trkpt>
      <trkpt lat="47.41949" lon="-1.53565">
        <ele>52.429913</ele>
        <time>2022-12-16T11:48:51.920Z</time>
      </trkpt>
      <trkpt lat="47.41939" lon="-1.53571">
        <ele>52.295005</ele>
        <time>2022-12-16T11:48:54.899Z</time>
      </trkpt>
      <trkpt lat="47.41929" lon="-1.53577">
        <ele>52.165366</ele>
        <time>2022-12-16T11:48:56.899Z</time>
      </trkpt>
      <trkpt lat="47.41917" lon="-1.53583">
        <ele>52.009993</ele>
        <time>2022-12-16T11:48:58.911Z</time>
      </trkpt>
      <trkpt lat="47.41906" lon="-1.5359">
        <ele>51.855785</ele>
        <time>2022-12-16T11:49:00.901Z</time>
      </trkpt>
      <trkpt lat="47.41895" lon="-1.53596">
        <ele>51.715962</ele>
        <time>2022-12-16T11:49:02.913Z</time>
      </trkpt>
      <trkpt lat="47.41885" lon="-1.53601">
        <ele>51.578776</ele>
        <time>2022-12-16T11:49:04.923Z</time>
      </trkpt>
      <trkpt lat="47.41875" lon="-1.53605">
        <ele>51.442435</ele>
        <time>2022-12-16T11:49:06.906Z</time>
      </trkpt>
      <trkpt lat="47.41864" lon="-1.53608">
        <ele>51.311821</ele>
        <time>2022-12-16T11:49:08.900Z</time>
      </trkpt>
      <trkpt lat="47.41855" lon="-1.53608">
        <ele>51.190465</ele>
        <time>2022-12-16T11:49:10.907Z</time>
      </trkpt>
      <trkpt lat="47.41841" lon="-1.53607">
        <ele>51.021104</ele>
        <time>2022-12-16T11:49:13.919Z</time>
      </trkpt>
      <trkpt lat="47.41829" lon="-1.53603">
        <ele>50.861234</ele>
        <time>2022-12-16T11:49:16.915Z</time>
      </trkpt>
      <trkpt lat="47.41817" lon="-1.53597">
        <ele>50.778602</ele>
        <time>2022-12-16T11:49:19.915Z</time>
      </trkpt>
      <trkpt lat="47.41804" lon="-1.5359">
        <ele>50.700942</ele>
        <time>2022-12-16T11:49:22.923Z</time>
      </trkpt>
      <trkpt lat="47.41795" lon="-1.53585">
        <ele>50.647713</ele>
        <time>2022-12-16T11:49:24.919Z</time>
      </trkpt>
      <trkpt lat="47.41783" lon="-1.53577">
        <ele>50.571815</ele>
        <time>2022-12-16T11:49:27.915Z</time>
      </trkpt>
      <trkpt lat="47.41774" lon="-1.53571">
        <ele>50.516518</ele>
        <time>2022-12-16T11:49:29.909Z</time>
      </trkpt>
      <trkpt lat="47.41765" lon="-1.53567">
        <ele>50.46157</ele>
        <time>2022-12-16T11:49:31.916Z</time>
      </trkpt>
      <trkpt lat="47.41756" lon="-1.53561">
        <ele>50.408194</ele>
        <time>2022-12-16T11:49:33.919Z</time>
      </trkpt>
      <trkpt lat="47.41747" lon="-1.53556">
        <ele>50.352897</ele>
        <time>2022-12-16T11:49:35.924Z</time>
      </trkpt>
      <trkpt lat="47.41738" lon="-1.5355">
        <ele>50.297751</ele>
        <time>2022-12-16T11:49:37.913Z</time>
      </trkpt>
      <trkpt lat="47.41729" lon="-1.53544">
        <ele>50.241475</ele>
        <time>2022-12-16T11:49:39.908Z</time>
      </trkpt>
      <trkpt lat="47.4172" lon="-1.53538">
        <ele>50.188235</ele>
        <time>2022-12-16T11:49:41.912Z</time>
      </trkpt>
      <trkpt lat="47.41711" lon="-1.53533">
        <ele>50.134084</ele>
        <time>2022-12-16T11:49:43.922Z</time>
      </trkpt>
      <trkpt lat="47.41703" lon="-1.53527">
        <ele>50.082185</ele>
        <time>2022-12-16T11:49:45.920Z</time>
      </trkpt>
      <trkpt lat="47.41694" lon="-1.53522">
        <ele>50.030894</ele>
        <time>2022-12-16T11:49:47.908Z</time>
      </trkpt>
      <trkpt lat="47.41682" lon="-1.53515">
        <ele>49.95477</ele>
        <time>2022-12-16T11:49:50.903Z</time>
      </trkpt>
      <trkpt lat="47.4167" lon="-1.53508">
        <ele>49.883537</ele>
        <time>2022-12-16T11:49:53.905Z</time>
      </trkpt>
      <trkpt lat="47.41658" lon="-1.535">
        <ele>49.823321</ele>
        <time>2022-12-16T11:49:56.917Z</time>
      </trkpt>
      <trkpt lat="47.41647" lon="-1.53495">
        <ele>49.82552</ele>
        <time>2022-12-16T11:49:59.917Z</time>
      </trkpt>
      <trkpt lat="47.41636" lon="-1.53487">
        <ele>49.827899</ele>
        <time>2022-12-16T11:50:02.903Z</time>
      </trkpt>
      <trkpt lat="47.41624" lon="-1.5348">
        <ele>49.830423</ele>
        <time>2022-12-16T11:50:05.909Z</time>
      </trkpt>
      <trkpt lat="47.41615" lon="-1.53475">
        <ele>49.832165</ele>
        <time>2022-12-16T11:50:07.905Z</time>
      </trkpt>
      <trkpt lat="47.41607" lon="-1.53471">
        <ele>49.833901</ele>
        <time>2022-12-16T11:50:09.919Z</time>
      </trkpt>
      <trkpt lat="47.41594" lon="-1.53464">
        <ele>49.836502</ele>
        <time>2022-12-16T11:50:12.913Z</time>
      </trkpt>
      <trkpt lat="47.41585" lon="-1.53461">
        <ele>49.838283</ele>
        <time>2022-12-16T11:50:14.926Z</time>
      </trkpt>
      <trkpt lat="47.41576" lon="-1.53458">
        <ele>49.84002</ele>
        <time>2022-12-16T11:50:16.920Z</time>
      </trkpt>
      <trkpt lat="47.41567" lon="-1.53456">
        <ele>49.841783</ele>
        <time>2022-12-16T11:50:18.917Z</time>
      </trkpt>
      <trkpt lat="47.41557" lon="-1.53453">
        <ele>49.843655</ele>
        <time>2022-12-16T11:50:20.901Z</time>
      </trkpt>
      <trkpt lat="47.41548" lon="-1.53452">
        <ele>49.845481</ele>
        <time>2022-12-16T11:50:22.903Z</time>
      </trkpt>
      <trkpt lat="47.41535" lon="-1.5345">
        <ele>49.84794</ele>
        <time>2022-12-16T11:50:25.924Z</time>
      </trkpt>
      <trkpt lat="47.41524" lon="-1.53448">
        <ele>49.85003</ele>
        <time>2022-12-16T11:50:28.926Z</time>
      </trkpt>
      <trkpt lat="47.41512" lon="-1.53447">
        <ele>49.852363</ele>
        <time>2022-12-16T11:50:31.920Z</time>
      </trkpt>
      <trkpt lat="47.41499" lon="-1.53448">
        <ele>49.854865</ele>
        <time>2022-12-16T11:50:34.921Z</time>
      </trkpt>
      <trkpt lat="47.41485" lon="-1.5345">
        <ele>49.867546</ele>
        <time>2022-12-16T11:50:37.927Z</time>
      </trkpt>
      <trkpt lat="47.41472" lon="-1.53453">
        <ele>50.049357</ele>
        <time>2022-12-16T11:50:40.898Z</time>
      </trkpt>
      <trkpt lat="47.41463" lon="-1.53454">
        <ele>50.176008</ele>
        <time>2022-12-16T11:50:42.909Z</time>
      </trkpt>
      <trkpt lat="47.4145" lon="-1.53458">
        <ele>50.345825</ele>
        <time>2022-12-16T11:50:45.905Z</time>
      </trkpt>
      <trkpt lat="47.4144" lon="-1.53461">
        <ele>50.491734</ele>
        <time>2022-12-16T11:50:48.914Z</time>
      </trkpt>
      <trkpt lat="47.41429" lon="-1.53464">
        <ele>50.64275</ele>
        <time>2022-12-16T11:50:51.911Z</time>
      </trkpt>
      <trkpt lat="47.41418" lon="-1.53469">
        <ele>50.793744</ele>
        <time>2022-12-16T11:50:54.921Z</time>
      </trkpt>
      <trkpt lat="47.41406" lon="-1.53474">
        <ele>50.963316</ele>
        <time>2022-12-16T11:50:57.919Z</time>
      </trkpt>
      <trkpt lat="47.41393" lon="-1.53478">
        <ele>51.136017</ele>
        <time>2022-12-16T11:51:00.901Z</time>
      </trkpt>
      <trkpt lat="47.41381" lon="-1.53482">
        <ele>51.301657</ele>
        <time>2022-12-16T11:51:03.919Z</time>
      </trkpt>
      <trkpt lat="47.4137" lon="-1.53485">
        <ele>51.462004</ele>
        <time>2022-12-16T11:51:06.901Z</time>
      </trkpt>
      <trkpt lat="47.41359" lon="-1.53487">
        <ele>51.61095</ele>
        <time>2022-12-16T11:51:09.923Z</time>
      </trkpt>
      <trkpt lat="47.41348" lon="-1.53492">
        <ele>51.759138</ele>
        <time>2022-12-16T11:51:12.906Z</time>
      </trkpt>
      <trkpt lat="47.41337" lon="-1.53495">
        <ele>51.919191</ele>
        <time>2022-12-16T11:51:15.918Z</time>
      </trkpt>
      <trkpt lat="47.41328" lon="-1.53498">
        <ele>52.043574</ele>
        <time>2022-12-16T11:51:17.921Z</time>
      </trkpt>
      <trkpt lat="47.41315" lon="-1.53501">
        <ele>52.213706</ele>
        <time>2022-12-16T11:51:20.907Z</time>
      </trkpt>
      <trkpt lat="47.41303" lon="-1.53505">
        <ele>52.222203</ele>
        <time>2022-12-16T11:51:23.923Z</time>
      </trkpt>
      <trkpt lat="47.4129" lon="-1.5351">
        <ele>52.112651</ele>
        <time>2022-12-16T11:51:26.915Z</time>
      </trkpt>
      <trkpt lat="47.41278" lon="-1.53513">
        <ele>52.009407</ele>
        <time>2022-12-16T11:51:29.918Z</time>
      </trkpt>
      <trkpt lat="47.41266" lon="-1.53517">
        <ele>51.899449</ele>
        <time>2022-12-16T11:51:32.927Z</time>
      </trkpt>
      <trkpt lat="47.41253" lon="-1.53522">
        <ele>51.786042</ele>
        <time>2022-12-16T11:51:35.922Z</time>
      </trkpt>
      <trkpt lat="47.41244" lon="-1.53526">
        <ele>51.703482</ele>
        <time>2022-12-16T11:51:37.908Z</time>
      </trkpt>
      <trkpt lat="47.41231" lon="-1.53529">
        <ele>51.588415</ele>
        <time>2022-12-16T11:51:40.901Z</time>
      </trkpt>
      <trkpt lat="47.41217" lon="-1.53532">
        <ele>51.46778</ele>
        <time>2022-12-16T11:51:43.924Z</time>
      </trkpt>
      <trkpt lat="47.41208" lon="-1.53536">
        <ele>51.386572</ele>
        <time>2022-12-16T11:51:45.934Z</time>
      </trkpt>
      <trkpt lat="47.41199" lon="-1.53539">
        <ele>51.306105</ele>
        <time>2022-12-16T11:51:47.930Z</time>
      </trkpt>
      <trkpt lat="47.41186" lon="-1.53543">
        <ele>51.199993</ele>
        <time>2022-12-16T11:51:50.902Z</time>
      </trkpt>
      <trkpt lat="47.41175" lon="-1.53546">
        <ele>51.103363</ele>
        <time>2022-12-16T11:51:53.925Z</time>
      </trkpt>
      <trkpt lat="47.41164" lon="-1.53548">
        <ele>51.001702</ele>
        <time>2022-12-16T11:51:56.922Z</time>
      </trkpt>
      <trkpt lat="47.41151" lon="-1.53548">
        <ele>50.890883</ele>
        <time>2022-12-16T11:51:59.922Z</time>
      </trkpt>
      <trkpt lat="47.41138" lon="-1.53547">
        <ele>50.783229</ele>
        <time>2022-12-16T11:52:02.907Z</time>
      </trkpt>
      <trkpt lat="47.41126" lon="-1.53543">
        <ele>50.801688</ele>
        <time>2022-12-16T11:52:05.906Z</time>
      </trkpt>
      <trkpt lat="47.41117" lon="-1.5354">
        <ele>50.878114</ele>
        <time>2022-12-16T11:52:07.918Z</time>
      </trkpt>
      <trkpt lat="47.41108" lon="-1.53536">
        <ele>50.952683</ele>
        <time>2022-12-16T11:52:09.912Z</time>
      </trkpt>
      <trkpt lat="47.411" lon="-1.53531">
        <ele>51.026189</ele>
        <time>2022-12-16T11:52:11.916Z</time>
      </trkpt>
      <trkpt lat="47.4109" lon="-1.53522">
        <ele>51.120328</ele>
        <time>2022-12-16T11:52:14.915Z</time>
      </trkpt>
      <trkpt lat="47.4108" lon="-1.53514">
        <ele>51.211814</ele>
        <time>2022-12-16T11:52:17.918Z</time>
      </trkpt>
      <trkpt lat="47.41072" lon="-1.53506">
        <ele>51.293603</ele>
        <time>2022-12-16T11:52:20.901Z</time>
      </trkpt>
      <trkpt lat="47.41064" lon="-1.53498">
        <ele>51.367622</ele>
        <time>2022-12-16T11:52:23.923Z</time>
      </trkpt>
      <trkpt lat="47.41056" lon="-1.53489">
        <ele>51.446773</ele>
        <time>2022-12-16T11:52:28.901Z</time>
      </trkpt>
      <trkpt lat="47.41049" lon="-1.53481">
        <ele>51.519808</ele>
        <time>2022-12-16T11:52:36.908Z</time>
      </trkpt>
      <trkpt lat="47.41042" lon="-1.53472">
        <ele>51.595217</ele>
        <time>2022-12-16T11:52:49.907Z</time>
      </trkpt>
      <trkpt lat="47.41034" lon="-1.53464">
        <ele>51.672735</ele>
        <time>2022-12-16T11:53:02.903Z</time>
      </trkpt>
      <trkpt lat="47.41024" lon="-1.53455">
        <ele>51.77133</ele>
        <time>2022-12-16T11:53:05.905Z</time>
      </trkpt>
      <trkpt lat="47.41015" lon="-1.53447">
        <ele>51.852113</ele>
        <time>2022-12-16T11:53:07.901Z</time>
      </trkpt>
      <trkpt lat="47.41006" lon="-1.53436">
        <ele>51.950477</ele>
        <time>2022-12-16T11:53:09.920Z</time>
      </trkpt>
      <trkpt lat="47.40995" lon="-1.53425">
        <ele>52.057962</ele>
        <time>2022-12-16T11:53:11.909Z</time>
      </trkpt>
      <trkpt lat="47.40985" lon="-1.53416">
        <ele>52.152926</ele>
        <time>2022-12-16T11:53:13.917Z</time>
      </trkpt>
      <trkpt lat="47.40975" lon="-1.53407">
        <ele>52.18548</ele>
        <time>2022-12-16T11:53:15.902Z</time>
      </trkpt>
      <trkpt lat="47.40966" lon="-1.53401">
        <ele>52.162827</ele>
        <time>2022-12-16T11:53:17.902Z</time>
      </trkpt>
      <trkpt lat="47.40957" lon="-1.53396">
        <ele>52.140379</ele>
        <time>2022-12-16T11:53:19.902Z</time>
      </trkpt>
      <trkpt lat="47.40945" lon="-1.5339">
        <ele>52.110713</ele>
        <time>2022-12-16T11:53:22.911Z</time>
      </trkpt>
      <trkpt lat="47.40935" lon="-1.53384">
        <ele>52.086893</ele>
        <time>2022-12-16T11:53:25.911Z</time>
      </trkpt>
      <trkpt lat="47.40924" lon="-1.5338">
        <ele>52.062109</ele>
        <time>2022-12-16T11:53:28.927Z</time>
      </trkpt>
      <trkpt lat="47.40913" lon="-1.53376">
        <ele>52.035836</ele>
        <time>2022-12-16T11:53:31.925Z</time>
      </trkpt>
      <trkpt lat="47.40901" lon="-1.53371">
        <ele>52.0084</ele>
        <time>2022-12-16T11:53:34.920Z</time>
      </trkpt>
      <trkpt lat="47.4089" lon="-1.53365">
        <ele>51.980441</ele>
        <time>2022-12-16T11:53:37.920Z</time>
      </trkpt>
      <trkpt lat="47.40877" lon="-1.5336">
        <ele>51.95183</ele>
        <time>2022-12-16T11:53:40.906Z</time>
      </trkpt>
      <trkpt lat="47.40866" lon="-1.53354">
        <ele>51.923325</ele>
        <time>2022-12-16T11:53:43.922Z</time>
      </trkpt>
      <trkpt lat="47.40853" lon="-1.53349">
        <ele>51.893408</ele>
        <time>2022-12-16T11:53:46.921Z</time>
      </trkpt>
      <trkpt lat="47.4084" lon="-1.53344">
        <ele>51.862883</ele>
        <time>2022-12-16T11:53:49.921Z</time>
      </trkpt>
      <trkpt lat="47.40827" lon="-1.5334">
        <ele>51.832763</ele>
        <time>2022-12-16T11:53:52.920Z</time>
      </trkpt>
      <trkpt lat="47.40815" lon="-1.53334">
        <ele>51.803891</ele>
        <time>2022-12-16T11:53:55.920Z</time>
      </trkpt>
      <trkpt lat="47.40803" lon="-1.5333">
        <ele>51.792495</ele>
        <time>2022-12-16T11:53:58.920Z</time>
      </trkpt>
      <trkpt lat="47.40791" lon="-1.53325">
        <ele>51.796208</ele>
        <time>2022-12-16T11:54:01.917Z</time>
      </trkpt>
      <trkpt lat="47.40781" lon="-1.5332">
        <ele>51.799735</ele>
        <time>2022-12-16T11:54:04.924Z</time>
      </trkpt>
      <trkpt lat="47.40769" lon="-1.53315">
        <ele>51.803631</ele>
        <time>2022-12-16T11:54:07.919Z</time>
      </trkpt>
      <trkpt lat="47.40757" lon="-1.5331">
        <ele>51.80776</ele>
        <time>2022-12-16T11:54:10.903Z</time>
      </trkpt>
      <trkpt lat="47.40744" lon="-1.53304">
        <ele>51.812178</ele>
        <time>2022-12-16T11:54:13.913Z</time>
      </trkpt>
      <trkpt lat="47.40731" lon="-1.533">
        <ele>51.816191</ele>
        <time>2022-12-16T11:54:16.926Z</time>
      </trkpt>
      <trkpt lat="47.40721" lon="-1.53294">
        <ele>51.81985</ele>
        <time>2022-12-16T11:54:19.903Z</time>
      </trkpt>
      <trkpt lat="47.40711" lon="-1.53291">
        <ele>51.823111</ele>
        <time>2022-12-16T11:54:22.910Z</time>
      </trkpt>
      <trkpt lat="47.40701" lon="-1.53287">
        <ele>51.826393</ele>
        <time>2022-12-16T11:54:25.921Z</time>
      </trkpt>
      <trkpt lat="47.4069" lon="-1.53282">
        <ele>51.830172</ele>
        <time>2022-12-16T11:54:28.909Z</time>
      </trkpt>
      <trkpt lat="47.40678" lon="-1.53276">
        <ele>51.83407</ele>
        <time>2022-12-16T11:54:31.922Z</time>
      </trkpt>
      <trkpt lat="47.40668" lon="-1.53265">
        <ele>51.83812</ele>
        <time>2022-12-16T11:54:34.904Z</time>
      </trkpt>
      <trkpt lat="47.40659" lon="-1.53252">
        <ele>51.842155</ele>
        <time>2022-12-16T11:54:37.904Z</time>
      </trkpt>
      <trkpt lat="47.40653" lon="-1.53237">
        <ele>51.845882</ele>
        <time>2022-12-16T11:54:40.904Z</time>
      </trkpt>
      <trkpt lat="47.40651" lon="-1.53222">
        <ele>51.802799</ele>
        <time>2022-12-16T11:54:43.908Z</time>
      </trkpt>
      <trkpt lat="47.40649" lon="-1.53206">
        <ele>51.673519</ele>
        <time>2022-12-16T11:54:46.918Z</time>
      </trkpt>
      <trkpt lat="47.40649" lon="-1.53189">
        <ele>51.530161</ele>
        <time>2022-12-16T11:54:49.905Z</time>
      </trkpt>
      <trkpt lat="47.4065" lon="-1.5317">
        <ele>51.374253</ele>
        <time>2022-12-16T11:54:52.918Z</time>
      </trkpt>
      <trkpt lat="47.40651" lon="-1.5315">
        <ele>51.209522</ele>
        <time>2022-12-16T11:54:55.921Z</time>
      </trkpt>
      <trkpt lat="47.40653" lon="-1.53137">
        <ele>51.095951</ele>
        <time>2022-12-16T11:54:57.904Z</time>
      </trkpt>
      <trkpt lat="47.40655" lon="-1.53124">
        <ele>50.984932</ele>
        <time>2022-12-16T11:54:59.903Z</time>
      </trkpt>
      <trkpt lat="47.40658" lon="-1.53105">
        <ele>50.823138</ele>
        <time>2022-12-16T11:55:02.905Z</time>
      </trkpt>
      <trkpt lat="47.40662" lon="-1.53088">
        <ele>50.673398</ele>
        <time>2022-12-16T11:55:05.927Z</time>
      </trkpt>
      <trkpt lat="47.40665" lon="-1.53074">
        <ele>50.556029</ele>
        <time>2022-12-16T11:55:08.920Z</time>
      </trkpt>
      <trkpt lat="47.40668" lon="-1.53058">
        <ele>50.410817</ele>
        <time>2022-12-16T11:55:12.920Z</time>
      </trkpt>
      <trkpt lat="47.40671" lon="-1.53042">
        <ele>50.275523</ele>
        <time>2022-12-16T11:55:16.911Z</time>
      </trkpt>
      <trkpt lat="47.40673" lon="-1.53028">
        <ele>50.158155</ele>
        <time>2022-12-16T11:55:19.899Z</time>
      </trkpt>
      <trkpt lat="47.40677" lon="-1.53012">
        <ele>50.020394</ele>
        <time>2022-12-16T11:55:22.923Z</time>
      </trkpt>
      <trkpt lat="47.40681" lon="-1.52996">
        <ele>49.876356</ele>
        <time>2022-12-16T11:55:25.918Z</time>
      </trkpt>
      <trkpt lat="47.40685" lon="-1.52978">
        <ele>49.723639</ele>
        <time>2022-12-16T11:55:28.917Z</time>
      </trkpt>
      <trkpt lat="47.40689" lon="-1.52961">
        <ele>49.623509</ele>
        <time>2022-12-16T11:55:31.907Z</time>
      </trkpt>
      <trkpt lat="47.40691" lon="-1.52948">
        <ele>49.590648</ele>
        <time>2022-12-16T11:55:33.919Z</time>
      </trkpt>
      <trkpt lat="47.40695" lon="-1.5293">
        <ele>49.544375</ele>
        <time>2022-12-16T11:55:36.916Z</time>
      </trkpt>
      <trkpt lat="47.40698" lon="-1.52915">
        <ele>49.50442</ele>
        <time>2022-12-16T11:55:39.922Z</time>
      </trkpt>
      <trkpt lat="47.40701" lon="-1.52899">
        <ele>49.463507</ele>
        <time>2022-12-16T11:55:42.914Z</time>
      </trkpt>
      <trkpt lat="47.40702" lon="-1.52885">
        <ele>49.430412</ele>
        <time>2022-12-16T11:55:44.905Z</time>
      </trkpt>
      <trkpt lat="47.40705" lon="-1.52867">
        <ele>49.383465</ele>
        <time>2022-12-16T11:55:47.919Z</time>
      </trkpt>
      <trkpt lat="47.40706" lon="-1.52853">
        <ele>49.349436</ele>
        <time>2022-12-16T11:55:49.925Z</time>
      </trkpt>
      <trkpt lat="47.40707" lon="-1.52834">
        <ele>49.301841</ele>
        <time>2022-12-16T11:55:52.925Z</time>
      </trkpt>
      <trkpt lat="47.40707" lon="-1.5282">
        <ele>49.268789</ele>
        <time>2022-12-16T11:55:54.916Z</time>
      </trkpt>
      <trkpt lat="47.40707" lon="-1.52801">
        <ele>49.221409</ele>
        <time>2022-12-16T11:55:57.917Z</time>
      </trkpt>
      <trkpt lat="47.40707" lon="-1.52782">
        <ele>49.174789</ele>
        <time>2022-12-16T11:56:00.903Z</time>
      </trkpt>
      <trkpt lat="47.40706" lon="-1.52764">
        <ele>49.128572</ele>
        <time>2022-12-16T11:56:03.928Z</time>
      </trkpt>
      <trkpt lat="47.40705" lon="-1.52746">
        <ele>49.085991</ele>
        <time>2022-12-16T11:56:06.910Z</time>
      </trkpt>
      <trkpt lat="47.40704" lon="-1.5273">
        <ele>49.045898</ele>
        <time>2022-12-16T11:56:09.919Z</time>
      </trkpt>
      <trkpt lat="47.40702" lon="-1.52713">
        <ele>49.002535</ele>
        <time>2022-12-16T11:56:12.926Z</time>
      </trkpt>
      <trkpt lat="47.407" lon="-1.52694">
        <ele>49.122151</ele>
        <time>2022-12-16T11:56:15.916Z</time>
      </trkpt>
      <trkpt lat="47.40697" lon="-1.52676">
        <ele>49.291063</ele>
        <time>2022-12-16T11:56:18.922Z</time>
      </trkpt>
      <trkpt lat="47.40694" lon="-1.52657">
        <ele>49.470232</ele>
        <time>2022-12-16T11:56:21.923Z</time>
      </trkpt>
      <trkpt lat="47.40691" lon="-1.52638">
        <ele>49.645103</ele>
        <time>2022-12-16T11:56:24.917Z</time>
      </trkpt>
      <trkpt lat="47.40688" lon="-1.52621">
        <ele>49.811409</ele>
        <time>2022-12-16T11:56:27.919Z</time>
      </trkpt>
      <trkpt lat="47.40683" lon="-1.52604">
        <ele>49.97768</ele>
        <time>2022-12-16T11:56:30.903Z</time>
      </trkpt>
      <trkpt lat="47.40678" lon="-1.52587">
        <ele>50.148902</ele>
        <time>2022-12-16T11:56:33.907Z</time>
      </trkpt>
      <trkpt lat="47.40673" lon="-1.52569">
        <ele>50.329052</ele>
        <time>2022-12-16T11:56:36.919Z</time>
      </trkpt>
      <trkpt lat="47.40667" lon="-1.52551">
        <ele>50.508323</ele>
        <time>2022-12-16T11:56:39.926Z</time>
      </trkpt>
      <trkpt lat="47.40663" lon="-1.52539">
        <ele>50.631479</ele>
        <time>2022-12-16T11:56:41.919Z</time>
      </trkpt>
      <trkpt lat="47.40656" lon="-1.52523">
        <ele>50.809042</ele>
        <time>2022-12-16T11:56:44.919Z</time>
      </trkpt>
      <trkpt lat="47.4065" lon="-1.52508">
        <ele>50.965405</ele>
        <time>2022-12-16T11:56:47.920Z</time>
      </trkpt>
      <trkpt lat="47.40644" lon="-1.52496">
        <ele>51.104451</ele>
        <time>2022-12-16T11:56:50.903Z</time>
      </trkpt>
      <trkpt lat="47.40636" lon="-1.52483">
        <ele>51.25938</ele>
        <time>2022-12-16T11:56:53.917Z</time>
      </trkpt>
      <trkpt lat="47.40629" lon="-1.5247">
        <ele>51.421673</ele>
        <time>2022-12-16T11:56:56.923Z</time>
      </trkpt>
      <trkpt lat="47.40621" lon="-1.52457">
        <ele>51.448635</ele>
        <time>2022-12-16T11:56:59.916Z</time>
      </trkpt>
      <trkpt lat="47.40612" lon="-1.52445">
        <ele>51.473783</ele>
        <time>2022-12-16T11:57:02.916Z</time>
      </trkpt>
      <trkpt lat="47.40604" lon="-1.52432">
        <ele>51.499046</ele>
        <time>2022-12-16T11:57:05.924Z</time>
      </trkpt>
      <trkpt lat="47.40595" lon="-1.52419">
        <ele>51.525037</ele>
        <time>2022-12-16T11:57:08.926Z</time>
      </trkpt>
      <trkpt lat="47.40588" lon="-1.5241">
        <ele>51.544234</ele>
        <time>2022-12-16T11:57:10.905Z</time>
      </trkpt>
      <trkpt lat="47.40582" lon="-1.524">
        <ele>51.563282</ele>
        <time>2022-12-16T11:57:12.916Z</time>
      </trkpt>
      <trkpt lat="47.40572" lon="-1.52387">
        <ele>51.589773</ele>
        <time>2022-12-16T11:57:15.919Z</time>
      </trkpt>
      <trkpt lat="47.40563" lon="-1.52375">
        <ele>51.616319</ele>
        <time>2022-12-16T11:57:18.921Z</time>
      </trkpt>
      <trkpt lat="47.40554" lon="-1.52361">
        <ele>51.643106</ele>
        <time>2022-12-16T11:57:21.934Z</time>
      </trkpt>
      <trkpt lat="47.40544" lon="-1.52348">
        <ele>51.670938</ele>
        <time>2022-12-16T11:57:24.925Z</time>
      </trkpt>
      <trkpt lat="47.40535" lon="-1.52335">
        <ele>51.69783</ele>
        <time>2022-12-16T11:57:27.924Z</time>
      </trkpt>
      <trkpt lat="47.40525" lon="-1.52321">
        <ele>51.726338</ele>
        <time>2022-12-16T11:57:30.906Z</time>
      </trkpt>
      <trkpt lat="47.40518" lon="-1.52312">
        <ele>51.745595</ele>
        <time>2022-12-16T11:57:32.921Z</time>
      </trkpt>
      <trkpt lat="47.40509" lon="-1.52299">
        <ele>51.771734</ele>
        <time>2022-12-16T11:57:35.921Z</time>
      </trkpt>
      <trkpt lat="47.40501" lon="-1.52287">
        <ele>51.795493</ele>
        <time>2022-12-16T11:57:38.920Z</time>
      </trkpt>
      <trkpt lat="47.40492" lon="-1.52276">
        <ele>51.818191</ele>
        <time>2022-12-16T11:57:41.921Z</time>
      </trkpt>
      <trkpt lat="47.40483" lon="-1.52263">
        <ele>51.842104</ele>
        <time>2022-12-16T11:57:44.927Z</time>
      </trkpt>
      <trkpt lat="47.40474" lon="-1.52249">
        <ele>51.866248</ele>
        <time>2022-12-16T11:57:47.921Z</time>
      </trkpt>
      <trkpt lat="47.40468" lon="-1.5224">
        <ele>51.883158</ele>
        <time>2022-12-16T11:57:49.925Z</time>
      </trkpt>
      <trkpt lat="47.40461" lon="-1.52231">
        <ele>51.900068</ele>
        <time>2022-12-16T11:57:51.905Z</time>
      </trkpt>
      <trkpt lat="47.40452" lon="-1.52218">
        <ele>51.923088</ele>
        <time>2022-12-16T11:57:54.918Z</time>
      </trkpt>
      <trkpt lat="47.40444" lon="-1.52207">
        <ele>51.943922</ele>
        <time>2022-12-16T11:57:57.912Z</time>
      </trkpt>
      <trkpt lat="47.40437" lon="-1.52197">
        <ele>51.963098</ele>
        <time>2022-12-16T11:58:00.901Z</time>
      </trkpt>
      <trkpt lat="47.40427" lon="-1.52188">
        <ele>51.983896</ele>
        <time>2022-12-16T11:58:03.904Z</time>
      </trkpt>
      <trkpt lat="47.40418" lon="-1.52179">
        <ele>52.00428</ele>
        <time>2022-12-16T11:58:06.921Z</time>
      </trkpt>
      <trkpt lat="47.40409" lon="-1.5217">
        <ele>52.024981</ele>
        <time>2022-12-16T11:58:09.922Z</time>
      </trkpt>
      <trkpt lat="47.40402" lon="-1.52155">
        <ele>52.047727</ele>
        <time>2022-12-16T11:58:12.906Z</time>
      </trkpt>
      <trkpt lat="47.40395" lon="-1.52139">
        <ele>52.072265</ele>
        <time>2022-12-16T11:58:15.918Z</time>
      </trkpt>
      <trkpt lat="47.40387" lon="-1.52125">
        <ele>52.095863</ele>
        <time>2022-12-16T11:58:18.906Z</time>
      </trkpt>
      <trkpt lat="47.40377" lon="-1.52112">
        <ele>52.120138</ele>
        <time>2022-12-16T11:58:21.917Z</time>
      </trkpt>
      <trkpt lat="47.40368" lon="-1.52099">
        <ele>52.167801</ele>
        <time>2022-12-16T11:58:24.924Z</time>
      </trkpt>
      <trkpt lat="47.40359" lon="-1.52086">
        <ele>52.290135</ele>
        <time>2022-12-16T11:58:27.923Z</time>
      </trkpt>
      <trkpt lat="47.4035" lon="-1.52075">
        <ele>52.402285</ele>
        <time>2022-12-16T11:58:30.904Z</time>
      </trkpt>
      <trkpt lat="47.40343" lon="-1.52066">
        <ele>52.492071</ele>
        <time>2022-12-16T11:58:33.900Z</time>
      </trkpt>
      <trkpt lat="47.40334" lon="-1.52055">
        <ele>52.608251</ele>
        <time>2022-12-16T11:58:37.909Z</time>
      </trkpt>
      <trkpt lat="47.40326" lon="-1.52044">
        <ele>52.712749</ele>
        <time>2022-12-16T11:58:40.903Z</time>
      </trkpt>
      <trkpt lat="47.40319" lon="-1.52033">
        <ele>52.815035</ele>
        <time>2022-12-16T11:58:43.927Z</time>
      </trkpt>
      <trkpt lat="47.40311" lon="-1.52021">
        <ele>52.923352</ele>
        <time>2022-12-16T11:58:46.924Z</time>
      </trkpt>
      <trkpt lat="47.40303" lon="-1.52009">
        <ele>53.035767</ele>
        <time>2022-12-16T11:58:49.921Z</time>
      </trkpt>
      <trkpt lat="47.40294" lon="-1.51997">
        <ele>53.15394</ele>
        <time>2022-12-16T11:58:52.919Z</time>
      </trkpt>
      <trkpt lat="47.40286" lon="-1.51984">
        <ele>53.268415</ele>
        <time>2022-12-16T11:58:55.903Z</time>
      </trkpt>
      <trkpt lat="47.40278" lon="-1.51973">
        <ele>53.375502</ele>
        <time>2022-12-16T11:58:58.928Z</time>
      </trkpt>
      <trkpt lat="47.40271" lon="-1.51962">
        <ele>53.477037</ele>
        <time>2022-12-16T11:59:01.919Z</time>
      </trkpt>
      <trkpt lat="47.40264" lon="-1.51952">
        <ele>53.568624</ele>
        <time>2022-12-16T11:59:04.919Z</time>
      </trkpt>
      <trkpt lat="47.40257" lon="-1.51942">
        <ele>53.662079</ele>
        <time>2022-12-16T11:59:08.931Z</time>
      </trkpt>
      <trkpt lat="47.4025" lon="-1.51932">
        <ele>53.758974</ele>
        <time>2022-12-16T11:59:13.910Z</time>
      </trkpt>
      <trkpt lat="47.40243" lon="-1.51921">
        <ele>53.858487</ele>
        <time>2022-12-16T11:59:18.906Z</time>
      </trkpt>
      <trkpt lat="47.40235" lon="-1.51909">
        <ele>53.883922</ele>
        <time>2022-12-16T11:59:23.923Z</time>
      </trkpt>
      <trkpt lat="47.40228" lon="-1.51899">
        <ele>53.876345</ele>
        <time>2022-12-16T11:59:28.915Z</time>
      </trkpt>
      <trkpt lat="47.40219" lon="-1.51901">
        <ele>53.868891</ele>
        <time>2022-12-16T11:59:34.906Z</time>
      </trkpt>
      <trkpt lat="47.40213" lon="-1.51911">
        <ele>53.861705</ele>
        <time>2022-12-16T11:59:41.910Z</time>
      </trkpt>
      <trkpt lat="47.40213" lon="-1.51911">
        <ele>53.861349</ele>
        <time>2022-12-16T12:00:09.117Z</time>
      </trkpt>
      <trkpt lat="47.4053" lon="-1.52367">
        <ele>52.279217</ele>
        <time>2022-12-16T12:06:36.292Z</time>
      </trkpt>
      <trkpt lat="47.4054" lon="-1.52379">
        <ele>52.133475</ele>
        <time>2022-12-16T12:06:47.939Z</time>
      </trkpt>
      <trkpt lat="47.40547" lon="-1.52388">
        <ele>52.029677</ele>
        <time>2022-12-16T12:06:52.919Z</time>
      </trkpt>
      <trkpt lat="47.40555" lon="-1.52401">
        <ele>51.896001</ele>
        <time>2022-12-16T12:06:56.914Z</time>
      </trkpt>
      <trkpt lat="47.40564" lon="-1.52413">
        <ele>51.765762</ele>
        <time>2022-12-16T12:06:59.920Z</time>
      </trkpt>
      <trkpt lat="47.40572" lon="-1.52425">
        <ele>51.628369</ele>
        <time>2022-12-16T12:07:02.930Z</time>
      </trkpt>
      <trkpt lat="47.40582" lon="-1.52438">
        <ele>51.620551</ele>
        <time>2022-12-16T12:07:05.932Z</time>
      </trkpt>
      <trkpt lat="47.40591" lon="-1.52451">
        <ele>51.644687</ele>
        <time>2022-12-16T12:07:08.930Z</time>
      </trkpt>
      <trkpt lat="47.406" lon="-1.52465">
        <ele>51.668681</ele>
        <time>2022-12-16T12:07:11.933Z</time>
      </trkpt>
      <trkpt lat="47.40608" lon="-1.5248">
        <ele>51.692956</ele>
        <time>2022-12-16T12:07:14.929Z</time>
      </trkpt>
      <trkpt lat="47.40615" lon="-1.52489">
        <ele>51.709901</ele>
        <time>2022-12-16T12:07:16.932Z</time>
      </trkpt>
      <trkpt lat="47.40622" lon="-1.52502">
        <ele>51.73122</ele>
        <time>2022-12-16T12:07:19.924Z</time>
      </trkpt>
      <trkpt lat="47.40628" lon="-1.52515">
        <ele>51.750488</ele>
        <time>2022-12-16T12:07:22.914Z</time>
      </trkpt>
      <trkpt lat="47.40635" lon="-1.52529">
        <ele>51.771738</ele>
        <time>2022-12-16T12:07:25.942Z</time>
      </trkpt>
      <trkpt lat="47.4064" lon="-1.52542">
        <ele>51.791649</ele>
        <time>2022-12-16T12:07:28.928Z</time>
      </trkpt>
      <trkpt lat="47.40645" lon="-1.52556">
        <ele>51.811189</ele>
        <time>2022-12-16T12:07:31.916Z</time>
      </trkpt>
      <trkpt lat="47.4065" lon="-1.52572">
        <ele>51.833785</ele>
        <time>2022-12-16T12:07:34.938Z</time>
      </trkpt>
      <trkpt lat="47.40655" lon="-1.5259">
        <ele>51.857746</ele>
        <time>2022-12-16T12:07:37.908Z</time>
      </trkpt>
      <trkpt lat="47.4066" lon="-1.52608">
        <ele>51.881451</ele>
        <time>2022-12-16T12:07:40.911Z</time>
      </trkpt>
      <trkpt lat="47.40663" lon="-1.5262">
        <ele>51.898367</ele>
        <time>2022-12-16T12:07:42.929Z</time>
      </trkpt>
      <trkpt lat="47.40668" lon="-1.52638">
        <ele>51.922978</ele>
        <time>2022-12-16T12:07:45.929Z</time>
      </trkpt>
      <trkpt lat="47.40671" lon="-1.52655">
        <ele>51.946906</ele>
        <time>2022-12-16T12:07:48.927Z</time>
      </trkpt>
      <trkpt lat="47.40674" lon="-1.52672">
        <ele>51.972538</ele>
        <time>2022-12-16T12:07:51.923Z</time>
      </trkpt>
      <trkpt lat="47.40677" lon="-1.52689">
        <ele>51.998458</ele>
        <time>2022-12-16T12:07:54.931Z</time>
      </trkpt>
      <trkpt lat="47.40679" lon="-1.52708">
        <ele>52.026619</ele>
        <time>2022-12-16T12:07:57.919Z</time>
      </trkpt>
      <trkpt lat="47.40681" lon="-1.52726">
        <ele>52.054309</ele>
        <time>2022-12-16T12:08:00.913Z</time>
      </trkpt>
      <trkpt lat="47.40683" lon="-1.52744">
        <ele>52.081779</ele>
        <time>2022-12-16T12:08:03.938Z</time>
      </trkpt>
      <trkpt lat="47.40684" lon="-1.5276">
        <ele>52.104573</ele>
        <time>2022-12-16T12:08:06.912Z</time>
      </trkpt>
      <trkpt lat="47.40685" lon="-1.52774">
        <ele>52.12583</ele>
        <time>2022-12-16T12:08:09.933Z</time>
      </trkpt>
      <trkpt lat="47.40686" lon="-1.5279">
        <ele>52.148979</ele>
        <time>2022-12-16T12:08:12.936Z</time>
      </trkpt>
      <trkpt lat="47.40686" lon="-1.52808">
        <ele>52.175647</ele>
        <time>2022-12-16T12:08:15.932Z</time>
      </trkpt>
      <trkpt lat="47.40686" lon="-1.52826">
        <ele>52.20247</ele>
        <time>2022-12-16T12:08:18.930Z</time>
      </trkpt>
      <trkpt lat="47.40684" lon="-1.52843">
        <ele>52.22875</ele>
        <time>2022-12-16T12:08:21.912Z</time>
      </trkpt>
      <trkpt lat="47.40682" lon="-1.52857">
        <ele>52.250237</ele>
        <time>2022-12-16T12:08:23.937Z</time>
      </trkpt>
      <trkpt lat="47.40681" lon="-1.52871">
        <ele>52.270187</ele>
        <time>2022-12-16T12:08:25.929Z</time>
      </trkpt>
      <trkpt lat="47.40679" lon="-1.5289">
        <ele>52.29817</ele>
        <time>2022-12-16T12:08:28.932Z</time>
      </trkpt>
      <trkpt lat="47.40676" lon="-1.52907">
        <ele>52.324513</ele>
        <time>2022-12-16T12:08:31.932Z</time>
      </trkpt>
      <trkpt lat="47.40673" lon="-1.52925">
        <ele>52.333399</ele>
        <time>2022-12-16T12:08:34.930Z</time>
      </trkpt>
      <trkpt lat="47.4067" lon="-1.52943">
        <ele>52.337856</ele>
        <time>2022-12-16T12:08:37.920Z</time>
      </trkpt>
      <trkpt lat="47.40666" lon="-1.52962">
        <ele>52.342435</ele>
        <time>2022-12-16T12:08:40.910Z</time>
      </trkpt>
      <trkpt lat="47.40663" lon="-1.5298">
        <ele>52.346725</ele>
        <time>2022-12-16T12:08:43.929Z</time>
      </trkpt>
      <trkpt lat="47.4066" lon="-1.52993">
        <ele>52.349881</ele>
        <time>2022-12-16T12:08:45.926Z</time>
      </trkpt>
      <trkpt lat="47.40657" lon="-1.53012">
        <ele>52.354451</ele>
        <time>2022-12-16T12:08:48.927Z</time>
      </trkpt>
      <trkpt lat="47.40654" lon="-1.53025">
        <ele>52.357791</ele>
        <time>2022-12-16T12:08:50.912Z</time>
      </trkpt>
      <trkpt lat="47.4065" lon="-1.53041">
        <ele>52.361947</ele>
        <time>2022-12-16T12:08:53.912Z</time>
      </trkpt>
      <trkpt lat="47.40645" lon="-1.53056">
        <ele>52.365804</ele>
        <time>2022-12-16T12:08:57.933Z</time>
      </trkpt>
      <trkpt lat="47.40642" lon="-1.5307">
        <ele>52.369095</ele>
        <time>2022-12-16T12:09:03.928Z</time>
      </trkpt>
      <trkpt lat="47.40632" lon="-1.53066">
        <ele>52.372691</ele>
        <time>2022-12-16T12:09:08.916Z</time>
      </trkpt>
      <trkpt lat="47.4062" lon="-1.53062">
        <ele>52.376849</ele>
        <time>2022-12-16T12:09:13.940Z</time>
      </trkpt>
      <trkpt lat="47.40611" lon="-1.53062">
        <ele>52.380178</ele>
        <time>2022-12-16T12:09:16.916Z</time>
      </trkpt>
      <trkpt lat="47.406" lon="-1.53065">
        <ele>52.383934</ele>
        <time>2022-12-16T12:09:19.911Z</time>
      </trkpt>
      <trkpt lat="47.40589" lon="-1.53071">
        <ele>52.388064</ele>
        <time>2022-12-16T12:09:22.919Z</time>
      </trkpt>
      <trkpt lat="47.40578" lon="-1.53077">
        <ele>52.397013</ele>
        <time>2022-12-16T12:09:25.928Z</time>
      </trkpt>
      <trkpt lat="47.40568" lon="-1.53083">
        <ele>52.493643</ele>
        <time>2022-12-16T12:09:28.919Z</time>
      </trkpt>
      <trkpt lat="47.40557" lon="-1.53088">
        <ele>52.604114</ele>
        <time>2022-12-16T12:09:31.922Z</time>
      </trkpt>
      <trkpt lat="47.40546" lon="-1.53094">
        <ele>52.723094</ele>
        <time>2022-12-16T12:09:34.934Z</time>
      </trkpt>
      <trkpt lat="47.40534" lon="-1.53102">
        <ele>52.850376</ele>
        <time>2022-12-16T12:09:37.935Z</time>
      </trkpt>
      <trkpt lat="47.40525" lon="-1.53108">
        <ele>52.939638</ele>
        <time>2022-12-16T12:09:39.918Z</time>
      </trkpt>
      <trkpt lat="47.40517" lon="-1.53113">
        <ele>53.027317</ele>
        <time>2022-12-16T12:09:41.919Z</time>
      </trkpt>
      <trkpt lat="47.40507" lon="-1.53119">
        <ele>53.130721</ele>
        <time>2022-12-16T12:09:44.921Z</time>
      </trkpt>
      <trkpt lat="47.40495" lon="-1.53127">
        <ele>53.257686</ele>
        <time>2022-12-16T12:09:47.913Z</time>
      </trkpt>
      <trkpt lat="47.40486" lon="-1.53133">
        <ele>53.353011</ele>
        <time>2022-12-16T12:09:49.921Z</time>
      </trkpt>
      <trkpt lat="47.40477" lon="-1.53139">
        <ele>53.442085</ele>
        <time>2022-12-16T12:09:51.922Z</time>
      </trkpt>
      <trkpt lat="47.40467" lon="-1.53146">
        <ele>53.55422</ele>
        <time>2022-12-16T12:09:54.915Z</time>
      </trkpt>
      <trkpt lat="47.40457" lon="-1.5315">
        <ele>53.646544</ele>
        <time>2022-12-16T12:09:57.914Z</time>
      </trkpt>
      <trkpt lat="47.40448" lon="-1.53156">
        <ele>53.746738</ele>
        <time>2022-12-16T12:10:00.915Z</time>
      </trkpt>
      <trkpt lat="47.40439" lon="-1.53164">
        <ele>53.852658</ele>
        <time>2022-12-16T12:10:03.930Z</time>
      </trkpt>
      <trkpt lat="47.40429" lon="-1.53177">
        <ele>53.976711</ele>
        <time>2022-12-16T12:10:06.910Z</time>
      </trkpt>
      <trkpt lat="47.40421" lon="-1.53192">
        <ele>54.10004</ele>
        <time>2022-12-16T12:10:09.944Z</time>
      </trkpt>
      <trkpt lat="47.40414" lon="-1.53207">
        <ele>54.05425</ele>
        <time>2022-12-16T12:10:12.932Z</time>
      </trkpt>
      <trkpt lat="47.40408" lon="-1.53219">
        <ele>53.979403</ele>
        <time>2022-12-16T12:10:15.929Z</time>
      </trkpt>
      <trkpt lat="47.40404" lon="-1.53232">
        <ele>53.905949</ele>
        <time>2022-12-16T12:10:18.926Z</time>
      </trkpt>
      <trkpt lat="47.40399" lon="-1.53244">
        <ele>53.839637</ele>
        <time>2022-12-16T12:10:23.913Z</time>
      </trkpt>
      <trkpt lat="47.40392" lon="-1.53257">
        <ele>53.761092</ele>
        <time>2022-12-16T12:10:27.915Z</time>
      </trkpt>
      <trkpt lat="47.40384" lon="-1.53269">
        <ele>53.676041</ele>
        <time>2022-12-16T12:10:31.927Z</time>
      </trkpt>
      <trkpt lat="47.40377" lon="-1.53282">
        <ele>53.597149</ele>
        <time>2022-12-16T12:10:34.933Z</time>
      </trkpt>
      <trkpt lat="47.40369" lon="-1.53293">
        <ele>53.520011</ele>
        <time>2022-12-16T12:10:37.932Z</time>
      </trkpt>
      <trkpt lat="47.40361" lon="-1.53305">
        <ele>53.437569</ele>
        <time>2022-12-16T12:10:40.911Z</time>
      </trkpt>
      <trkpt lat="47.40353" lon="-1.53316">
        <ele>53.354692</ele>
        <time>2022-12-16T12:10:43.930Z</time>
      </trkpt>
      <trkpt lat="47.40344" lon="-1.5333">
        <ele>53.264333</ele>
        <time>2022-12-16T12:10:46.921Z</time>
      </trkpt>
      <trkpt lat="47.40335" lon="-1.53343">
        <ele>53.173866</ele>
        <time>2022-12-16T12:10:49.932Z</time>
      </trkpt>
      <trkpt lat="47.40327" lon="-1.53357">
        <ele>53.084837</ele>
        <time>2022-12-16T12:10:52.933Z</time>
      </trkpt>
      <trkpt lat="47.40321" lon="-1.53367">
        <ele>53.016688</ele>
        <time>2022-12-16T12:10:54.928Z</time>
      </trkpt>
      <trkpt lat="47.40315" lon="-1.53377">
        <ele>52.95228</ele>
        <time>2022-12-16T12:10:56.933Z</time>
      </trkpt>
      <trkpt lat="47.40306" lon="-1.53391">
        <ele>52.859869</ele>
        <time>2022-12-16T12:10:59.931Z</time>
      </trkpt>
      <trkpt lat="47.40298" lon="-1.53402">
        <ele>52.864449</ele>
        <time>2022-12-16T12:11:02.917Z</time>
      </trkpt>
      <trkpt lat="47.40291" lon="-1.53412">
        <ele>52.924057</ele>
        <time>2022-12-16T12:11:05.915Z</time>
      </trkpt>
      <trkpt lat="47.40283" lon="-1.53425">
        <ele>52.989565</ele>
        <time>2022-12-16T12:11:08.930Z</time>
      </trkpt>
      <trkpt lat="47.40274" lon="-1.5344">
        <ele>53.066119</ele>
        <time>2022-12-16T12:11:11.927Z</time>
      </trkpt>
      <trkpt lat="47.40266" lon="-1.53454">
        <ele>53.13617</ele>
        <time>2022-12-16T12:11:14.930Z</time>
      </trkpt>
      <trkpt lat="47.40259" lon="-1.53467">
        <ele>53.200951</ele>
        <time>2022-12-16T12:11:17.930Z</time>
      </trkpt>
      <trkpt lat="47.40252" lon="-1.53481">
        <ele>53.26997</ele>
        <time>2022-12-16T12:11:20.908Z</time>
      </trkpt>
      <trkpt lat="47.40247" lon="-1.53496">
        <ele>53.335742</ele>
        <time>2022-12-16T12:11:24.915Z</time>
      </trkpt>
      <trkpt lat="47.40244" lon="-1.53512">
        <ele>53.396186</ele>
        <time>2022-12-16T12:11:27.918Z</time>
      </trkpt>
      <trkpt lat="47.40242" lon="-1.53527">
        <ele>53.458427</ele>
        <time>2022-12-16T12:11:30.916Z</time>
      </trkpt>
      <trkpt lat="47.40239" lon="-1.53544">
        <ele>53.523513</ele>
        <time>2022-12-16T12:11:33.934Z</time>
      </trkpt>
      <trkpt lat="47.40237" lon="-1.5356">
        <ele>53.586339</ele>
        <time>2022-12-16T12:11:36.926Z</time>
      </trkpt>
      <trkpt lat="47.40235" lon="-1.53574">
        <ele>53.644053</ele>
        <time>2022-12-16T12:11:39.923Z</time>
      </trkpt>
      <trkpt lat="47.40233" lon="-1.5359">
        <ele>53.704889</ele>
        <time>2022-12-16T12:11:42.942Z</time>
      </trkpt>
      <trkpt lat="47.4023" lon="-1.53604">
        <ele>53.761102</ele>
        <time>2022-12-16T12:11:45.911Z</time>
      </trkpt>
      <trkpt lat="47.40228" lon="-1.53617">
        <ele>53.813396</ele>
        <time>2022-12-16T12:11:48.937Z</time>
      </trkpt>
      <trkpt lat="47.40226" lon="-1.53632">
        <ele>53.830086</ele>
        <time>2022-12-16T12:11:52.933Z</time>
      </trkpt>
      <trkpt lat="47.40223" lon="-1.53645">
        <ele>53.76657</ele>
        <time>2022-12-16T12:11:57.929Z</time>
      </trkpt>
      <trkpt lat="47.40214" lon="-1.53647">
        <ele>53.703385</ele>
        <time>2022-12-16T12:12:02.912Z</time>
      </trkpt>
      <trkpt lat="47.40204" lon="-1.53644">
        <ele>53.634483</ele>
        <time>2022-12-16T12:12:07.911Z</time>
      </trkpt>
      <trkpt lat="47.40201" lon="-1.53628">
        <ele>53.554999</ele>
        <time>2022-12-16T12:12:11.916Z</time>
      </trkpt>
      <trkpt lat="47.40201" lon="-1.53613">
        <ele>53.488174</ele>
        <time>2022-12-16T12:12:14.912Z</time>
      </trkpt>
      <trkpt lat="47.40199" lon="-1.53598">
        <ele>53.417268</ele>
        <time>2022-12-16T12:12:17.911Z</time>
      </trkpt>
      <trkpt lat="47.40197" lon="-1.53583">
        <ele>53.348188</ele>
        <time>2022-12-16T12:12:20.909Z</time>
      </trkpt>
      <trkpt lat="47.40194" lon="-1.53568">
        <ele>53.276214</ele>
        <time>2022-12-16T12:12:23.913Z</time>
      </trkpt>
      <trkpt lat="47.4019" lon="-1.53553">
        <ele>53.201059</ele>
        <time>2022-12-16T12:12:26.911Z</time>
      </trkpt>
      <trkpt lat="47.40184" lon="-1.5354">
        <ele>53.128162</ele>
        <time>2022-12-16T12:12:29.915Z</time>
      </trkpt>
      <trkpt lat="47.40175" lon="-1.5353">
        <ele>53.052588</ele>
        <time>2022-12-16T12:12:32.913Z</time>
      </trkpt>
      <trkpt lat="47.40165" lon="-1.53523">
        <ele>52.980284</ele>
        <time>2022-12-16T12:12:35.927Z</time>
      </trkpt>
      <trkpt lat="47.40156" lon="-1.53515">
        <ele>52.909338</ele>
        <time>2022-12-16T12:12:38.936Z</time>
      </trkpt>
      <trkpt lat="47.40147" lon="-1.53507">
        <ele>52.836036</ele>
        <time>2022-12-16T12:12:41.916Z</time>
      </trkpt>
      <trkpt lat="47.40139" lon="-1.53498">
        <ele>52.76895</ele>
        <time>2022-12-16T12:12:44.914Z</time>
      </trkpt>
      <trkpt lat="47.40132" lon="-1.53488">
        <ele>52.701202</ele>
        <time>2022-12-16T12:12:47.931Z</time>
      </trkpt>
      <trkpt lat="47.40127" lon="-1.53475">
        <ele>52.632495</ele>
        <time>2022-12-16T12:12:50.912Z</time>
      </trkpt>
      <trkpt lat="47.40123" lon="-1.53462">
        <ele>52.601949</ele>
        <time>2022-12-16T12:12:53.915Z</time>
      </trkpt>
      <trkpt lat="47.4012" lon="-1.53447">
        <ele>52.573242</ele>
        <time>2022-12-16T12:12:56.910Z</time>
      </trkpt>
      <trkpt lat="47.40117" lon="-1.53431">
        <ele>52.542173</ele>
        <time>2022-12-16T12:12:59.912Z</time>
      </trkpt>
      <trkpt lat="47.40114" lon="-1.53414">
        <ele>52.508443</ele>
        <time>2022-12-16T12:13:02.923Z</time>
      </trkpt>
      <trkpt lat="47.40111" lon="-1.53396">
        <ele>52.473229</ele>
        <time>2022-12-16T12:13:05.928Z</time>
      </trkpt>
      <trkpt lat="47.40108" lon="-1.53378">
        <ele>52.438734</ele>
        <time>2022-12-16T12:13:08.938Z</time>
      </trkpt>
      <trkpt lat="47.40105" lon="-1.53361">
        <ele>52.405542</ele>
        <time>2022-12-16T12:13:11.925Z</time>
      </trkpt>
      <trkpt lat="47.40102" lon="-1.53345">
        <ele>52.373814</ele>
        <time>2022-12-16T12:13:14.924Z</time>
      </trkpt>
      <trkpt lat="47.40099" lon="-1.5333">
        <ele>52.344376</ele>
        <time>2022-12-16T12:13:17.914Z</time>
      </trkpt>
      <trkpt lat="47.40089" lon="-1.53329">
        <ele>52.318873</ele>
        <time>2022-12-16T12:13:20.907Z</time>
      </trkpt>
      <trkpt lat="47.40081" lon="-1.53337">
        <ele>52.291405</ele>
        <time>2022-12-16T12:13:23.922Z</time>
      </trkpt>
      <trkpt lat="47.40075" lon="-1.53348">
        <ele>52.263248</ele>
        <time>2022-12-16T12:13:26.918Z</time>
      </trkpt>
      <trkpt lat="47.40068" lon="-1.5336">
        <ele>52.23425</ele>
        <time>2022-12-16T12:13:29.941Z</time>
      </trkpt>
      <trkpt lat="47.40061" lon="-1.53372">
        <ele>52.204608</ele>
        <time>2022-12-16T12:13:32.924Z</time>
      </trkpt>
      <trkpt lat="47.40054" lon="-1.53384">
        <ele>52.17398</ele>
        <time>2022-12-16T12:13:35.913Z</time>
      </trkpt>
      <trkpt lat="47.40047" lon="-1.53397">
        <ele>52.142756</ele>
        <time>2022-12-16T12:13:38.917Z</time>
      </trkpt>
      <trkpt lat="47.4004" lon="-1.5341">
        <ele>52.252265</ele>
        <time>2022-12-16T12:13:41.928Z</time>
      </trkpt>
      <trkpt lat="47.40034" lon="-1.53424">
        <ele>52.489126</ele>
        <time>2022-12-16T12:13:44.919Z</time>
      </trkpt>
      <trkpt lat="47.40028" lon="-1.53438">
        <ele>52.722605</ele>
        <time>2022-12-16T12:13:47.914Z</time>
      </trkpt>
      <trkpt lat="47.40021" lon="-1.53451">
        <ele>52.966749</ele>
        <time>2022-12-16T12:13:50.929Z</time>
      </trkpt>
      <trkpt lat="47.40016" lon="-1.53465">
        <ele>53.194275</ele>
        <time>2022-12-16T12:13:53.922Z</time>
      </trkpt>
      <trkpt lat="47.40011" lon="-1.5348">
        <ele>53.439287</ele>
        <time>2022-12-16T12:13:57.925Z</time>
      </trkpt>
      <trkpt lat="47.40008" lon="-1.53493">
        <ele>53.637327</ele>
        <time>2022-12-16T12:14:00.910Z</time>
      </trkpt>
      <trkpt lat="47.40006" lon="-1.53509">
        <ele>53.882128</ele>
        <time>2022-12-16T12:14:04.937Z</time>
      </trkpt>
      <trkpt lat="47.40006" lon="-1.53526">
        <ele>54.124934</ele>
        <time>2022-12-16T12:14:08.926Z</time>
      </trkpt>
      <trkpt lat="47.40006" lon="-1.53541">
        <ele>54.33692</ele>
        <time>2022-12-16T12:14:12.932Z</time>
      </trkpt>
      <trkpt lat="47.40005" lon="-1.53556">
        <ele>54.567318</ele>
        <time>2022-12-16T12:14:17.910Z</time>
      </trkpt>
      <trkpt lat="47.40004" lon="-1.5357">
        <ele>54.763859</ele>
        <time>2022-12-16T12:14:22.924Z</time>
      </trkpt>
      <trkpt lat="47.4" lon="-1.53582">
        <ele>54.964603</ele>
        <time>2022-12-16T12:14:34.916Z</time>
      </trkpt>
      <trkpt lat="47.39999" lon="-1.53596">
        <ele>55.163231</ele>
        <time>2022-12-16T12:14:47.926Z</time>
      </trkpt>
      <trkpt lat="47.39995" lon="-1.53611">
        <ele>55.397572</ele>
        <time>2022-12-16T12:14:52.928Z</time>
      </trkpt>
      <trkpt lat="47.39992" lon="-1.53625">
        <ele>55.61007</ele>
        <time>2022-12-16T12:14:56.916Z</time>
      </trkpt>
      <trkpt lat="47.39989" lon="-1.53641">
        <ele>55.855584</ele>
        <time>2022-12-16T12:15:01.918Z</time>
      </trkpt>
      <trkpt lat="47.39987" lon="-1.53656">
        <ele>55.936226</ele>
        <time>2022-12-16T12:15:05.920Z</time>
      </trkpt>
      <trkpt lat="47.39977" lon="-1.5366">
        <ele>55.810285</ele>
        <time>2022-12-16T12:15:11.909Z</time>
      </trkpt>
      <trkpt lat="47.39972" lon="-1.53647">
        <ele>55.683432</ele>
        <time>2022-12-16T12:15:15.913Z</time>
      </trkpt>
      <trkpt lat="47.39966" lon="-1.53634">
        <ele>55.551037</ele>
        <time>2022-12-16T12:15:19.940Z</time>
      </trkpt>
      <trkpt lat="47.39959" lon="-1.53621">
        <ele>55.412154</ele>
        <time>2022-12-16T12:15:23.930Z</time>
      </trkpt>
      <trkpt lat="47.39953" lon="-1.53611">
        <ele>55.293245</ele>
        <time>2022-12-16T12:15:26.927Z</time>
      </trkpt>
      <trkpt lat="47.39947" lon="-1.53599">
        <ele>55.164224</ele>
        <time>2022-12-16T12:15:29.911Z</time>
      </trkpt>
      <trkpt lat="47.3994" lon="-1.53585">
        <ele>55.018281</ele>
        <time>2022-12-16T12:15:32.933Z</time>
      </trkpt>
      <trkpt lat="47.39934" lon="-1.53573">
        <ele>54.889836</ele>
        <time>2022-12-16T12:15:35.912Z</time>
      </trkpt>
      <trkpt lat="47.39928" lon="-1.5356">
        <ele>54.760296</ele>
        <time>2022-12-16T12:15:38.929Z</time>
      </trkpt>
      <trkpt lat="47.39922" lon="-1.53548">
        <ele>54.630666</ele>
        <time>2022-12-16T12:15:41.931Z</time>
      </trkpt>
      <trkpt lat="47.39917" lon="-1.53536">
        <ele>54.50393</ele>
        <time>2022-12-16T12:15:44.916Z</time>
      </trkpt>
      <trkpt lat="47.39909" lon="-1.53522">
        <ele>54.352979</ele>
        <time>2022-12-16T12:15:47.912Z</time>
      </trkpt>
      <trkpt lat="47.39901" lon="-1.53506">
        <ele>54.186069</ele>
        <time>2022-12-16T12:15:50.912Z</time>
      </trkpt>
      <trkpt lat="47.39894" lon="-1.53492">
        <ele>54.031354</ele>
        <time>2022-12-16T12:15:53.931Z</time>
      </trkpt>
      <trkpt lat="47.39886" lon="-1.53477">
        <ele>53.865652</ele>
        <time>2022-12-16T12:15:56.935Z</time>
      </trkpt>
      <trkpt lat="47.39881" lon="-1.53465">
        <ele>53.750995</ele>
        <time>2022-12-16T12:15:58.933Z</time>
      </trkpt>
      <trkpt lat="47.39873" lon="-1.53451">
        <ele>53.505552</ele>
        <time>2022-12-16T12:16:01.940Z</time>
      </trkpt>
      <trkpt lat="47.39865" lon="-1.53435">
        <ele>53.22631</ele>
        <time>2022-12-16T12:16:04.919Z</time>
      </trkpt>
      <trkpt lat="47.39858" lon="-1.5342">
        <ele>52.946007</ele>
        <time>2022-12-16T12:16:07.932Z</time>
      </trkpt>
      <trkpt lat="47.3985" lon="-1.53405">
        <ele>52.683753</ele>
        <time>2022-12-16T12:16:10.911Z</time>
      </trkpt>
      <trkpt lat="47.39844" lon="-1.5339">
        <ele>52.426444</ele>
        <time>2022-12-16T12:16:13.926Z</time>
      </trkpt>
      <trkpt lat="47.39836" lon="-1.53377">
        <ele>52.178729</ele>
        <time>2022-12-16T12:16:16.925Z</time>
      </trkpt>
      <trkpt lat="47.39829" lon="-1.53363">
        <ele>51.913628</ele>
        <time>2022-12-16T12:16:19.922Z</time>
      </trkpt>
      <trkpt lat="47.39821" lon="-1.53348">
        <ele>51.641715</ele>
        <time>2022-12-16T12:16:22.934Z</time>
      </trkpt>
      <trkpt lat="47.39816" lon="-1.53335">
        <ele>51.426427</ele>
        <time>2022-12-16T12:16:24.936Z</time>
      </trkpt>
      <trkpt lat="47.3981" lon="-1.53323">
        <ele>51.207388</ele>
        <time>2022-12-16T12:16:26.929Z</time>
      </trkpt>
      <trkpt lat="47.39804" lon="-1.53311">
        <ele>50.99567</ele>
        <time>2022-12-16T12:16:28.930Z</time>
      </trkpt>
      <trkpt lat="47.39797" lon="-1.53298">
        <ele>50.762191</ele>
        <time>2022-12-16T12:16:30.917Z</time>
      </trkpt>
      <trkpt lat="47.39791" lon="-1.53286">
        <ele>50.536782</ele>
        <time>2022-12-16T12:16:32.931Z</time>
      </trkpt>
      <trkpt lat="47.39785" lon="-1.53274">
        <ele>50.315295</ele>
        <time>2022-12-16T12:16:34.930Z</time>
      </trkpt>
      <trkpt lat="47.39778" lon="-1.53261">
        <ele>50.079563</ele>
        <time>2022-12-16T12:16:36.938Z</time>
      </trkpt>
      <trkpt lat="47.39773" lon="-1.5325">
        <ele>49.878572</ele>
        <time>2022-12-16T12:16:38.928Z</time>
      </trkpt>
      <trkpt lat="47.39765" lon="-1.53235">
        <ele>49.881865</ele>
        <time>2022-12-16T12:16:41.935Z</time>
      </trkpt>
      <trkpt lat="47.39759" lon="-1.53225">
        <ele>49.901902</ele>
        <time>2022-12-16T12:16:43.932Z</time>
      </trkpt>
      <trkpt lat="47.39752" lon="-1.53211">
        <ele>49.928019</ele>
        <time>2022-12-16T12:16:46.920Z</time>
      </trkpt>
      <trkpt lat="47.39745" lon="-1.53195">
        <ele>49.955783</ele>
        <time>2022-12-16T12:16:49.922Z</time>
      </trkpt>
      <trkpt lat="47.39738" lon="-1.53179">
        <ele>49.984782</ele>
        <time>2022-12-16T12:16:52.928Z</time>
      </trkpt>
      <trkpt lat="47.3973" lon="-1.53163">
        <ele>50.015014</ele>
        <time>2022-12-16T12:16:55.945Z</time>
      </trkpt>
      <trkpt lat="47.39724" lon="-1.5315">
        <ele>50.038105</ele>
        <time>2022-12-16T12:16:57.931Z</time>
      </trkpt>
      <trkpt lat="47.39717" lon="-1.53137">
        <ele>50.061567</ele>
        <time>2022-12-16T12:16:59.934Z</time>
      </trkpt>
      <trkpt lat="47.39711" lon="-1.53124">
        <ele>50.086011</ele>
        <time>2022-12-16T12:17:01.928Z</time>
      </trkpt>
      <trkpt lat="47.39705" lon="-1.53111">
        <ele>50.109473</ele>
        <time>2022-12-16T12:17:03.932Z</time>
      </trkpt>
      <trkpt lat="47.39699" lon="-1.531">
        <ele>50.130234</ele>
        <time>2022-12-16T12:17:05.929Z</time>
      </trkpt>
      <trkpt lat="47.39693" lon="-1.53089">
        <ele>50.151593</ele>
        <time>2022-12-16T12:17:07.935Z</time>
      </trkpt>
      <trkpt lat="47.39687" lon="-1.53078">
        <ele>50.172</ele>
        <time>2022-12-16T12:17:09.932Z</time>
      </trkpt>
      <trkpt lat="47.3968" lon="-1.53064">
        <ele>50.198371</ele>
        <time>2022-12-16T12:17:12.934Z</time>
      </trkpt>
      <trkpt lat="47.39673" lon="-1.5305">
        <ele>50.2242</ele>
        <time>2022-12-16T12:17:15.914Z</time>
      </trkpt>
      <trkpt lat="47.39665" lon="-1.53036">
        <ele>50.250434</ele>
        <time>2022-12-16T12:17:18.934Z</time>
      </trkpt>
      <trkpt lat="47.3966" lon="-1.53025">
        <ele>50.349784</ele>
        <time>2022-12-16T12:17:20.913Z</time>
      </trkpt>
      <trkpt lat="47.39654" lon="-1.53015">
        <ele>50.454644</ele>
        <time>2022-12-16T12:17:22.935Z</time>
      </trkpt>
      <trkpt lat="47.39647" lon="-1.52999">
        <ele>50.601743</ele>
        <time>2022-12-16T12:17:25.947Z</time>
      </trkpt>
      <trkpt lat="47.39642" lon="-1.52987">
        <ele>50.710784</ele>
        <time>2022-12-16T12:17:27.933Z</time>
      </trkpt>
      <trkpt lat="47.39634" lon="-1.52973">
        <ele>50.852195</ele>
        <time>2022-12-16T12:17:30.912Z</time>
      </trkpt>
      <trkpt lat="47.39627" lon="-1.52959">
        <ele>50.989592</ele>
        <time>2022-12-16T12:17:33.916Z</time>
      </trkpt>
      <trkpt lat="47.39619" lon="-1.52945">
        <ele>51.131737</ele>
        <time>2022-12-16T12:17:36.932Z</time>
      </trkpt>
      <trkpt lat="47.39612" lon="-1.52931">
        <ele>51.270463</ele>
        <time>2022-12-16T12:17:39.906Z</time>
      </trkpt>
      <trkpt lat="47.39605" lon="-1.52916">
        <ele>51.410698</ele>
        <time>2022-12-16T12:17:42.930Z</time>
      </trkpt>
      <trkpt lat="47.39597" lon="-1.52901">
        <ele>51.56186</ele>
        <time>2022-12-16T12:17:45.923Z</time>
      </trkpt>
      <trkpt lat="47.3959" lon="-1.52886">
        <ele>51.703162</ele>
        <time>2022-12-16T12:17:48.937Z</time>
      </trkpt>
      <trkpt lat="47.39582" lon="-1.52872">
        <ele>51.846036</ele>
        <time>2022-12-16T12:17:51.935Z</time>
      </trkpt>
      <trkpt lat="47.39576" lon="-1.52859">
        <ele>51.965422</ele>
        <time>2022-12-16T12:17:54.925Z</time>
      </trkpt>
      <trkpt lat="47.3957" lon="-1.52847">
        <ele>52.082013</ele>
        <time>2022-12-16T12:17:57.941Z</time>
      </trkpt>
      <trkpt lat="47.39563" lon="-1.52836">
        <ele>52.200424</ele>
        <time>2022-12-16T12:18:00.915Z</time>
      </trkpt>
      <trkpt lat="47.39557" lon="-1.52824">
        <ele>52.310992</ele>
        <time>2022-12-16T12:18:03.930Z</time>
      </trkpt>
      <trkpt lat="47.39551" lon="-1.52813">
        <ele>52.494853</ele>
        <time>2022-12-16T12:18:06.935Z</time>
      </trkpt>
      <trkpt lat="47.39544" lon="-1.52801">
        <ele>52.693516</ele>
        <time>2022-12-16T12:18:09.933Z</time>
      </trkpt>
      <trkpt lat="47.39539" lon="-1.5279">
        <ele>52.86848</ele>
        <time>2022-12-16T12:18:12.933Z</time>
      </trkpt>
      <trkpt lat="47.39531" lon="-1.52781">
        <ele>53.052235</ele>
        <time>2022-12-16T12:18:17.915Z</time>
      </trkpt>
      <trkpt lat="47.39522" lon="-1.52782">
        <ele>53.239703</ele>
        <time>2022-12-16T12:18:21.923Z</time>
      </trkpt>
      <trkpt lat="47.3951" lon="-1.52788">
        <ele>53.465343</ele>
        <time>2022-12-16T12:18:25.916Z</time>
      </trkpt>
      <trkpt lat="47.395" lon="-1.5279">
        <ele>53.664947</ele>
        <time>2022-12-16T12:18:28.915Z</time>
      </trkpt>
      <trkpt lat="47.39488" lon="-1.52793">
        <ele>53.888052</ele>
        <time>2022-12-16T12:18:31.922Z</time>
      </trkpt>
      <trkpt lat="47.39476" lon="-1.52797">
        <ele>54.137446</ele>
        <time>2022-12-16T12:18:34.933Z</time>
      </trkpt>
      <trkpt lat="47.39466" lon="-1.528">
        <ele>54.317622</ele>
        <time>2022-12-16T12:18:36.932Z</time>
      </trkpt>
      <trkpt lat="47.39457" lon="-1.52805">
        <ele>54.496342</ele>
        <time>2022-12-16T12:18:38.933Z</time>
      </trkpt>
      <trkpt lat="47.39449" lon="-1.5281">
        <ele>54.672338</ele>
        <time>2022-12-16T12:18:40.914Z</time>
      </trkpt>
      <trkpt lat="47.39439" lon="-1.52814">
        <ele>54.861879</ele>
        <time>2022-12-16T12:18:42.937Z</time>
      </trkpt>
      <trkpt lat="47.39431" lon="-1.52819">
        <ele>55.032997</ele>
        <time>2022-12-16T12:18:44.939Z</time>
      </trkpt>
      <trkpt lat="47.39422" lon="-1.52824">
        <ele>55.212593</ele>
        <time>2022-12-16T12:18:46.919Z</time>
      </trkpt>
      <trkpt lat="47.39414" lon="-1.52829">
        <ele>55.382892</ele>
        <time>2022-12-16T12:18:48.929Z</time>
      </trkpt>
      <trkpt lat="47.39402" lon="-1.52835">
        <ele>55.615976</ele>
        <time>2022-12-16T12:18:51.922Z</time>
      </trkpt>
      <trkpt lat="47.39391" lon="-1.52843">
        <ele>55.771991</ele>
        <time>2022-12-16T12:18:54.912Z</time>
      </trkpt>
      <trkpt lat="47.3938" lon="-1.52849">
        <ele>55.83874</ele>
        <time>2022-12-16T12:18:57.938Z</time>
      </trkpt>
      <trkpt lat="47.39369" lon="-1.52856">
        <ele>55.907855</ele>
        <time>2022-12-16T12:19:00.913Z</time>
      </trkpt>
      <trkpt lat="47.39358" lon="-1.52861">
        <ele>55.977432</ele>
        <time>2022-12-16T12:19:03.938Z</time>
      </trkpt>
      <trkpt lat="47.39346" lon="-1.52866">
        <ele>56.045786</ele>
        <time>2022-12-16T12:19:06.917Z</time>
      </trkpt>
      <trkpt lat="47.39336" lon="-1.52872">
        <ele>56.108743</ele>
        <time>2022-12-16T12:19:09.927Z</time>
      </trkpt>
      <trkpt lat="47.39324" lon="-1.52876">
        <ele>56.175843</ele>
        <time>2022-12-16T12:19:12.942Z</time>
      </trkpt>
      <trkpt lat="47.39312" lon="-1.52879">
        <ele>56.245852</ele>
        <time>2022-12-16T12:19:15.935Z</time>
      </trkpt>
      <trkpt lat="47.393" lon="-1.52882">
        <ele>56.318621</ele>
        <time>2022-12-16T12:19:18.933Z</time>
      </trkpt>
      <trkpt lat="47.39287" lon="-1.52886">
        <ele>56.393261</ele>
        <time>2022-12-16T12:19:21.933Z</time>
      </trkpt>
      <trkpt lat="47.39274" lon="-1.5289">
        <ele>56.468701</ele>
        <time>2022-12-16T12:19:24.930Z</time>
      </trkpt>
      <trkpt lat="47.39265" lon="-1.52894">
        <ele>56.522215</ele>
        <time>2022-12-16T12:19:26.938Z</time>
      </trkpt>
      <trkpt lat="47.39252" lon="-1.52899">
        <ele>56.59725</ele>
        <time>2022-12-16T12:19:29.933Z</time>
      </trkpt>
      <trkpt lat="47.3924" lon="-1.52906">
        <ele>56.673344</ele>
        <time>2022-12-16T12:19:32.914Z</time>
      </trkpt>
      <trkpt lat="47.39228" lon="-1.52912">
        <ele>56.742648</ele>
        <time>2022-12-16T12:19:35.941Z</time>
      </trkpt>
      <trkpt lat="47.39219" lon="-1.52918">
        <ele>56.817668</ele>
        <time>2022-12-16T12:19:38.936Z</time>
      </trkpt>
      <trkpt lat="47.39211" lon="-1.52924">
        <ele>56.898646</ele>
        <time>2022-12-16T12:19:41.915Z</time>
      </trkpt>
      <trkpt lat="47.39203" lon="-1.5293">
        <ele>56.980703</ele>
        <time>2022-12-16T12:19:44.938Z</time>
      </trkpt>
      <trkpt lat="47.39193" lon="-1.52938">
        <ele>57.086893</ele>
        <time>2022-12-16T12:19:48.931Z</time>
      </trkpt>
      <trkpt lat="47.39185" lon="-1.52944">
        <ele>57.167871</ele>
        <time>2022-12-16T12:19:51.930Z</time>
      </trkpt>
      <trkpt lat="47.39177" lon="-1.52951">
        <ele>57.251069</ele>
        <time>2022-12-16T12:19:54.936Z</time>
      </trkpt>
      <trkpt lat="47.39168" lon="-1.52957">
        <ele>57.33447</ele>
        <time>2022-12-16T12:19:57.930Z</time>
      </trkpt>
      <trkpt lat="47.3916" lon="-1.52963">
        <ele>57.417092</ele>
        <time>2022-12-16T12:20:00.916Z</time>
      </trkpt>
      <trkpt lat="47.39151" lon="-1.52969">
        <ele>57.508874</ele>
        <time>2022-12-16T12:20:03.926Z</time>
      </trkpt>
      <trkpt lat="47.39141" lon="-1.52975">
        <ele>57.603553</ele>
        <time>2022-12-16T12:20:06.924Z</time>
      </trkpt>
      <trkpt lat="47.39131" lon="-1.52981">
        <ele>57.703042</ele>
        <time>2022-12-16T12:20:09.913Z</time>
      </trkpt>
      <trkpt lat="47.39121" lon="-1.52987">
        <ele>57.805101</ele>
        <time>2022-12-16T12:20:12.940Z</time>
      </trkpt>
      <trkpt lat="47.3911" lon="-1.52993">
        <ele>57.908399</ele>
        <time>2022-12-16T12:20:15.935Z</time>
      </trkpt>
      <trkpt lat="47.39099" lon="-1.53002">
        <ele>58.017551</ele>
        <time>2022-12-16T12:20:18.932Z</time>
      </trkpt>
      <trkpt lat="47.39089" lon="-1.53012">
        <ele>58.125753</ele>
        <time>2022-12-16T12:20:21.913Z</time>
      </trkpt>
      <trkpt lat="47.39081" lon="-1.53022">
        <ele>58.223699</ele>
        <time>2022-12-16T12:20:24.917Z</time>
      </trkpt>
      <trkpt lat="47.39075" lon="-1.53033">
        <ele>58.312599</ele>
        <time>2022-12-16T12:20:27.913Z</time>
      </trkpt>
      <trkpt lat="47.39067" lon="-1.53045">
        <ele>58.379333</ele>
        <time>2022-12-16T12:20:30.934Z</time>
      </trkpt>
      <trkpt lat="47.3906" lon="-1.53057">
        <ele>58.31931</ele>
        <time>2022-12-16T12:20:33.932Z</time>
      </trkpt>
      <trkpt lat="47.39052" lon="-1.5307">
        <ele>58.256396</ele>
        <time>2022-12-16T12:20:36.931Z</time>
      </trkpt>
      <trkpt lat="47.39044" lon="-1.53083">
        <ele>58.193958</ele>
        <time>2022-12-16T12:20:39.934Z</time>
      </trkpt>
      <trkpt lat="47.39036" lon="-1.53096">
        <ele>58.130358</ele>
        <time>2022-12-16T12:20:42.927Z</time>
      </trkpt>
      <trkpt lat="47.3903" lon="-1.53111">
        <ele>58.066899</ele>
        <time>2022-12-16T12:20:45.942Z</time>
      </trkpt>
      <trkpt lat="47.39023" lon="-1.53125">
        <ele>58.005832</ele>
        <time>2022-12-16T12:20:48.936Z</time>
      </trkpt>
      <trkpt lat="47.39017" lon="-1.53138">
        <ele>57.946257</ele>
        <time>2022-12-16T12:20:51.919Z</time>
      </trkpt>
      <trkpt lat="47.3901" lon="-1.53152">
        <ele>57.886079</ele>
        <time>2022-12-16T12:20:54.914Z</time>
      </trkpt>
      <trkpt lat="47.39004" lon="-1.53166">
        <ele>57.825544</ele>
        <time>2022-12-16T12:20:57.923Z</time>
      </trkpt>
      <trkpt lat="47.39" lon="-1.53179">
        <ele>57.772443</ele>
        <time>2022-12-16T12:21:00.912Z</time>
      </trkpt>
      <trkpt lat="47.38993" lon="-1.53193">
        <ele>57.70975</ele>
        <time>2022-12-16T12:21:04.914Z</time>
      </trkpt>
      <trkpt lat="47.38987" lon="-1.53205">
        <ele>57.657654</ele>
        <time>2022-12-16T12:21:07.913Z</time>
      </trkpt>
      <trkpt lat="47.38981" lon="-1.53216">
        <ele>57.605956</ele>
        <time>2022-12-16T12:21:10.914Z</time>
      </trkpt>
      <trkpt lat="47.38972" lon="-1.53218">
        <ele>57.556466</ele>
        <time>2022-12-16T12:21:14.935Z</time>
      </trkpt>
      <trkpt lat="47.3897" lon="-1.532">
        <ele>57.491626</ele>
        <time>2022-12-16T12:21:18.917Z</time>
      </trkpt>
      <trkpt lat="47.38971" lon="-1.53185">
        <ele>57.43575</ele>
        <time>2022-12-16T12:21:21.932Z</time>
      </trkpt>
      <trkpt lat="47.38973" lon="-1.53168">
        <ele>57.177222</ele>
        <time>2022-12-16T12:21:24.931Z</time>
      </trkpt>
      <trkpt lat="47.38974" lon="-1.53151">
        <ele>56.887162</ele>
        <time>2022-12-16T12:21:27.919Z</time>
      </trkpt>
      <trkpt lat="47.38976" lon="-1.53134">
        <ele>56.601521</ele>
        <time>2022-12-16T12:21:30.914Z</time>
      </trkpt>
      <trkpt lat="47.38977" lon="-1.53117">
        <ele>56.33</ele>
        <time>2022-12-16T12:21:33.934Z</time>
      </trkpt>
      <trkpt lat="47.38979" lon="-1.531">
        <ele>56.051073</ele>
        <time>2022-12-16T12:21:36.931Z</time>
      </trkpt>
      <trkpt lat="47.38979" lon="-1.53083">
        <ele>55.766216</ele>
        <time>2022-12-16T12:21:39.930Z</time>
      </trkpt>
      <trkpt lat="47.38978" lon="-1.53065">
        <ele>55.461458</ele>
        <time>2022-12-16T12:21:42.919Z</time>
      </trkpt>
      <trkpt lat="47.38977" lon="-1.53045">
        <ele>55.139464</ele>
        <time>2022-12-16T12:21:45.930Z</time>
      </trkpt>
      <trkpt lat="47.38974" lon="-1.53026">
        <ele>54.815656</ele>
        <time>2022-12-16T12:21:48.913Z</time>
      </trkpt>
      <trkpt lat="47.3897" lon="-1.53014">
        <ele>54.595084</ele>
        <time>2022-12-16T12:21:50.921Z</time>
      </trkpt>
      <trkpt lat="47.38964" lon="-1.53003">
        <ele>54.361032</ele>
        <time>2022-12-16T12:21:52.918Z</time>
      </trkpt>
      <trkpt lat="47.38956" lon="-1.52995">
        <ele>54.131533</ele>
        <time>2022-12-16T12:21:54.921Z</time>
      </trkpt>
      <trkpt lat="47.38944" lon="-1.52989">
        <ele>53.825335</ele>
        <time>2022-12-16T12:21:57.913Z</time>
      </trkpt>
      <trkpt lat="47.38932" lon="-1.52985">
        <ele>53.510606</ele>
        <time>2022-12-16T12:22:00.914Z</time>
      </trkpt>
      <trkpt lat="47.3892" lon="-1.5298">
        <ele>53.220932</ele>
        <time>2022-12-16T12:22:03.935Z</time>
      </trkpt>
      <trkpt lat="47.3891" lon="-1.52977">
        <ele>53.024591</ele>
        <time>2022-12-16T12:22:06.927Z</time>
      </trkpt>
      <trkpt lat="47.38898" lon="-1.52974">
        <ele>52.928715</ele>
        <time>2022-12-16T12:22:09.931Z</time>
      </trkpt>
      <trkpt lat="47.38885" lon="-1.52973">
        <ele>52.81903</ele>
        <time>2022-12-16T12:22:12.938Z</time>
      </trkpt>
      <trkpt lat="47.38872" lon="-1.52973">
        <ele>52.711246</ele>
        <time>2022-12-16T12:22:15.915Z</time>
      </trkpt>
      <trkpt lat="47.3886" lon="-1.52975">
        <ele>52.610442</ele>
        <time>2022-12-16T12:22:18.932Z</time>
      </trkpt>
      <trkpt lat="47.3885" lon="-1.52979">
        <ele>52.524128</ele>
        <time>2022-12-16T12:22:21.927Z</time>
      </trkpt>
      <trkpt lat="47.38846" lon="-1.52965">
        <ele>52.443153</ele>
        <time>2022-12-16T12:22:26.933Z</time>
      </trkpt>
      <trkpt lat="47.38847" lon="-1.52952">
        <ele>52.36879</ele>
        <time>2022-12-16T12:22:29.921Z</time>
      </trkpt>
      <trkpt lat="47.38848" lon="-1.52937">
        <ele>52.284762</ele>
        <time>2022-12-16T12:22:32.936Z</time>
      </trkpt>
      <trkpt lat="47.3885" lon="-1.52923">
        <ele>52.203757</ele>
        <time>2022-12-16T12:22:35.924Z</time>
      </trkpt>
      <trkpt lat="47.38853" lon="-1.52906">
        <ele>52.111401</ele>
        <time>2022-12-16T12:22:38.933Z</time>
      </trkpt>
      <trkpt lat="47.38856" lon="-1.52888">
        <ele>52.007326</ele>
        <time>2022-12-16T12:22:41.938Z</time>
      </trkpt>
      <trkpt lat="47.38859" lon="-1.52875">
        <ele>51.930566</ele>
        <time>2022-12-16T12:22:43.930Z</time>
      </trkpt>
      <trkpt lat="47.38862" lon="-1.52862">
        <ele>51.852754</ele>
        <time>2022-12-16T12:22:45.912Z</time>
      </trkpt>
      <trkpt lat="47.38866" lon="-1.52844">
        <ele>51.743821</ele>
        <time>2022-12-16T12:22:48.929Z</time>
      </trkpt>
      <trkpt lat="47.3887" lon="-1.52831">
        <ele>51.669514</ele>
        <time>2022-12-16T12:22:50.915Z</time>
      </trkpt>
      <trkpt lat="47.38874" lon="-1.52813">
        <ele>51.5601</ele>
        <time>2022-12-16T12:22:53.937Z</time>
      </trkpt>
      <trkpt lat="47.38878" lon="-1.52795">
        <ele>51.427949</ele>
        <time>2022-12-16T12:22:56.939Z</time>
      </trkpt>
      <trkpt lat="47.38882" lon="-1.52777">
        <ele>51.301864</ele>
        <time>2022-12-16T12:22:59.937Z</time>
      </trkpt>
      <trkpt lat="47.38884" lon="-1.52761">
        <ele>51.19243</ele>
        <time>2022-12-16T12:23:02.939Z</time>
      </trkpt>
      <trkpt lat="47.38884" lon="-1.52744">
        <ele>51.07393</ele>
        <time>2022-12-16T12:23:05.920Z</time>
      </trkpt>
      <trkpt lat="47.38884" lon="-1.52727">
        <ele>50.958815</ele>
        <time>2022-12-16T12:23:08.941Z</time>
      </trkpt>
      <trkpt lat="47.38883" lon="-1.5271">
        <ele>50.842451</ele>
        <time>2022-12-16T12:23:11.915Z</time>
      </trkpt>
      <trkpt lat="47.3888" lon="-1.52692">
        <ele>50.718049</ele>
        <time>2022-12-16T12:23:14.928Z</time>
      </trkpt>
      <trkpt lat="47.38875" lon="-1.52675">
        <ele>50.589876</ele>
        <time>2022-12-16T12:23:17.932Z</time>
      </trkpt>
      <trkpt lat="47.38869" lon="-1.52659">
        <ele>50.466615</ele>
        <time>2022-12-16T12:23:20.914Z</time>
      </trkpt>
      <trkpt lat="47.38863" lon="-1.52645">
        <ele>50.356572</ele>
        <time>2022-12-16T12:23:23.929Z</time>
      </trkpt>
      <trkpt lat="47.38858" lon="-1.52631">
        <ele>50.253916</ele>
        <time>2022-12-16T12:23:26.936Z</time>
      </trkpt>
      <trkpt lat="47.38855" lon="-1.52618">
        <ele>50.15577</ele>
        <time>2022-12-16T12:23:29.914Z</time>
      </trkpt>
      <trkpt lat="47.38853" lon="-1.52605">
        <ele>50.064527</ele>
        <time>2022-12-16T12:23:32.913Z</time>
      </trkpt>
      <trkpt lat="47.3885" lon="-1.5259">
        <ele>49.966077</ele>
        <time>2022-12-16T12:23:35.932Z</time>
      </trkpt>
      <trkpt lat="47.38848" lon="-1.52574">
        <ele>49.853993</ele>
        <time>2022-12-16T12:23:39.933Z</time>
      </trkpt>
      <trkpt lat="47.38849" lon="-1.52559">
        <ele>49.772498</ele>
        <time>2022-12-16T12:23:59.914Z</time>
      </trkpt>
      <trkpt lat="47.38847" lon="-1.52542">
        <ele>49.748134</ele>
        <time>2022-12-16T12:24:04.920Z</time>
      </trkpt>
      <trkpt lat="47.38845" lon="-1.52529">
        <ele>49.72916</ele>
        <time>2022-12-16T12:24:07.933Z</time>
      </trkpt>
      <trkpt lat="47.38842" lon="-1.52514">
        <ele>49.707304</ele>
        <time>2022-12-16T12:24:10.914Z</time>
      </trkpt>
      <trkpt lat="47.38839" lon="-1.52498">
        <ele>49.684108</ele>
        <time>2022-12-16T12:24:13.922Z</time>
      </trkpt>
      <trkpt lat="47.38836" lon="-1.52481">
        <ele>49.659667</ele>
        <time>2022-12-16T12:24:16.936Z</time>
      </trkpt>
      <trkpt lat="47.38834" lon="-1.52464">
        <ele>49.63473</ele>
        <time>2022-12-16T12:24:19.940Z</time>
      </trkpt>
      <trkpt lat="47.38832" lon="-1.52448">
        <ele>49.611448</ele>
        <time>2022-12-16T12:24:22.930Z</time>
      </trkpt>
      <trkpt lat="47.38829" lon="-1.52432">
        <ele>49.588199</ele>
        <time>2022-12-16T12:24:25.929Z</time>
      </trkpt>
      <trkpt lat="47.38826" lon="-1.52415">
        <ele>49.562917</ele>
        <time>2022-12-16T12:24:28.935Z</time>
      </trkpt>
      <trkpt lat="47.38824" lon="-1.52397">
        <ele>49.537932</ele>
        <time>2022-12-16T12:24:31.923Z</time>
      </trkpt>
      <trkpt lat="47.38821" lon="-1.5238">
        <ele>49.51263</ele>
        <time>2022-12-16T12:24:34.938Z</time>
      </trkpt>
      <trkpt lat="47.38819" lon="-1.52362">
        <ele>49.487297</ele>
        <time>2022-12-16T12:24:37.928Z</time>
      </trkpt>
      <trkpt lat="47.38816" lon="-1.52344">
        <ele>49.461445</ele>
        <time>2022-12-16T12:24:40.917Z</time>
      </trkpt>
      <trkpt lat="47.38813" lon="-1.52325">
        <ele>49.4344</ele>
        <time>2022-12-16T12:24:43.943Z</time>
      </trkpt>
      <trkpt lat="47.38811" lon="-1.52308">
        <ele>49.409091</ele>
        <time>2022-12-16T12:24:46.927Z</time>
      </trkpt>
      <trkpt lat="47.38808" lon="-1.5229">
        <ele>49.355773</ele>
        <time>2022-12-16T12:24:49.924Z</time>
      </trkpt>
      <trkpt lat="47.38805" lon="-1.52272">
        <ele>49.292598</ele>
        <time>2022-12-16T12:24:52.934Z</time>
      </trkpt>
      <trkpt lat="47.38802" lon="-1.52254">
        <ele>49.228379</ele>
        <time>2022-12-16T12:24:55.932Z</time>
      </trkpt>
      <trkpt lat="47.388" lon="-1.52241">
        <ele>49.180099</ele>
        <time>2022-12-16T12:24:57.926Z</time>
      </trkpt>
      <trkpt lat="47.38797" lon="-1.52228">
        <ele>49.134398</ele>
        <time>2022-12-16T12:24:59.935Z</time>
      </trkpt>
      <trkpt lat="47.38795" lon="-1.52215">
        <ele>49.087008</ele>
        <time>2022-12-16T12:25:01.932Z</time>
      </trkpt>
      <trkpt lat="47.38792" lon="-1.52202">
        <ele>49.040422</ele>
        <time>2022-12-16T12:25:03.931Z</time>
      </trkpt>
      <trkpt lat="47.38789" lon="-1.52185">
        <ele>48.98115</ele>
        <time>2022-12-16T12:25:06.923Z</time>
      </trkpt>
      <trkpt lat="47.38784" lon="-1.52167">
        <ele>48.917384</ele>
        <time>2022-12-16T12:25:09.914Z</time>
      </trkpt>
      <trkpt lat="47.38782" lon="-1.52154">
        <ele>48.870374</ele>
        <time>2022-12-16T12:25:11.916Z</time>
      </trkpt>
      <trkpt lat="47.3878" lon="-1.52141">
        <ele>48.823135</ele>
        <time>2022-12-16T12:25:13.934Z</time>
      </trkpt>
      <trkpt lat="47.38778" lon="-1.52127">
        <ele>48.77378</ele>
        <time>2022-12-16T12:25:15.928Z</time>
      </trkpt>
      <trkpt lat="47.38775" lon="-1.52113">
        <ele>48.723439</ele>
        <time>2022-12-16T12:25:17.931Z</time>
      </trkpt>
      <trkpt lat="47.38773" lon="-1.52099">
        <ele>48.674828</ele>
        <time>2022-12-16T12:25:19.910Z</time>
      </trkpt>
      <trkpt lat="47.38771" lon="-1.52086">
        <ele>48.628374</ele>
        <time>2022-12-16T12:25:21.936Z</time>
      </trkpt>
      <trkpt lat="47.38768" lon="-1.52067">
        <ele>48.562426</ele>
        <time>2022-12-16T12:25:24.915Z</time>
      </trkpt>
      <trkpt lat="47.38765" lon="-1.5205">
        <ele>48.503563</ele>
        <time>2022-12-16T12:25:27.938Z</time>
      </trkpt>
      <trkpt lat="47.38761" lon="-1.52032">
        <ele>48.48439</ele>
        <time>2022-12-16T12:25:30.912Z</time>
      </trkpt>
      <trkpt lat="47.38758" lon="-1.52019">
        <ele>48.476651</ele>
        <time>2022-12-16T12:25:32.932Z</time>
      </trkpt>
      <trkpt lat="47.38755" lon="-1.52007">
        <ele>48.468952</ele>
        <time>2022-12-16T12:25:34.918Z</time>
      </trkpt>
      <trkpt lat="47.38751" lon="-1.51995">
        <ele>48.461233</ele>
        <time>2022-12-16T12:25:36.940Z</time>
      </trkpt>
      <trkpt lat="47.38745" lon="-1.51977">
        <ele>48.449749</ele>
        <time>2022-12-16T12:25:39.933Z</time>
      </trkpt>
      <trkpt lat="47.38739" lon="-1.51958">
        <ele>48.438102</ele>
        <time>2022-12-16T12:25:42.924Z</time>
      </trkpt>
      <trkpt lat="47.38733" lon="-1.51943">
        <ele>48.427749</ele>
        <time>2022-12-16T12:25:45.930Z</time>
      </trkpt>
      <trkpt lat="47.38728" lon="-1.51926">
        <ele>48.417152</ele>
        <time>2022-12-16T12:25:48.922Z</time>
      </trkpt>
      <trkpt lat="47.38721" lon="-1.5191">
        <ele>48.40639</ele>
        <time>2022-12-16T12:25:51.931Z</time>
      </trkpt>
      <trkpt lat="47.38715" lon="-1.51892">
        <ele>48.394846</ele>
        <time>2022-12-16T12:25:54.936Z</time>
      </trkpt>
      <trkpt lat="47.38708" lon="-1.51875">
        <ele>48.383421</ele>
        <time>2022-12-16T12:25:57.920Z</time>
      </trkpt>
      <trkpt lat="47.38702" lon="-1.51859">
        <ele>48.372375</ele>
        <time>2022-12-16T12:26:00.914Z</time>
      </trkpt>
      <trkpt lat="47.38698" lon="-1.51847">
        <ele>48.36458</ele>
        <time>2022-12-16T12:26:02.943Z</time>
      </trkpt>
      <trkpt lat="47.38691" lon="-1.51829">
        <ele>48.353081</ele>
        <time>2022-12-16T12:26:05.944Z</time>
      </trkpt>
      <trkpt lat="47.38686" lon="-1.51817">
        <ele>48.345003</ele>
        <time>2022-12-16T12:26:07.929Z</time>
      </trkpt>
      <trkpt lat="47.38682" lon="-1.51804">
        <ele>48.332006</ele>
        <time>2022-12-16T12:26:09.936Z</time>
      </trkpt>
      <trkpt lat="47.38678" lon="-1.51792">
        <ele>48.313795</ele>
        <time>2022-12-16T12:26:11.924Z</time>
      </trkpt>
      <trkpt lat="47.38674" lon="-1.5178">
        <ele>48.29587</ele>
        <time>2022-12-16T12:26:13.930Z</time>
      </trkpt>
      <trkpt lat="47.38668" lon="-1.51763">
        <ele>48.270006</ele>
        <time>2022-12-16T12:26:16.938Z</time>
      </trkpt>
      <trkpt lat="47.38662" lon="-1.51748">
        <ele>48.246629</ele>
        <time>2022-12-16T12:26:19.936Z</time>
      </trkpt>
      <trkpt lat="47.38658" lon="-1.51734">
        <ele>48.227258</ele>
        <time>2022-12-16T12:26:22.942Z</time>
      </trkpt>
      <trkpt lat="47.38652" lon="-1.51719">
        <ele>48.204535</ele>
        <time>2022-12-16T12:26:26.927Z</time>
      </trkpt>
      <trkpt lat="47.38648" lon="-1.51707">
        <ele>48.185997</ele>
        <time>2022-12-16T12:26:30.915Z</time>
      </trkpt>
      <trkpt lat="47.38643" lon="-1.51693">
        <ele>48.164345</ele>
        <time>2022-12-16T12:26:34.932Z</time>
      </trkpt>
      <trkpt lat="47.38637" lon="-1.5168">
        <ele>48.143937</ele>
        <time>2022-12-16T12:26:37.929Z</time>
      </trkpt>
      <trkpt lat="47.38632" lon="-1.51665">
        <ele>48.121722</ele>
        <time>2022-12-16T12:26:40.917Z</time>
      </trkpt>
      <trkpt lat="47.38627" lon="-1.51652">
        <ele>48.101286</ele>
        <time>2022-12-16T12:26:43.937Z</time>
      </trkpt>
      <trkpt lat="47.38621" lon="-1.51638">
        <ele>48.079029</ele>
        <time>2022-12-16T12:26:46.929Z</time>
      </trkpt>
      <trkpt lat="47.38615" lon="-1.51623">
        <ele>48.056469</ele>
        <time>2022-12-16T12:26:49.935Z</time>
      </trkpt>
      <trkpt lat="47.38608" lon="-1.51606">
        <ele>48.030754</ele>
        <time>2022-12-16T12:26:52.925Z</time>
      </trkpt>
      <trkpt lat="47.38604" lon="-1.51594">
        <ele>48.012537</ele>
        <time>2022-12-16T12:26:54.927Z</time>
      </trkpt>
      <trkpt lat="47.38599" lon="-1.51582">
        <ele>47.993582</ele>
        <time>2022-12-16T12:26:56.935Z</time>
      </trkpt>
      <trkpt lat="47.38595" lon="-1.51568">
        <ele>47.922321</ele>
        <time>2022-12-16T12:26:58.941Z</time>
      </trkpt>
      <trkpt lat="47.3859" lon="-1.51556">
        <ele>47.835819</ele>
        <time>2022-12-16T12:27:00.915Z</time>
      </trkpt>
      <trkpt lat="47.38585" lon="-1.51544">
        <ele>47.748161</ele>
        <time>2022-12-16T12:27:02.944Z</time>
      </trkpt>
      <trkpt lat="47.38581" lon="-1.51532">
        <ele>47.660181</ele>
        <time>2022-12-16T12:27:04.940Z</time>
      </trkpt>
      <trkpt lat="47.38576" lon="-1.51519">
        <ele>47.571059</ele>
        <time>2022-12-16T12:27:06.935Z</time>
      </trkpt>
      <trkpt lat="47.38571" lon="-1.51507">
        <ele>47.480987</ele>
        <time>2022-12-16T12:27:08.930Z</time>
      </trkpt>
      <trkpt lat="47.38566" lon="-1.51495">
        <ele>47.394953</ele>
        <time>2022-12-16T12:27:10.916Z</time>
      </trkpt>
      <trkpt lat="47.38561" lon="-1.51483">
        <ele>47.309457</ele>
        <time>2022-12-16T12:27:12.942Z</time>
      </trkpt>
      <trkpt lat="47.38555" lon="-1.51467">
        <ele>47.193594</ele>
        <time>2022-12-16T12:27:15.925Z</time>
      </trkpt>
      <trkpt lat="47.3855" lon="-1.51453">
        <ele>47.094056</ele>
        <time>2022-12-16T12:27:18.931Z</time>
      </trkpt>
      <trkpt lat="47.38544" lon="-1.51439">
        <ele>46.986989</ele>
        <time>2022-12-16T12:27:21.934Z</time>
      </trkpt>
      <trkpt lat="47.38538" lon="-1.51423">
        <ele>46.877273</ele>
        <time>2022-12-16T12:27:24.933Z</time>
      </trkpt>
      <trkpt lat="47.38532" lon="-1.51407">
        <ele>46.760419</ele>
        <time>2022-12-16T12:27:27.932Z</time>
      </trkpt>
      <trkpt lat="47.38526" lon="-1.51389">
        <ele>46.637362</ele>
        <time>2022-12-16T12:27:30.917Z</time>
      </trkpt>
      <trkpt lat="47.38522" lon="-1.51378">
        <ele>46.554774</ele>
        <time>2022-12-16T12:27:32.933Z</time>
      </trkpt>
      <trkpt lat="47.38516" lon="-1.51362">
        <ele>46.440729</ele>
        <time>2022-12-16T12:27:35.932Z</time>
      </trkpt>
      <trkpt lat="47.38509" lon="-1.51348">
        <ele>46.331541</ele>
        <time>2022-12-16T12:27:38.916Z</time>
      </trkpt>
      <trkpt lat="47.38501" lon="-1.51336">
        <ele>46.340968</ele>
        <time>2022-12-16T12:27:41.936Z</time>
      </trkpt>
      <trkpt lat="47.38493" lon="-1.51324">
        <ele>46.354605</ele>
        <time>2022-12-16T12:27:44.938Z</time>
      </trkpt>
      <trkpt lat="47.38485" lon="-1.51314">
        <ele>46.36824</ele>
        <time>2022-12-16T12:27:47.935Z</time>
      </trkpt>
      <trkpt lat="47.38476" lon="-1.51302">
        <ele>46.382418</ele>
        <time>2022-12-16T12:27:50.915Z</time>
      </trkpt>
      <trkpt lat="47.38466" lon="-1.5129">
        <ele>46.397721</ele>
        <time>2022-12-16T12:27:53.913Z</time>
      </trkpt>
      <trkpt lat="47.38458" lon="-1.51276">
        <ele>46.412655</ele>
        <time>2022-12-16T12:27:56.930Z</time>
      </trkpt>
      <trkpt lat="47.3845" lon="-1.51262">
        <ele>46.428024</ele>
        <time>2022-12-16T12:27:59.939Z</time>
      </trkpt>
      <trkpt lat="47.38444" lon="-1.51251">
        <ele>46.439233</ele>
        <time>2022-12-16T12:28:01.923Z</time>
      </trkpt>
      <trkpt lat="47.38439" lon="-1.51239">
        <ele>46.450917</ele>
        <time>2022-12-16T12:28:03.918Z</time>
      </trkpt>
      <trkpt lat="47.38434" lon="-1.51227">
        <ele>46.462667</ele>
        <time>2022-12-16T12:28:05.929Z</time>
      </trkpt>
      <trkpt lat="47.38428" lon="-1.51215">
        <ele>46.474843</ele>
        <time>2022-12-16T12:28:07.935Z</time>
      </trkpt>
      <trkpt lat="47.38423" lon="-1.51203">
        <ele>46.48673</ele>
        <time>2022-12-16T12:28:09.921Z</time>
      </trkpt>
      <trkpt lat="47.38417" lon="-1.5119">
        <ele>46.499633</ele>
        <time>2022-12-16T12:28:11.919Z</time>
      </trkpt>
      <trkpt lat="47.38411" lon="-1.51178">
        <ele>46.511725</ele>
        <time>2022-12-16T12:28:13.935Z</time>
      </trkpt>
      <trkpt lat="47.38405" lon="-1.51166">
        <ele>46.523747</ele>
        <time>2022-12-16T12:28:15.915Z</time>
      </trkpt>
      <trkpt lat="47.384" lon="-1.51153">
        <ele>46.536039</ele>
        <time>2022-12-16T12:28:17.931Z</time>
      </trkpt>
      <trkpt lat="47.38394" lon="-1.51141">
        <ele>46.537975</ele>
        <time>2022-12-16T12:28:19.936Z</time>
      </trkpt>
      <trkpt lat="47.38389" lon="-1.51129">
        <ele>46.487819</ele>
        <time>2022-12-16T12:28:21.929Z</time>
      </trkpt>
      <trkpt lat="47.38384" lon="-1.51118">
        <ele>46.439139</ele>
        <time>2022-12-16T12:28:23.937Z</time>
      </trkpt>
      <trkpt lat="47.38377" lon="-1.51102">
        <ele>46.374848</ele>
        <time>2022-12-16T12:28:26.932Z</time>
      </trkpt>
      <trkpt lat="47.38371" lon="-1.51088">
        <ele>46.316423</ele>
        <time>2022-12-16T12:28:29.933Z</time>
      </trkpt>
      <trkpt lat="47.38365" lon="-1.51074">
        <ele>46.255719</ele>
        <time>2022-12-16T12:28:32.939Z</time>
      </trkpt>
      <trkpt lat="47.38358" lon="-1.5106">
        <ele>46.192499</ele>
        <time>2022-12-16T12:28:35.932Z</time>
      </trkpt>
      <trkpt lat="47.38348" lon="-1.51048">
        <ele>46.127175</ele>
        <time>2022-12-16T12:28:38.916Z</time>
      </trkpt>
      <trkpt lat="47.38336" lon="-1.51046">
        <ele>46.063931</ele>
        <time>2022-12-16T12:28:41.936Z</time>
      </trkpt>
      <trkpt lat="47.38325" lon="-1.51046">
        <ele>46.00429</ele>
        <time>2022-12-16T12:28:44.921Z</time>
      </trkpt>
      <trkpt lat="47.38315" lon="-1.5104">
        <ele>45.952452</ele>
        <time>2022-12-16T12:28:47.927Z</time>
      </trkpt>
      <trkpt lat="47.38308" lon="-1.51028">
        <ele>45.893287</ele>
        <time>2022-12-16T12:28:51.928Z</time>
      </trkpt>
      <trkpt lat="47.38299" lon="-1.51016">
        <ele>45.831359</ele>
        <time>2022-12-16T12:28:55.934Z</time>
      </trkpt>
      <trkpt lat="47.3829" lon="-1.51009">
        <ele>45.781132</ele>
        <time>2022-12-16T12:28:58.925Z</time>
      </trkpt>
      <trkpt lat="47.38281" lon="-1.51">
        <ele>45.724717</ele>
        <time>2022-12-16T12:29:01.926Z</time>
      </trkpt>
      <trkpt lat="47.38276" lon="-1.50986">
        <ele>45.665294</ele>
        <time>2022-12-16T12:29:04.929Z</time>
      </trkpt>
      <trkpt lat="47.38271" lon="-1.50969">
        <ele>45.592563</ele>
        <time>2022-12-16T12:29:07.926Z</time>
      </trkpt>
      <trkpt lat="47.38267" lon="-1.50953">
        <ele>45.380719</ele>
        <time>2022-12-16T12:29:10.914Z</time>
      </trkpt>
      <trkpt lat="47.38263" lon="-1.50938">
        <ele>45.191449</ele>
        <time>2022-12-16T12:29:13.936Z</time>
      </trkpt>
      <trkpt lat="47.38259" lon="-1.50923">
        <ele>44.984612</ele>
        <time>2022-12-16T12:29:16.934Z</time>
      </trkpt>
      <trkpt lat="47.38256" lon="-1.50907">
        <ele>44.782614</ele>
        <time>2022-12-16T12:29:19.927Z</time>
      </trkpt>
      <trkpt lat="47.38252" lon="-1.50893">
        <ele>44.602547</ele>
        <time>2022-12-16T12:29:22.924Z</time>
      </trkpt>
      <trkpt lat="47.38249" lon="-1.50877">
        <ele>44.399387</ele>
        <time>2022-12-16T12:29:26.921Z</time>
      </trkpt>
      <trkpt lat="47.38246" lon="-1.50864">
        <ele>44.231371</ele>
        <time>2022-12-16T12:29:31.936Z</time>
      </trkpt>
      <trkpt lat="47.38238" lon="-1.50853">
        <ele>44.039195</ele>
        <time>2022-12-16T12:29:48.924Z</time>
      </trkpt>
      <trkpt lat="47.38232" lon="-1.50843">
        <ele>43.876389</ele>
        <time>2022-12-16T12:29:52.920Z</time>
      </trkpt>
      <trkpt lat="47.38223" lon="-1.50832">
        <ele>43.67094</ele>
        <time>2022-12-16T12:29:56.931Z</time>
      </trkpt>
      <trkpt lat="47.38215" lon="-1.50823">
        <ele>43.493691</ele>
        <time>2022-12-16T12:29:59.937Z</time>
      </trkpt>
      <trkpt lat="47.38206" lon="-1.50812">
        <ele>43.269978</ele>
        <time>2022-12-16T12:30:02.941Z</time>
      </trkpt>
      <trkpt lat="47.38195" lon="-1.50799">
        <ele>43.027484</ele>
        <time>2022-12-16T12:30:05.933Z</time>
      </trkpt>
      <trkpt lat="47.38184" lon="-1.50789">
        <ele>42.793365</ele>
        <time>2022-12-16T12:30:08.917Z</time>
      </trkpt>
      <trkpt lat="47.38174" lon="-1.50782">
        <ele>42.592704</ele>
        <time>2022-12-16T12:30:11.936Z</time>
      </trkpt>
      <trkpt lat="47.38163" lon="-1.50778">
        <ele>42.391345</ele>
        <time>2022-12-16T12:30:14.923Z</time>
      </trkpt>
      <trkpt lat="47.38152" lon="-1.50777">
        <ele>42.622441</ele>
        <time>2022-12-16T12:30:17.920Z</time>
      </trkpt>
      <trkpt lat="47.3814" lon="-1.50775">
        <ele>42.8937</ele>
        <time>2022-12-16T12:30:20.916Z</time>
      </trkpt>
      <trkpt lat="47.38128" lon="-1.50769">
        <ele>43.187033</ele>
        <time>2022-12-16T12:30:23.923Z</time>
      </trkpt>
      <trkpt lat="47.38119" lon="-1.50762">
        <ele>43.415434</ele>
        <time>2022-12-16T12:30:25.916Z</time>
      </trkpt>
      <trkpt lat="47.38108" lon="-1.50752">
        <ele>43.715703</ele>
        <time>2022-12-16T12:30:28.925Z</time>
      </trkpt>
      <trkpt lat="47.38099" lon="-1.50742">
        <ele>43.97092</ele>
        <time>2022-12-16T12:30:31.934Z</time>
      </trkpt>
      <trkpt lat="47.38091" lon="-1.50734">
        <ele>44.19384</ele>
        <time>2022-12-16T12:30:34.938Z</time>
      </trkpt>
      <trkpt lat="47.3808" lon="-1.50726">
        <ele>44.485733</ele>
        <time>2022-12-16T12:30:38.935Z</time>
      </trkpt>
      <trkpt lat="47.38071" lon="-1.50722">
        <ele>44.70497</ele>
        <time>2022-12-16T12:30:41.917Z</time>
      </trkpt>
      <trkpt lat="47.3806" lon="-1.50719">
        <ele>44.958824</ele>
        <time>2022-12-16T12:30:44.917Z</time>
      </trkpt>
      <trkpt lat="47.38048" lon="-1.50718">
        <ele>45.235706</ele>
        <time>2022-12-16T12:30:47.922Z</time>
      </trkpt>
      <trkpt lat="47.38036" lon="-1.50719">
        <ele>45.515106</ele>
        <time>2022-12-16T12:30:50.914Z</time>
      </trkpt>
      <trkpt lat="47.38026" lon="-1.50717">
        <ele>45.740486</ele>
        <time>2022-12-16T12:30:53.918Z</time>
      </trkpt>
      <trkpt lat="47.38016" lon="-1.50713">
        <ele>45.995156</ele>
        <time>2022-12-16T12:30:57.923Z</time>
      </trkpt>
      <trkpt lat="47.38005" lon="-1.50707">
        <ele>46.255496</ele>
        <time>2022-12-16T12:31:01.925Z</time>
      </trkpt>
      <trkpt lat="47.37997" lon="-1.507">
        <ele>46.474759</ele>
        <time>2022-12-16T12:31:04.928Z</time>
      </trkpt>
      <trkpt lat="47.37988" lon="-1.50691">
        <ele>46.750209</ele>
        <time>2022-12-16T12:31:08.936Z</time>
      </trkpt>
      <trkpt lat="47.37982" lon="-1.50682">
        <ele>46.998598</ele>
        <time>2022-12-16T12:31:11.932Z</time>
      </trkpt>
      <trkpt lat="47.37975" lon="-1.50672">
        <ele>47.250361</ele>
        <time>2022-12-16T12:31:14.939Z</time>
      </trkpt>
      <trkpt lat="47.37967" lon="-1.50663">
        <ele>47.543164</ele>
        <time>2022-12-16T12:31:18.937Z</time>
      </trkpt>
      <trkpt lat="47.37958" lon="-1.50658">
        <ele>47.807696</ele>
        <time>2022-12-16T12:31:22.930Z</time>
      </trkpt>
      <trkpt lat="47.37947" lon="-1.5066">
        <ele>48.094482</ele>
        <time>2022-12-16T12:31:27.924Z</time>
      </trkpt>
      <trkpt lat="47.37938" lon="-1.50663">
        <ele>48.345412</ele>
        <time>2022-12-16T12:31:32.920Z</time>
      </trkpt>
      <trkpt lat="47.3793" lon="-1.50669">
        <ele>48.602527</ele>
        <time>2022-12-16T12:31:37.916Z</time>
      </trkpt>
      <trkpt lat="47.3792" lon="-1.50671">
        <ele>48.861543</ele>
        <time>2022-12-16T12:31:53.929Z</time>
      </trkpt>
      <trkpt lat="47.37912" lon="-1.50665">
        <ele>49.106</ele>
        <time>2022-12-16T12:32:05.923Z</time>
      </trkpt>
      <trkpt lat="47.37906" lon="-1.50655">
        <ele>49.363438</ele>
        <time>2022-12-16T12:32:15.917Z</time>
      </trkpt>
      <trkpt lat="47.37897" lon="-1.50649">
        <ele>49.617659</ele>
        <time>2022-12-16T12:32:27.921Z</time>
      </trkpt>
      <trkpt lat="47.37888" lon="-1.50649">
        <ele>49.868374</ele>
        <time>2022-12-16T12:32:37.929Z</time>
      </trkpt>
      <trkpt lat="47.37879" lon="-1.5065">
        <ele>50.12208</ele>
        <time>2022-12-16T12:32:48.926Z</time>
      </trkpt>
      <trkpt lat="47.3787" lon="-1.50651">
        <ele>50.369055</ele>
        <time>2022-12-16T12:32:58.925Z</time>
      </trkpt>
      <trkpt lat="47.3786" lon="-1.50652">
        <ele>50.631393</ele>
        <time>2022-12-16T12:33:08.921Z</time>
      </trkpt>
      <trkpt lat="47.37851" lon="-1.50653">
        <ele>50.879493</ele>
        <time>2022-12-16T12:33:17.913Z</time>
      </trkpt>
      <trkpt lat="47.37842" lon="-1.50652">
        <ele>51.130207</ele>
        <time>2022-12-16T12:33:26.917Z</time>
      </trkpt>
      <trkpt lat="47.37831" lon="-1.50653">
        <ele>51.419163</ele>
        <time>2022-12-16T12:33:30.925Z</time>
      </trkpt>
      <trkpt lat="47.37818" lon="-1.50655">
        <ele>51.187095</ele>
        <time>2022-12-16T12:33:33.928Z</time>
      </trkpt>
      <trkpt lat="47.37808" lon="-1.50656">
        <ele>50.979954</ele>
        <time>2022-12-16T12:33:35.934Z</time>
      </trkpt>
      <trkpt lat="47.37797" lon="-1.50658">
        <ele>50.780665</ele>
        <time>2022-12-16T12:33:37.929Z</time>
      </trkpt>
      <trkpt lat="47.37787" lon="-1.5066">
        <ele>50.58368</ele>
        <time>2022-12-16T12:33:39.934Z</time>
      </trkpt>
      <trkpt lat="47.37776" lon="-1.50662">
        <ele>50.380332</ele>
        <time>2022-12-16T12:33:41.935Z</time>
      </trkpt>
      <trkpt lat="47.37766" lon="-1.50664">
        <ele>50.187696</ele>
        <time>2022-12-16T12:33:43.932Z</time>
      </trkpt>
      <trkpt lat="47.37753" lon="-1.50667">
        <ele>49.930698</ele>
        <time>2022-12-16T12:33:46.916Z</time>
      </trkpt>
      <trkpt lat="47.37739" lon="-1.50669">
        <ele>49.6686</ele>
        <time>2022-12-16T12:33:49.937Z</time>
      </trkpt>
      <trkpt lat="47.37729" lon="-1.50669">
        <ele>49.472158</ele>
        <time>2022-12-16T12:33:51.935Z</time>
      </trkpt>
      <trkpt lat="47.37718" lon="-1.50669">
        <ele>49.268087</ele>
        <time>2022-12-16T12:33:53.936Z</time>
      </trkpt>
      <trkpt lat="47.37708" lon="-1.50669">
        <ele>49.065861</ele>
        <time>2022-12-16T12:33:55.933Z</time>
      </trkpt>
      <trkpt lat="47.37699" lon="-1.50668">
        <ele>48.890326</ele>
        <time>2022-12-16T12:33:57.930Z</time>
      </trkpt>
      <trkpt lat="47.37687" lon="-1.50669">
        <ele>48.663005</ele>
        <time>2022-12-16T12:34:00.919Z</time>
      </trkpt>
      <trkpt lat="47.37678" lon="-1.5067">
        <ele>48.491186</ele>
        <time>2022-12-16T12:34:02.926Z</time>
      </trkpt>
      <trkpt lat="47.37667" lon="-1.50671">
        <ele>48.281</ele>
        <time>2022-12-16T12:34:05.933Z</time>
      </trkpt>
      <trkpt lat="47.37657" lon="-1.5067">
        <ele>48.095554</ele>
        <time>2022-12-16T12:34:08.929Z</time>
      </trkpt>
      <trkpt lat="47.37647" lon="-1.50673">
        <ele>48.003628</ele>
        <time>2022-12-16T12:34:12.927Z</time>
      </trkpt>
      <trkpt lat="47.37644" lon="-1.50687">
        <ele>48.012134</ele>
        <time>2022-12-16T12:34:16.918Z</time>
      </trkpt>
      <trkpt lat="47.37643" lon="-1.507">
        <ele>48.020198</ele>
        <time>2022-12-16T12:34:19.928Z</time>
      </trkpt>
      <trkpt lat="47.37644" lon="-1.50715">
        <ele>48.028948</ele>
        <time>2022-12-16T12:34:22.922Z</time>
      </trkpt>
      <trkpt lat="47.37642" lon="-1.50729">
        <ele>48.037462</ele>
        <time>2022-12-16T12:34:25.918Z</time>
      </trkpt>
      <trkpt lat="47.37636" lon="-1.50742">
        <ele>48.046665</ele>
        <time>2022-12-16T12:34:28.923Z</time>
      </trkpt>
      <trkpt lat="47.37632" lon="-1.50757">
        <ele>48.056226</ele>
        <time>2022-12-16T12:34:31.919Z</time>
      </trkpt>
      <trkpt lat="47.37628" lon="-1.50771">
        <ele>48.065156</ele>
        <time>2022-12-16T12:34:34.915Z</time>
      </trkpt>
      <trkpt lat="47.37623" lon="-1.50784">
        <ele>48.074267</ele>
        <time>2022-12-16T12:34:37.937Z</time>
      </trkpt>
      <trkpt lat="47.37617" lon="-1.50797">
        <ele>48.083515</ele>
        <time>2022-12-16T12:34:40.916Z</time>
      </trkpt>
      <trkpt lat="47.3761" lon="-1.50808">
        <ele>48.092594</ele>
        <time>2022-12-16T12:34:43.928Z</time>
      </trkpt>
      <trkpt lat="47.37603" lon="-1.50821">
        <ele>48.102293</ele>
        <time>2022-12-16T12:34:46.941Z</time>
      </trkpt>
      <trkpt lat="47.37596" lon="-1.50836">
        <ele>48.113165</ele>
        <time>2022-12-16T12:34:49.932Z</time>
      </trkpt>
      <trkpt lat="47.37589" lon="-1.50852">
        <ele>48.124424</ele>
        <time>2022-12-16T12:34:52.927Z</time>
      </trkpt>
      <trkpt lat="47.3758" lon="-1.50865">
        <ele>48.135276</ele>
        <time>2022-12-16T12:34:55.940Z</time>
      </trkpt>
      <trkpt lat="47.37569" lon="-1.50872">
        <ele>48.146059</ele>
        <time>2022-12-16T12:34:58.927Z</time>
      </trkpt>
      <trkpt lat="47.37557" lon="-1.50874">
        <ele>48.155499</ele>
        <time>2022-12-16T12:35:01.919Z</time>
      </trkpt>
      <trkpt lat="47.37547" lon="-1.50873">
        <ele>48.131092</ele>
        <time>2022-12-16T12:35:03.921Z</time>
      </trkpt>
      <trkpt lat="47.37538" lon="-1.50871">
        <ele>48.107082</ele>
        <time>2022-12-16T12:35:05.929Z</time>
      </trkpt>
      <trkpt lat="47.37529" lon="-1.50868">
        <ele>48.082311</ele>
        <time>2022-12-16T12:35:07.922Z</time>
      </trkpt>
      <trkpt lat="47.3752" lon="-1.50867">
        <ele>48.057673</ele>
        <time>2022-12-16T12:35:09.929Z</time>
      </trkpt>
      <trkpt lat="47.3751" lon="-1.50867">
        <ele>48.032579</ele>
        <time>2022-12-16T12:35:11.941Z</time>
      </trkpt>
      <trkpt lat="47.37497" lon="-1.50868">
        <ele>47.998432</ele>
        <time>2022-12-16T12:35:14.918Z</time>
      </trkpt>
      <trkpt lat="47.37486" lon="-1.50875">
        <ele>47.965046</ele>
        <time>2022-12-16T12:35:17.929Z</time>
      </trkpt>
      <trkpt lat="47.37475" lon="-1.50882">
        <ele>47.934559</ele>
        <time>2022-12-16T12:35:20.914Z</time>
      </trkpt>
      <trkpt lat="47.37465" lon="-1.50891">
        <ele>47.903039</ele>
        <time>2022-12-16T12:35:23.963Z</time>
      </trkpt>
      <trkpt lat="47.37455" lon="-1.509">
        <ele>47.872301</ele>
        <time>2022-12-16T12:35:26.917Z</time>
      </trkpt>
      <trkpt lat="47.3745" lon="-1.50914">
        <ele>47.844239</ele>
        <time>2022-12-16T12:35:29.924Z</time>
      </trkpt>
      <trkpt lat="47.37445" lon="-1.50927">
        <ele>47.816593</ele>
        <time>2022-12-16T12:35:32.937Z</time>
      </trkpt>
      <trkpt lat="47.37441" lon="-1.50943">
        <ele>47.78644</ele>
        <time>2022-12-16T12:35:35.929Z</time>
      </trkpt>
      <trkpt lat="47.37438" lon="-1.50959">
        <ele>47.756162</ele>
        <time>2022-12-16T12:35:38.918Z</time>
      </trkpt>
      <trkpt lat="47.37435" lon="-1.50974">
        <ele>47.729814</ele>
        <time>2022-12-16T12:35:41.938Z</time>
      </trkpt>
      <trkpt lat="47.37431" lon="-1.50988">
        <ele>47.702042</ele>
        <time>2022-12-16T12:35:44.929Z</time>
      </trkpt>
      <trkpt lat="47.37428" lon="-1.51003">
        <ele>47.771035</ele>
        <time>2022-12-16T12:35:47.932Z</time>
      </trkpt>
      <trkpt lat="47.37425" lon="-1.51019">
        <ele>48.085292</ele>
        <time>2022-12-16T12:35:50.921Z</time>
      </trkpt>
      <trkpt lat="47.37422" lon="-1.51035">
        <ele>48.393005</ele>
        <time>2022-12-16T12:35:53.939Z</time>
      </trkpt>
      <trkpt lat="47.3742" lon="-1.5105">
        <ele>48.687683</ele>
        <time>2022-12-16T12:35:56.939Z</time>
      </trkpt>
      <trkpt lat="47.37421" lon="-1.51065">
        <ele>48.983521</ele>
        <time>2022-12-16T12:36:00.921Z</time>
      </trkpt>
      <trkpt lat="47.3743" lon="-1.51076">
        <ele>49.312952</ele>
        <time>2022-12-16T12:36:04.924Z</time>
      </trkpt>
      <trkpt lat="47.37431" lon="-1.5109">
        <ele>49.572132</ele>
        <time>2022-12-16T12:36:07.928Z</time>
      </trkpt>
      <trkpt lat="47.37429" lon="-1.51104">
        <ele>49.854446</ele>
        <time>2022-12-16T12:36:10.920Z</time>
      </trkpt>
      <trkpt lat="47.37428" lon="-1.5112">
        <ele>50.154211</ele>
        <time>2022-12-16T12:36:13.935Z</time>
      </trkpt>
      <trkpt lat="47.37427" lon="-1.51136">
        <ele>50.458812</ele>
        <time>2022-12-16T12:36:16.934Z</time>
      </trkpt>
      <trkpt lat="47.37426" lon="-1.51152">
        <ele>50.769473</ele>
        <time>2022-12-16T12:36:19.920Z</time>
      </trkpt>
      <trkpt lat="47.37425" lon="-1.51168">
        <ele>51.077859</ele>
        <time>2022-12-16T12:36:22.933Z</time>
      </trkpt>
      <trkpt lat="47.37424" lon="-1.51184">
        <ele>51.380795</ele>
        <time>2022-12-16T12:36:25.944Z</time>
      </trkpt>
      <trkpt lat="47.37424" lon="-1.51201">
        <ele>51.694997</ele>
        <time>2022-12-16T12:36:28.936Z</time>
      </trkpt>
      <trkpt lat="47.37424" lon="-1.51217">
        <ele>51.99582</ele>
        <time>2022-12-16T12:36:31.935Z</time>
      </trkpt>
      <trkpt lat="47.37425" lon="-1.51232">
        <ele>52.285438</ele>
        <time>2022-12-16T12:36:34.944Z</time>
      </trkpt>
      <trkpt lat="47.37424" lon="-1.51247">
        <ele>52.581886</ele>
        <time>2022-12-16T12:36:37.931Z</time>
      </trkpt>
      <trkpt lat="47.37422" lon="-1.51262">
        <ele>52.698261</ele>
        <time>2022-12-16T12:36:40.917Z</time>
      </trkpt>
      <trkpt lat="47.3742" lon="-1.51278">
        <ele>52.606671</ele>
        <time>2022-12-16T12:36:43.931Z</time>
      </trkpt>
      <trkpt lat="47.37418" lon="-1.51293">
        <ele>52.517638</ele>
        <time>2022-12-16T12:36:46.935Z</time>
      </trkpt>
      <trkpt lat="47.37418" lon="-1.51307">
        <ele>52.44128</ele>
        <time>2022-12-16T12:36:49.926Z</time>
      </trkpt>
      <trkpt lat="47.37417" lon="-1.51324">
        <ele>52.343228</ele>
        <time>2022-12-16T12:36:53.947Z</time>
      </trkpt>
      <trkpt lat="47.37413" lon="-1.51338">
        <ele>52.258969</ele>
        <time>2022-12-16T12:36:56.918Z</time>
      </trkpt>
      <trkpt lat="47.37409" lon="-1.5135">
        <ele>52.177343</ele>
        <time>2022-12-16T12:36:59.915Z</time>
      </trkpt>
      <trkpt lat="47.37402" lon="-1.51363">
        <ele>52.085988</ele>
        <time>2022-12-16T12:37:02.917Z</time>
      </trkpt>
      <trkpt lat="47.37394" lon="-1.51376">
        <ele>51.986387</ele>
        <time>2022-12-16T12:37:05.919Z</time>
      </trkpt>
      <trkpt lat="47.37386" lon="-1.51388">
        <ele>51.887997</ele>
        <time>2022-12-16T12:37:08.931Z</time>
      </trkpt>
      <trkpt lat="47.37377" lon="-1.514">
        <ele>51.791206</ele>
        <time>2022-12-16T12:37:11.941Z</time>
      </trkpt>
      <trkpt lat="47.37369" lon="-1.51411">
        <ele>51.692323</ele>
        <time>2022-12-16T12:37:14.922Z</time>
      </trkpt>
      <trkpt lat="47.3736" lon="-1.51421">
        <ele>51.603413</ele>
        <time>2022-12-16T12:37:17.938Z</time>
      </trkpt>
      <trkpt lat="47.3735" lon="-1.51426">
        <ele>51.510788</ele>
        <time>2022-12-16T12:37:21.927Z</time>
      </trkpt>
      <trkpt lat="47.37338" lon="-1.51426">
        <ele>51.410403</ele>
        <time>2022-12-16T12:37:25.927Z</time>
      </trkpt>
      <trkpt lat="47.37326" lon="-1.51426">
        <ele>51.306618</ele>
        <time>2022-12-16T12:37:29.936Z</time>
      </trkpt>
      <trkpt lat="47.37315" lon="-1.51424">
        <ele>51.23342</ele>
        <time>2022-12-16T12:37:33.929Z</time>
      </trkpt>
      <trkpt lat="47.37303" lon="-1.51425">
        <ele>51.362656</ele>
        <time>2022-12-16T12:37:37.938Z</time>
      </trkpt>
      <trkpt lat="47.37291" lon="-1.51427">
        <ele>51.494466</ele>
        <time>2022-12-16T12:37:41.936Z</time>
      </trkpt>
      <trkpt lat="47.37279" lon="-1.51428">
        <ele>51.626287</ele>
        <time>2022-12-16T12:37:45.934Z</time>
      </trkpt>
      <trkpt lat="47.37268" lon="-1.51432">
        <ele>51.752491</ele>
        <time>2022-12-16T12:37:49.922Z</time>
      </trkpt>
      <trkpt lat="47.37259" lon="-1.51443">
        <ele>51.886498</ele>
        <time>2022-12-16T12:37:53.927Z</time>
      </trkpt>
      <trkpt lat="47.37251" lon="-1.51453">
        <ele>51.999745</ele>
        <time>2022-12-16T12:37:56.936Z</time>
      </trkpt>
      <trkpt lat="47.37243" lon="-1.51464">
        <ele>52.121752</ele>
        <time>2022-12-16T12:37:59.935Z</time>
      </trkpt>
      <trkpt lat="47.37236" lon="-1.51474">
        <ele>52.23054</ele>
        <time>2022-12-16T12:38:02.929Z</time>
      </trkpt>
      <trkpt lat="47.3723" lon="-1.51485">
        <ele>52.342623</ele>
        <time>2022-12-16T12:38:05.930Z</time>
      </trkpt>
      <trkpt lat="47.37223" lon="-1.51497">
        <ele>52.455055</ele>
        <time>2022-12-16T12:38:08.941Z</time>
      </trkpt>
      <trkpt lat="47.37217" lon="-1.51509">
        <ele>52.57328</ele>
        <time>2022-12-16T12:38:11.935Z</time>
      </trkpt>
      <trkpt lat="47.37211" lon="-1.51521">
        <ele>52.687034</ele>
        <time>2022-12-16T12:38:14.930Z</time>
      </trkpt>
      <trkpt lat="47.37205" lon="-1.51533">
        <ele>52.794511</ele>
        <time>2022-12-16T12:38:17.926Z</time>
      </trkpt>
      <trkpt lat="47.37198" lon="-1.51546">
        <ele>52.923672</ele>
        <time>2022-12-16T12:38:21.932Z</time>
      </trkpt>
      <trkpt lat="47.37191" lon="-1.5156">
        <ele>53.05638</ele>
        <time>2022-12-16T12:38:25.913Z</time>
      </trkpt>
      <trkpt lat="47.37182" lon="-1.51572">
        <ele>53.186317</ele>
        <time>2022-12-16T12:38:29.932Z</time>
      </trkpt>
      <trkpt lat="47.37176" lon="-1.51583">
        <ele>53.275759</ele>
        <time>2022-12-16T12:38:32.945Z</time>
      </trkpt>
      <trkpt lat="47.37169" lon="-1.51593">
        <ele>53.352042</ele>
        <time>2022-12-16T12:38:35.939Z</time>
      </trkpt>
      <trkpt lat="47.37162" lon="-1.51602">
        <ele>53.426525</ele>
        <time>2022-12-16T12:38:38.933Z</time>
      </trkpt>
      <trkpt lat="47.37156" lon="-1.51614">
        <ele>53.50976</ele>
        <time>2022-12-16T12:38:41.929Z</time>
      </trkpt>
      <trkpt lat="47.3715" lon="-1.51625">
        <ele>53.59001</ele>
        <time>2022-12-16T12:38:44.937Z</time>
      </trkpt>
      <trkpt lat="47.37144" lon="-1.51636">
        <ele>53.665979</ele>
        <time>2022-12-16T12:38:47.939Z</time>
      </trkpt>
      <trkpt lat="47.37138" lon="-1.51647">
        <ele>53.743215</ele>
        <time>2022-12-16T12:38:50.916Z</time>
      </trkpt>
      <trkpt lat="47.37131" lon="-1.51659">
        <ele>53.830947</ele>
        <time>2022-12-16T12:38:54.931Z</time>
      </trkpt>
      <trkpt lat="47.37124" lon="-1.51671">
        <ele>53.916488</ele>
        <time>2022-12-16T12:38:58.937Z</time>
      </trkpt>
      <trkpt lat="47.37117" lon="-1.51684">
        <ele>54.013479</ele>
        <time>2022-12-16T12:39:02.924Z</time>
      </trkpt>
      <trkpt lat="47.37111" lon="-1.51695">
        <ele>54.092796</ele>
        <time>2022-12-16T12:39:05.935Z</time>
      </trkpt>
      <trkpt lat="47.37104" lon="-1.51706">
        <ele>54.173745</ele>
        <time>2022-12-16T12:39:08.935Z</time>
      </trkpt>
      <trkpt lat="47.37095" lon="-1.51712">
        <ele>54.252181</ele>
        <time>2022-12-16T12:39:11.939Z</time>
      </trkpt>
      <trkpt lat="47.37085" lon="-1.51715">
        <ele>54.335606</ele>
        <time>2022-12-16T12:39:14.930Z</time>
      </trkpt>
      <trkpt lat="47.37076" lon="-1.51711">
        <ele>54.412341</ele>
        <time>2022-12-16T12:39:17.921Z</time>
      </trkpt>
      <trkpt lat="47.37068" lon="-1.51704">
        <ele>54.485282</ele>
        <time>2022-12-16T12:39:20.920Z</time>
      </trkpt>
      <trkpt lat="47.37058" lon="-1.51704">
        <ele>54.567408</ele>
        <time>2022-12-16T12:39:23.928Z</time>
      </trkpt>
      <trkpt lat="47.37047" lon="-1.51703">
        <ele>54.652948</ele>
        <time>2022-12-16T12:39:26.926Z</time>
      </trkpt>
      <trkpt lat="47.37037" lon="-1.51698">
        <ele>54.598502</ele>
        <time>2022-12-16T12:39:29.938Z</time>
      </trkpt>
      <trkpt lat="47.37029" lon="-1.51691">
        <ele>54.478095</ele>
        <time>2022-12-16T12:39:31.926Z</time>
      </trkpt>
      <trkpt lat="47.37019" lon="-1.5168">
        <ele>54.324392</ele>
        <time>2022-12-16T12:39:34.935Z</time>
      </trkpt>
      <trkpt lat="47.37007" lon="-1.51675">
        <ele>54.163899</ele>
        <time>2022-12-16T12:39:37.916Z</time>
      </trkpt>
      <trkpt lat="47.36993" lon="-1.51676">
        <ele>53.985435</ele>
        <time>2022-12-16T12:39:40.924Z</time>
      </trkpt>
      <trkpt lat="47.36982" lon="-1.51677">
        <ele>53.846234</ele>
        <time>2022-12-16T12:39:42.928Z</time>
      </trkpt>
      <trkpt lat="47.36972" lon="-1.51678">
        <ele>53.721319</ele>
        <time>2022-12-16T12:39:44.941Z</time>
      </trkpt>
      <trkpt lat="47.36962" lon="-1.51678">
        <ele>53.584917</ele>
        <time>2022-12-16T12:39:46.935Z</time>
      </trkpt>
      <trkpt lat="47.36952" lon="-1.51679">
        <ele>53.45881</ele>
        <time>2022-12-16T12:39:48.944Z</time>
      </trkpt>
      <trkpt lat="47.36941" lon="-1.51679">
        <ele>53.327635</ele>
        <time>2022-12-16T12:39:50.917Z</time>
      </trkpt>
      <trkpt lat="47.36932" lon="-1.51679">
        <ele>53.206572</ele>
        <time>2022-12-16T12:39:52.915Z</time>
      </trkpt>
      <trkpt lat="47.36922" lon="-1.51679">
        <ele>53.074113</ele>
        <time>2022-12-16T12:39:54.922Z</time>
      </trkpt>
      <trkpt lat="47.36912" lon="-1.5168">
        <ele>52.946712</ele>
        <time>2022-12-16T12:39:56.925Z</time>
      </trkpt>
      <trkpt lat="47.36902" lon="-1.5168">
        <ele>52.82062</ele>
        <time>2022-12-16T12:39:58.939Z</time>
      </trkpt>
      <trkpt lat="47.36892" lon="-1.5168">
        <ele>52.700904</ele>
        <time>2022-12-16T12:40:00.920Z</time>
      </trkpt>
      <trkpt lat="47.36882" lon="-1.5168">
        <ele>52.573524</ele>
        <time>2022-12-16T12:40:02.935Z</time>
      </trkpt>
      <trkpt lat="47.36873" lon="-1.5168">
        <ele>52.449988</ele>
        <time>2022-12-16T12:40:04.935Z</time>
      </trkpt>
      <trkpt lat="47.36863" lon="-1.51681">
        <ele>52.318941</ele>
        <time>2022-12-16T12:40:06.946Z</time>
      </trkpt>
      <trkpt lat="47.36854" lon="-1.51681">
        <ele>52.185794</ele>
        <time>2022-12-16T12:40:08.935Z</time>
      </trkpt>
      <trkpt lat="47.36845" lon="-1.51682">
        <ele>52.056632</ele>
        <time>2022-12-16T12:40:10.917Z</time>
      </trkpt>
      <trkpt lat="47.36831" lon="-1.51682">
        <ele>51.861994</ele>
        <time>2022-12-16T12:40:13.942Z</time>
      </trkpt>
      <trkpt lat="47.3682" lon="-1.51681">
        <ele>51.704333</ele>
        <time>2022-12-16T12:40:16.924Z</time>
      </trkpt>
      <trkpt lat="47.36809" lon="-1.5168">
        <ele>51.552115</ele>
        <time>2022-12-16T12:40:19.948Z</time>
      </trkpt>
      <trkpt lat="47.36801" lon="-1.51686">
        <ele>51.41681</ele>
        <time>2022-12-16T12:40:22.921Z</time>
      </trkpt>
      <trkpt lat="47.36798" lon="-1.517">
        <ele>51.270488</ele>
        <time>2022-12-16T12:40:25.924Z</time>
      </trkpt>
      <trkpt lat="47.36801" lon="-1.51717">
        <ele>51.102795</ele>
        <time>2022-12-16T12:40:28.926Z</time>
      </trkpt>
      <trkpt lat="47.36804" lon="-1.51734">
        <ele>50.928407</ele>
        <time>2022-12-16T12:40:31.931Z</time>
      </trkpt>
      <trkpt lat="47.36806" lon="-1.51753">
        <ele>50.743726</ele>
        <time>2022-12-16T12:40:34.930Z</time>
      </trkpt>
      <trkpt lat="47.36809" lon="-1.51772">
        <ele>50.560201</ele>
        <time>2022-12-16T12:40:37.928Z</time>
      </trkpt>
      <trkpt lat="47.36811" lon="-1.5179">
        <ele>50.377881</ele>
        <time>2022-12-16T12:40:40.919Z</time>
      </trkpt>
      <trkpt lat="47.3681" lon="-1.51809">
        <ele>50.202422</ele>
        <time>2022-12-16T12:40:43.939Z</time>
      </trkpt>
      <trkpt lat="47.36809" lon="-1.51826">
        <ele>50.034145</ele>
        <time>2022-12-16T12:40:46.918Z</time>
      </trkpt>
      <trkpt lat="47.36805" lon="-1.51843">
        <ele>49.859226</ele>
        <time>2022-12-16T12:40:49.935Z</time>
      </trkpt>
      <trkpt lat="47.368" lon="-1.51861">
        <ele>49.866734</ele>
        <time>2022-12-16T12:40:52.928Z</time>
      </trkpt>
      <trkpt lat="47.36793" lon="-1.51878">
        <ele>49.921833</ele>
        <time>2022-12-16T12:40:55.933Z</time>
      </trkpt>
      <trkpt lat="47.36787" lon="-1.51895">
        <ele>49.976193</ele>
        <time>2022-12-16T12:40:58.941Z</time>
      </trkpt>
      <trkpt lat="47.36781" lon="-1.51911">
        <ele>50.030006</ele>
        <time>2022-12-16T12:41:01.939Z</time>
      </trkpt>
      <trkpt lat="47.36775" lon="-1.51929">
        <ele>50.08457</ele>
        <time>2022-12-16T12:41:04.941Z</time>
      </trkpt>
      <trkpt lat="47.3677" lon="-1.5194">
        <ele>50.122723</ele>
        <time>2022-12-16T12:41:06.942Z</time>
      </trkpt>
      <trkpt lat="47.36766" lon="-1.51953">
        <ele>50.161385</ele>
        <time>2022-12-16T12:41:08.921Z</time>
      </trkpt>
      <trkpt lat="47.3676" lon="-1.51971">
        <ele>50.219163</ele>
        <time>2022-12-16T12:41:11.938Z</time>
      </trkpt>
      <trkpt lat="47.36755" lon="-1.51983">
        <ele>50.258711</ele>
        <time>2022-12-16T12:41:13.949Z</time>
      </trkpt>
      <trkpt lat="47.3675" lon="-1.51995">
        <ele>50.298414</ele>
        <time>2022-12-16T12:41:15.937Z</time>
      </trkpt>
      <trkpt lat="47.36745" lon="-1.52007">
        <ele>50.338242</ele>
        <time>2022-12-16T12:41:17.939Z</time>
      </trkpt>
      <trkpt lat="47.3674" lon="-1.52019">
        <ele>50.379185</ele>
        <time>2022-12-16T12:41:19.922Z</time>
      </trkpt>
      <trkpt lat="47.36735" lon="-1.52032">
        <ele>50.419916</ele>
        <time>2022-12-16T12:41:21.943Z</time>
      </trkpt>
      <trkpt lat="47.3673" lon="-1.52045">
        <ele>50.460089</ele>
        <time>2022-12-16T12:41:23.928Z</time>
      </trkpt>
      <trkpt lat="47.36726" lon="-1.52057">
        <ele>50.499673</ele>
        <time>2022-12-16T12:41:25.932Z</time>
      </trkpt>
      <trkpt lat="47.3672" lon="-1.52073">
        <ele>50.553184</ele>
        <time>2022-12-16T12:41:28.931Z</time>
      </trkpt>
      <trkpt lat="47.36714" lon="-1.52089">
        <ele>50.672633</ele>
        <time>2022-12-16T12:41:31.929Z</time>
      </trkpt>
      <trkpt lat="47.36708" lon="-1.52105">
        <ele>50.842748</ele>
        <time>2022-12-16T12:41:34.945Z</time>
      </trkpt>
      <trkpt lat="47.36701" lon="-1.52121">
        <ele>51.011017</ele>
        <time>2022-12-16T12:41:37.931Z</time>
      </trkpt>
      <trkpt lat="47.36695" lon="-1.52136">
        <ele>51.175944</ele>
        <time>2022-12-16T12:41:40.917Z</time>
      </trkpt>
      <trkpt lat="47.36688" lon="-1.52153">
        <ele>51.350657</ele>
        <time>2022-12-16T12:41:43.934Z</time>
      </trkpt>
      <trkpt lat="47.36683" lon="-1.52165">
        <ele>51.478694</ele>
        <time>2022-12-16T12:41:45.938Z</time>
      </trkpt>
      <trkpt lat="47.36678" lon="-1.52176">
        <ele>51.599895</ele>
        <time>2022-12-16T12:41:47.921Z</time>
      </trkpt>
      <trkpt lat="47.3667" lon="-1.52191">
        <ele>51.773934</ele>
        <time>2022-12-16T12:41:50.916Z</time>
      </trkpt>
      <trkpt lat="47.36662" lon="-1.52208">
        <ele>51.95538</ele>
        <time>2022-12-16T12:41:53.928Z</time>
      </trkpt>
      <trkpt lat="47.36658" lon="-1.52219">
        <ele>52.07721</ele>
        <time>2022-12-16T12:41:55.944Z</time>
      </trkpt>
      <trkpt lat="47.36655" lon="-1.52232">
        <ele>52.198841</ele>
        <time>2022-12-16T12:41:57.926Z</time>
      </trkpt>
      <trkpt lat="47.36653" lon="-1.52245">
        <ele>52.32332</ele>
        <time>2022-12-16T12:41:59.927Z</time>
      </trkpt>
      <trkpt lat="47.3665" lon="-1.52264">
        <ele>52.49905</ele>
        <time>2022-12-16T12:42:02.921Z</time>
      </trkpt>
      <trkpt lat="47.36648" lon="-1.52282">
        <ele>52.659296</ele>
        <time>2022-12-16T12:42:05.938Z</time>
      </trkpt>
      <trkpt lat="47.36646" lon="-1.52299">
        <ele>52.818865</ele>
        <time>2022-12-16T12:42:08.941Z</time>
      </trkpt>
      <trkpt lat="47.36645" lon="-1.52317">
        <ele>52.985982</ele>
        <time>2022-12-16T12:42:11.938Z</time>
      </trkpt>
      <trkpt lat="47.36644" lon="-1.52335">
        <ele>52.988898</ele>
        <time>2022-12-16T12:42:14.916Z</time>
      </trkpt>
      <trkpt lat="47.36642" lon="-1.52351">
        <ele>52.991696</ele>
        <time>2022-12-16T12:42:17.925Z</time>
      </trkpt>
      <trkpt lat="47.3664" lon="-1.52366">
        <ele>52.994332</ele>
        <time>2022-12-16T12:42:20.918Z</time>
      </trkpt>
      <trkpt lat="47.36638" lon="-1.52383">
        <ele>52.997068</ele>
        <time>2022-12-16T12:42:23.938Z</time>
      </trkpt>
      <trkpt lat="47.36636" lon="-1.52398">
        <ele>52.999775</ele>
        <time>2022-12-16T12:42:26.940Z</time>
      </trkpt>
      <trkpt lat="47.36633" lon="-1.52411">
        <ele>53.002124</ele>
        <time>2022-12-16T12:42:29.929Z</time>
      </trkpt>
      <trkpt lat="47.3663" lon="-1.52425">
        <ele>53.004491</ele>
        <time>2022-12-16T12:42:33.928Z</time>
      </trkpt>
      <trkpt lat="47.36628" lon="-1.52439">
        <ele>53.006964</ele>
        <time>2022-12-16T12:42:37.925Z</time>
      </trkpt>
      <trkpt lat="47.36623" lon="-1.52451">
        <ele>53.009214</ele>
        <time>2022-12-16T12:42:40.919Z</time>
      </trkpt>
      <trkpt lat="47.36617" lon="-1.52463">
        <ele>53.011794</ele>
        <time>2022-12-16T12:42:43.940Z</time>
      </trkpt>
      <trkpt lat="47.36612" lon="-1.52475">
        <ele>53.014208</ele>
        <time>2022-12-16T12:42:46.921Z</time>
      </trkpt>
      <trkpt lat="47.36608" lon="-1.5249">
        <ele>53.016893</ele>
        <time>2022-12-16T12:42:50.918Z</time>
      </trkpt>
      <trkpt lat="47.36598" lon="-1.5251">
        <ele>53.020992</ele>
        <time>2022-12-16T12:43:14.963Z</time>
      </trkpt>
      <trkpt lat="47.3659" lon="-1.52523">
        <ele>53.023904</ele>
        <time>2022-12-16T12:43:18.938Z</time>
      </trkpt>
      <trkpt lat="47.36583" lon="-1.52533">
        <ele>53.026464</ele>
        <time>2022-12-16T12:43:21.941Z</time>
      </trkpt>
      <trkpt lat="47.36575" lon="-1.52545">
        <ele>53.029313</ele>
        <time>2022-12-16T12:43:24.926Z</time>
      </trkpt>
      <trkpt lat="47.36566" lon="-1.52558">
        <ele>52.833881</ele>
        <time>2022-12-16T12:43:27.937Z</time>
      </trkpt>
      <trkpt lat="47.36558" lon="-1.52571">
        <ele>52.509923</ele>
        <time>2022-12-16T12:43:30.920Z</time>
      </trkpt>
      <trkpt lat="47.3655" lon="-1.52582">
        <ele>52.2028</ele>
        <time>2022-12-16T12:43:33.932Z</time>
      </trkpt>
      <trkpt lat="47.36541" lon="-1.52593">
        <ele>51.884584</ele>
        <time>2022-12-16T12:43:36.936Z</time>
      </trkpt>
      <trkpt lat="47.3653" lon="-1.52604">
        <ele>51.522417</ele>
        <time>2022-12-16T12:43:39.924Z</time>
      </trkpt>
      <trkpt lat="47.36521" lon="-1.5261">
        <ele>51.260929</ele>
        <time>2022-12-16T12:43:41.920Z</time>
      </trkpt>
      <trkpt lat="47.36512" lon="-1.52615">
        <ele>50.997774</ele>
        <time>2022-12-16T12:43:43.917Z</time>
      </trkpt>
      <trkpt lat="47.36503" lon="-1.5262">
        <ele>50.733225</ele>
        <time>2022-12-16T12:43:45.922Z</time>
      </trkpt>
      <trkpt lat="47.36494" lon="-1.52624">
        <ele>50.473721</ele>
        <time>2022-12-16T12:43:47.940Z</time>
      </trkpt>
      <trkpt lat="47.36485" lon="-1.52628">
        <ele>50.20939</ele>
        <time>2022-12-16T12:43:49.931Z</time>
      </trkpt>
      <trkpt lat="47.36476" lon="-1.52631">
        <ele>49.94642</ele>
        <time>2022-12-16T12:43:51.926Z</time>
      </trkpt>
      <trkpt lat="47.36463" lon="-1.52634">
        <ele>49.580734</ele>
        <time>2022-12-16T12:43:54.933Z</time>
      </trkpt>
      <trkpt lat="47.3645" lon="-1.52637">
        <ele>49.243043</ele>
        <time>2022-12-16T12:43:57.917Z</time>
      </trkpt>
      <trkpt lat="47.3644" lon="-1.52638">
        <ele>48.961992</ele>
        <time>2022-12-16T12:44:00.918Z</time>
      </trkpt>
      <trkpt lat="47.36431" lon="-1.52641">
        <ele>48.687457</ele>
        <time>2022-12-16T12:44:03.924Z</time>
      </trkpt>
      <trkpt lat="47.36421" lon="-1.52644">
        <ele>48.432265</ele>
        <time>2022-12-16T12:44:06.926Z</time>
      </trkpt>
      <trkpt lat="47.36412" lon="-1.52637">
        <ele>48.139519</ele>
        <time>2022-12-16T12:44:09.921Z</time>
      </trkpt>
      <trkpt lat="47.36402" lon="-1.52624">
        <ele>48.238086</ele>
        <time>2022-12-16T12:44:12.925Z</time>
      </trkpt>
      <trkpt lat="47.36394" lon="-1.52611">
        <ele>48.412691</ele>
        <time>2022-12-16T12:44:15.929Z</time>
      </trkpt>
      <trkpt lat="47.36387" lon="-1.526">
        <ele>48.561567</ele>
        <time>2022-12-16T12:44:18.918Z</time>
      </trkpt>
      <trkpt lat="47.3638" lon="-1.52588">
        <ele>48.701501</ele>
        <time>2022-12-16T12:44:21.935Z</time>
      </trkpt>
      <trkpt lat="47.36373" lon="-1.52578">
        <ele>48.8467</ele>
        <time>2022-12-16T12:44:24.928Z</time>
      </trkpt>
      <trkpt lat="47.36366" lon="-1.52566">
        <ele>48.997706</ele>
        <time>2022-12-16T12:44:27.943Z</time>
      </trkpt>
      <trkpt lat="47.36358" lon="-1.52556">
        <ele>49.144846</ele>
        <time>2022-12-16T12:44:30.921Z</time>
      </trkpt>
      <trkpt lat="47.3635" lon="-1.52546">
        <ele>49.283378</ele>
        <time>2022-12-16T12:44:33.932Z</time>
      </trkpt>
      <trkpt lat="47.36343" lon="-1.52536">
        <ele>49.420617</ele>
        <time>2022-12-16T12:44:36.931Z</time>
      </trkpt>
      <trkpt lat="47.36336" lon="-1.52527">
        <ele>49.558263</ele>
        <time>2022-12-16T12:44:40.918Z</time>
      </trkpt>
      <trkpt lat="47.36329" lon="-1.52517">
        <ele>49.692334</ele>
        <time>2022-12-16T12:44:44.920Z</time>
      </trkpt>
      <trkpt lat="47.36321" lon="-1.52507">
        <ele>49.838172</ele>
        <time>2022-12-16T12:44:48.939Z</time>
      </trkpt>
      <trkpt lat="47.36314" lon="-1.52496">
        <ele>49.985038</ele>
        <time>2022-12-16T12:44:52.942Z</time>
      </trkpt>
      <trkpt lat="47.3631" lon="-1.52484">
        <ele>50.11115</ele>
        <time>2022-12-16T12:44:56.928Z</time>
      </trkpt>
      <trkpt lat="47.36305" lon="-1.52472">
        <ele>50.24088</ele>
        <time>2022-12-16T12:45:00.919Z</time>
      </trkpt>
      <trkpt lat="47.363" lon="-1.52459">
        <ele>50.390136</ele>
        <time>2022-12-16T12:45:04.919Z</time>
      </trkpt>
      <trkpt lat="47.36295" lon="-1.52448">
        <ele>50.516505</ele>
        <time>2022-12-16T12:45:07.941Z</time>
      </trkpt>
      <trkpt lat="47.3629" lon="-1.52437">
        <ele>50.596588</ele>
        <time>2022-12-16T12:45:10.918Z</time>
      </trkpt>
      <trkpt lat="47.36284" lon="-1.52426">
        <ele>50.496153</ele>
        <time>2022-12-16T12:45:13.935Z</time>
      </trkpt>
      <trkpt lat="47.36277" lon="-1.52411">
        <ele>50.36043</ele>
        <time>2022-12-16T12:45:17.944Z</time>
      </trkpt>
      <trkpt lat="47.36272" lon="-1.52399">
        <ele>50.251899</ele>
        <time>2022-12-16T12:45:20.924Z</time>
      </trkpt>
      <trkpt lat="47.36266" lon="-1.52383">
        <ele>50.114467</ele>
        <time>2022-12-16T12:45:24.937Z</time>
      </trkpt>
      <trkpt lat="47.36261" lon="-1.52367">
        <ele>49.982311</ele>
        <time>2022-12-16T12:45:27.928Z</time>
      </trkpt>
      <trkpt lat="47.36256" lon="-1.5235">
        <ele>49.840831</ele>
        <time>2022-12-16T12:45:30.918Z</time>
      </trkpt>
      <trkpt lat="47.36251" lon="-1.52333">
        <ele>49.709345</ele>
        <time>2022-12-16T12:45:33.922Z</time>
      </trkpt>
      <trkpt lat="47.36247" lon="-1.52321">
        <ele>49.609512</ele>
        <time>2022-12-16T12:45:35.937Z</time>
      </trkpt>
      <trkpt lat="47.36241" lon="-1.52304">
        <ele>49.461167</ele>
        <time>2022-12-16T12:45:38.936Z</time>
      </trkpt>
      <trkpt lat="47.36234" lon="-1.52294">
        <ele>49.355359</ele>
        <time>2022-12-16T12:45:40.923Z</time>
      </trkpt>
      <trkpt lat="47.36223" lon="-1.52283">
        <ele>49.209508</ele>
        <time>2022-12-16T12:45:43.923Z</time>
      </trkpt>
      <trkpt lat="47.36215" lon="-1.52277">
        <ele>49.110285</ele>
        <time>2022-12-16T12:45:45.925Z</time>
      </trkpt>
      <trkpt lat="47.36204" lon="-1.5227">
        <ele>48.977617</ele>
        <time>2022-12-16T12:45:48.937Z</time>
      </trkpt>
      <trkpt lat="47.36193" lon="-1.52266">
        <ele>48.85425</ele>
        <time>2022-12-16T12:45:51.939Z</time>
      </trkpt>
      <trkpt lat="47.36181" lon="-1.52262">
        <ele>48.720306</ele>
        <time>2022-12-16T12:45:54.944Z</time>
      </trkpt>
      <trkpt lat="47.36172" lon="-1.5226">
        <ele>48.627968</ele>
        <time>2022-12-16T12:45:56.942Z</time>
      </trkpt>
      <trkpt lat="47.36162" lon="-1.52258">
        <ele>48.607042</ele>
        <time>2022-12-16T12:45:58.942Z</time>
      </trkpt>
      <trkpt lat="47.36152" lon="-1.52255">
        <ele>48.585399</ele>
        <time>2022-12-16T12:46:00.920Z</time>
      </trkpt>
      <trkpt lat="47.36141" lon="-1.52251">
        <ele>48.561212</ele>
        <time>2022-12-16T12:46:02.929Z</time>
      </trkpt>
      <trkpt lat="47.36129" lon="-1.52249">
        <ele>48.53639</ele>
        <time>2022-12-16T12:46:04.934Z</time>
      </trkpt>
      <trkpt lat="47.36119" lon="-1.52245">
        <ele>48.513725</ele>
        <time>2022-12-16T12:46:06.935Z</time>
      </trkpt>
      <trkpt lat="47.36106" lon="-1.52242">
        <ele>48.488005</ele>
        <time>2022-12-16T12:46:08.924Z</time>
      </trkpt>
      <trkpt lat="47.36094" lon="-1.52239">
        <ele>48.461823</ele>
        <time>2022-12-16T12:46:10.918Z</time>
      </trkpt>
      <trkpt lat="47.36081" lon="-1.52234">
        <ele>48.434389</ele>
        <time>2022-12-16T12:46:12.942Z</time>
      </trkpt>
      <trkpt lat="47.3607" lon="-1.52228">
        <ele>48.408664</ele>
        <time>2022-12-16T12:46:14.927Z</time>
      </trkpt>
      <trkpt lat="47.36061" lon="-1.52217">
        <ele>48.385384</ele>
        <time>2022-12-16T12:46:16.930Z</time>
      </trkpt>
      <trkpt lat="47.36056" lon="-1.52206">
        <ele>48.366234</ele>
        <time>2022-12-16T12:46:18.931Z</time>
      </trkpt>
      <trkpt lat="47.36049" lon="-1.5219">
        <ele>48.338894</ele>
        <time>2022-12-16T12:46:21.951Z</time>
      </trkpt>
      <trkpt lat="47.36041" lon="-1.52176">
        <ele>48.313178</ele>
        <time>2022-12-16T12:46:24.944Z</time>
      </trkpt>
      <trkpt lat="47.36034" lon="-1.52161">
        <ele>48.287246</ele>
        <time>2022-12-16T12:46:27.938Z</time>
      </trkpt>
      <trkpt lat="47.36027" lon="-1.52146">
        <ele>48.260954</ele>
        <time>2022-12-16T12:46:30.920Z</time>
      </trkpt>
      <trkpt lat="47.3602" lon="-1.5213">
        <ele>48.611356</ele>
        <time>2022-12-16T12:46:33.930Z</time>
      </trkpt>
      <trkpt lat="47.36011" lon="-1.52122">
        <ele>49.029222</ele>
        <time>2022-12-16T12:46:36.929Z</time>
      </trkpt>
      <trkpt lat="47.36002" lon="-1.52126">
        <ele>49.384287</ele>
        <time>2022-12-16T12:46:39.928Z</time>
      </trkpt>
      <trkpt lat="47.35992" lon="-1.52135">
        <ele>49.832584</ele>
        <time>2022-12-16T12:46:43.922Z</time>
      </trkpt>
      <trkpt lat="47.35983" lon="-1.52144">
        <ele>50.271491</ele>
        <time>2022-12-16T12:46:47.936Z</time>
      </trkpt>
      <trkpt lat="47.35975" lon="-1.52156">
        <ele>50.72506</ele>
        <time>2022-12-16T12:46:51.928Z</time>
      </trkpt>
      <trkpt lat="47.35969" lon="-1.52167">
        <ele>51.090921</ele>
        <time>2022-12-16T12:46:54.944Z</time>
      </trkpt>
      <trkpt lat="47.35963" lon="-1.52178">
        <ele>51.473249</ele>
        <time>2022-12-16T12:46:57.934Z</time>
      </trkpt>
      <trkpt lat="47.35957" lon="-1.52189">
        <ele>51.847287</ele>
        <time>2022-12-16T12:47:00.920Z</time>
      </trkpt>
      <trkpt lat="47.35951" lon="-1.522">
        <ele>52.208643</ele>
        <time>2022-12-16T12:47:03.934Z</time>
      </trkpt>
      <trkpt lat="47.35944" lon="-1.52211">
        <ele>52.599106</ele>
        <time>2022-12-16T12:47:06.925Z</time>
      </trkpt>
      <trkpt lat="47.35938" lon="-1.52221">
        <ele>52.96007</ele>
        <time>2022-12-16T12:47:09.937Z</time>
      </trkpt>
      <trkpt lat="47.35931" lon="-1.52233">
        <ele>53.376666</ele>
        <time>2022-12-16T12:47:13.927Z</time>
      </trkpt>
      <trkpt lat="47.35924" lon="-1.52245">
        <ele>53.774194</ele>
        <time>2022-12-16T12:47:18.933Z</time>
      </trkpt>
      <trkpt lat="47.35916" lon="-1.52253">
        <ele>54.169013</ele>
        <time>2022-12-16T12:47:23.919Z</time>
      </trkpt>
      <trkpt lat="47.35906" lon="-1.52255">
        <ele>54.557193</ele>
        <time>2022-12-16T12:47:28.938Z</time>
      </trkpt>
      <trkpt lat="47.35896" lon="-1.52259">
        <ele>54.954721</ele>
        <time>2022-12-16T12:47:34.919Z</time>
      </trkpt>
      <trkpt lat="47.35887" lon="-1.52263">
        <ele>55.265074</ele>
        <time>2022-12-16T12:47:38.921Z</time>
      </trkpt>
      <trkpt lat="47.35878" lon="-1.52267">
        <ele>55.340262</ele>
        <time>2022-12-16T12:47:42.942Z</time>
      </trkpt>
      <trkpt lat="47.35868" lon="-1.52272">
        <ele>55.433181</ele>
        <time>2022-12-16T12:47:47.929Z</time>
      </trkpt>
      <trkpt lat="47.35858" lon="-1.52275">
        <ele>55.510097</ele>
        <time>2022-12-16T12:47:51.926Z</time>
      </trkpt>
      <trkpt lat="47.35846" lon="-1.52272">
        <ele>55.609795</ele>
        <time>2022-12-16T12:47:55.925Z</time>
      </trkpt>
      <trkpt lat="47.35835" lon="-1.52266">
        <ele>55.705569</ele>
        <time>2022-12-16T12:47:59.929Z</time>
      </trkpt>
      <trkpt lat="47.35825" lon="-1.52259">
        <ele>55.800863</ele>
        <time>2022-12-16T12:48:03.939Z</time>
      </trkpt>
      <trkpt lat="47.35815" lon="-1.52251">
        <ele>55.892525</ele>
        <time>2022-12-16T12:48:07.958Z</time>
      </trkpt>
      <trkpt lat="47.35805" lon="-1.52243">
        <ele>55.988313</ele>
        <time>2022-12-16T12:48:11.920Z</time>
      </trkpt>
      <trkpt lat="47.35796" lon="-1.52237">
        <ele>56.071346</ele>
        <time>2022-12-16T12:48:14.936Z</time>
      </trkpt>
      <trkpt lat="47.35787" lon="-1.52231">
        <ele>56.152131</ele>
        <time>2022-12-16T12:48:17.930Z</time>
      </trkpt>
      <trkpt lat="47.35778" lon="-1.52226">
        <ele>56.228316</ele>
        <time>2022-12-16T12:48:20.921Z</time>
      </trkpt>
      <trkpt lat="47.35769" lon="-1.52219">
        <ele>56.315741</ele>
        <time>2022-12-16T12:48:23.936Z</time>
      </trkpt>
      <trkpt lat="47.35759" lon="-1.52211">
        <ele>56.408046</ele>
        <time>2022-12-16T12:48:26.938Z</time>
      </trkpt>
      <trkpt lat="47.35749" lon="-1.52204">
        <ele>56.497197</ele>
        <time>2022-12-16T12:48:29.919Z</time>
      </trkpt>
      <trkpt lat="47.35739" lon="-1.52196">
        <ele>56.595723</ele>
        <time>2022-12-16T12:48:32.939Z</time>
      </trkpt>
      <trkpt lat="47.35728" lon="-1.52189">
        <ele>56.685995</ele>
        <time>2022-12-16T12:48:35.938Z</time>
      </trkpt>
      <trkpt lat="47.35719" lon="-1.52183">
        <ele>56.715667</ele>
        <time>2022-12-16T12:48:38.942Z</time>
      </trkpt>
      <trkpt lat="47.35711" lon="-1.52176">
        <ele>56.691756</ele>
        <time>2022-12-16T12:48:41.934Z</time>
      </trkpt>
      <trkpt lat="47.35701" lon="-1.52167">
        <ele>56.660864</ele>
        <time>2022-12-16T12:48:45.925Z</time>
      </trkpt>
      <trkpt lat="47.35692" lon="-1.52158">
        <ele>56.632749</ele>
        <time>2022-12-16T12:48:49.939Z</time>
      </trkpt>
      <trkpt lat="47.35684" lon="-1.52152">
        <ele>56.608319</ele>
        <time>2022-12-16T12:48:52.923Z</time>
      </trkpt>
      <trkpt lat="47.35675" lon="-1.52144">
        <ele>56.583325</ele>
        <time>2022-12-16T12:48:55.931Z</time>
      </trkpt>
      <trkpt lat="47.35667" lon="-1.52136">
        <ele>56.556706</ele>
        <time>2022-12-16T12:48:58.938Z</time>
      </trkpt>
      <trkpt lat="47.35658" lon="-1.52128">
        <ele>56.531059</ele>
        <time>2022-12-16T12:49:01.924Z</time>
      </trkpt>
      <trkpt lat="47.35648" lon="-1.52121">
        <ele>56.5013</ele>
        <time>2022-12-16T12:49:05.937Z</time>
      </trkpt>
      <trkpt lat="47.35638" lon="-1.52113">
        <ele>56.473374</ele>
        <time>2022-12-16T12:49:09.933Z</time>
      </trkpt>
      <trkpt lat="47.35631" lon="-1.52101">
        <ele>56.444384</ele>
        <time>2022-12-16T12:49:16.921Z</time>
      </trkpt>
      <trkpt lat="47.35621" lon="-1.52102">
        <ele>56.418726</ele>
        <time>2022-12-16T12:49:20.927Z</time>
      </trkpt>
      <trkpt lat="47.35611" lon="-1.52109">
        <ele>56.390558</ele>
        <time>2022-12-16T12:49:24.926Z</time>
      </trkpt>
      <trkpt lat="47.35602" lon="-1.52114">
        <ele>56.365884</ele>
        <time>2022-12-16T12:49:27.937Z</time>
      </trkpt>
      <trkpt lat="47.35591" lon="-1.5212">
        <ele>56.336365</ele>
        <time>2022-12-16T12:49:30.921Z</time>
      </trkpt>
      <trkpt lat="47.3558" lon="-1.52125">
        <ele>56.307266</ele>
        <time>2022-12-16T12:49:33.935Z</time>
      </trkpt>
      <trkpt lat="47.35569" lon="-1.5213">
        <ele>56.277026</ele>
        <time>2022-12-16T12:49:36.940Z</time>
      </trkpt>
      <trkpt lat="47.35559" lon="-1.52134">
        <ele>56.122091</ele>
        <time>2022-12-16T12:49:39.930Z</time>
      </trkpt>
      <trkpt lat="47.35549" lon="-1.52137">
        <ele>55.818439</ele>
        <time>2022-12-16T12:49:42.918Z</time>
      </trkpt>
      <trkpt lat="47.35538" lon="-1.52139">
        <ele>55.515201</ele>
        <time>2022-12-16T12:49:45.942Z</time>
      </trkpt>
      <trkpt lat="47.35527" lon="-1.52141">
        <ele>55.216763</ele>
        <time>2022-12-16T12:49:48.922Z</time>
      </trkpt>
      <trkpt lat="47.35516" lon="-1.52144">
        <ele>54.900367</ele>
        <time>2022-12-16T12:49:51.931Z</time>
      </trkpt>
      <trkpt lat="47.35504" lon="-1.52148">
        <ele>54.561046</ele>
        <time>2022-12-16T12:49:54.924Z</time>
      </trkpt>
      <trkpt lat="47.35493" lon="-1.52152">
        <ele>54.237067</ele>
        <time>2022-12-16T12:49:57.937Z</time>
      </trkpt>
      <trkpt lat="47.35481" lon="-1.52159">
        <ele>53.888529</ele>
        <time>2022-12-16T12:50:00.916Z</time>
      </trkpt>
      <trkpt lat="47.35473" lon="-1.52164">
        <ele>53.636629</ele>
        <time>2022-12-16T12:50:02.935Z</time>
      </trkpt>
      <trkpt lat="47.35466" lon="-1.52173">
        <ele>53.374045</ele>
        <time>2022-12-16T12:50:04.927Z</time>
      </trkpt>
      <trkpt lat="47.35459" lon="-1.5219">
        <ele>52.999533</ele>
        <time>2022-12-16T12:50:07.926Z</time>
      </trkpt>
      <trkpt lat="47.35453" lon="-1.522">
        <ele>52.745104</ele>
        <time>2022-12-16T12:50:09.939Z</time>
      </trkpt>
      <trkpt lat="47.35447" lon="-1.52211">
        <ele>52.495657</ele>
        <time>2022-12-16T12:50:11.923Z</time>
      </trkpt>
      <trkpt lat="47.35439" lon="-1.52224">
        <ele>52.146458</ele>
        <time>2022-12-16T12:50:14.922Z</time>
      </trkpt>
      <trkpt lat="47.35428" lon="-1.52231">
        <ele>51.824461</ele>
        <time>2022-12-16T12:50:17.921Z</time>
      </trkpt>
      <trkpt lat="47.35417" lon="-1.52234">
        <ele>51.509845</ele>
        <time>2022-12-16T12:50:20.925Z</time>
      </trkpt>
      <trkpt lat="47.35407" lon="-1.52241">
        <ele>51.26779</ele>
        <time>2022-12-16T12:50:24.919Z</time>
      </trkpt>
      <trkpt lat="47.35398" lon="-1.52246">
        <ele>51.358267</ele>
        <time>2022-12-16T12:50:28.941Z</time>
      </trkpt>
      <trkpt lat="47.35388" lon="-1.52249">
        <ele>51.459945</ele>
        <time>2022-12-16T12:50:32.940Z</time>
      </trkpt>
      <trkpt lat="47.35376" lon="-1.52253">
        <ele>51.576413</ele>
        <time>2022-12-16T12:50:37.928Z</time>
      </trkpt>
      <trkpt lat="47.35367" lon="-1.5226">
        <ele>51.668028</ele>
        <time>2022-12-16T12:50:40.926Z</time>
      </trkpt>
      <trkpt lat="47.35356" lon="-1.52266">
        <ele>51.781962</ele>
        <time>2022-12-16T12:50:43.940Z</time>
      </trkpt>
      <trkpt lat="47.35346" lon="-1.52271">
        <ele>51.880981</ele>
        <time>2022-12-16T12:50:46.928Z</time>
      </trkpt>
      <trkpt lat="47.35338" lon="-1.52278">
        <ele>51.97553</ele>
        <time>2022-12-16T12:50:50.011Z</time>
      </trkpt>
      <trkpt lat="47.35329" lon="-1.52283">
        <ele>52.070529</ele>
        <time>2022-12-16T12:50:52.918Z</time>
      </trkpt>
      <trkpt lat="47.35321" lon="-1.52291">
        <ele>52.163684</ele>
        <time>2022-12-16T12:50:55.940Z</time>
      </trkpt>
      <trkpt lat="47.35311" lon="-1.523">
        <ele>52.268523</ele>
        <time>2022-12-16T12:50:58.938Z</time>
      </trkpt>
      <trkpt lat="47.35302" lon="-1.52307">
        <ele>52.370439</ele>
        <time>2022-12-16T12:51:02.919Z</time>
      </trkpt>
      <trkpt lat="47.35294" lon="-1.52313">
        <ele>52.456597</ele>
        <time>2022-12-16T12:51:06.934Z</time>
      </trkpt>
      <trkpt lat="47.35285" lon="-1.52318">
        <ele>52.547516</ele>
        <time>2022-12-16T12:51:11.926Z</time>
      </trkpt>
      <trkpt lat="47.35276" lon="-1.52321">
        <ele>52.634446</ele>
        <time>2022-12-16T12:51:16.923Z</time>
      </trkpt>
      <trkpt lat="47.35266" lon="-1.52321">
        <ele>52.731367</ele>
        <time>2022-12-16T12:51:21.929Z</time>
      </trkpt>
      <trkpt lat="47.35256" lon="-1.52318">
        <ele>52.829631</ele>
        <time>2022-12-16T12:51:26.931Z</time>
      </trkpt>
      <trkpt lat="47.35247" lon="-1.52316">
        <ele>52.919717</ele>
        <time>2022-12-16T12:51:31.915Z</time>
      </trkpt>
      <trkpt lat="47.35229" lon="-1.52312">
        <ele>53.80696</ele>
        <time>2022-12-16T12:52:11.931Z</time>
      </trkpt>
      <trkpt lat="47.3522" lon="-1.52311">
        <ele>54.416624</ele>
        <time>2022-12-16T12:52:21.925Z</time>
      </trkpt>
      <trkpt lat="47.35211" lon="-1.52309">
        <ele>55.045918</ele>
        <time>2022-12-16T12:52:33.932Z</time>
      </trkpt>
      <trkpt lat="47.35201" lon="-1.52308">
        <ele>55.718934</ele>
        <time>2022-12-16T12:52:50.925Z</time>
      </trkpt>
      <trkpt lat="47.35192" lon="-1.52307">
        <ele>56.335581</ele>
        <time>2022-12-16T12:52:59.924Z</time>
      </trkpt>
      <trkpt lat="47.35182" lon="-1.52307">
        <ele>56.978722</ele>
        <time>2022-12-16T12:53:10.929Z</time>
      </trkpt>
      <trkpt lat="47.35173" lon="-1.52305">
        <ele>57.627476</ele>
        <time>2022-12-16T12:53:23.929Z</time>
      </trkpt>
      <trkpt lat="47.35163" lon="-1.52305">
        <ele>58.270421</ele>
        <time>2022-12-16T12:53:32.933Z</time>
      </trkpt>
      <trkpt lat="47.35154" lon="-1.52304">
        <ele>58.920472</ele>
        <time>2022-12-16T12:53:43.928Z</time>
      </trkpt>
      <trkpt lat="47.35144" lon="-1.52302">
        <ele>59.563829</ele>
        <time>2022-12-16T12:53:56.935Z</time>
      </trkpt>
      <trkpt lat="47.35137" lon="-1.52311">
        <ele>60.176737</ele>
        <time>2022-12-16T12:54:09.927Z</time>
      </trkpt>
      <trkpt lat="47.35134" lon="-1.5233">
        <ele>61.068209</ele>
        <time>2022-12-16T12:54:34.934Z</time>
      </trkpt>
      <trkpt lat="47.35133" lon="-1.52344">
        <ele>61.755336</ele>
        <time>2022-12-16T12:54:39.929Z</time>
      </trkpt>
      <trkpt lat="47.35132" lon="-1.52359">
        <ele>62.425018</ele>
        <time>2022-12-16T12:54:44.932Z</time>
      </trkpt>
      <trkpt lat="47.35132" lon="-1.52374">
        <ele>63.133143</ele>
        <time>2022-12-16T12:54:49.933Z</time>
      </trkpt>
      <trkpt lat="47.35132" lon="-1.52392">
        <ele>63.954065</ele>
        <time>2022-12-16T12:54:53.937Z</time>
      </trkpt>
      <trkpt lat="47.35129" lon="-1.52407">
        <ele>64.678053</ele>
        <time>2022-12-16T12:54:57.929Z</time>
      </trkpt>
      <trkpt lat="47.35124" lon="-1.52419">
        <ele>65.197923</ele>
        <time>2022-12-16T12:55:02.935Z</time>
      </trkpt>
      <trkpt lat="47.35118" lon="-1.5243">
        <ele>65.391902</ele>
        <time>2022-12-16T12:55:07.942Z</time>
      </trkpt>
      <trkpt lat="47.3511" lon="-1.5244">
        <ele>65.591786</ele>
        <time>2022-12-16T12:55:12.932Z</time>
      </trkpt>
      <trkpt lat="47.35101" lon="-1.52448">
        <ele>65.800926</ele>
        <time>2022-12-16T12:55:17.940Z</time>
      </trkpt>
      <trkpt lat="47.35092" lon="-1.52455">
        <ele>65.997232</ele>
        <time>2022-12-16T12:55:21.934Z</time>
      </trkpt>
      <trkpt lat="47.35082" lon="-1.52462">
        <ele>66.206684</ele>
        <time>2022-12-16T12:55:25.940Z</time>
      </trkpt>
      <trkpt lat="47.35072" lon="-1.52469">
        <ele>66.417637</ele>
        <time>2022-12-16T12:55:29.944Z</time>
      </trkpt>
      <trkpt lat="47.35062" lon="-1.52475">
        <ele>66.630917</ele>
        <time>2022-12-16T12:55:34.934Z</time>
      </trkpt>
      <trkpt lat="47.35052" lon="-1.52481">
        <ele>66.847164</ele>
        <time>2022-12-16T12:55:39.934Z</time>
      </trkpt>
      <trkpt lat="47.35042" lon="-1.52486">
        <ele>67.058801</ele>
        <time>2022-12-16T12:55:43.940Z</time>
      </trkpt>
      <trkpt lat="47.35033" lon="-1.52491">
        <ele>67.254351</ele>
        <time>2022-12-16T12:55:47.936Z</time>
      </trkpt>
      <trkpt lat="47.35024" lon="-1.52496">
        <ele>67.43847</ele>
        <time>2022-12-16T12:55:50.920Z</time>
      </trkpt>
      <trkpt lat="47.35015" lon="-1.52504">
        <ele>67.644469</ele>
        <time>2022-12-16T12:55:53.943Z</time>
      </trkpt>
      <trkpt lat="47.35003" lon="-1.52512">
        <ele>67.894406</ele>
        <time>2022-12-16T12:55:56.943Z</time>
      </trkpt>
      <trkpt lat="47.34991" lon="-1.52522">
        <ele>68.165604</ele>
        <time>2022-12-16T12:55:59.943Z</time>
      </trkpt>
      <trkpt lat="47.34983" lon="-1.52528">
        <ele>68.347096</ele>
        <time>2022-12-16T12:56:01.941Z</time>
      </trkpt>
      <trkpt lat="47.34972" lon="-1.52536">
        <ele>68.58178</ele>
        <time>2022-12-16T12:56:04.943Z</time>
      </trkpt>
      <trkpt lat="47.34963" lon="-1.52542">
        <ele>68.584941</ele>
        <time>2022-12-16T12:56:07.935Z</time>
      </trkpt>
      <trkpt lat="47.34954" lon="-1.52544">
        <ele>68.426377</ele>
        <time>2022-12-16T12:56:10.923Z</time>
      </trkpt>
      <trkpt lat="47.34945" lon="-1.52542">
        <ele>68.262868</ele>
        <time>2022-12-16T12:56:13.921Z</time>
      </trkpt>
      <trkpt lat="47.34935" lon="-1.52537">
        <ele>68.083713</ele>
        <time>2022-12-16T12:56:17.941Z</time>
      </trkpt>
      <trkpt lat="47.34926" lon="-1.52531">
        <ele>67.905453</ele>
        <time>2022-12-16T12:56:21.948Z</time>
      </trkpt>
      <trkpt lat="47.34915" lon="-1.52529">
        <ele>67.71319</ele>
        <time>2022-12-16T12:56:25.942Z</time>
      </trkpt>
      <trkpt lat="47.34905" lon="-1.52527">
        <ele>67.550649</ele>
        <time>2022-12-16T12:56:28.935Z</time>
      </trkpt>
      <trkpt lat="47.34896" lon="-1.52526">
        <ele>67.384788</ele>
        <time>2022-12-16T12:56:31.933Z</time>
      </trkpt>
      <trkpt lat="47.34885" lon="-1.52524">
        <ele>67.195358</ele>
        <time>2022-12-16T12:56:34.942Z</time>
      </trkpt>
      <trkpt lat="47.34873" lon="-1.52522">
        <ele>66.979466</ele>
        <time>2022-12-16T12:56:37.936Z</time>
      </trkpt>
      <trkpt lat="47.3486" lon="-1.52521">
        <ele>66.756559</ele>
        <time>2022-12-16T12:56:40.920Z</time>
      </trkpt>
      <trkpt lat="47.34846" lon="-1.5252">
        <ele>66.521774</ele>
        <time>2022-12-16T12:56:43.959Z</time>
      </trkpt>
      <trkpt lat="47.34837" lon="-1.52518">
        <ele>66.35971</ele>
        <time>2022-12-16T12:56:45.945Z</time>
      </trkpt>
      <trkpt lat="47.34824" lon="-1.52516">
        <ele>66.126486</ele>
        <time>2022-12-16T12:56:48.931Z</time>
      </trkpt>
      <trkpt lat="47.34812" lon="-1.52514">
        <ele>65.924438</ele>
        <time>2022-12-16T12:56:51.933Z</time>
      </trkpt>
      <trkpt lat="47.34801" lon="-1.52513">
        <ele>65.722568</ele>
        <time>2022-12-16T12:56:55.930Z</time>
      </trkpt>
      <trkpt lat="47.34792" lon="-1.52512">
        <ele>65.564154</ele>
        <time>2022-12-16T12:56:59.940Z</time>
      </trkpt>
      <trkpt lat="47.34785" lon="-1.52497">
        <ele>65.24136</ele>
        <time>2022-12-16T12:57:03.928Z</time>
      </trkpt>
      <trkpt lat="47.34782" lon="-1.52477">
        <ele>64.851808</ele>
        <time>2022-12-16T12:57:06.922Z</time>
      </trkpt>
      <trkpt lat="47.3478" lon="-1.52463">
        <ele>64.584118</ele>
        <time>2022-12-16T12:57:08.934Z</time>
      </trkpt>
      <trkpt lat="47.34777" lon="-1.52446">
        <ele>64.262316</ele>
        <time>2022-12-16T12:57:11.934Z</time>
      </trkpt>
      <trkpt lat="47.34774" lon="-1.52433">
        <ele>64.001048</ele>
        <time>2022-12-16T12:57:15.948Z</time>
      </trkpt>
      <trkpt lat="47.34765" lon="-1.52428">
        <ele>63.744857</ele>
        <time>2022-12-16T12:57:21.933Z</time>
      </trkpt>
      <trkpt lat="47.34755" lon="-1.52428">
        <ele>63.449713</ele>
        <time>2022-12-16T12:57:25.921Z</time>
      </trkpt>
      <trkpt lat="47.34744" lon="-1.52428">
        <ele>63.149052</ele>
        <time>2022-12-16T12:57:28.941Z</time>
      </trkpt>
      <trkpt lat="47.34731" lon="-1.52429">
        <ele>62.809596</ele>
        <time>2022-12-16T12:57:31.936Z</time>
      </trkpt>
      <trkpt lat="47.3472" lon="-1.52429">
        <ele>62.495144</ele>
        <time>2022-12-16T12:57:34.949Z</time>
      </trkpt>
      <trkpt lat="47.34709" lon="-1.52427">
        <ele>62.201757</ele>
        <time>2022-12-16T12:57:37.923Z</time>
      </trkpt>
      <trkpt lat="47.347" lon="-1.52427">
        <ele>61.945228</ele>
        <time>2022-12-16T12:57:40.922Z</time>
      </trkpt>
      <trkpt lat="47.34691" lon="-1.52428">
        <ele>61.68498</ele>
        <time>2022-12-16T12:57:43.927Z</time>
      </trkpt>
      <trkpt lat="47.34681" lon="-1.52428">
        <ele>61.428458</ele>
        <time>2022-12-16T12:57:46.944Z</time>
      </trkpt>
      <trkpt lat="47.3467" lon="-1.52429">
        <ele>61.124838</ele>
        <time>2022-12-16T12:57:49.936Z</time>
      </trkpt>
      <trkpt lat="47.3466" lon="-1.52429">
        <ele>60.848907</ele>
        <time>2022-12-16T12:57:52.920Z</time>
      </trkpt>
      <trkpt lat="47.34649" lon="-1.52428">
        <ele>60.593336</ele>
        <time>2022-12-16T12:57:56.942Z</time>
      </trkpt>
      <trkpt lat="47.34638" lon="-1.52428">
        <ele>60.603129</ele>
        <time>2022-12-16T12:57:59.932Z</time>
      </trkpt>
      <trkpt lat="47.34626" lon="-1.52428">
        <ele>60.614528</ele>
        <time>2022-12-16T12:58:02.944Z</time>
      </trkpt>
      <trkpt lat="47.34615" lon="-1.5243">
        <ele>60.625092</ele>
        <time>2022-12-16T12:58:05.939Z</time>
      </trkpt>
      <trkpt lat="47.34606" lon="-1.52438">
        <ele>60.634969</ele>
        <time>2022-12-16T12:58:08.933Z</time>
      </trkpt>
      <trkpt lat="47.34599" lon="-1.52446">
        <ele>60.643505</ele>
        <time>2022-12-16T12:58:11.939Z</time>
      </trkpt>
      <trkpt lat="47.34591" lon="-1.52456">
        <ele>60.653377</ele>
        <time>2022-12-16T12:58:15.946Z</time>
      </trkpt>
      <trkpt lat="47.34584" lon="-1.52467">
        <ele>60.662864</ele>
        <time>2022-12-16T12:58:19.931Z</time>
      </trkpt>
      <trkpt lat="47.34576" lon="-1.52475">
        <ele>60.671626</ele>
        <time>2022-12-16T12:58:22.942Z</time>
      </trkpt>
      <trkpt lat="47.34569" lon="-1.52486">
        <ele>60.681292</ele>
        <time>2022-12-16T12:58:25.929Z</time>
      </trkpt>
      <trkpt lat="47.3456" lon="-1.52499">
        <ele>60.693223</ele>
        <time>2022-12-16T12:58:28.925Z</time>
      </trkpt>
      <trkpt lat="47.34553" lon="-1.52507">
        <ele>60.701769</ele>
        <time>2022-12-16T12:58:30.920Z</time>
      </trkpt>
      <trkpt lat="47.34545" lon="-1.52519">
        <ele>60.712128</ele>
        <time>2022-12-16T12:58:32.924Z</time>
      </trkpt>
      <trkpt lat="47.34538" lon="-1.52528">
        <ele>60.721168</ele>
        <time>2022-12-16T12:58:34.937Z</time>
      </trkpt>
      <trkpt lat="47.34529" lon="-1.52535">
        <ele>60.730283</ele>
        <time>2022-12-16T12:58:36.932Z</time>
      </trkpt>
      <trkpt lat="47.3452" lon="-1.52541">
        <ele>60.739505</ele>
        <time>2022-12-16T12:58:38.929Z</time>
      </trkpt>
      <trkpt lat="47.34512" lon="-1.52546">
        <ele>60.74818</ele>
        <time>2022-12-16T12:58:40.922Z</time>
      </trkpt>
      <trkpt lat="47.34502" lon="-1.5256">
        <ele>60.761478</ele>
        <time>2022-12-16T12:58:43.928Z</time>
      </trkpt>
      <trkpt lat="47.34493" lon="-1.52574">
        <ele>60.79385</ele>
        <time>2022-12-16T12:58:46.937Z</time>
      </trkpt>
      <trkpt lat="47.34486" lon="-1.52586">
        <ele>60.822174</ele>
        <time>2022-12-16T12:58:49.946Z</time>
      </trkpt>
      <trkpt lat="47.34479" lon="-1.52599">
        <ele>60.850722</ele>
        <time>2022-12-16T12:58:52.939Z</time>
      </trkpt>
      <trkpt lat="47.34471" lon="-1.52613">
        <ele>60.881125</ele>
        <time>2022-12-16T12:58:55.920Z</time>
      </trkpt>
      <trkpt lat="47.34462" lon="-1.52626">
        <ele>60.912372</ele>
        <time>2022-12-16T12:58:58.926Z</time>
      </trkpt>
      <trkpt lat="47.34453" lon="-1.52638">
        <ele>60.943429</ele>
        <time>2022-12-16T12:59:01.933Z</time>
      </trkpt>
      <trkpt lat="47.34445" lon="-1.52652">
        <ele>60.974493</ele>
        <time>2022-12-16T12:59:04.936Z</time>
      </trkpt>
      <trkpt lat="47.34436" lon="-1.52666">
        <ele>61.007229</ele>
        <time>2022-12-16T12:59:07.934Z</time>
      </trkpt>
      <trkpt lat="47.34427" lon="-1.52679">
        <ele>61.038705</ele>
        <time>2022-12-16T12:59:10.926Z</time>
      </trkpt>
      <trkpt lat="47.34419" lon="-1.52692">
        <ele>61.070106</ele>
        <time>2022-12-16T12:59:13.933Z</time>
      </trkpt>
      <trkpt lat="47.3441" lon="-1.52706">
        <ele>61.102145</ele>
        <time>2022-12-16T12:59:16.938Z</time>
      </trkpt>
      <trkpt lat="47.34402" lon="-1.52719">
        <ele>61.132079</ele>
        <time>2022-12-16T12:59:19.939Z</time>
      </trkpt>
      <trkpt lat="47.34394" lon="-1.52731">
        <ele>61.161469</ele>
        <time>2022-12-16T12:59:22.945Z</time>
      </trkpt>
      <trkpt lat="47.34385" lon="-1.52745">
        <ele>61.193166</ele>
        <time>2022-12-16T12:59:25.932Z</time>
      </trkpt>
      <trkpt lat="47.34377" lon="-1.52757">
        <ele>61.240394</ele>
        <time>2022-12-16T12:59:28.937Z</time>
      </trkpt>
      <trkpt lat="47.34369" lon="-1.52766">
        <ele>61.307969</ele>
        <time>2022-12-16T12:59:31.923Z</time>
      </trkpt>
      <trkpt lat="47.34361" lon="-1.52779">
        <ele>61.393672</ele>
        <time>2022-12-16T12:59:35.929Z</time>
      </trkpt>
      <trkpt lat="47.34358" lon="-1.52793">
        <ele>61.464224</ele>
        <time>2022-12-16T12:59:40.928Z</time>
      </trkpt>
      <trkpt lat="47.34366" lon="-1.52803">
        <ele>61.541017</ele>
        <time>2022-12-16T12:59:44.933Z</time>
      </trkpt>
      <trkpt lat="47.34375" lon="-1.5281">
        <ele>61.610854</ele>
        <time>2022-12-16T12:59:47.921Z</time>
      </trkpt>
      <trkpt lat="47.34383" lon="-1.52816">
        <ele>61.678335</ele>
        <time>2022-12-16T12:59:50.925Z</time>
      </trkpt>
      <trkpt lat="47.34392" lon="-1.52823">
        <ele>61.749668</ele>
        <time>2022-12-16T12:59:53.935Z</time>
      </trkpt>
      <trkpt lat="47.344" lon="-1.52831">
        <ele>61.817957</ele>
        <time>2022-12-16T12:59:56.950Z</time>
      </trkpt>
      <trkpt lat="47.34407" lon="-1.5284">
        <ele>61.883497</ele>
        <time>2022-12-16T12:59:59.942Z</time>
      </trkpt>
      <trkpt lat="47.34405" lon="-1.52857">
        <ele>61.964766</ele>
        <time>2022-12-16T13:00:03.930Z</time>
      </trkpt>
      <trkpt lat="47.34398" lon="-1.52869">
        <ele>62.043988</ele>
        <time>2022-12-16T13:00:06.937Z</time>
      </trkpt>
      <trkpt lat="47.34388" lon="-1.52879">
        <ele>62.129276</ele>
        <time>2022-12-16T13:00:09.926Z</time>
      </trkpt>
      <trkpt lat="47.34378" lon="-1.52889">
        <ele>62.215245</ele>
        <time>2022-12-16T13:00:12.926Z</time>
      </trkpt>
      <trkpt lat="47.34368" lon="-1.52899">
        <ele>62.302579</ele>
        <time>2022-12-16T13:00:15.935Z</time>
      </trkpt>
      <trkpt lat="47.34357" lon="-1.5291">
        <ele>62.393143</ele>
        <time>2022-12-16T13:00:18.928Z</time>
      </trkpt>
      <trkpt lat="47.34346" lon="-1.52921">
        <ele>62.489968</ele>
        <time>2022-12-16T13:00:21.927Z</time>
      </trkpt>
      <trkpt lat="47.34339" lon="-1.5293">
        <ele>62.432734</ele>
        <time>2022-12-16T13:00:23.934Z</time>
      </trkpt>
      <trkpt lat="47.34328" lon="-1.5294">
        <ele>62.322037</ele>
        <time>2022-12-16T13:00:26.944Z</time>
      </trkpt>
      <trkpt lat="47.34318" lon="-1.5295">
        <ele>62.211667</ele>
        <time>2022-12-16T13:00:29.944Z</time>
      </trkpt>
      <trkpt lat="47.34307" lon="-1.5296">
        <ele>62.106857</ele>
        <time>2022-12-16T13:00:32.929Z</time>
      </trkpt>
      <trkpt lat="47.34297" lon="-1.52971">
        <ele>61.995439</ele>
        <time>2022-12-16T13:00:35.943Z</time>
      </trkpt>
      <trkpt lat="47.34286" lon="-1.52982">
        <ele>61.878914</ele>
        <time>2022-12-16T13:00:38.928Z</time>
      </trkpt>
      <trkpt lat="47.34278" lon="-1.5299">
        <ele>61.799311</ele>
        <time>2022-12-16T13:00:40.922Z</time>
      </trkpt>
      <trkpt lat="47.34268" lon="-1.53001">
        <ele>61.686907</ele>
        <time>2022-12-16T13:00:43.939Z</time>
      </trkpt>
      <trkpt lat="47.34257" lon="-1.53011">
        <ele>61.575488</ele>
        <time>2022-12-16T13:00:46.946Z</time>
      </trkpt>
      <trkpt lat="47.34247" lon="-1.53021">
        <ele>61.469631</ele>
        <time>2022-12-16T13:00:49.934Z</time>
      </trkpt>
      <trkpt lat="47.34237" lon="-1.53031">
        <ele>61.365606</ele>
        <time>2022-12-16T13:00:52.943Z</time>
      </trkpt>
      <trkpt lat="47.34228" lon="-1.53042">
        <ele>61.266925</ele>
        <time>2022-12-16T13:00:55.925Z</time>
      </trkpt>
      <trkpt lat="47.3422" lon="-1.53052">
        <ele>61.176559</ele>
        <time>2022-12-16T13:00:58.953Z</time>
      </trkpt>
      <trkpt lat="47.34211" lon="-1.53062">
        <ele>61.073912</ele>
        <time>2022-12-16T13:01:01.942Z</time>
      </trkpt>
      <trkpt lat="47.34202" lon="-1.53071">
        <ele>60.979692</ele>
        <time>2022-12-16T13:01:04.938Z</time>
      </trkpt>
      <trkpt lat="47.34193" lon="-1.5308">
        <ele>60.71857</ele>
        <time>2022-12-16T13:01:07.941Z</time>
      </trkpt>
      <trkpt lat="47.34184" lon="-1.53089">
        <ele>60.342303</ele>
        <time>2022-12-16T13:01:10.922Z</time>
      </trkpt>
      <trkpt lat="47.34174" lon="-1.53098">
        <ele>59.907537</ele>
        <time>2022-12-16T13:01:13.943Z</time>
      </trkpt>
      <trkpt lat="47.34162" lon="-1.53107">
        <ele>59.452221</ele>
        <time>2022-12-16T13:01:16.935Z</time>
      </trkpt>
      <trkpt lat="47.3415" lon="-1.53113">
        <ele>59.003916</ele>
        <time>2022-12-16T13:01:19.939Z</time>
      </trkpt>
      <trkpt lat="47.3414" lon="-1.53115">
        <ele>58.614914</ele>
        <time>2022-12-16T13:01:22.933Z</time>
      </trkpt>
      <trkpt lat="47.34126" lon="-1.53115">
        <ele>58.1479</ele>
        <time>2022-12-16T13:01:25.939Z</time>
      </trkpt>
      <trkpt lat="47.34114" lon="-1.53112">
        <ele>57.698526</ele>
        <time>2022-12-16T13:01:28.923Z</time>
      </trkpt>
      <trkpt lat="47.341" lon="-1.5311">
        <ele>57.207977</ele>
        <time>2022-12-16T13:01:31.938Z</time>
      </trkpt>
      <trkpt lat="47.34091" lon="-1.5311">
        <ele>56.88284</ele>
        <time>2022-12-16T13:01:33.954Z</time>
      </trkpt>
      <trkpt lat="47.34078" lon="-1.53108">
        <ele>56.410479</ele>
        <time>2022-12-16T13:01:36.938Z</time>
      </trkpt>
      <trkpt lat="47.34066" lon="-1.53106">
        <ele>55.983508</ele>
        <time>2022-12-16T13:01:39.941Z</time>
      </trkpt>
      <trkpt lat="47.34055" lon="-1.53105">
        <ele>55.579448</ele>
        <time>2022-12-16T13:01:42.936Z</time>
      </trkpt>
      <trkpt lat="47.34042" lon="-1.53104">
        <ele>55.140793</ele>
        <time>2022-12-16T13:01:45.939Z</time>
      </trkpt>
      <trkpt lat="47.3403" lon="-1.53105">
        <ele>54.712019</ele>
        <time>2022-12-16T13:01:48.936Z</time>
      </trkpt>
      <trkpt lat="47.34021" lon="-1.53105">
        <ele>54.580267</ele>
        <time>2022-12-16T13:01:51.938Z</time>
      </trkpt>
      <trkpt lat="47.34012" lon="-1.53108">
        <ele>54.691775</ele>
        <time>2022-12-16T13:01:54.930Z</time>
      </trkpt>
      <trkpt lat="47.34005" lon="-1.53118">
        <ele>54.802557</ele>
        <time>2022-12-16T13:01:57.920Z</time>
      </trkpt>
      <trkpt lat="47.34" lon="-1.53129">
        <ele>54.908737</ele>
        <time>2022-12-16T13:02:00.920Z</time>
      </trkpt>
      <trkpt lat="47.33995" lon="-1.53141">
        <ele>55.021454</ele>
        <time>2022-12-16T13:02:03.939Z</time>
      </trkpt>
      <trkpt lat="47.33989" lon="-1.53155">
        <ele>55.148022</ele>
        <time>2022-12-16T13:02:06.926Z</time>
      </trkpt>
      <trkpt lat="47.33983" lon="-1.53168">
        <ele>55.273787</ele>
        <time>2022-12-16T13:02:09.944Z</time>
      </trkpt>
      <trkpt lat="47.33976" lon="-1.5318">
        <ele>55.404873</ele>
        <time>2022-12-16T13:02:12.929Z</time>
      </trkpt>
      <trkpt lat="47.33968" lon="-1.53191">
        <ele>55.535806</ele>
        <time>2022-12-16T13:02:15.941Z</time>
      </trkpt>
      <trkpt lat="47.33959" lon="-1.53201">
        <ele>55.662476</ele>
        <time>2022-12-16T13:02:18.943Z</time>
      </trkpt>
      <trkpt lat="47.33951" lon="-1.53212">
        <ele>55.792069</ele>
        <time>2022-12-16T13:02:21.940Z</time>
      </trkpt>
      <trkpt lat="47.33943" lon="-1.53223">
        <ele>55.919004</ele>
        <time>2022-12-16T13:02:24.922Z</time>
      </trkpt>
      <trkpt lat="47.33935" lon="-1.53233">
        <ele>56.047695</ele>
        <time>2022-12-16T13:02:27.948Z</time>
      </trkpt>
      <trkpt lat="47.33926" lon="-1.53242">
        <ele>56.171887</ele>
        <time>2022-12-16T13:02:30.923Z</time>
      </trkpt>
      <trkpt lat="47.33917" lon="-1.53253">
        <ele>56.303797</ele>
        <time>2022-12-16T13:02:33.940Z</time>
      </trkpt>
      <trkpt lat="47.33909" lon="-1.53263">
        <ele>56.438031</ele>
        <time>2022-12-16T13:02:36.948Z</time>
      </trkpt>
      <trkpt lat="47.33899" lon="-1.53275">
        <ele>56.580574</ele>
        <time>2022-12-16T13:02:39.944Z</time>
      </trkpt>
      <trkpt lat="47.3389" lon="-1.53287">
        <ele>56.621128</ele>
        <time>2022-12-16T13:02:42.934Z</time>
      </trkpt>
      <trkpt lat="47.3388" lon="-1.533">
        <ele>56.587624</ele>
        <time>2022-12-16T13:02:45.937Z</time>
      </trkpt>
      <trkpt lat="47.3387" lon="-1.53313">
        <ele>56.552898</ele>
        <time>2022-12-16T13:02:48.947Z</time>
      </trkpt>
      <trkpt lat="47.33861" lon="-1.53326">
        <ele>56.518681</ele>
        <time>2022-12-16T13:02:51.943Z</time>
      </trkpt>
      <trkpt lat="47.33851" lon="-1.53339">
        <ele>56.483916</ele>
        <time>2022-12-16T13:02:54.934Z</time>
      </trkpt>
      <trkpt lat="47.33841" lon="-1.5335">
        <ele>56.449989</ele>
        <time>2022-12-16T13:02:57.946Z</time>
      </trkpt>
      <trkpt lat="47.3383" lon="-1.53362">
        <ele>56.416389</ele>
        <time>2022-12-16T13:03:00.927Z</time>
      </trkpt>
      <trkpt lat="47.33823" lon="-1.5337">
        <ele>56.392403</ele>
        <time>2022-12-16T13:03:02.943Z</time>
      </trkpt>
      <trkpt lat="47.33812" lon="-1.5338">
        <ele>56.357968</ele>
        <time>2022-12-16T13:03:05.937Z</time>
      </trkpt>
      <trkpt lat="47.33801" lon="-1.5339">
        <ele>56.32537</ele>
        <time>2022-12-16T13:03:08.939Z</time>
      </trkpt>
      <trkpt lat="47.33791" lon="-1.53399">
        <ele>56.293617</ele>
        <time>2022-12-16T13:03:11.945Z</time>
      </trkpt>
      <trkpt lat="47.33779" lon="-1.53409">
        <ele>56.258515</ele>
        <time>2022-12-16T13:03:14.926Z</time>
      </trkpt>
      <trkpt lat="47.33771" lon="-1.53416">
        <ele>56.233496</ele>
        <time>2022-12-16T13:03:16.942Z</time>
      </trkpt>
      <trkpt lat="47.33762" lon="-1.53424">
        <ele>56.205032</ele>
        <time>2022-12-16T13:03:18.944Z</time>
      </trkpt>
      <trkpt lat="47.33752" lon="-1.53431">
        <ele>56.177053</ele>
        <time>2022-12-16T13:03:20.920Z</time>
      </trkpt>
      <trkpt lat="47.33742" lon="-1.5344">
        <ele>56.172051</ele>
        <time>2022-12-16T13:03:22.947Z</time>
      </trkpt>
      <trkpt lat="47.33731" lon="-1.5345">
        <ele>56.177261</ele>
        <time>2022-12-16T13:03:24.927Z</time>
      </trkpt>
      <trkpt lat="47.33719" lon="-1.53459">
        <ele>56.182789</ele>
        <time>2022-12-16T13:03:26.946Z</time>
      </trkpt>
      <trkpt lat="47.33707" lon="-1.53468">
        <ele>56.188341</ele>
        <time>2022-12-16T13:03:28.931Z</time>
      </trkpt>
      <trkpt lat="47.33694" lon="-1.53475">
        <ele>56.193866</ele>
        <time>2022-12-16T13:03:30.922Z</time>
      </trkpt>
      <trkpt lat="47.33682" lon="-1.53481">
        <ele>56.198957</ele>
        <time>2022-12-16T13:03:32.931Z</time>
      </trkpt>
      <trkpt lat="47.33671" lon="-1.53485">
        <ele>56.203483</ele>
        <time>2022-12-16T13:03:34.922Z</time>
      </trkpt>
      <trkpt lat="47.33661" lon="-1.53488">
        <ele>56.207706</ele>
        <time>2022-12-16T13:03:36.946Z</time>
      </trkpt>
      <trkpt lat="47.3365" lon="-1.5349">
        <ele>56.21233</ele>
        <time>2022-12-16T13:03:39.934Z</time>
      </trkpt>
      <trkpt lat="47.33638" lon="-1.53492">
        <ele>56.217087</ele>
        <time>2022-12-16T13:03:42.945Z</time>
      </trkpt>
      <trkpt lat="47.33627" lon="-1.53492">
        <ele>56.221851</ele>
        <time>2022-12-16T13:03:45.923Z</time>
      </trkpt>
      <trkpt lat="47.33615" lon="-1.53492">
        <ele>56.226451</ele>
        <time>2022-12-16T13:03:48.943Z</time>
      </trkpt>
      <trkpt lat="47.33604" lon="-1.53492">
        <ele>56.231093</ele>
        <time>2022-12-16T13:03:51.940Z</time>
      </trkpt>
      <trkpt lat="47.33592" lon="-1.53492">
        <ele>56.235897</ele>
        <time>2022-12-16T13:03:54.944Z</time>
      </trkpt>
      <trkpt lat="47.33581" lon="-1.53492">
        <ele>56.240578</ele>
        <time>2022-12-16T13:03:57.942Z</time>
      </trkpt>
      <trkpt lat="47.33571" lon="-1.53492">
        <ele>56.510507</ele>
        <time>2022-12-16T13:04:00.924Z</time>
      </trkpt>
      <trkpt lat="47.33562" lon="-1.53492">
        <ele>56.87486</ele>
        <time>2022-12-16T13:04:03.945Z</time>
      </trkpt>
      <trkpt lat="47.3355" lon="-1.53492">
        <ele>57.352575</ele>
        <time>2022-12-16T13:04:07.938Z</time>
      </trkpt>
      <trkpt lat="47.33538" lon="-1.53492">
        <ele>57.842436</ele>
        <time>2022-12-16T13:04:11.940Z</time>
      </trkpt>
      <trkpt lat="47.33529" lon="-1.53492">
        <ele>58.231089</ele>
        <time>2022-12-16T13:04:14.941Z</time>
      </trkpt>
      <trkpt lat="47.33518" lon="-1.53492">
        <ele>58.684713</ele>
        <time>2022-12-16T13:04:18.939Z</time>
      </trkpt>
      <trkpt lat="47.33508" lon="-1.53491">
        <ele>59.0701</ele>
        <time>2022-12-16T13:04:22.931Z</time>
      </trkpt>
      <trkpt lat="47.33499" lon="-1.53484">
        <ele>59.497606</ele>
        <time>2022-12-16T13:04:27.923Z</time>
      </trkpt>
      <trkpt lat="47.33489" lon="-1.53482">
        <ele>59.880301</ele>
        <time>2022-12-16T13:04:34.925Z</time>
      </trkpt>
      <trkpt lat="47.33479" lon="-1.53484">
        <ele>60.291375</ele>
        <time>2022-12-16T13:04:39.925Z</time>
      </trkpt>
      <trkpt lat="47.33469" lon="-1.53486">
        <ele>60.726249</ele>
        <time>2022-12-16T13:04:45.927Z</time>
      </trkpt>
      <trkpt lat="47.33458" lon="-1.53487">
        <ele>61.14246</ele>
        <time>2022-12-16T13:04:50.922Z</time>
      </trkpt>
      <trkpt lat="47.33448" lon="-1.53489">
        <ele>61.55064</ele>
        <time>2022-12-16T13:04:55.925Z</time>
      </trkpt>
      <trkpt lat="47.33438" lon="-1.5349">
        <ele>61.964674</ele>
        <time>2022-12-16T13:05:00.924Z</time>
      </trkpt>
      <trkpt lat="47.33428" lon="-1.53493">
        <ele>62.369583</ele>
        <time>2022-12-16T13:05:05.936Z</time>
      </trkpt>
      <trkpt lat="47.33419" lon="-1.53495">
        <ele>62.769719</ele>
        <time>2022-12-16T13:05:10.922Z</time>
      </trkpt>
      <trkpt lat="47.33408" lon="-1.53497">
        <ele>63.20234</ele>
        <time>2022-12-16T13:05:15.928Z</time>
      </trkpt>
      <trkpt lat="47.33399" lon="-1.53499">
        <ele>63.527145</ele>
        <time>2022-12-16T13:05:19.923Z</time>
      </trkpt>
      <trkpt lat="47.33389" lon="-1.535">
        <ele>63.554909</ele>
        <time>2022-12-16T13:05:23.926Z</time>
      </trkpt>
      <trkpt lat="47.33369" lon="-1.53506">
        <ele>63.615818</ele>
        <time>2022-12-16T13:05:52.931Z</time>
      </trkpt>
      <trkpt lat="47.33358" lon="-1.53511">
        <ele>63.648994</ele>
        <time>2022-12-16T13:05:56.945Z</time>
      </trkpt>
      <trkpt lat="47.33349" lon="-1.53515">
        <ele>63.677367</ele>
        <time>2022-12-16T13:05:59.930Z</time>
      </trkpt>
      <trkpt lat="47.33339" lon="-1.53519">
        <ele>63.707637</ele>
        <time>2022-12-16T13:06:02.928Z</time>
      </trkpt>
      <trkpt lat="47.33329" lon="-1.53523">
        <ele>63.738407</ele>
        <time>2022-12-16T13:06:05.942Z</time>
      </trkpt>
      <trkpt lat="47.33318" lon="-1.53528">
        <ele>63.770699</ele>
        <time>2022-12-16T13:06:08.938Z</time>
      </trkpt>
      <trkpt lat="47.33307" lon="-1.53531">
        <ele>63.802379</ele>
        <time>2022-12-16T13:06:11.944Z</time>
      </trkpt>
      <trkpt lat="47.33296" lon="-1.53535">
        <ele>63.834715</ele>
        <time>2022-12-16T13:06:14.943Z</time>
      </trkpt>
      <trkpt lat="47.33287" lon="-1.53539">
        <ele>63.86443</ele>
        <time>2022-12-16T13:06:17.937Z</time>
      </trkpt>
      <trkpt lat="47.33278" lon="-1.53543">
        <ele>63.891397</ele>
        <time>2022-12-16T13:06:20.929Z</time>
      </trkpt>
      <trkpt lat="47.33268" lon="-1.53546">
        <ele>63.919861</ele>
        <time>2022-12-16T13:06:24.946Z</time>
      </trkpt>
      <trkpt lat="47.33259" lon="-1.53548">
        <ele>63.946816</ele>
        <time>2022-12-16T13:06:29.925Z</time>
      </trkpt>
      <trkpt lat="47.33254" lon="-1.53533">
        <ele>63.980086</ele>
        <time>2022-12-16T13:06:33.930Z</time>
      </trkpt>
      <trkpt lat="47.33252" lon="-1.53517">
        <ele>64.011582</ele>
        <time>2022-12-16T13:06:37.945Z</time>
      </trkpt>
      <trkpt lat="47.33244" lon="-1.53506">
        <ele>64.042493</ele>
        <time>2022-12-16T13:06:41.943Z</time>
      </trkpt>
      <trkpt lat="47.33233" lon="-1.535">
        <ele>63.440305</ele>
        <time>2022-12-16T13:06:45.922Z</time>
      </trkpt>
      <trkpt lat="47.33225" lon="-1.53497">
        <ele>62.884386</ele>
        <time>2022-12-16T13:06:48.938Z</time>
      </trkpt>
      <trkpt lat="47.33215" lon="-1.53492">
        <ele>62.259148</ele>
        <time>2022-12-16T13:06:51.941Z</time>
      </trkpt>
      <trkpt lat="47.33204" lon="-1.53486">
        <ele>61.581149</ele>
        <time>2022-12-16T13:06:54.942Z</time>
      </trkpt>
      <trkpt lat="47.33195" lon="-1.53483">
        <ele>60.966851</ele>
        <time>2022-12-16T13:06:57.931Z</time>
      </trkpt>
      <trkpt lat="47.33183" lon="-1.53478">
        <ele>60.228063</ele>
        <time>2022-12-16T13:07:01.942Z</time>
      </trkpt>
      <trkpt lat="47.33173" lon="-1.53475">
        <ele>59.624037</ele>
        <time>2022-12-16T13:07:04.944Z</time>
      </trkpt>
      <trkpt lat="47.33165" lon="-1.53472">
        <ele>59.075574</ele>
        <time>2022-12-16T13:07:07.939Z</time>
      </trkpt>
      <trkpt lat="47.33155" lon="-1.5347">
        <ele>58.488528</ele>
        <time>2022-12-16T13:07:10.934Z</time>
      </trkpt>
      <trkpt lat="47.33144" lon="-1.53467">
        <ele>57.810144</ele>
        <time>2022-12-16T13:07:14.927Z</time>
      </trkpt>
      <trkpt lat="47.33135" lon="-1.53464">
        <ele>57.228376</ele>
        <time>2022-12-16T13:07:18.946Z</time>
      </trkpt>
      <trkpt lat="47.33123" lon="-1.53463">
        <ele>56.500186</ele>
        <time>2022-12-16T13:07:22.939Z</time>
      </trkpt>
      <trkpt lat="47.33112" lon="-1.53463">
        <ele>55.81568</ele>
        <time>2022-12-16T13:07:26.928Z</time>
      </trkpt>
      <trkpt lat="47.33101" lon="-1.53466">
        <ele>55.159</ele>
        <time>2022-12-16T13:07:30.926Z</time>
      </trkpt>
      <trkpt lat="47.33091" lon="-1.53468">
        <ele>54.530176</ele>
        <time>2022-12-16T13:07:33.933Z</time>
      </trkpt>
      <trkpt lat="47.33081" lon="-1.5347">
        <ele>53.926128</ele>
        <time>2022-12-16T13:07:36.941Z</time>
      </trkpt>
      <trkpt lat="47.33071" lon="-1.53474">
        <ele>53.283712</ele>
        <time>2022-12-16T13:07:40.922Z</time>
      </trkpt>
      <trkpt lat="47.33061" lon="-1.53477">
        <ele>53.143795</ele>
        <time>2022-12-16T13:07:43.943Z</time>
      </trkpt>
      <trkpt lat="47.33051" lon="-1.53479">
        <ele>53.276759</ele>
        <time>2022-12-16T13:07:46.926Z</time>
      </trkpt>
      <trkpt lat="47.33042" lon="-1.53482">
        <ele>53.399147</ele>
        <time>2022-12-16T13:07:49.927Z</time>
      </trkpt>
      <trkpt lat="47.33032" lon="-1.53484">
        <ele>53.531205</ele>
        <time>2022-12-16T13:07:52.922Z</time>
      </trkpt>
      <trkpt lat="47.33023" lon="-1.53487">
        <ele>53.66661</ele>
        <time>2022-12-16T13:07:56.944Z</time>
      </trkpt>
      <trkpt lat="47.33013" lon="-1.53493">
        <ele>53.804321</ele>
        <time>2022-12-16T13:08:00.967Z</time>
      </trkpt>
      <trkpt lat="47.33004" lon="-1.53501">
        <ele>53.944236</ele>
        <time>2022-12-16T13:08:03.930Z</time>
      </trkpt>
      <trkpt lat="47.32995" lon="-1.53509">
        <ele>54.083947</ele>
        <time>2022-12-16T13:08:06.941Z</time>
      </trkpt>
      <trkpt lat="47.32987" lon="-1.53515">
        <ele>54.207466</ele>
        <time>2022-12-16T13:08:09.926Z</time>
      </trkpt>
      <trkpt lat="47.32978" lon="-1.53521">
        <ele>54.34457</ele>
        <time>2022-12-16T13:08:13.940Z</time>
      </trkpt>
      <trkpt lat="47.32968" lon="-1.53525">
        <ele>54.47326</ele>
        <time>2022-12-16T13:08:17.939Z</time>
      </trkpt>
      <trkpt lat="47.32959" lon="-1.53528">
        <ele>54.601382</ele>
        <time>2022-12-16T13:08:22.931Z</time>
      </trkpt>
      <trkpt lat="47.32949" lon="-1.53532">
        <ele>54.744154</ele>
        <time>2022-12-16T13:08:28.924Z</time>
      </trkpt>
      <trkpt lat="47.3294" lon="-1.53537">
        <ele>54.869851</ele>
        <time>2022-12-16T13:08:33.933Z</time>
      </trkpt>
      <trkpt lat="47.32931" lon="-1.53541">
        <ele>54.994972</ele>
        <time>2022-12-16T13:08:38.931Z</time>
      </trkpt>
      <trkpt lat="47.32922" lon="-1.53546">
        <ele>55.126909</ele>
        <time>2022-12-16T13:08:43.937Z</time>
      </trkpt>
      <trkpt lat="47.32912" lon="-1.5355">
        <ele>55.25689</ele>
        <time>2022-12-16T13:08:49.923Z</time>
      </trkpt>
      <trkpt lat="47.32902" lon="-1.53555">
        <ele>55.400492</ele>
        <time>2022-12-16T13:08:54.931Z</time>
      </trkpt>
      <trkpt lat="47.32894" lon="-1.53559">
        <ele>55.577795</ele>
        <time>2022-12-16T13:09:00.929Z</time>
      </trkpt>
      <trkpt lat="47.32884" lon="-1.53566">
        <ele>55.838218</ele>
        <time>2022-12-16T13:09:06.936Z</time>
      </trkpt>
      <trkpt lat="47.32876" lon="-1.53573">
        <ele>56.084911</ele>
        <time>2022-12-16T13:09:11.928Z</time>
      </trkpt>
      <trkpt lat="47.32867" lon="-1.53579">
        <ele>56.322427</ele>
        <time>2022-12-16T13:09:16.945Z</time>
      </trkpt>
      <trkpt lat="47.32859" lon="-1.53586">
        <ele>56.559886</ele>
        <time>2022-12-16T13:09:21.928Z</time>
      </trkpt>
      <trkpt lat="47.3285" lon="-1.53594">
        <ele>56.829035</ele>
        <time>2022-12-16T13:09:26.926Z</time>
      </trkpt>
      <trkpt lat="47.32842" lon="-1.53601">
        <ele>57.080602</ele>
        <time>2022-12-16T13:09:31.953Z</time>
      </trkpt>
      <trkpt lat="47.32832" lon="-1.53609">
        <ele>57.358746</ele>
        <time>2022-12-16T13:09:36.923Z</time>
      </trkpt>
      <trkpt lat="47.32826" lon="-1.5362">
        <ele>57.60498</ele>
        <time>2022-12-16T13:09:41.924Z</time>
      </trkpt>
      <trkpt lat="47.3283" lon="-1.53634">
        <ele>57.864743</ele>
        <time>2022-12-16T13:09:47.953Z</time>
      </trkpt>
      <trkpt lat="47.32837" lon="-1.53644">
        <ele>58.125881</ele>
        <time>2022-12-16T13:09:53.931Z</time>
      </trkpt>
      <trkpt lat="47.32844" lon="-1.53656">
        <ele>58.403204</ele>
        <time>2022-12-16T13:09:58.932Z</time>
      </trkpt>
      <trkpt lat="47.32851" lon="-1.53668">
        <ele>58.665614</ele>
        <time>2022-12-16T13:10:03.925Z</time>
      </trkpt>
      <trkpt lat="47.32843" lon="-1.53675">
        <ele>58.904403</ele>
        <time>2022-12-16T13:10:09.931Z</time>
      </trkpt>
      <trkpt lat="47.32832" lon="-1.53677">
        <ele>59.17976</ele>
        <time>2022-12-16T13:10:14.930Z</time>
      </trkpt>
      <trkpt lat="47.32821" lon="-1.53679">
        <ele>59.46949</ele>
        <time>2022-12-16T13:10:18.926Z</time>
      </trkpt>
      <trkpt lat="47.32809" lon="-1.53681">
        <ele>59.767656</ele>
        <time>2022-12-16T13:10:22.931Z</time>
      </trkpt>
      <trkpt lat="47.32798" lon="-1.53684">
        <ele>60.085649</ele>
        <time>2022-12-16T13:10:26.931Z</time>
      </trkpt>
      <trkpt lat="47.32789" lon="-1.53685">
        <ele>60.43245</ele>
        <time>2022-12-16T13:10:29.942Z</time>
      </trkpt>
      <trkpt lat="47.32777" lon="-1.53687">
        <ele>60.89148</ele>
        <time>2022-12-16T13:10:33.948Z</time>
      </trkpt>
      <trkpt lat="47.32765" lon="-1.53689">
        <ele>61.346697</ele>
        <time>2022-12-16T13:10:37.948Z</time>
      </trkpt>
      <trkpt lat="47.32753" lon="-1.53691">
        <ele>61.789904</ele>
        <time>2022-12-16T13:10:41.935Z</time>
      </trkpt>
      <trkpt lat="47.32743" lon="-1.53696">
        <ele>62.223284</ele>
        <time>2022-12-16T13:10:45.947Z</time>
      </trkpt>
      <trkpt lat="47.32732" lon="-1.53699">
        <ele>62.624895</ele>
        <time>2022-12-16T13:10:49.945Z</time>
      </trkpt>
      <trkpt lat="47.32723" lon="-1.537">
        <ele>62.997217</ele>
        <time>2022-12-16T13:10:53.931Z</time>
      </trkpt>
      <trkpt lat="47.32713" lon="-1.53702">
        <ele>63.355972</ele>
        <time>2022-12-16T13:10:57.929Z</time>
      </trkpt>
      <trkpt lat="47.32703" lon="-1.53701">
        <ele>63.740537</ele>
        <time>2022-12-16T13:11:01.928Z</time>
      </trkpt>
      <trkpt lat="47.32693" lon="-1.53701">
        <ele>64.124257</ele>
        <time>2022-12-16T13:11:05.950Z</time>
      </trkpt>
      <trkpt lat="47.32684" lon="-1.537">
        <ele>64.473717</ele>
        <time>2022-12-16T13:11:09.952Z</time>
      </trkpt>
      <trkpt lat="47.32675" lon="-1.53698">
        <ele>64.834141</ele>
        <time>2022-12-16T13:11:13.945Z</time>
      </trkpt>
      <trkpt lat="47.32665" lon="-1.53698">
        <ele>65.206173</ele>
        <time>2022-12-16T13:11:18.929Z</time>
      </trkpt>
      <trkpt lat="47.32655" lon="-1.53698">
        <ele>65.605021</ele>
        <time>2022-12-16T13:11:23.931Z</time>
      </trkpt>
      <trkpt lat="47.32646" lon="-1.53696">
        <ele>65.954877</ele>
        <time>2022-12-16T13:11:27.923Z</time>
      </trkpt>
      <trkpt lat="47.32637" lon="-1.53696">
        <ele>66.303901</ele>
        <time>2022-12-16T13:11:31.934Z</time>
      </trkpt>
      <trkpt lat="47.32627" lon="-1.53693">
        <ele>66.678189</ele>
        <time>2022-12-16T13:11:35.930Z</time>
      </trkpt>
      <trkpt lat="47.32616" lon="-1.53689">
        <ele>66.97278</ele>
        <time>2022-12-16T13:11:39.940Z</time>
      </trkpt>
      <trkpt lat="47.32607" lon="-1.53685">
        <ele>67.023987</ele>
        <time>2022-12-16T13:11:42.926Z</time>
      </trkpt>
      <trkpt lat="47.32597" lon="-1.53682">
        <ele>67.079784</ele>
        <time>2022-12-16T13:11:45.949Z</time>
      </trkpt>
      <trkpt lat="47.32586" lon="-1.53678">
        <ele>67.139947</ele>
        <time>2022-12-16T13:11:48.952Z</time>
      </trkpt>
      <trkpt lat="47.32575" lon="-1.53672">
        <ele>67.20319</ele>
        <time>2022-12-16T13:11:51.943Z</time>
      </trkpt>
      <trkpt lat="47.32565" lon="-1.53668">
        <ele>67.262859</ele>
        <time>2022-12-16T13:11:54.924Z</time>
      </trkpt>
      <trkpt lat="47.32555" lon="-1.53663">
        <ele>67.320081</ele>
        <time>2022-12-16T13:11:57.926Z</time>
      </trkpt>
      <trkpt lat="47.32544" lon="-1.53658">
        <ele>67.38317</ele>
        <time>2022-12-16T13:12:00.922Z</time>
      </trkpt>
      <trkpt lat="47.32532" lon="-1.53652">
        <ele>67.450034</ele>
        <time>2022-12-16T13:12:03.943Z</time>
      </trkpt>
      <trkpt lat="47.32521" lon="-1.53646">
        <ele>67.51747</ele>
        <time>2022-12-16T13:12:06.947Z</time>
      </trkpt>
      <trkpt lat="47.32509" lon="-1.5364">
        <ele>67.582378</ele>
        <time>2022-12-16T13:12:09.943Z</time>
      </trkpt>
      <trkpt lat="47.32497" lon="-1.53636">
        <ele>67.648743</ele>
        <time>2022-12-16T13:12:12.927Z</time>
      </trkpt>
      <trkpt lat="47.32486" lon="-1.53631">
        <ele>67.714866</ele>
        <time>2022-12-16T13:12:15.944Z</time>
      </trkpt>
      <trkpt lat="47.32474" lon="-1.53624">
        <ele>67.782565</ele>
        <time>2022-12-16T13:12:18.942Z</time>
      </trkpt>
      <trkpt lat="47.32462" lon="-1.53618">
        <ele>67.851617</ele>
        <time>2022-12-16T13:12:21.939Z</time>
      </trkpt>
      <trkpt lat="47.3245" lon="-1.53612">
        <ele>67.923193</ele>
        <time>2022-12-16T13:12:24.940Z</time>
      </trkpt>
      <trkpt lat="47.32441" lon="-1.53609">
        <ele>67.481896</ele>
        <time>2022-12-16T13:12:26.950Z</time>
      </trkpt>
      <trkpt lat="47.32431" lon="-1.53604">
        <ele>66.948781</ele>
        <time>2022-12-16T13:12:28.947Z</time>
      </trkpt>
      <trkpt lat="47.32421" lon="-1.53599">
        <ele>66.366575</ele>
        <time>2022-12-16T13:12:30.926Z</time>
      </trkpt>
      <trkpt lat="47.32412" lon="-1.53594">
        <ele>65.814989</ele>
        <time>2022-12-16T13:12:32.944Z</time>
      </trkpt>
      <trkpt lat="47.32402" lon="-1.53589">
        <ele>65.27099</ele>
        <time>2022-12-16T13:12:34.941Z</time>
      </trkpt>
      <trkpt lat="47.32393" lon="-1.53583">
        <ele>64.714267</ele>
        <time>2022-12-16T13:12:36.940Z</time>
      </trkpt>
      <trkpt lat="47.32383" lon="-1.53579">
        <ele>64.190304</ele>
        <time>2022-12-16T13:12:38.948Z</time>
      </trkpt>
      <trkpt lat="47.32374" lon="-1.53575">
        <ele>63.671816</ele>
        <time>2022-12-16T13:12:40.925Z</time>
      </trkpt>
      <trkpt lat="47.32365" lon="-1.5357">
        <ele>63.16952</ele>
        <time>2022-12-16T13:12:42.943Z</time>
      </trkpt>
      <trkpt lat="47.32356" lon="-1.53566">
        <ele>62.632335</ele>
        <time>2022-12-16T13:12:44.952Z</time>
      </trkpt>
      <trkpt lat="47.32347" lon="-1.53562">
        <ele>62.128301</ele>
        <time>2022-12-16T13:12:46.941Z</time>
      </trkpt>
      <trkpt lat="47.32336" lon="-1.53557">
        <ele>61.516394</ele>
        <time>2022-12-16T13:12:49.945Z</time>
      </trkpt>
      <trkpt lat="47.32326" lon="-1.5355">
        <ele>60.917195</ele>
        <time>2022-12-16T13:12:52.962Z</time>
      </trkpt>
      <trkpt lat="47.32315" lon="-1.53544">
        <ele>60.275999</ele>
        <time>2022-12-16T13:12:55.928Z</time>
      </trkpt>
      <trkpt lat="47.32306" lon="-1.53539">
        <ele>59.756115</ele>
        <time>2022-12-16T13:12:57.946Z</time>
      </trkpt>
      <trkpt lat="47.32294" lon="-1.53531">
        <ele>59.069387</ele>
        <time>2022-12-16T13:13:00.925Z</time>
      </trkpt>
      <trkpt lat="47.32286" lon="-1.53527">
        <ele>58.570511</ele>
        <time>2022-12-16T13:13:02.926Z</time>
      </trkpt>
      <trkpt lat="47.32275" lon="-1.53521">
        <ele>58.142527</ele>
        <time>2022-12-16T13:13:04.933Z</time>
      </trkpt>
      <trkpt lat="47.32267" lon="-1.53516">
        <ele>58.013842</ele>
        <time>2022-12-16T13:13:06.923Z</time>
      </trkpt>
      <trkpt lat="47.32258" lon="-1.5351">
        <ele>57.870785</ele>
        <time>2022-12-16T13:13:09.942Z</time>
      </trkpt>
      <trkpt lat="47.32248" lon="-1.53517">
        <ele>57.713133</ele>
        <time>2022-12-16T13:13:14.933Z</time>
      </trkpt>
      <trkpt lat="47.32247" lon="-1.53533">
        <ele>57.56522</ele>
        <time>2022-12-16T13:13:18.931Z</time>
      </trkpt>
      <trkpt lat="47.32248" lon="-1.53546">
        <ele>57.431059</ele>
        <time>2022-12-16T13:13:20.921Z</time>
      </trkpt>
      <trkpt lat="47.32246" lon="-1.53566">
        <ele>57.238312</ele>
        <time>2022-12-16T13:13:23.925Z</time>
      </trkpt>
      <trkpt lat="47.3224" lon="-1.53577">
        <ele>57.102435</ele>
        <time>2022-12-16T13:13:26.930Z</time>
      </trkpt>
      <trkpt lat="47.32231" lon="-1.53583">
        <ele>56.959378</ele>
        <time>2022-12-16T13:13:31.925Z</time>
      </trkpt>
      <trkpt lat="47.3222" lon="-1.53585">
        <ele>56.807221</ele>
        <time>2022-12-16T13:13:35.947Z</time>
      </trkpt>
      <trkpt lat="47.3221" lon="-1.53584">
        <ele>56.661155</ele>
        <time>2022-12-16T13:13:38.941Z</time>
      </trkpt>
      <trkpt lat="47.32199" lon="-1.53583">
        <ele>56.506434</ele>
        <time>2022-12-16T13:13:41.941Z</time>
      </trkpt>
      <trkpt lat="47.32188" lon="-1.53584">
        <ele>56.337448</ele>
        <time>2022-12-16T13:13:44.933Z</time>
      </trkpt>
      <trkpt lat="47.32174" lon="-1.53585">
        <ele>56.148324</ele>
        <time>2022-12-16T13:13:47.946Z</time>
      </trkpt>
      <trkpt lat="47.32165" lon="-1.53586">
        <ele>56.019218</ele>
        <time>2022-12-16T13:13:49.942Z</time>
      </trkpt>
      <trkpt lat="47.32152" lon="-1.53585">
        <ele>55.825846</ele>
        <time>2022-12-16T13:13:52.923Z</time>
      </trkpt>
      <trkpt lat="47.32142" lon="-1.53585">
        <ele>55.67978</ele>
        <time>2022-12-16T13:13:54.937Z</time>
      </trkpt>
      <trkpt lat="47.32132" lon="-1.53587">
        <ele>55.598967</ele>
        <time>2022-12-16T13:13:56.931Z</time>
      </trkpt>
      <trkpt lat="47.32121" lon="-1.53589">
        <ele>55.548686</ele>
        <time>2022-12-16T13:13:58.944Z</time>
      </trkpt>
      <trkpt lat="47.32111" lon="-1.53592">
        <ele>55.496621</ele>
        <time>2022-12-16T13:14:00.923Z</time>
      </trkpt>
      <trkpt lat="47.321" lon="-1.53597">
        <ele>55.443262</ele>
        <time>2022-12-16T13:14:02.931Z</time>
      </trkpt>
      <trkpt lat="47.32091" lon="-1.53604">
        <ele>55.3933</ele>
        <time>2022-12-16T13:14:04.931Z</time>
      </trkpt>
      <trkpt lat="47.32081" lon="-1.53612">
        <ele>55.341525</ele>
        <time>2022-12-16T13:14:06.922Z</time>
      </trkpt>
      <trkpt lat="47.32072" lon="-1.53622">
        <ele>55.287358</ele>
        <time>2022-12-16T13:14:08.925Z</time>
      </trkpt>
      <trkpt lat="47.32066" lon="-1.53635">
        <ele>55.236018</ele>
        <time>2022-12-16T13:14:10.926Z</time>
      </trkpt>
      <trkpt lat="47.32063" lon="-1.53649">
        <ele>55.18762</ele>
        <time>2022-12-16T13:14:12.930Z</time>
      </trkpt>
      <trkpt lat="47.32062" lon="-1.53664">
        <ele>55.139461</ele>
        <time>2022-12-16T13:14:14.930Z</time>
      </trkpt>
      <trkpt lat="47.32059" lon="-1.53679">
        <ele>55.089671</ele>
        <time>2022-12-16T13:14:16.946Z</time>
      </trkpt>
      <trkpt lat="47.32053" lon="-1.53693">
        <ele>55.034857</ele>
        <time>2022-12-16T13:14:18.932Z</time>
      </trkpt>
      <trkpt lat="47.32045" lon="-1.53707">
        <ele>54.977488</ele>
        <time>2022-12-16T13:14:20.921Z</time>
      </trkpt>
      <trkpt lat="47.32035" lon="-1.53717">
        <ele>54.917539</ele>
        <time>2022-12-16T13:14:22.928Z</time>
      </trkpt>
      <trkpt lat="47.32024" lon="-1.53725">
        <ele>54.858128</ele>
        <time>2022-12-16T13:14:24.931Z</time>
      </trkpt>
      <trkpt lat="47.32013" lon="-1.53732">
        <ele>54.801672</ele>
        <time>2022-12-16T13:14:26.929Z</time>
      </trkpt>
      <trkpt lat="47.32004" lon="-1.53739">
        <ele>54.742023</ele>
        <time>2022-12-16T13:14:28.921Z</time>
      </trkpt>
      <trkpt lat="47.31996" lon="-1.53749">
        <ele>54.659319</ele>
        <time>2022-12-16T13:14:30.921Z</time>
      </trkpt>
      <trkpt lat="47.31989" lon="-1.53761">
        <ele>54.574302</ele>
        <time>2022-12-16T13:14:32.924Z</time>
      </trkpt>
      <trkpt lat="47.3198" lon="-1.53771">
        <ele>54.483025</ele>
        <time>2022-12-16T13:14:34.951Z</time>
      </trkpt>
      <trkpt lat="47.31971" lon="-1.53779">
        <ele>54.400948</ele>
        <time>2022-12-16T13:14:36.925Z</time>
      </trkpt>
      <trkpt lat="47.31965" lon="-1.53788">
        <ele>54.327985</ele>
        <time>2022-12-16T13:14:38.946Z</time>
      </trkpt>
      <trkpt lat="47.31959" lon="-1.538">
        <ele>54.250901</ele>
        <time>2022-12-16T13:14:40.925Z</time>
      </trkpt>
      <trkpt lat="47.31953" lon="-1.53814">
        <ele>54.164369</ele>
        <time>2022-12-16T13:14:42.930Z</time>
      </trkpt>
      <trkpt lat="47.31947" lon="-1.53828">
        <ele>54.071155</ele>
        <time>2022-12-16T13:14:44.926Z</time>
      </trkpt>
      <trkpt lat="47.3194" lon="-1.53842">
        <ele>53.974797</ele>
        <time>2022-12-16T13:14:46.937Z</time>
      </trkpt>
      <trkpt lat="47.31932" lon="-1.53857">
        <ele>53.87677</ele>
        <time>2022-12-16T13:14:48.924Z</time>
      </trkpt>
      <trkpt lat="47.31924" lon="-1.5387">
        <ele>53.780098</ele>
        <time>2022-12-16T13:14:50.925Z</time>
      </trkpt>
      <trkpt lat="47.31917" lon="-1.53883">
        <ele>53.689715</ele>
        <time>2022-12-16T13:14:52.947Z</time>
      </trkpt>
      <trkpt lat="47.3191" lon="-1.53897">
        <ele>53.598255</ele>
        <time>2022-12-16T13:14:54.925Z</time>
      </trkpt>
      <trkpt lat="47.31903" lon="-1.53909">
        <ele>53.509216</ele>
        <time>2022-12-16T13:14:56.925Z</time>
      </trkpt>
      <trkpt lat="47.31897" lon="-1.53922">
        <ele>53.422231</ele>
        <time>2022-12-16T13:14:58.933Z</time>
      </trkpt>
      <trkpt lat="47.3189" lon="-1.53935">
        <ele>53.335162</ele>
        <time>2022-12-16T13:15:00.927Z</time>
      </trkpt>
      <trkpt lat="47.31884" lon="-1.53948">
        <ele>53.303173</ele>
        <time>2022-12-16T13:15:02.944Z</time>
      </trkpt>
      <trkpt lat="47.31877" lon="-1.53961">
        <ele>53.272726</ele>
        <time>2022-12-16T13:15:04.944Z</time>
      </trkpt>
      <trkpt lat="47.31871" lon="-1.53973">
        <ele>53.243737</ele>
        <time>2022-12-16T13:15:06.944Z</time>
      </trkpt>
      <trkpt lat="47.31865" lon="-1.53986">
        <ele>53.21462</ele>
        <time>2022-12-16T13:15:08.943Z</time>
      </trkpt>
      <trkpt lat="47.31859" lon="-1.53998">
        <ele>53.185934</ele>
        <time>2022-12-16T13:15:10.925Z</time>
      </trkpt>
      <trkpt lat="47.31854" lon="-1.5401">
        <ele>53.158548</ele>
        <time>2022-12-16T13:15:12.933Z</time>
      </trkpt>
      <trkpt lat="47.31848" lon="-1.54021">
        <ele>53.131616</ele>
        <time>2022-12-16T13:15:14.946Z</time>
      </trkpt>
      <trkpt lat="47.31843" lon="-1.54033">
        <ele>53.104674</ele>
        <time>2022-12-16T13:15:16.945Z</time>
      </trkpt>
      <trkpt lat="47.31837" lon="-1.54044">
        <ele>53.078005</ele>
        <time>2022-12-16T13:15:18.943Z</time>
      </trkpt>
      <trkpt lat="47.31832" lon="-1.54055">
        <ele>53.051875</ele>
        <time>2022-12-16T13:15:20.922Z</time>
      </trkpt>
      <trkpt lat="47.31826" lon="-1.54067">
        <ele>53.025593</ele>
        <time>2022-12-16T13:15:22.930Z</time>
      </trkpt>
      <trkpt lat="47.31821" lon="-1.54078">
        <ele>52.999758</ele>
        <time>2022-12-16T13:15:24.940Z</time>
      </trkpt>
      <trkpt lat="47.31816" lon="-1.54089">
        <ele>52.973934</ele>
        <time>2022-12-16T13:15:26.940Z</time>
      </trkpt>
      <trkpt lat="47.31808" lon="-1.54105">
        <ele>52.936759</ele>
        <time>2022-12-16T13:15:29.945Z</time>
      </trkpt>
      <trkpt lat="47.31802" lon="-1.54115">
        <ele>52.911097</ele>
        <time>2022-12-16T13:15:31.931Z</time>
      </trkpt>
      <trkpt lat="47.31796" lon="-1.54125">
        <ele>52.885313</ele>
        <time>2022-12-16T13:15:33.943Z</time>
      </trkpt>
      <trkpt lat="47.3179" lon="-1.54136">
        <ele>52.858854</ele>
        <time>2022-12-16T13:15:35.923Z</time>
      </trkpt>
      <trkpt lat="47.31784" lon="-1.54148">
        <ele>52.831433</ele>
        <time>2022-12-16T13:15:37.943Z</time>
      </trkpt>
      <trkpt lat="47.31778" lon="-1.54159">
        <ele>52.7328</ele>
        <time>2022-12-16T13:15:39.950Z</time>
      </trkpt>
      <trkpt lat="47.31773" lon="-1.54171">
        <ele>52.625222</ele>
        <time>2022-12-16T13:15:41.944Z</time>
      </trkpt>
      <trkpt lat="47.31766" lon="-1.54182">
        <ele>52.515749</ele>
        <time>2022-12-16T13:15:43.948Z</time>
      </trkpt>
      <trkpt lat="47.31759" lon="-1.54192">
        <ele>52.406637</ele>
        <time>2022-12-16T13:15:45.943Z</time>
      </trkpt>
      <trkpt lat="47.31752" lon="-1.54201">
        <ele>52.302845</ele>
        <time>2022-12-16T13:15:47.959Z</time>
      </trkpt>
      <trkpt lat="47.3174" lon="-1.5421">
        <ele>52.156628</ele>
        <time>2022-12-16T13:15:50.930Z</time>
      </trkpt>
      <trkpt lat="47.3173" lon="-1.54222">
        <ele>52.012203</ele>
        <time>2022-12-16T13:15:53.929Z</time>
      </trkpt>
      <trkpt lat="47.31719" lon="-1.54234">
        <ele>51.865968</ele>
        <time>2022-12-16T13:15:56.948Z</time>
      </trkpt>
      <trkpt lat="47.31709" lon="-1.54245">
        <ele>51.725512</ele>
        <time>2022-12-16T13:15:59.948Z</time>
      </trkpt>
      <trkpt lat="47.31699" lon="-1.54255">
        <ele>51.592084</ele>
        <time>2022-12-16T13:16:02.953Z</time>
      </trkpt>
      <trkpt lat="47.31688" lon="-1.54264">
        <ele>51.459337</ele>
        <time>2022-12-16T13:16:05.953Z</time>
      </trkpt>
      <trkpt lat="47.31678" lon="-1.54272">
        <ele>51.327908</ele>
        <time>2022-12-16T13:16:08.951Z</time>
      </trkpt>
      <trkpt lat="47.31667" lon="-1.54279">
        <ele>51.20274</ele>
        <time>2022-12-16T13:16:11.939Z</time>
      </trkpt>
      <trkpt lat="47.31656" lon="-1.54286">
        <ele>51.068824</ele>
        <time>2022-12-16T13:16:14.936Z</time>
      </trkpt>
      <trkpt lat="47.31646" lon="-1.54293">
        <ele>50.943971</ele>
        <time>2022-12-16T13:16:17.926Z</time>
      </trkpt>
      <trkpt lat="47.31636" lon="-1.54302">
        <ele>50.838262</ele>
        <time>2022-12-16T13:16:20.926Z</time>
      </trkpt>
      <trkpt lat="47.31631" lon="-1.54316">
        <ele>50.798497</ele>
        <time>2022-12-16T13:16:24.941Z</time>
      </trkpt>
      <trkpt lat="47.31622" lon="-1.54322">
        <ele>50.762538</ele>
        <time>2022-12-16T13:16:31.929Z</time>
      </trkpt>
      <trkpt lat="47.31613" lon="-1.54329">
        <ele>50.724847</ele>
        <time>2022-12-16T13:16:37.930Z</time>
      </trkpt>
      <trkpt lat="47.31603" lon="-1.54332">
        <ele>50.690239</ele>
        <time>2022-12-16T13:16:41.945Z</time>
      </trkpt>
      <trkpt lat="47.31592" lon="-1.5433">
        <ele>50.649718</ele>
        <time>2022-12-16T13:16:45.928Z</time>
      </trkpt>
      <trkpt lat="47.31581" lon="-1.54329">
        <ele>50.608908</ele>
        <time>2022-12-16T13:16:48.944Z</time>
      </trkpt>
      <trkpt lat="47.31569" lon="-1.54328">
        <ele>50.563126</ele>
        <time>2022-12-16T13:16:51.945Z</time>
      </trkpt>
      <trkpt lat="47.31558" lon="-1.54327">
        <ele>50.522425</ele>
        <time>2022-12-16T13:16:54.946Z</time>
      </trkpt>
      <trkpt lat="47.31547" lon="-1.54327">
        <ele>50.483975</ele>
        <time>2022-12-16T13:16:57.928Z</time>
      </trkpt>
      <trkpt lat="47.31536" lon="-1.54326">
        <ele>50.444395</ele>
        <time>2022-12-16T13:17:00.924Z</time>
      </trkpt>
      <trkpt lat="47.31526" lon="-1.54326">
        <ele>50.405216</ele>
        <time>2022-12-16T13:17:03.935Z</time>
      </trkpt>
      <trkpt lat="47.31516" lon="-1.54326">
        <ele>50.368224</ele>
        <time>2022-12-16T13:17:06.934Z</time>
      </trkpt>
      <trkpt lat="47.31504" lon="-1.54333">
        <ele>50.324123</ele>
        <time>2022-12-16T13:17:09.930Z</time>
      </trkpt>
      <trkpt lat="47.31492" lon="-1.54336">
        <ele>50.2792</ele>
        <time>2022-12-16T13:17:12.932Z</time>
      </trkpt>
      <trkpt lat="47.3148" lon="-1.54335">
        <ele>50.234865</ele>
        <time>2022-12-16T13:17:15.932Z</time>
      </trkpt>
      <trkpt lat="47.31467" lon="-1.54332">
        <ele>50.195017</ele>
        <time>2022-12-16T13:17:18.933Z</time>
      </trkpt>
      <trkpt lat="47.31455" lon="-1.54331">
        <ele>50.268233</ele>
        <time>2022-12-16T13:17:21.932Z</time>
      </trkpt>
      <trkpt lat="47.31443" lon="-1.54329">
        <ele>50.337628</ele>
        <time>2022-12-16T13:17:24.944Z</time>
      </trkpt>
      <trkpt lat="47.31433" lon="-1.54326">
        <ele>50.395732</ele>
        <time>2022-12-16T13:17:26.943Z</time>
      </trkpt>
      <trkpt lat="47.31423" lon="-1.54324">
        <ele>50.453031</ele>
        <time>2022-12-16T13:17:28.934Z</time>
      </trkpt>
      <trkpt lat="47.3141" lon="-1.54322">
        <ele>50.526646</ele>
        <time>2022-12-16T13:17:31.927Z</time>
      </trkpt>
      <trkpt lat="47.31398" lon="-1.5432">
        <ele>50.59837</ele>
        <time>2022-12-16T13:17:34.949Z</time>
      </trkpt>
      <trkpt lat="47.31388" lon="-1.54319">
        <ele>50.653094</ele>
        <time>2022-12-16T13:17:36.959Z</time>
      </trkpt>
      <trkpt lat="47.31378" lon="-1.54319">
        <ele>50.714714</ele>
        <time>2022-12-16T13:17:38.928Z</time>
      </trkpt>
      <trkpt lat="47.31368" lon="-1.54318">
        <ele>50.769995</ele>
        <time>2022-12-16T13:17:40.927Z</time>
      </trkpt>
      <trkpt lat="47.31359" lon="-1.54318">
        <ele>50.824664</ele>
        <time>2022-12-16T13:17:42.947Z</time>
      </trkpt>
      <trkpt lat="47.31346" lon="-1.54314">
        <ele>50.897373</ele>
        <time>2022-12-16T13:17:45.927Z</time>
      </trkpt>
      <trkpt lat="47.31334" lon="-1.54309">
        <ele>50.970768</ele>
        <time>2022-12-16T13:17:48.934Z</time>
      </trkpt>
      <trkpt lat="47.31322" lon="-1.54305">
        <ele>51.04326</ele>
        <time>2022-12-16T13:17:51.937Z</time>
      </trkpt>
      <trkpt lat="47.31309" lon="-1.54305">
        <ele>51.116336</ele>
        <time>2022-12-16T13:17:54.933Z</time>
      </trkpt>
      <trkpt lat="47.31296" lon="-1.54305">
        <ele>51.191713</ele>
        <time>2022-12-16T13:17:57.947Z</time>
      </trkpt>
      <trkpt lat="47.31283" lon="-1.54305">
        <ele>51.261634</ele>
        <time>2022-12-16T13:18:00.927Z</time>
      </trkpt>
      <trkpt lat="47.31273" lon="-1.54305">
        <ele>51.306567</ele>
        <time>2022-12-16T13:18:02.944Z</time>
      </trkpt>
      <trkpt lat="47.31261" lon="-1.54307">
        <ele>51.367998</ele>
        <time>2022-12-16T13:18:05.943Z</time>
      </trkpt>
      <trkpt lat="47.3125" lon="-1.54312">
        <ele>51.42639</ele>
        <time>2022-12-16T13:18:08.930Z</time>
      </trkpt>
      <trkpt lat="47.31241" lon="-1.54322">
        <ele>51.481058</ele>
        <time>2022-12-16T13:18:11.933Z</time>
      </trkpt>
      <trkpt lat="47.31233" lon="-1.54328">
        <ele>51.526117</ele>
        <time>2022-12-16T13:18:14.934Z</time>
      </trkpt>
      <trkpt lat="47.31218" lon="-1.54327">
        <ele>51.600328</ele>
        <time>2022-12-16T13:18:34.940Z</time>
      </trkpt>
      <trkpt lat="47.31211" lon="-1.54318">
        <ele>51.646846</ele>
        <time>2022-12-16T13:18:38.929Z</time>
      </trkpt>
      <trkpt lat="47.31204" lon="-1.54308">
        <ele>51.692851</ele>
        <time>2022-12-16T13:18:42.945Z</time>
      </trkpt>
      <trkpt lat="47.31194" lon="-1.54301">
        <ele>51.747505</ele>
        <time>2022-12-16T13:18:46.932Z</time>
      </trkpt>
      <trkpt lat="47.31185" lon="-1.54298">
        <ele>51.794418</ele>
        <time>2022-12-16T13:18:49.932Z</time>
      </trkpt>
      <trkpt lat="47.31174" lon="-1.54295">
        <ele>51.85123</ele>
        <time>2022-12-16T13:18:53.933Z</time>
      </trkpt>
      <trkpt lat="47.31164" lon="-1.54294">
        <ele>51.897991</ele>
        <time>2022-12-16T13:18:56.932Z</time>
      </trkpt>
      <trkpt lat="47.31155" lon="-1.54292">
        <ele>51.946713</ele>
        <time>2022-12-16T13:18:59.951Z</time>
      </trkpt>
      <trkpt lat="47.31145" lon="-1.54292">
        <ele>51.995111</ele>
        <time>2022-12-16T13:19:02.940Z</time>
      </trkpt>
      <trkpt lat="47.31136" lon="-1.54293">
        <ele>52.040616</ele>
        <time>2022-12-16T13:19:05.948Z</time>
      </trkpt>
      <trkpt lat="47.31126" lon="-1.54292">
        <ele>52.088159</ele>
        <time>2022-12-16T13:19:08.930Z</time>
      </trkpt>
      <trkpt lat="47.31116" lon="-1.54292">
        <ele>52.215579</ele>
        <time>2022-12-16T13:19:11.944Z</time>
      </trkpt>
      <trkpt lat="47.31105" lon="-1.54293">
        <ele>52.425209</ele>
        <time>2022-12-16T13:19:14.947Z</time>
      </trkpt>
      <trkpt lat="47.31095" lon="-1.54293">
        <ele>52.634643</ele>
        <time>2022-12-16T13:19:17.947Z</time>
      </trkpt>
      <trkpt lat="47.31085" lon="-1.54291">
        <ele>52.831013</ele>
        <time>2022-12-16T13:19:20.921Z</time>
      </trkpt>
      <trkpt lat="47.31074" lon="-1.5429">
        <ele>53.048827</ele>
        <time>2022-12-16T13:19:24.953Z</time>
      </trkpt>
      <trkpt lat="47.3106" lon="-1.54288">
        <ele>53.335312</ele>
        <time>2022-12-16T13:20:18.935Z</time>
      </trkpt>
      <trkpt lat="47.31049" lon="-1.54287">
        <ele>53.546999</ele>
        <time>2022-12-16T13:20:22.936Z</time>
      </trkpt>
      <trkpt lat="47.31037" lon="-1.54286">
        <ele>53.786641</ele>
        <time>2022-12-16T13:20:26.942Z</time>
      </trkpt>
      <trkpt lat="47.31028" lon="-1.54285">
        <ele>53.980899</ele>
        <time>2022-12-16T13:20:29.943Z</time>
      </trkpt>
      <trkpt lat="47.31018" lon="-1.54285">
        <ele>54.17839</ele>
        <time>2022-12-16T13:20:32.924Z</time>
      </trkpt>
      <trkpt lat="47.31008" lon="-1.54285">
        <ele>54.368099</ele>
        <time>2022-12-16T13:20:35.948Z</time>
      </trkpt>
      <trkpt lat="47.30998" lon="-1.54285">
        <ele>54.565775</ele>
        <time>2022-12-16T13:20:38.943Z</time>
      </trkpt>
      <trkpt lat="47.30989" lon="-1.54288">
        <ele>54.746997</ele>
        <time>2022-12-16T13:20:41.932Z</time>
      </trkpt>
      <trkpt lat="47.30979" lon="-1.54293">
        <ele>54.955916</ele>
        <time>2022-12-16T13:20:45.929Z</time>
      </trkpt>
      <trkpt lat="47.3097" lon="-1.54295">
        <ele>55.140532</ele>
        <time>2022-12-16T13:20:49.936Z</time>
      </trkpt>
      <trkpt lat="47.3096" lon="-1.54292">
        <ele>55.347457</ele>
        <time>2022-12-16T13:20:53.930Z</time>
      </trkpt>
      <trkpt lat="47.30951" lon="-1.54286">
        <ele>55.541756</ele>
        <time>2022-12-16T13:20:57.944Z</time>
      </trkpt>
      <trkpt lat="47.30941" lon="-1.54279">
        <ele>55.818653</ele>
        <time>2022-12-16T13:21:02.932Z</time>
      </trkpt>
      <trkpt lat="47.30932" lon="-1.54276">
        <ele>56.165853</ele>
        <time>2022-12-16T13:21:06.931Z</time>
      </trkpt>
      <trkpt lat="47.30922" lon="-1.54275">
        <ele>56.554636</ele>
        <time>2022-12-16T13:21:10.926Z</time>
      </trkpt>
      <trkpt lat="47.30911" lon="-1.54275">
        <ele>56.945983</ele>
        <time>2022-12-16T13:21:14.948Z</time>
      </trkpt>
      <trkpt lat="47.30901" lon="-1.54274">
        <ele>57.330211</ele>
        <time>2022-12-16T13:21:18.947Z</time>
      </trkpt>
      <trkpt lat="47.30891" lon="-1.54275">
        <ele>57.699007</ele>
        <time>2022-12-16T13:21:22.926Z</time>
      </trkpt>
      <trkpt lat="47.30882" lon="-1.54273">
        <ele>58.065083</ele>
        <time>2022-12-16T13:21:26.933Z</time>
      </trkpt>
      <trkpt lat="47.30872" lon="-1.54273">
        <ele>58.437686</ele>
        <time>2022-12-16T13:21:30.928Z</time>
      </trkpt>
      <trkpt lat="47.30862" lon="-1.54276">
        <ele>58.811497</ele>
        <time>2022-12-16T13:21:34.940Z</time>
      </trkpt>
      <trkpt lat="47.30853" lon="-1.54281">
        <ele>59.195526</ele>
        <time>2022-12-16T13:21:38.934Z</time>
      </trkpt>
      <trkpt lat="47.30843" lon="-1.54288">
        <ele>59.580552</ele>
        <time>2022-12-16T13:21:43.931Z</time>
      </trkpt>
      <trkpt lat="47.30835" lon="-1.54293">
        <ele>59.918893</ele>
        <time>2022-12-16T13:21:48.941Z</time>
      </trkpt>
      <trkpt lat="47.30825" lon="-1.54296">
        <ele>60.303403</ele>
        <time>2022-12-16T13:21:53.931Z</time>
      </trkpt>
      <trkpt lat="47.30815" lon="-1.54299">
        <ele>60.680551</ele>
        <time>2022-12-16T13:21:59.923Z</time>
      </trkpt>
      <trkpt lat="47.30806" lon="-1.54301">
        <ele>61.039559</ele>
        <time>2022-12-16T13:22:04.934Z</time>
      </trkpt>
      <trkpt lat="47.30796" lon="-1.54303">
        <ele>61.425802</ele>
        <time>2022-12-16T13:22:09.945Z</time>
      </trkpt>
      <trkpt lat="47.30786" lon="-1.54304">
        <ele>61.802789</ele>
        <time>2022-12-16T13:22:14.953Z</time>
      </trkpt>
      <trkpt lat="47.30776" lon="-1.54303">
        <ele>62.185026</ele>
        <time>2022-12-16T13:22:19.950Z</time>
      </trkpt>
      <trkpt lat="47.30765" lon="-1.54303">
        <ele>62.538735</ele>
        <time>2022-12-16T13:22:25.929Z</time>
      </trkpt>
      <trkpt lat="47.30755" lon="-1.54304">
        <ele>62.794809</ele>
        <time>2022-12-16T13:22:30.931Z</time>
      </trkpt>
      <trkpt lat="47.30746" lon="-1.5431">
        <ele>63.060048</ele>
        <time>2022-12-16T13:22:35.932Z</time>
      </trkpt>
      <trkpt lat="47.30736" lon="-1.54318">
        <ele>63.335927</ele>
        <time>2022-12-16T13:22:40.929Z</time>
      </trkpt>
      <trkpt lat="47.30728" lon="-1.54324">
        <ele>63.574811</ele>
        <time>2022-12-16T13:22:44.949Z</time>
      </trkpt>
      <trkpt lat="47.3072" lon="-1.5433">
        <ele>63.806758</ele>
        <time>2022-12-16T13:22:48.938Z</time>
      </trkpt>
      <trkpt lat="47.3071" lon="-1.54338">
        <ele>64.074267</ele>
        <time>2022-12-16T13:22:53.945Z</time>
      </trkpt>
      <trkpt lat="47.30701" lon="-1.54345">
        <ele>64.356222</ele>
        <time>2022-12-16T13:22:58.933Z</time>
      </trkpt>
      <trkpt lat="47.30692" lon="-1.54353">
        <ele>64.616322</ele>
        <time>2022-12-16T13:23:02.942Z</time>
      </trkpt>
      <trkpt lat="47.30683" lon="-1.54361">
        <ele>64.879114</ele>
        <time>2022-12-16T13:23:06.943Z</time>
      </trkpt>
      <trkpt lat="47.30673" lon="-1.5437">
        <ele>65.182015</ele>
        <time>2022-12-16T13:23:10.928Z</time>
      </trkpt>
      <trkpt lat="47.30665" lon="-1.54377">
        <ele>65.412438</ele>
        <time>2022-12-16T13:23:13.931Z</time>
      </trkpt>
      <trkpt lat="47.30657" lon="-1.54384">
        <ele>65.644661</ele>
        <time>2022-12-16T13:23:16.939Z</time>
      </trkpt>
      <trkpt lat="47.30648" lon="-1.54391">
        <ele>65.896479</ele>
        <time>2022-12-16T13:23:19.941Z</time>
      </trkpt>
      <trkpt lat="47.3064" lon="-1.54398">
        <ele>66.134316</ele>
        <time>2022-12-16T13:23:22.943Z</time>
      </trkpt>
      <trkpt lat="47.30632" lon="-1.54406">
        <ele>66.386555</ele>
        <time>2022-12-16T13:23:25.950Z</time>
      </trkpt>
      <trkpt lat="47.30622" lon="-1.54415">
        <ele>66.684236</ele>
        <time>2022-12-16T13:23:28.949Z</time>
      </trkpt>
      <trkpt lat="47.30612" lon="-1.54423">
        <ele>66.96753</ele>
        <time>2022-12-16T13:23:31.931Z</time>
      </trkpt>
      <trkpt lat="47.30604" lon="-1.5443">
        <ele>66.920598</ele>
        <time>2022-12-16T13:23:34.950Z</time>
      </trkpt>
      <trkpt lat="47.30596" lon="-1.54438">
        <ele>66.780313</ele>
        <time>2022-12-16T13:23:37.946Z</time>
      </trkpt>
      <trkpt lat="47.30587" lon="-1.54446">
        <ele>66.614674</ele>
        <time>2022-12-16T13:23:41.940Z</time>
      </trkpt>
      <trkpt lat="47.30579" lon="-1.54455">
        <ele>66.465101</ele>
        <time>2022-12-16T13:23:45.947Z</time>
      </trkpt>
      <trkpt lat="47.3057" lon="-1.54463">
        <ele>66.314199</ele>
        <time>2022-12-16T13:23:49.943Z</time>
      </trkpt>
      <trkpt lat="47.30561" lon="-1.54471">
        <ele>66.148043</ele>
        <time>2022-12-16T13:23:52.938Z</time>
      </trkpt>
      <trkpt lat="47.30551" lon="-1.54481">
        <ele>65.960098</ele>
        <time>2022-12-16T13:23:55.934Z</time>
      </trkpt>
      <trkpt lat="47.30539" lon="-1.54491">
        <ele>65.765675</ele>
        <time>2022-12-16T13:23:58.931Z</time>
      </trkpt>
      <trkpt lat="47.30528" lon="-1.545">
        <ele>65.570126</ele>
        <time>2022-12-16T13:24:01.944Z</time>
      </trkpt>
      <trkpt lat="47.30517" lon="-1.54509">
        <ele>65.377356</ele>
        <time>2022-12-16T13:24:04.950Z</time>
      </trkpt>
      <trkpt lat="47.30505" lon="-1.54518">
        <ele>65.17698</ele>
        <time>2022-12-16T13:24:07.940Z</time>
      </trkpt>
      <trkpt lat="47.30493" lon="-1.54527">
        <ele>64.982022</ele>
        <time>2022-12-16T13:24:10.926Z</time>
      </trkpt>
      <trkpt lat="47.30482" lon="-1.54536">
        <ele>64.791537</ele>
        <time>2022-12-16T13:24:13.946Z</time>
      </trkpt>
      <trkpt lat="47.30472" lon="-1.54543">
        <ele>64.614161</ele>
        <time>2022-12-16T13:24:16.937Z</time>
      </trkpt>
      <trkpt lat="47.30461" lon="-1.54551">
        <ele>64.431402</ele>
        <time>2022-12-16T13:24:19.947Z</time>
      </trkpt>
      <trkpt lat="47.30451" lon="-1.54558">
        <ele>64.280601</ele>
        <time>2022-12-16T13:24:22.950Z</time>
      </trkpt>
      <trkpt lat="47.30442" lon="-1.54564">
        <ele>64.169592</ele>
        <time>2022-12-16T13:24:25.933Z</time>
      </trkpt>
      <trkpt lat="47.30431" lon="-1.54574">
        <ele>64.031672</ele>
        <time>2022-12-16T13:24:28.927Z</time>
      </trkpt>
      <trkpt lat="47.30419" lon="-1.54584">
        <ele>63.885692</ele>
        <time>2022-12-16T13:24:31.946Z</time>
      </trkpt>
      <trkpt lat="47.3041" lon="-1.54592">
        <ele>63.771463</ele>
        <time>2022-12-16T13:24:33.944Z</time>
      </trkpt>
      <trkpt lat="47.30401" lon="-1.54602">
        <ele>63.645901</ele>
        <time>2022-12-16T13:24:35.933Z</time>
      </trkpt>
      <trkpt lat="47.30391" lon="-1.54615">
        <ele>63.506228</ele>
        <time>2022-12-16T13:24:37.944Z</time>
      </trkpt>
      <trkpt lat="47.30381" lon="-1.54626">
        <ele>63.363524</ele>
        <time>2022-12-16T13:24:39.930Z</time>
      </trkpt>
      <trkpt lat="47.30374" lon="-1.54638">
        <ele>63.248434</ele>
        <time>2022-12-16T13:24:41.948Z</time>
      </trkpt>
      <trkpt lat="47.30367" lon="-1.54649">
        <ele>63.140586</ele>
        <time>2022-12-16T13:24:43.944Z</time>
      </trkpt>
      <trkpt lat="47.30359" lon="-1.54659">
        <ele>63.018907</ele>
        <time>2022-12-16T13:24:46.944Z</time>
      </trkpt>
      <trkpt lat="47.30349" lon="-1.54662">
        <ele>62.907147</ele>
        <time>2022-12-16T13:24:50.925Z</time>
      </trkpt>
      <trkpt lat="47.30338" lon="-1.54666">
        <ele>62.787613</ele>
        <time>2022-12-16T13:24:54.925Z</time>
      </trkpt>
      <trkpt lat="47.30328" lon="-1.54671">
        <ele>62.673242</ele>
        <time>2022-12-16T13:24:58.930Z</time>
      </trkpt>
      <trkpt lat="47.30318" lon="-1.5467">
        <ele>62.564019</ele>
        <time>2022-12-16T13:25:02.929Z</time>
      </trkpt>
      <trkpt lat="47.30309" lon="-1.54666">
        <ele>62.464419</ele>
        <time>2022-12-16T13:25:05.948Z</time>
      </trkpt>
      <trkpt lat="47.30299" lon="-1.54662">
        <ele>62.36308</ele>
        <time>2022-12-16T13:25:08.937Z</time>
      </trkpt>
      <trkpt lat="47.30289" lon="-1.54657">
        <ele>62.620698</ele>
        <time>2022-12-16T13:25:11.946Z</time>
      </trkpt>
      <trkpt lat="47.30279" lon="-1.54654">
        <ele>62.855488</ele>
        <time>2022-12-16T13:25:14.930Z</time>
      </trkpt>
      <trkpt lat="47.30269" lon="-1.54656">
        <ele>63.085929</ele>
        <time>2022-12-16T13:25:18.934Z</time>
      </trkpt>
      <trkpt lat="47.30259" lon="-1.54662">
        <ele>63.325579</ele>
        <time>2022-12-16T13:25:22.931Z</time>
      </trkpt>
      <trkpt lat="47.3025" lon="-1.54667">
        <ele>63.55259</ele>
        <time>2022-12-16T13:25:25.940Z</time>
      </trkpt>
      <trkpt lat="47.30239" lon="-1.54672">
        <ele>63.806523</ele>
        <time>2022-12-16T13:25:28.941Z</time>
      </trkpt>
      <trkpt lat="47.30229" lon="-1.54678">
        <ele>64.056594</ele>
        <time>2022-12-16T13:25:31.946Z</time>
      </trkpt>
      <trkpt lat="47.30219" lon="-1.54683">
        <ele>64.304529</ele>
        <time>2022-12-16T13:25:34.953Z</time>
      </trkpt>
      <trkpt lat="47.3021" lon="-1.54689">
        <ele>64.528836</ele>
        <time>2022-12-16T13:25:37.933Z</time>
      </trkpt>
      <trkpt lat="47.30201" lon="-1.54694">
        <ele>64.744052</ele>
        <time>2022-12-16T13:25:40.929Z</time>
      </trkpt>
      <trkpt lat="47.30192" lon="-1.54699">
        <ele>64.960257</ele>
        <time>2022-12-16T13:25:43.959Z</time>
      </trkpt>
      <trkpt lat="47.30182" lon="-1.54704">
        <ele>65.219032</ele>
        <time>2022-12-16T13:25:47.949Z</time>
      </trkpt>
      <trkpt lat="47.30172" lon="-1.54709">
        <ele>65.44761</ele>
        <time>2022-12-16T13:25:50.930Z</time>
      </trkpt>
      <trkpt lat="47.30162" lon="-1.54714">
        <ele>65.690889</ele>
        <time>2022-12-16T13:25:53.951Z</time>
      </trkpt>
      <trkpt lat="47.30152" lon="-1.54719">
        <ele>65.942008</ele>
        <time>2022-12-16T13:25:56.940Z</time>
      </trkpt>
      <trkpt lat="47.30141" lon="-1.54724">
        <ele>66.205447</ele>
        <time>2022-12-16T13:25:59.940Z</time>
      </trkpt>
      <trkpt lat="47.3013" lon="-1.54729">
        <ele>66.473415</ele>
        <time>2022-12-16T13:26:02.947Z</time>
      </trkpt>
      <trkpt lat="47.30119" lon="-1.54736">
        <ele>66.584524</ele>
        <time>2022-12-16T13:26:05.949Z</time>
      </trkpt>
      <trkpt lat="47.30108" lon="-1.54741">
        <ele>66.685646</ele>
        <time>2022-12-16T13:26:08.947Z</time>
      </trkpt>
      <trkpt lat="47.30097" lon="-1.54747">
        <ele>66.792887</ele>
        <time>2022-12-16T13:26:11.946Z</time>
      </trkpt>
      <trkpt lat="47.30085" lon="-1.54753">
        <ele>66.903087</ele>
        <time>2022-12-16T13:26:14.946Z</time>
      </trkpt>
      <trkpt lat="47.30074" lon="-1.54759">
        <ele>67.016098</ele>
        <time>2022-12-16T13:26:17.936Z</time>
      </trkpt>
      <trkpt lat="47.30061" lon="-1.54764">
        <ele>67.130608</ele>
        <time>2022-12-16T13:26:20.935Z</time>
      </trkpt>
      <trkpt lat="47.3005" lon="-1.54768">
        <ele>67.235538</ele>
        <time>2022-12-16T13:26:23.945Z</time>
      </trkpt>
      <trkpt lat="47.3004" lon="-1.54772">
        <ele>67.328598</ele>
        <time>2022-12-16T13:26:26.929Z</time>
      </trkpt>
      <trkpt lat="47.30029" lon="-1.54776">
        <ele>67.427838</ele>
        <time>2022-12-16T13:26:29.949Z</time>
      </trkpt>
      <trkpt lat="47.30018" lon="-1.5478">
        <ele>67.536492</ele>
        <time>2022-12-16T13:26:32.952Z</time>
      </trkpt>
      <trkpt lat="47.30005" lon="-1.54784">
        <ele>67.649319</ele>
        <time>2022-12-16T13:26:35.950Z</time>
      </trkpt>
      <trkpt lat="47.29993" lon="-1.54788">
        <ele>67.762893</ele>
        <time>2022-12-16T13:26:38.944Z</time>
      </trkpt>
      <trkpt lat="47.29981" lon="-1.54793">
        <ele>67.880515</ele>
        <time>2022-12-16T13:26:41.932Z</time>
      </trkpt>
      <trkpt lat="47.29968" lon="-1.54798">
        <ele>67.993912</ele>
        <time>2022-12-16T13:26:44.937Z</time>
      </trkpt>
      <trkpt lat="47.29958" lon="-1.54802">
        <ele>68.091994</ele>
        <time>2022-12-16T13:26:47.946Z</time>
      </trkpt>
      <trkpt lat="47.29947" lon="-1.54805">
        <ele>68.103444</ele>
        <time>2022-12-16T13:26:50.932Z</time>
      </trkpt>
      <trkpt lat="47.29935" lon="-1.54809">
        <ele>68.104938</ele>
        <time>2022-12-16T13:26:53.945Z</time>
      </trkpt>
      <trkpt lat="47.29923" lon="-1.54812">
        <ele>68.106444</ele>
        <time>2022-12-16T13:26:56.953Z</time>
      </trkpt>
      <trkpt lat="47.2991" lon="-1.54816">
        <ele>68.108034</ele>
        <time>2022-12-16T13:26:59.956Z</time>
      </trkpt>
      <trkpt lat="47.29901" lon="-1.54819">
        <ele>68.109246</ele>
        <time>2022-12-16T13:27:01.949Z</time>
      </trkpt>
      <trkpt lat="47.29891" lon="-1.54822">
        <ele>68.110422</ele>
        <time>2022-12-16T13:27:03.946Z</time>
      </trkpt>
      <trkpt lat="47.2988" lon="-1.54824">
        <ele>68.111855</ele>
        <time>2022-12-16T13:27:05.947Z</time>
      </trkpt>
      <trkpt lat="47.29867" lon="-1.54828">
        <ele>68.11348</ele>
        <time>2022-12-16T13:27:07.948Z</time>
      </trkpt>
      <trkpt lat="47.29855" lon="-1.54832">
        <ele>68.114876</ele>
        <time>2022-12-16T13:27:09.929Z</time>
      </trkpt>
      <trkpt lat="47.29847" lon="-1.54834">
        <ele>68.115987</ele>
        <time>2022-12-16T13:27:11.949Z</time>
      </trkpt>
      <trkpt lat="47.29836" lon="-1.54838">
        <ele>68.117347</ele>
        <time>2022-12-16T13:27:14.948Z</time>
      </trkpt>
      <trkpt lat="47.29825" lon="-1.54841">
        <ele>68.118723</ele>
        <time>2022-12-16T13:27:17.946Z</time>
      </trkpt>
      <trkpt lat="47.29812" lon="-1.54844">
        <ele>68.120291</ele>
        <time>2022-12-16T13:27:20.931Z</time>
      </trkpt>
      <trkpt lat="47.29799" lon="-1.54845">
        <ele>68.121857</ele>
        <time>2022-12-16T13:27:23.946Z</time>
      </trkpt>
      <trkpt lat="47.2979" lon="-1.5484">
        <ele>68.123069</ele>
        <time>2022-12-16T13:27:25.933Z</time>
      </trkpt>
      <trkpt lat="47.29781" lon="-1.54838">
        <ele>68.12421</ele>
        <time>2022-12-16T13:27:27.934Z</time>
      </trkpt>
      <trkpt lat="47.29771" lon="-1.54841">
        <ele>68.265834</ele>
        <time>2022-12-16T13:27:29.940Z</time>
      </trkpt>
      <trkpt lat="47.29761" lon="-1.54845">
        <ele>68.416453</ele>
        <time>2022-12-16T13:27:31.925Z</time>
      </trkpt>
      <trkpt lat="47.29751" lon="-1.54847">
        <ele>68.570628</ele>
        <time>2022-12-16T13:27:33.944Z</time>
      </trkpt>
      <trkpt lat="47.2974" lon="-1.54851">
        <ele>68.735973</ele>
        <time>2022-12-16T13:27:36.931Z</time>
      </trkpt>
      <trkpt lat="47.29731" lon="-1.54856">
        <ele>68.878134</ele>
        <time>2022-12-16T13:27:41.951Z</time>
      </trkpt>
      <trkpt lat="47.29721" lon="-1.54861">
        <ele>69.021674</ele>
        <time>2022-12-16T13:27:46.934Z</time>
      </trkpt>
      <trkpt lat="47.29711" lon="-1.54858">
        <ele>69.181801</ele>
        <time>2022-12-16T13:27:50.930Z</time>
      </trkpt>
      <trkpt lat="47.297" lon="-1.54856">
        <ele>69.338616</ele>
        <time>2022-12-16T13:27:53.952Z</time>
      </trkpt>
      <trkpt lat="47.29688" lon="-1.5486">
        <ele>69.522254</ele>
        <time>2022-12-16T13:27:56.933Z</time>
      </trkpt>
      <trkpt lat="47.29675" lon="-1.54864">
        <ele>69.707085</ele>
        <time>2022-12-16T13:27:59.945Z</time>
      </trkpt>
      <trkpt lat="47.29663" lon="-1.54866">
        <ele>69.884411</ele>
        <time>2022-12-16T13:28:02.937Z</time>
      </trkpt>
      <trkpt lat="47.29652" lon="-1.54869">
        <ele>70.060472</ele>
        <time>2022-12-16T13:28:05.929Z</time>
      </trkpt>
      <trkpt lat="47.2964" lon="-1.54872">
        <ele>70.228297</ele>
        <time>2022-12-16T13:28:08.930Z</time>
      </trkpt>
      <trkpt lat="47.2963" lon="-1.54873">
        <ele>70.378928</ele>
        <time>2022-12-16T13:28:11.945Z</time>
      </trkpt>
      <trkpt lat="47.2962" lon="-1.54876">
        <ele>70.536008</ele>
        <time>2022-12-16T13:28:14.952Z</time>
      </trkpt>
      <trkpt lat="47.29609" lon="-1.5488">
        <ele>70.694779</ele>
        <time>2022-12-16T13:28:17.927Z</time>
      </trkpt>
      <trkpt lat="47.29598" lon="-1.54886">
        <ele>70.882015</ele>
        <time>2022-12-16T13:28:20.931Z</time>
      </trkpt>
      <trkpt lat="47.29589" lon="-1.54887">
        <ele>71.037073</ele>
        <time>2022-12-16T13:28:22.936Z</time>
      </trkpt>
      <trkpt lat="47.29579" lon="-1.54888">
        <ele>71.205548</ele>
        <time>2022-12-16T13:28:24.928Z</time>
      </trkpt>
      <trkpt lat="47.29569" lon="-1.54888">
        <ele>71.380662</ele>
        <time>2022-12-16T13:28:26.938Z</time>
      </trkpt>
      <trkpt lat="47.2956" lon="-1.54889">
        <ele>71.538794</ele>
        <time>2022-12-16T13:28:28.934Z</time>
      </trkpt>
      <trkpt lat="47.29546" lon="-1.54889">
        <ele>71.766563</ele>
        <time>2022-12-16T13:28:31.950Z</time>
      </trkpt>
      <trkpt lat="47.29533" lon="-1.5489">
        <ele>71.98591</ele>
        <time>2022-12-16T13:28:34.948Z</time>
      </trkpt>
      <trkpt lat="47.29521" lon="-1.54891">
        <ele>72.203715</ele>
        <time>2022-12-16T13:28:37.938Z</time>
      </trkpt>
      <trkpt lat="47.29508" lon="-1.54892">
        <ele>72.421463</ele>
        <time>2022-12-16T13:28:40.931Z</time>
      </trkpt>
      <trkpt lat="47.29495" lon="-1.54893">
        <ele>72.632481</ele>
        <time>2022-12-16T13:28:43.951Z</time>
      </trkpt>
      <trkpt lat="47.29483" lon="-1.54894">
        <ele>72.845083</ele>
        <time>2022-12-16T13:28:46.950Z</time>
      </trkpt>
      <trkpt lat="47.29471" lon="-1.54893">
        <ele>73.052647</ele>
        <time>2022-12-16T13:28:49.942Z</time>
      </trkpt>
      <trkpt lat="47.2946" lon="-1.54892">
        <ele>73.230101</ele>
        <time>2022-12-16T13:28:52.942Z</time>
      </trkpt>
      <trkpt lat="47.29451" lon="-1.54891">
        <ele>73.386433</ele>
        <time>2022-12-16T13:28:55.951Z</time>
      </trkpt>
      <trkpt lat="47.29441" lon="-1.54892">
        <ele>73.556418</ele>
        <time>2022-12-16T13:28:58.932Z</time>
      </trkpt>
      <trkpt lat="47.29431" lon="-1.54893">
        <ele>73.723136</ele>
        <time>2022-12-16T13:29:01.954Z</time>
      </trkpt>
      <trkpt lat="47.29419" lon="-1.54893">
        <ele>73.719586</ele>
        <time>2022-12-16T13:29:05.934Z</time>
      </trkpt>
      <trkpt lat="47.29409" lon="-1.54894">
        <ele>73.561846</ele>
        <time>2022-12-16T13:29:08.932Z</time>
      </trkpt>
      <trkpt lat="47.29398" lon="-1.54893">
        <ele>73.401354</ele>
        <time>2022-12-16T13:29:11.937Z</time>
      </trkpt>
      <trkpt lat="47.29388" lon="-1.54893">
        <ele>73.244082</ele>
        <time>2022-12-16T13:29:14.952Z</time>
      </trkpt>
      <trkpt lat="47.29378" lon="-1.54893">
        <ele>73.092974</ele>
        <time>2022-12-16T13:29:17.958Z</time>
      </trkpt>
      <trkpt lat="47.29369" lon="-1.54894">
        <ele>72.953756</ele>
        <time>2022-12-16T13:29:20.926Z</time>
      </trkpt>
      <trkpt lat="47.29359" lon="-1.54896">
        <ele>72.790264</ele>
        <time>2022-12-16T13:29:24.935Z</time>
      </trkpt>
      <trkpt lat="47.2935" lon="-1.54904">
        <ele>72.625839</ele>
        <time>2022-12-16T13:29:28.932Z</time>
      </trkpt>
      <trkpt lat="47.29342" lon="-1.54911">
        <ele>72.479958</ele>
        <time>2022-12-16T13:29:31.933Z</time>
      </trkpt>
      <trkpt lat="47.29331" lon="-1.54916">
        <ele>72.306283</ele>
        <time>2022-12-16T13:29:34.927Z</time>
      </trkpt>
      <trkpt lat="47.29319" lon="-1.54917">
        <ele>72.123701</ele>
        <time>2022-12-16T13:29:37.927Z</time>
      </trkpt>
      <trkpt lat="47.29307" lon="-1.54919">
        <ele>71.937957</ele>
        <time>2022-12-16T13:29:40.931Z</time>
      </trkpt>
      <trkpt lat="47.29293" lon="-1.54917">
        <ele>71.71959</ele>
        <time>2022-12-16T13:29:43.932Z</time>
      </trkpt>
      <trkpt lat="47.29283" lon="-1.54916">
        <ele>71.57123</ele>
        <time>2022-12-16T13:29:45.947Z</time>
      </trkpt>
      <trkpt lat="47.29273" lon="-1.54918">
        <ele>71.411209</ele>
        <time>2022-12-16T13:29:47.932Z</time>
      </trkpt>
      <trkpt lat="47.29263" lon="-1.54919">
        <ele>71.26138</ele>
        <time>2022-12-16T13:29:49.925Z</time>
      </trkpt>
      <trkpt lat="47.29254" lon="-1.54919">
        <ele>71.114628</ele>
        <time>2022-12-16T13:29:51.941Z</time>
      </trkpt>
      <trkpt lat="47.29243" lon="-1.54919">
        <ele>70.883126</ele>
        <time>2022-12-16T13:29:54.949Z</time>
      </trkpt>
      <trkpt lat="47.29233" lon="-1.5491">
        <ele>70.577457</ele>
        <time>2022-12-16T13:29:57.937Z</time>
      </trkpt>
      <trkpt lat="47.29223" lon="-1.54908">
        <ele>70.320949</ele>
        <time>2022-12-16T13:29:59.949Z</time>
      </trkpt>
      <trkpt lat="47.29214" lon="-1.54908">
        <ele>70.080905</ele>
        <time>2022-12-16T13:30:01.927Z</time>
      </trkpt>
      <trkpt lat="47.29202" lon="-1.54909">
        <ele>69.77377</ele>
        <time>2022-12-16T13:30:03.946Z</time>
      </trkpt>
      <trkpt lat="47.2919" lon="-1.54912">
        <ele>69.460115</ele>
        <time>2022-12-16T13:30:05.939Z</time>
      </trkpt>
      <trkpt lat="47.29177" lon="-1.54912">
        <ele>69.148404</ele>
        <time>2022-12-16T13:30:07.948Z</time>
      </trkpt>
      <trkpt lat="47.29165" lon="-1.54913">
        <ele>68.828974</ele>
        <time>2022-12-16T13:30:09.948Z</time>
      </trkpt>
      <trkpt lat="47.29152" lon="-1.54913">
        <ele>68.507054</ele>
        <time>2022-12-16T13:30:11.950Z</time>
      </trkpt>
      <trkpt lat="47.29141" lon="-1.54914">
        <ele>68.225817</ele>
        <time>2022-12-16T13:30:13.948Z</time>
      </trkpt>
      <trkpt lat="47.29129" lon="-1.54916">
        <ele>67.903277</ele>
        <time>2022-12-16T13:30:15.954Z</time>
      </trkpt>
      <trkpt lat="47.29116" lon="-1.54916">
        <ele>67.570944</ele>
        <time>2022-12-16T13:30:17.950Z</time>
      </trkpt>
      <trkpt lat="47.29105" lon="-1.54917">
        <ele>67.292167</ele>
        <time>2022-12-16T13:30:19.943Z</time>
      </trkpt>
      <trkpt lat="47.29095" lon="-1.54917">
        <ele>67.033882</ele>
        <time>2022-12-16T13:30:21.933Z</time>
      </trkpt>
      <trkpt lat="47.29085" lon="-1.54917">
        <ele>66.796372</ele>
        <time>2022-12-16T13:30:23.946Z</time>
      </trkpt>
      <trkpt lat="47.29075" lon="-1.54917">
        <ele>66.535883</ele>
        <time>2022-12-16T13:30:25.949Z</time>
      </trkpt>
      <trkpt lat="47.29065" lon="-1.54916">
        <ele>66.566203</ele>
        <time>2022-12-16T13:30:27.947Z</time>
      </trkpt>
      <trkpt lat="47.29053" lon="-1.54917">
        <ele>66.754547</ele>
        <time>2022-12-16T13:30:30.932Z</time>
      </trkpt>
      <trkpt lat="47.29041" lon="-1.54921">
        <ele>66.933226</ele>
        <time>2022-12-16T13:30:34.943Z</time>
      </trkpt>
      <trkpt lat="47.29034" lon="-1.5493">
        <ele>67.082187</ele>
        <time>2022-12-16T13:30:41.950Z</time>
      </trkpt>
      <trkpt lat="47.29024" lon="-1.54933">
        <ele>67.237084</ele>
        <time>2022-12-16T13:30:46.931Z</time>
      </trkpt>
      <trkpt lat="47.29013" lon="-1.54934">
        <ele>67.413936</ele>
        <time>2022-12-16T13:30:49.952Z</time>
      </trkpt>
      <trkpt lat="47.29003" lon="-1.54941">
        <ele>67.58668</ele>
        <time>2022-12-16T13:30:52.932Z</time>
      </trkpt>
      <trkpt lat="47.28992" lon="-1.54939">
        <ele>67.7604</ele>
        <time>2022-12-16T13:30:56.943Z</time>
      </trkpt>
      <trkpt lat="47.28982" lon="-1.54932">
        <ele>67.931213</ele>
        <time>2022-12-16T13:30:59.926Z</time>
      </trkpt>
      <trkpt lat="47.28972" lon="-1.54929">
        <ele>68.093418</ele>
        <time>2022-12-16T13:31:02.939Z</time>
      </trkpt>
      <trkpt lat="47.28962" lon="-1.54927">
        <ele>68.245338</ele>
        <time>2022-12-16T13:31:06.954Z</time>
      </trkpt>
      <trkpt lat="47.2895" lon="-1.54925">
        <ele>68.427595</ele>
        <time>2022-12-16T13:31:10.932Z</time>
      </trkpt>
      <trkpt lat="47.28941" lon="-1.54925">
        <ele>68.57364</ele>
        <time>2022-12-16T13:31:13.951Z</time>
      </trkpt>
      <trkpt lat="47.28932" lon="-1.54926">
        <ele>68.718996</ele>
        <time>2022-12-16T13:31:16.954Z</time>
      </trkpt>
      <trkpt lat="47.2892" lon="-1.54929">
        <ele>68.905155</ele>
        <time>2022-12-16T13:31:20.938Z</time>
      </trkpt>
      <trkpt lat="47.2891" lon="-1.5493">
        <ele>69.056798</ele>
        <time>2022-12-16T13:31:23.939Z</time>
      </trkpt>
      <trkpt lat="47.289" lon="-1.54932">
        <ele>69.214729</ele>
        <time>2022-12-16T13:31:26.947Z</time>
      </trkpt>
      <trkpt lat="47.28889" lon="-1.54934">
        <ele>69.189707</ele>
        <time>2022-12-16T13:31:29.949Z</time>
      </trkpt>
      <trkpt lat="47.28878" lon="-1.54936">
        <ele>69.124167</ele>
        <time>2022-12-16T13:31:32.935Z</time>
      </trkpt>
      <trkpt lat="47.28867" lon="-1.54938">
        <ele>69.057901</ele>
        <time>2022-12-16T13:31:35.945Z</time>
      </trkpt>
      <trkpt lat="47.28856" lon="-1.54939">
        <ele>68.98686</ele>
        <time>2022-12-16T13:31:38.929Z</time>
      </trkpt>
      <trkpt lat="47.28844" lon="-1.54941">
        <ele>68.917438</ele>
        <time>2022-12-16T13:31:41.942Z</time>
      </trkpt>
      <trkpt lat="47.28832" lon="-1.54944">
        <ele>68.842293</ele>
        <time>2022-12-16T13:31:44.948Z</time>
      </trkpt>
      <trkpt lat="47.28819" lon="-1.54947">
        <ele>68.766162</ele>
        <time>2022-12-16T13:31:47.928Z</time>
      </trkpt>
      <trkpt lat="47.28808" lon="-1.54949">
        <ele>68.700492</ele>
        <time>2022-12-16T13:31:50.931Z</time>
      </trkpt>
      <trkpt lat="47.28797" lon="-1.5495">
        <ele>68.630292</ele>
        <time>2022-12-16T13:31:53.946Z</time>
      </trkpt>
      <trkpt lat="47.28786" lon="-1.54952">
        <ele>68.564095</ele>
        <time>2022-12-16T13:31:56.932Z</time>
      </trkpt>
      <trkpt lat="47.28775" lon="-1.54954">
        <ele>68.499577</ele>
        <time>2022-12-16T13:31:59.944Z</time>
      </trkpt>
      <trkpt lat="47.28763" lon="-1.54957">
        <ele>68.425358</ele>
        <time>2022-12-16T13:32:02.954Z</time>
      </trkpt>
      <trkpt lat="47.2875" lon="-1.54958">
        <ele>68.350286</ele>
        <time>2022-12-16T13:32:05.952Z</time>
      </trkpt>
      <trkpt lat="47.28739" lon="-1.54958">
        <ele>68.281942</ele>
        <time>2022-12-16T13:32:08.940Z</time>
      </trkpt>
      <trkpt lat="47.28727" lon="-1.54958">
        <ele>68.212397</ele>
        <time>2022-12-16T13:32:11.942Z</time>
      </trkpt>
      <trkpt lat="47.28717" lon="-1.54959">
        <ele>68.137693</ele>
        <time>2022-12-16T13:32:13.960Z</time>
      </trkpt>
      <trkpt lat="47.28706" lon="-1.54962">
        <ele>68.025216</ele>
        <time>2022-12-16T13:32:15.945Z</time>
      </trkpt>
      <trkpt lat="47.28695" lon="-1.54965">
        <ele>67.912343</ele>
        <time>2022-12-16T13:32:17.946Z</time>
      </trkpt>
      <trkpt lat="47.28685" lon="-1.54966">
        <ele>67.804489</ele>
        <time>2022-12-16T13:32:20.182Z</time>
      </trkpt>
      <trkpt lat="47.28674" lon="-1.54967">
        <ele>67.690665</ele>
        <time>2022-12-16T13:32:21.957Z</time>
      </trkpt>
      <trkpt lat="47.28663" lon="-1.54969">
        <ele>67.578774</ele>
        <time>2022-12-16T13:32:23.932Z</time>
      </trkpt>
      <trkpt lat="47.28653" lon="-1.5497">
        <ele>67.473452</ele>
        <time>2022-12-16T13:32:25.938Z</time>
      </trkpt>
      <trkpt lat="47.28643" lon="-1.54971">
        <ele>67.373049</ele>
        <time>2022-12-16T13:32:27.949Z</time>
      </trkpt>
      <trkpt lat="47.28631" lon="-1.54973">
        <ele>67.251638</ele>
        <time>2022-12-16T13:32:30.930Z</time>
      </trkpt>
      <trkpt lat="47.28623" lon="-1.54974">
        <ele>67.159159</ele>
        <time>2022-12-16T13:32:33.950Z</time>
      </trkpt>
      <trkpt lat="47.28613" lon="-1.54976">
        <ele>67.058228</ele>
        <time>2022-12-16T13:32:36.932Z</time>
      </trkpt>
      <trkpt lat="47.28603" lon="-1.54981">
        <ele>66.954323</ele>
        <time>2022-12-16T13:32:39.929Z</time>
      </trkpt>
      <trkpt lat="47.28596" lon="-1.54989">
        <ele>66.857561</ele>
        <time>2022-12-16T13:32:42.934Z</time>
      </trkpt>
      <trkpt lat="47.28588" lon="-1.55">
        <ele>66.747079</ele>
        <time>2022-12-16T13:32:46.942Z</time>
      </trkpt>
      <trkpt lat="47.28582" lon="-1.5501">
        <ele>66.652219</ele>
        <time>2022-12-16T13:32:50.929Z</time>
      </trkpt>
      <trkpt lat="47.28576" lon="-1.55025">
        <ele>66.530579</ele>
        <time>2022-12-16T13:32:54.930Z</time>
      </trkpt>
      <trkpt lat="47.2857" lon="-1.55039">
        <ele>66.415348</ele>
        <time>2022-12-16T13:32:58.929Z</time>
      </trkpt>
      <trkpt lat="47.28562" lon="-1.55047">
        <ele>66.315936</ele>
        <time>2022-12-16T13:33:02.931Z</time>
      </trkpt>
      <trkpt lat="47.28551" lon="-1.55049">
        <ele>66.448031</ele>
        <time>2022-12-16T13:33:07.948Z</time>
      </trkpt>
      <trkpt lat="47.28544" lon="-1.5504">
        <ele>66.565316</ele>
        <time>2022-12-16T13:33:10.932Z</time>
      </trkpt>
      <trkpt lat="47.28538" lon="-1.55028">
        <ele>66.704941</ele>
        <time>2022-12-16T13:33:14.938Z</time>
      </trkpt>
      <trkpt lat="47.2853" lon="-1.55021">
        <ele>66.82135</ele>
        <time>2022-12-16T13:33:18.943Z</time>
      </trkpt>
      <trkpt lat="47.28524" lon="-1.55009">
        <ele>66.95117</ele>
        <time>2022-12-16T13:33:22.933Z</time>
      </trkpt>
      <trkpt lat="47.28519" lon="-1.54995">
        <ele>67.084763</ele>
        <time>2022-12-16T13:33:26.953Z</time>
      </trkpt>
      <trkpt lat="47.28509" lon="-1.54985">
        <ele>67.240925</ele>
        <time>2022-12-16T13:33:30.934Z</time>
      </trkpt>
      <trkpt lat="47.28498" lon="-1.54982">
        <ele>67.38377</ele>
        <time>2022-12-16T13:33:33.939Z</time>
      </trkpt>
      <trkpt lat="47.28487" lon="-1.54984">
        <ele>67.528161</ele>
        <time>2022-12-16T13:33:36.930Z</time>
      </trkpt>
      <trkpt lat="47.28475" lon="-1.54984">
        <ele>67.679743</ele>
        <time>2022-12-16T13:33:39.932Z</time>
      </trkpt>
      <trkpt lat="47.28463" lon="-1.54984">
        <ele>67.83518</ele>
        <time>2022-12-16T13:33:42.950Z</time>
      </trkpt>
      <trkpt lat="47.28451" lon="-1.54984">
        <ele>67.997039</ele>
        <time>2022-12-16T13:33:45.960Z</time>
      </trkpt>
      <trkpt lat="47.28437" lon="-1.54984">
        <ele>68.170462</ele>
        <time>2022-12-16T13:33:48.946Z</time>
      </trkpt>
      <trkpt lat="47.28424" lon="-1.54983">
        <ele>68.341349</ele>
        <time>2022-12-16T13:33:51.948Z</time>
      </trkpt>
      <trkpt lat="47.28415" lon="-1.54982">
        <ele>68.459792</ele>
        <time>2022-12-16T13:33:53.956Z</time>
      </trkpt>
      <trkpt lat="47.28406" lon="-1.54981">
        <ele>68.576142</ele>
        <time>2022-12-16T13:33:55.942Z</time>
      </trkpt>
      <trkpt lat="47.28396" lon="-1.54981">
        <ele>68.637218</ele>
        <time>2022-12-16T13:33:57.945Z</time>
      </trkpt>
      <trkpt lat="47.28387" lon="-1.5498">
        <ele>68.664121</ele>
        <time>2022-12-16T13:33:59.932Z</time>
      </trkpt>
      <trkpt lat="47.28378" lon="-1.54979">
        <ele>68.689602</ele>
        <time>2022-12-16T13:34:01.952Z</time>
      </trkpt>
      <trkpt lat="47.28365" lon="-1.54978">
        <ele>68.725115</ele>
        <time>2022-12-16T13:34:04.951Z</time>
      </trkpt>
      <trkpt lat="47.28353" lon="-1.54977">
        <ele>68.75837</ele>
        <time>2022-12-16T13:34:07.954Z</time>
      </trkpt>
      <trkpt lat="47.28342" lon="-1.54976">
        <ele>68.788071</ele>
        <time>2022-12-16T13:34:10.927Z</time>
      </trkpt>
      <trkpt lat="47.28333" lon="-1.54975">
        <ele>68.814084</ele>
        <time>2022-12-16T13:34:13.948Z</time>
      </trkpt>
      <trkpt lat="47.28323" lon="-1.54975">
        <ele>68.841728</ele>
        <time>2022-12-16T13:34:16.950Z</time>
      </trkpt>
      <trkpt lat="47.28313" lon="-1.54976">
        <ele>68.869204</ele>
        <time>2022-12-16T13:34:19.959Z</time>
      </trkpt>
      <trkpt lat="47.28305" lon="-1.54985">
        <ele>68.897087</ele>
        <time>2022-12-16T13:34:22.929Z</time>
      </trkpt>
      <trkpt lat="47.28295" lon="-1.54989">
        <ele>68.926661</ele>
        <time>2022-12-16T13:34:26.928Z</time>
      </trkpt>
      <trkpt lat="47.28284" lon="-1.54984">
        <ele>68.959283</ele>
        <time>2022-12-16T13:34:30.945Z</time>
      </trkpt>
      <trkpt lat="47.28274" lon="-1.54977">
        <ele>68.990293</ele>
        <time>2022-12-16T13:34:33.930Z</time>
      </trkpt>
      <trkpt lat="47.28263" lon="-1.54973">
        <ele>69.02117</ele>
        <time>2022-12-16T13:34:36.928Z</time>
      </trkpt>
      <trkpt lat="47.28252" lon="-1.54972">
        <ele>69.052527</ele>
        <time>2022-12-16T13:34:39.931Z</time>
      </trkpt>
      <trkpt lat="47.2824" lon="-1.5497">
        <ele>69.085715</ele>
        <time>2022-12-16T13:34:42.948Z</time>
      </trkpt>
      <trkpt lat="47.28228" lon="-1.54968">
        <ele>69.11936</ele>
        <time>2022-12-16T13:34:45.964Z</time>
      </trkpt>
      <trkpt lat="47.28217" lon="-1.54966">
        <ele>69.093892</ele>
        <time>2022-12-16T13:34:48.944Z</time>
      </trkpt>
      <trkpt lat="47.28207" lon="-1.54965">
        <ele>69.062167</ele>
        <time>2022-12-16T13:34:51.952Z</time>
      </trkpt>
      <trkpt lat="47.28197" lon="-1.54962">
        <ele>69.032238</ele>
        <time>2022-12-16T13:34:54.958Z</time>
      </trkpt>
      <trkpt lat="47.28187" lon="-1.5496">
        <ele>69.002214</ele>
        <time>2022-12-16T13:34:57.941Z</time>
      </trkpt>
      <trkpt lat="47.28178" lon="-1.54958">
        <ele>68.973689</ele>
        <time>2022-12-16T13:35:00.928Z</time>
      </trkpt>
      <trkpt lat="47.28168" lon="-1.54956">
        <ele>68.942435</ele>
        <time>2022-12-16T13:35:03.947Z</time>
      </trkpt>
      <trkpt lat="47.28157" lon="-1.54953">
        <ele>68.908958</ele>
        <time>2022-12-16T13:35:06.940Z</time>
      </trkpt>
      <trkpt lat="47.28145" lon="-1.5495">
        <ele>68.872505</ele>
        <time>2022-12-16T13:35:09.947Z</time>
      </trkpt>
      <trkpt lat="47.28133" lon="-1.54946">
        <ele>68.834908</ele>
        <time>2022-12-16T13:35:12.952Z</time>
      </trkpt>
      <trkpt lat="47.28121" lon="-1.54942">
        <ele>68.797607</ele>
        <time>2022-12-16T13:35:15.964Z</time>
      </trkpt>
      <trkpt lat="47.28109" lon="-1.54938">
        <ele>68.760559</ele>
        <time>2022-12-16T13:35:18.953Z</time>
      </trkpt>
      <trkpt lat="47.28097" lon="-1.54934">
        <ele>68.72346</ele>
        <time>2022-12-16T13:35:21.943Z</time>
      </trkpt>
      <trkpt lat="47.28085" lon="-1.54931">
        <ele>68.685182</ele>
        <time>2022-12-16T13:35:24.954Z</time>
      </trkpt>
      <trkpt lat="47.28072" lon="-1.54927">
        <ele>68.646698</ele>
        <time>2022-12-16T13:35:27.947Z</time>
      </trkpt>
      <trkpt lat="47.2806" lon="-1.54923">
        <ele>68.609528</ele>
        <time>2022-12-16T13:35:30.931Z</time>
      </trkpt>
      <trkpt lat="47.28049" lon="-1.54919">
        <ele>68.614706</ele>
        <time>2022-12-16T13:35:33.939Z</time>
      </trkpt>
      <trkpt lat="47.28038" lon="-1.54916">
        <ele>68.923613</ele>
        <time>2022-12-16T13:35:36.941Z</time>
      </trkpt>
      <trkpt lat="47.28026" lon="-1.54912">
        <ele>69.236743</ele>
        <time>2022-12-16T13:35:39.948Z</time>
      </trkpt>
      <trkpt lat="47.28016" lon="-1.5491">
        <ele>69.505473</ele>
        <time>2022-12-16T13:35:42.966Z</time>
      </trkpt>
      <trkpt lat="47.28007" lon="-1.54907">
        <ele>69.753448</ele>
        <time>2022-12-16T13:35:45.934Z</time>
      </trkpt>
      <trkpt lat="47.27998" lon="-1.54904">
        <ele>70.015565</ele>
        <time>2022-12-16T13:35:48.952Z</time>
      </trkpt>
      <trkpt lat="47.27987" lon="-1.54901">
        <ele>70.308671</ele>
        <time>2022-12-16T13:35:52.942Z</time>
      </trkpt>
      <trkpt lat="47.27975" lon="-1.54897">
        <ele>70.631209</ele>
        <time>2022-12-16T13:35:56.946Z</time>
      </trkpt>
      <trkpt lat="47.27965" lon="-1.54895">
        <ele>70.895612</ele>
        <time>2022-12-16T13:35:59.959Z</time>
      </trkpt>
      <trkpt lat="47.27956" lon="-1.54892">
        <ele>71.154414</ele>
        <time>2022-12-16T13:36:02.955Z</time>
      </trkpt>
      <trkpt lat="47.27946" lon="-1.54889">
        <ele>71.418038</ele>
        <time>2022-12-16T13:36:05.948Z</time>
      </trkpt>
      <trkpt lat="47.27937" lon="-1.54886">
        <ele>71.681268</ele>
        <time>2022-12-16T13:36:08.952Z</time>
      </trkpt>
      <trkpt lat="47.27927" lon="-1.54883">
        <ele>71.932523</ele>
        <time>2022-12-16T13:36:11.945Z</time>
      </trkpt>
      <trkpt lat="47.27916" lon="-1.5488">
        <ele>72.237103</ele>
        <time>2022-12-16T13:36:15.960Z</time>
      </trkpt>
      <trkpt lat="47.27905" lon="-1.54877">
        <ele>72.54372</ele>
        <time>2022-12-16T13:36:19.945Z</time>
      </trkpt>
      <trkpt lat="47.27894" lon="-1.54875">
        <ele>72.827069</ele>
        <time>2022-12-16T13:36:23.943Z</time>
      </trkpt>
      <trkpt lat="47.27885" lon="-1.54873">
        <ele>73.07644</ele>
        <time>2022-12-16T13:36:27.948Z</time>
      </trkpt>
      <trkpt lat="47.27876" lon="-1.5487">
        <ele>73.340192</ele>
        <time>2022-12-16T13:36:31.964Z</time>
      </trkpt>
      <trkpt lat="47.27866" lon="-1.54866">
        <ele>73.670052</ele>
        <time>2022-12-16T13:36:35.956Z</time>
      </trkpt>
      <trkpt lat="47.27857" lon="-1.54864">
        <ele>74.021974</ele>
        <time>2022-12-16T13:36:39.941Z</time>
      </trkpt>
      <trkpt lat="47.27847" lon="-1.54861">
        <ele>74.392886</ele>
        <time>2022-12-16T13:36:43.935Z</time>
      </trkpt>
      <trkpt lat="47.27838" lon="-1.54858">
        <ele>74.753501</ele>
        <time>2022-12-16T13:36:47.948Z</time>
      </trkpt>
      <trkpt lat="47.27828" lon="-1.54856">
        <ele>75.114144</ele>
        <time>2022-12-16T13:36:51.938Z</time>
      </trkpt>
      <trkpt lat="47.27819" lon="-1.54852">
        <ele>75.448445</ele>
        <time>2022-12-16T13:36:55.957Z</time>
      </trkpt>
      <trkpt lat="47.2781" lon="-1.5485">
        <ele>75.79094</ele>
        <time>2022-12-16T13:36:59.930Z</time>
      </trkpt>
      <trkpt lat="47.27801" lon="-1.54847">
        <ele>76.133602</ele>
        <time>2022-12-16T13:37:03.952Z</time>
      </trkpt>
      <trkpt lat="47.27791" lon="-1.54845">
        <ele>76.481929</ele>
        <time>2022-12-16T13:37:07.954Z</time>
      </trkpt>
      <trkpt lat="47.27782" lon="-1.54842">
        <ele>76.824591</ele>
        <time>2022-12-16T13:37:11.950Z</time>
      </trkpt>
      <trkpt lat="47.27773" lon="-1.54839">
        <ele>77.163668</ele>
        <time>2022-12-16T13:37:15.939Z</time>
      </trkpt>
      <trkpt lat="47.27764" lon="-1.54837">
        <ele>77.517857</ele>
        <time>2022-12-16T13:37:19.951Z</time>
      </trkpt>
      <trkpt lat="47.27754" lon="-1.54833">
        <ele>77.883677</ele>
        <time>2022-12-16T13:37:23.950Z</time>
      </trkpt>
      <trkpt lat="47.27743" lon="-1.54831">
        <ele>78.278555</ele>
        <time>2022-12-16T13:37:27.949Z</time>
      </trkpt>
      <trkpt lat="47.27732" lon="-1.54827">
        <ele>78.699273</ele>
        <time>2022-12-16T13:37:31.949Z</time>
      </trkpt>
      <trkpt lat="47.27721" lon="-1.54825">
        <ele>79.12541</ele>
        <time>2022-12-16T13:37:35.948Z</time>
      </trkpt>
      <trkpt lat="47.27709" lon="-1.54822">
        <ele>79.546902</ele>
        <time>2022-12-16T13:37:39.930Z</time>
      </trkpt>
      <trkpt lat="47.27698" lon="-1.5482">
        <ele>79.955169</ele>
        <time>2022-12-16T13:37:43.948Z</time>
      </trkpt>
      <trkpt lat="47.27688" lon="-1.54817">
        <ele>79.917563</ele>
        <time>2022-12-16T13:37:47.944Z</time>
      </trkpt>
      <trkpt lat="47.27676" lon="-1.54815">
        <ele>79.806565</ele>
        <time>2022-12-16T13:37:51.947Z</time>
      </trkpt>
      <trkpt lat="47.27665" lon="-1.54814">
        <ele>79.693511</ele>
        <time>2022-12-16T13:37:55.953Z</time>
      </trkpt>
      <trkpt lat="47.27654" lon="-1.54814">
        <ele>79.591006</ele>
        <time>2022-12-16T13:37:59.960Z</time>
      </trkpt>
      <trkpt lat="47.27644" lon="-1.5482">
        <ele>79.488594</ele>
        <time>2022-12-16T13:38:04.931Z</time>
      </trkpt>
      <trkpt lat="47.27634" lon="-1.54824">
        <ele>79.391368</ele>
        <time>2022-12-16T13:38:09.951Z</time>
      </trkpt>
      <trkpt lat="47.27624" lon="-1.54828">
        <ele>79.291195</ele>
        <time>2022-12-16T13:38:13.930Z</time>
      </trkpt>
      <trkpt lat="47.27614" lon="-1.54829">
        <ele>79.201796</ele>
        <time>2022-12-16T13:38:16.949Z</time>
      </trkpt>
      <trkpt lat="47.27604" lon="-1.54824">
        <ele>79.100883</ele>
        <time>2022-12-16T13:38:20.936Z</time>
      </trkpt>
      <trkpt lat="47.27595" lon="-1.54815">
        <ele>79.003325</ele>
        <time>2022-12-16T13:38:24.934Z</time>
      </trkpt>
      <trkpt lat="47.27592" lon="-1.54802">
        <ele>78.911206</ele>
        <time>2022-12-16T13:38:28.938Z</time>
      </trkpt>
      <trkpt lat="47.27586" lon="-1.54787">
        <ele>78.799702</ele>
        <time>2022-12-16T13:38:32.938Z</time>
      </trkpt>
      <trkpt lat="47.27579" lon="-1.54778">
        <ele>78.711664</ele>
        <time>2022-12-16T13:38:35.928Z</time>
      </trkpt>
      <trkpt lat="47.27571" lon="-1.54772">
        <ele>78.623564</ele>
        <time>2022-12-16T13:38:38.933Z</time>
      </trkpt>
      <trkpt lat="47.27562" lon="-1.54769">
        <ele>78.537387</ele>
        <time>2022-12-16T13:38:41.938Z</time>
      </trkpt>
      <trkpt lat="47.27552" lon="-1.54767">
        <ele>78.446735</ele>
        <time>2022-12-16T13:38:44.931Z</time>
      </trkpt>
      <trkpt lat="47.27543" lon="-1.54764">
        <ele>78.352346</ele>
        <time>2022-12-16T13:38:47.939Z</time>
      </trkpt>
      <trkpt lat="47.27532" lon="-1.54761">
        <ele>78.112637</ele>
        <time>2022-12-16T13:38:50.930Z</time>
      </trkpt>
      <trkpt lat="47.27521" lon="-1.54759">
        <ele>77.673813</ele>
        <time>2022-12-16T13:38:53.954Z</time>
      </trkpt>
      <trkpt lat="47.27509" lon="-1.54755">
        <ele>77.215643</ele>
        <time>2022-12-16T13:38:56.950Z</time>
      </trkpt>
      <trkpt lat="47.27498" lon="-1.54753">
        <ele>76.788991</ele>
        <time>2022-12-16T13:38:59.951Z</time>
      </trkpt>
      <trkpt lat="47.27486" lon="-1.54751">
        <ele>76.325758</ele>
        <time>2022-12-16T13:39:02.955Z</time>
      </trkpt>
      <trkpt lat="47.27474" lon="-1.54749">
        <ele>75.853225</ele>
        <time>2022-12-16T13:39:05.947Z</time>
      </trkpt>
      <trkpt lat="47.27462" lon="-1.5475">
        <ele>75.407797</ele>
        <time>2022-12-16T13:39:08.940Z</time>
      </trkpt>
      <trkpt lat="47.27451" lon="-1.54756">
        <ele>74.954429</ele>
        <time>2022-12-16T13:39:11.933Z</time>
      </trkpt>
      <trkpt lat="47.27441" lon="-1.54766">
        <ele>74.496028</ele>
        <time>2022-12-16T13:39:14.933Z</time>
      </trkpt>
      <trkpt lat="47.27431" lon="-1.54773">
        <ele>74.048318</ele>
        <time>2022-12-16T13:39:17.937Z</time>
      </trkpt>
      <trkpt lat="47.27421" lon="-1.54779">
        <ele>73.643494</ele>
        <time>2022-12-16T13:39:20.932Z</time>
      </trkpt>
      <trkpt lat="47.27412" lon="-1.54779">
        <ele>73.290788</ele>
        <time>2022-12-16T13:39:23.942Z</time>
      </trkpt>
      <trkpt lat="47.27403" lon="-1.54772">
        <ele>72.900695</ele>
        <time>2022-12-16T13:39:26.933Z</time>
      </trkpt>
      <trkpt lat="47.27393" lon="-1.54762">
        <ele>72.451351</ele>
        <time>2022-12-16T13:39:29.928Z</time>
      </trkpt>
      <trkpt lat="47.27384" lon="-1.54749">
        <ele>71.976479</ele>
        <time>2022-12-16T13:39:32.933Z</time>
      </trkpt>
      <trkpt lat="47.27378" lon="-1.5474">
        <ele>71.628283</ele>
        <time>2022-12-16T13:39:34.946Z</time>
      </trkpt>
      <trkpt lat="47.27368" lon="-1.54728">
        <ele>71.323255</ele>
        <time>2022-12-16T13:39:37.948Z</time>
      </trkpt>
      <trkpt lat="47.27358" lon="-1.54719">
        <ele>71.18153</ele>
        <time>2022-12-16T13:39:40.927Z</time>
      </trkpt>
      <trkpt lat="47.27348" lon="-1.54714">
        <ele>71.06139</ele>
        <time>2022-12-16T13:39:42.933Z</time>
      </trkpt>
      <trkpt lat="47.27338" lon="-1.5471">
        <ele>70.934452</ele>
        <time>2022-12-16T13:39:44.932Z</time>
      </trkpt>
      <trkpt lat="47.27327" lon="-1.54706">
        <ele>70.798244</ele>
        <time>2022-12-16T13:39:46.956Z</time>
      </trkpt>
      <trkpt lat="47.27316" lon="-1.54703">
        <ele>70.671428</ele>
        <time>2022-12-16T13:39:48.931Z</time>
      </trkpt>
      <trkpt lat="47.27306" lon="-1.547">
        <ele>70.547114</ele>
        <time>2022-12-16T13:39:50.928Z</time>
      </trkpt>
      <trkpt lat="47.27296" lon="-1.54697">
        <ele>70.422801</ele>
        <time>2022-12-16T13:39:52.939Z</time>
      </trkpt>
      <trkpt lat="47.27286" lon="-1.54693">
        <ele>70.300688</ele>
        <time>2022-12-16T13:39:54.953Z</time>
      </trkpt>
      <trkpt lat="47.27277" lon="-1.54689">
        <ele>70.185913</ele>
        <time>2022-12-16T13:39:56.939Z</time>
      </trkpt>
      <trkpt lat="47.27267" lon="-1.54687">
        <ele>70.070184</ele>
        <time>2022-12-16T13:39:58.953Z</time>
      </trkpt>
      <trkpt lat="47.27258" lon="-1.54685">
        <ele>69.962722</ele>
        <time>2022-12-16T13:40:00.933Z</time>
      </trkpt>
      <trkpt lat="47.27249" lon="-1.54684">
        <ele>69.849773</ele>
        <time>2022-12-16T13:40:02.952Z</time>
      </trkpt>
      <trkpt lat="47.27236" lon="-1.54679">
        <ele>69.696557</ele>
        <time>2022-12-16T13:40:05.953Z</time>
      </trkpt>
      <trkpt lat="47.27225" lon="-1.54675">
        <ele>69.553191</ele>
        <time>2022-12-16T13:40:08.950Z</time>
      </trkpt>
      <trkpt lat="47.27214" lon="-1.54672">
        <ele>69.416531</ele>
        <time>2022-12-16T13:40:11.952Z</time>
      </trkpt>
      <trkpt lat="47.27202" lon="-1.54669">
        <ele>69.277401</ele>
        <time>2022-12-16T13:40:14.950Z</time>
      </trkpt>
      <trkpt lat="47.27189" lon="-1.54667">
        <ele>69.390301</ele>
        <time>2022-12-16T13:40:17.948Z</time>
      </trkpt>
      <trkpt lat="47.2718" lon="-1.54664">
        <ele>69.498187</ele>
        <time>2022-12-16T13:40:19.945Z</time>
      </trkpt>
      <trkpt lat="47.27168" lon="-1.54659">
        <ele>69.646793</ele>
        <time>2022-12-16T13:40:22.944Z</time>
      </trkpt>
      <trkpt lat="47.27155" lon="-1.54656">
        <ele>69.80155</ele>
        <time>2022-12-16T13:40:25.946Z</time>
      </trkpt>
      <trkpt lat="47.27142" lon="-1.5465">
        <ele>69.957687</ele>
        <time>2022-12-16T13:40:28.947Z</time>
      </trkpt>
      <trkpt lat="47.27128" lon="-1.54646">
        <ele>70.122704</ele>
        <time>2022-12-16T13:40:31.933Z</time>
      </trkpt>
      <trkpt lat="47.27118" lon="-1.54643">
        <ele>70.239456</ele>
        <time>2022-12-16T13:40:33.935Z</time>
      </trkpt>
      <trkpt lat="47.27108" lon="-1.5464">
        <ele>70.359125</ele>
        <time>2022-12-16T13:40:35.932Z</time>
      </trkpt>
      <trkpt lat="47.27099" lon="-1.54637">
        <ele>70.46887</ele>
        <time>2022-12-16T13:40:37.923Z</time>
      </trkpt>
      <trkpt lat="47.27089" lon="-1.54634">
        <ele>70.586248</ele>
        <time>2022-12-16T13:40:39.928Z</time>
      </trkpt>
      <trkpt lat="47.27079" lon="-1.54631">
        <ele>70.70401</ele>
        <time>2022-12-16T13:40:41.942Z</time>
      </trkpt>
      <trkpt lat="47.27066" lon="-1.54627">
        <ele>70.859213</ele>
        <time>2022-12-16T13:40:44.925Z</time>
      </trkpt>
      <trkpt lat="47.27054" lon="-1.54624">
        <ele>71.010751</ele>
        <time>2022-12-16T13:40:47.953Z</time>
      </trkpt>
      <trkpt lat="47.27042" lon="-1.54624">
        <ele>71.143167</ele>
        <time>2022-12-16T13:40:50.935Z</time>
      </trkpt>
      <trkpt lat="47.27032" lon="-1.54621">
        <ele>71.269914</ele>
        <time>2022-12-16T13:40:53.934Z</time>
      </trkpt>
      <trkpt lat="47.2702" lon="-1.54621">
        <ele>71.349512</ele>
        <time>2022-12-16T13:40:56.932Z</time>
      </trkpt>
      <trkpt lat="47.27008" lon="-1.5462">
        <ele>71.301216</ele>
        <time>2022-12-16T13:40:59.958Z</time>
      </trkpt>
      <trkpt lat="47.26996" lon="-1.5462">
        <ele>71.254513</ele>
        <time>2022-12-16T13:41:02.933Z</time>
      </trkpt>
      <trkpt lat="47.26983" lon="-1.54621">
        <ele>71.201114</ele>
        <time>2022-12-16T13:41:05.951Z</time>
      </trkpt>
      <trkpt lat="47.26973" lon="-1.54621">
        <ele>71.162349</ele>
        <time>2022-12-16T13:41:07.953Z</time>
      </trkpt>
      <trkpt lat="47.26964" lon="-1.54622">
        <ele>71.126312</ele>
        <time>2022-12-16T13:41:09.957Z</time>
      </trkpt>
      <trkpt lat="47.26955" lon="-1.54623">
        <ele>71.088498</ele>
        <time>2022-12-16T13:41:11.948Z</time>
      </trkpt>
      <trkpt lat="47.26941" lon="-1.54624">
        <ele>71.035108</ele>
        <time>2022-12-16T13:41:14.951Z</time>
      </trkpt>
      <trkpt lat="47.26931" lon="-1.54625">
        <ele>70.995036</ele>
        <time>2022-12-16T13:41:17.953Z</time>
      </trkpt>
      <trkpt lat="47.2692" lon="-1.54625">
        <ele>70.951139</ele>
        <time>2022-12-16T13:41:20.924Z</time>
      </trkpt>
      <trkpt lat="47.26908" lon="-1.54625">
        <ele>70.904866</ele>
        <time>2022-12-16T13:41:23.951Z</time>
      </trkpt>
      <trkpt lat="47.26897" lon="-1.54625">
        <ele>70.858978</ele>
        <time>2022-12-16T13:41:26.947Z</time>
      </trkpt>
      <trkpt lat="47.26885" lon="-1.54621">
        <ele>70.812593</ele>
        <time>2022-12-16T13:41:29.935Z</time>
      </trkpt>
      <trkpt lat="47.26872" lon="-1.54616">
        <ele>70.75946</ele>
        <time>2022-12-16T13:41:32.949Z</time>
      </trkpt>
      <trkpt lat="47.26863" lon="-1.54612">
        <ele>70.721039</ele>
        <time>2022-12-16T13:41:34.954Z</time>
      </trkpt>
      <trkpt lat="47.26854" lon="-1.54607">
        <ele>70.685229</ele>
        <time>2022-12-16T13:41:36.956Z</time>
      </trkpt>
      <trkpt lat="47.26842" lon="-1.54604">
        <ele>70.557298</ele>
        <time>2022-12-16T13:41:39.950Z</time>
      </trkpt>
      <trkpt lat="47.26829" lon="-1.54604">
        <ele>70.295976</ele>
        <time>2022-12-16T13:41:42.932Z</time>
      </trkpt>
      <trkpt lat="47.26819" lon="-1.54603">
        <ele>70.077587</ele>
        <time>2022-12-16T13:41:45.929Z</time>
      </trkpt>
      <trkpt lat="47.2681" lon="-1.54604">
        <ele>69.865378</ele>
        <time>2022-12-16T13:41:48.939Z</time>
      </trkpt>
      <trkpt lat="47.26798" lon="-1.54604">
        <ele>69.617007</ele>
        <time>2022-12-16T13:41:51.946Z</time>
      </trkpt>
      <trkpt lat="47.26787" lon="-1.54603">
        <ele>69.369607</ele>
        <time>2022-12-16T13:41:54.956Z</time>
      </trkpt>
      <trkpt lat="47.26775" lon="-1.54603">
        <ele>69.127672</ele>
        <time>2022-12-16T13:41:57.939Z</time>
      </trkpt>
      <trkpt lat="47.26763" lon="-1.54604">
        <ele>68.851204</ele>
        <time>2022-12-16T13:42:00.933Z</time>
      </trkpt>
      <trkpt lat="47.26754" lon="-1.54604">
        <ele>68.656875</ele>
        <time>2022-12-16T13:42:02.932Z</time>
      </trkpt>
      <trkpt lat="47.26744" lon="-1.54603">
        <ele>68.456026</ele>
        <time>2022-12-16T13:42:04.952Z</time>
      </trkpt>
      <trkpt lat="47.26732" lon="-1.54603">
        <ele>68.19477</ele>
        <time>2022-12-16T13:42:07.957Z</time>
      </trkpt>
      <trkpt lat="47.26721" lon="-1.54605">
        <ele>67.957782</ele>
        <time>2022-12-16T13:42:10.934Z</time>
      </trkpt>
      <trkpt lat="47.2671" lon="-1.54607">
        <ele>67.708234</ele>
        <time>2022-12-16T13:42:13.940Z</time>
      </trkpt>
      <trkpt lat="47.26698" lon="-1.54609">
        <ele>67.45392</ele>
        <time>2022-12-16T13:42:16.936Z</time>
      </trkpt>
      <trkpt lat="47.26686" lon="-1.54612">
        <ele>67.179006</ele>
        <time>2022-12-16T13:42:19.936Z</time>
      </trkpt>
      <trkpt lat="47.26672" lon="-1.54613">
        <ele>66.888847</ele>
        <time>2022-12-16T13:42:22.935Z</time>
      </trkpt>
      <trkpt lat="47.26658" lon="-1.54615">
        <ele>66.49267</ele>
        <time>2022-12-16T13:42:25.950Z</time>
      </trkpt>
      <trkpt lat="47.26646" lon="-1.54619">
        <ele>66.058152</ele>
        <time>2022-12-16T13:42:28.952Z</time>
      </trkpt>
      <trkpt lat="47.26636" lon="-1.54621">
        <ele>65.728261</ele>
        <time>2022-12-16T13:42:30.933Z</time>
      </trkpt>
      <trkpt lat="47.26622" lon="-1.54625">
        <ele>65.277387</ele>
        <time>2022-12-16T13:42:33.959Z</time>
      </trkpt>
      <trkpt lat="47.26609" lon="-1.54629">
        <ele>64.818225</ele>
        <time>2022-12-16T13:42:36.948Z</time>
      </trkpt>
      <trkpt lat="47.26599" lon="-1.54632">
        <ele>64.492021</ele>
        <time>2022-12-16T13:42:38.960Z</time>
      </trkpt>
      <trkpt lat="47.2659" lon="-1.54636">
        <ele>64.16089</ele>
        <time>2022-12-16T13:42:40.934Z</time>
      </trkpt>
      <trkpt lat="47.2658" lon="-1.5464">
        <ele>63.807188</ele>
        <time>2022-12-16T13:42:42.950Z</time>
      </trkpt>
      <trkpt lat="47.26569" lon="-1.54645">
        <ele>63.443467</ele>
        <time>2022-12-16T13:42:44.957Z</time>
      </trkpt>
      <trkpt lat="47.26558" lon="-1.5465">
        <ele>63.068147</ele>
        <time>2022-12-16T13:42:46.947Z</time>
      </trkpt>
      <trkpt lat="47.26548" lon="-1.54655">
        <ele>62.716374</ele>
        <time>2022-12-16T13:42:48.951Z</time>
      </trkpt>
      <trkpt lat="47.26538" lon="-1.5466">
        <ele>62.356834</ele>
        <time>2022-12-16T13:42:50.936Z</time>
      </trkpt>
      <trkpt lat="47.26529" lon="-1.54666">
        <ele>62.014285</ele>
        <time>2022-12-16T13:42:52.952Z</time>
      </trkpt>
      <trkpt lat="47.26518" lon="-1.54672">
        <ele>61.646975</ele>
        <time>2022-12-16T13:42:54.957Z</time>
      </trkpt>
      <trkpt lat="47.26509" lon="-1.54676">
        <ele>61.303664</ele>
        <time>2022-12-16T13:42:56.950Z</time>
      </trkpt>
      <trkpt lat="47.26498" lon="-1.54682">
        <ele>60.927001</ele>
        <time>2022-12-16T13:42:58.941Z</time>
      </trkpt>
      <trkpt lat="47.26488" lon="-1.54689">
        <ele>60.541831</ele>
        <time>2022-12-16T13:43:00.931Z</time>
      </trkpt>
      <trkpt lat="47.26479" lon="-1.54694">
        <ele>60.147935</ele>
        <time>2022-12-16T13:43:02.943Z</time>
      </trkpt>
      <trkpt lat="47.26469" lon="-1.547">
        <ele>59.763734</ele>
        <time>2022-12-16T13:43:04.953Z</time>
      </trkpt>
      <trkpt lat="47.2646" lon="-1.54706">
        <ele>59.366645</ele>
        <time>2022-12-16T13:43:06.936Z</time>
      </trkpt>
      <trkpt lat="47.26452" lon="-1.54714">
        <ele>58.989095</ele>
        <time>2022-12-16T13:43:08.951Z</time>
      </trkpt>
      <trkpt lat="47.26443" lon="-1.54721">
        <ele>58.612113</ele>
        <time>2022-12-16T13:43:10.935Z</time>
      </trkpt>
      <trkpt lat="47.26435" lon="-1.54729">
        <ele>58.243487</ele>
        <time>2022-12-16T13:43:12.950Z</time>
      </trkpt>
      <trkpt lat="47.26427" lon="-1.54737">
        <ele>57.850934</ele>
        <time>2022-12-16T13:43:14.950Z</time>
      </trkpt>
      <trkpt lat="47.26418" lon="-1.54745">
        <ele>57.479948</ele>
        <time>2022-12-16T13:43:16.932Z</time>
      </trkpt>
      <trkpt lat="47.26408" lon="-1.54757">
        <ele>56.982158</ele>
        <time>2022-12-16T13:43:19.949Z</time>
      </trkpt>
      <trkpt lat="47.26401" lon="-1.54766">
        <ele>56.608532</ele>
        <time>2022-12-16T13:43:21.946Z</time>
      </trkpt>
      <trkpt lat="47.26393" lon="-1.54776">
        <ele>56.226307</ele>
        <time>2022-12-16T13:43:23.951Z</time>
      </trkpt>
      <trkpt lat="47.26385" lon="-1.54785">
        <ele>55.839911</ele>
        <time>2022-12-16T13:43:25.943Z</time>
      </trkpt>
      <trkpt lat="47.26377" lon="-1.54794">
        <ele>55.464297</ele>
        <time>2022-12-16T13:43:27.937Z</time>
      </trkpt>
      <trkpt lat="47.2637" lon="-1.54802">
        <ele>55.100985</ele>
        <time>2022-12-16T13:43:29.957Z</time>
      </trkpt>
      <trkpt lat="47.26362" lon="-1.54812">
        <ele>54.714776</ele>
        <time>2022-12-16T13:43:31.935Z</time>
      </trkpt>
      <trkpt lat="47.26356" lon="-1.54823">
        <ele>54.350537</ele>
        <time>2022-12-16T13:43:33.931Z</time>
      </trkpt>
      <trkpt lat="47.26352" lon="-1.54838">
        <ele>53.935107</ele>
        <time>2022-12-16T13:43:36.938Z</time>
      </trkpt>
      <trkpt lat="47.26349" lon="-1.54853">
        <ele>53.726007</ele>
        <time>2022-12-16T13:43:40.933Z</time>
      </trkpt>
      <trkpt lat="47.26344" lon="-1.54866">
        <ele>53.550566</ele>
        <time>2022-12-16T13:43:44.962Z</time>
      </trkpt>
      <trkpt lat="47.26333" lon="-1.54868">
        <ele>53.360529</ele>
        <time>2022-12-16T13:43:48.940Z</time>
      </trkpt>
      <trkpt lat="47.26322" lon="-1.5487">
        <ele>53.154749</ele>
        <time>2022-12-16T13:43:52.938Z</time>
      </trkpt>
      <trkpt lat="47.26312" lon="-1.54876">
        <ele>52.974542</ele>
        <time>2022-12-16T13:43:55.945Z</time>
      </trkpt>
      <trkpt lat="47.26302" lon="-1.54884">
        <ele>52.779555</ele>
        <time>2022-12-16T13:43:58.935Z</time>
      </trkpt>
      <trkpt lat="47.26292" lon="-1.54895">
        <ele>52.569885</ele>
        <time>2022-12-16T13:44:01.944Z</time>
      </trkpt>
      <trkpt lat="47.26282" lon="-1.54908">
        <ele>52.336563</ele>
        <time>2022-12-16T13:44:04.929Z</time>
      </trkpt>
      <trkpt lat="47.26275" lon="-1.54916">
        <ele>52.173387</ele>
        <time>2022-12-16T13:44:06.937Z</time>
      </trkpt>
      <trkpt lat="47.26267" lon="-1.54926">
        <ele>52.002813</ele>
        <time>2022-12-16T13:44:08.928Z</time>
      </trkpt>
      <trkpt lat="47.2626" lon="-1.54936">
        <ele>51.825239</ele>
        <time>2022-12-16T13:44:10.933Z</time>
      </trkpt>
      <trkpt lat="47.26253" lon="-1.54946">
        <ele>51.654473</ele>
        <time>2022-12-16T13:44:12.950Z</time>
      </trkpt>
      <trkpt lat="47.26245" lon="-1.54956">
        <ele>51.47948</ele>
        <time>2022-12-16T13:44:14.959Z</time>
      </trkpt>
      <trkpt lat="47.26238" lon="-1.54967">
        <ele>51.304133</ele>
        <time>2022-12-16T13:44:16.946Z</time>
      </trkpt>
      <trkpt lat="47.26232" lon="-1.54978">
        <ele>51.138434</ele>
        <time>2022-12-16T13:44:18.950Z</time>
      </trkpt>
      <trkpt lat="47.26225" lon="-1.5499">
        <ele>50.954661</ele>
        <time>2022-12-16T13:44:20.931Z</time>
      </trkpt>
      <trkpt lat="47.2622" lon="-1.55003">
        <ele>50.785791</ele>
        <time>2022-12-16T13:44:22.953Z</time>
      </trkpt>
      <trkpt lat="47.26213" lon="-1.55014">
        <ele>50.784729</ele>
        <time>2022-12-16T13:44:24.959Z</time>
      </trkpt>
      <trkpt lat="47.26207" lon="-1.55026">
        <ele>50.783693</ele>
        <time>2022-12-16T13:44:26.942Z</time>
      </trkpt>
      <trkpt lat="47.26201" lon="-1.55037">
        <ele>50.782689</ele>
        <time>2022-12-16T13:44:28.946Z</time>
      </trkpt>
      <trkpt lat="47.26195" lon="-1.55049">
        <ele>50.781679</ele>
        <time>2022-12-16T13:44:30.928Z</time>
      </trkpt>
      <trkpt lat="47.2619" lon="-1.5506">
        <ele>50.780722</ele>
        <time>2022-12-16T13:44:32.932Z</time>
      </trkpt>
      <trkpt lat="47.26185" lon="-1.55071">
        <ele>50.77976</ele>
        <time>2022-12-16T13:44:34.930Z</time>
      </trkpt>
      <trkpt lat="47.2618" lon="-1.55082">
        <ele>50.778815</ele>
        <time>2022-12-16T13:44:36.939Z</time>
      </trkpt>
      <trkpt lat="47.26174" lon="-1.55093">
        <ele>50.777852</ele>
        <time>2022-12-16T13:44:38.956Z</time>
      </trkpt>
      <trkpt lat="47.26168" lon="-1.5511">
        <ele>50.776456</ele>
        <time>2022-12-16T13:44:41.960Z</time>
      </trkpt>
      <trkpt lat="47.26161" lon="-1.55127">
        <ele>50.775102</ele>
        <time>2022-12-16T13:44:44.954Z</time>
      </trkpt>
      <trkpt lat="47.26155" lon="-1.55143">
        <ele>50.773786</ele>
        <time>2022-12-16T13:44:47.955Z</time>
      </trkpt>
      <trkpt lat="47.26149" lon="-1.55159">
        <ele>50.772508</ele>
        <time>2022-12-16T13:44:50.932Z</time>
      </trkpt>
      <trkpt lat="47.26144" lon="-1.55174">
        <ele>50.771317</ele>
        <time>2022-12-16T13:44:53.942Z</time>
      </trkpt>
      <trkpt lat="47.26138" lon="-1.55189">
        <ele>50.770132</ele>
        <time>2022-12-16T13:44:56.949Z</time>
      </trkpt>
      <trkpt lat="47.26134" lon="-1.55203">
        <ele>50.76901</ele>
        <time>2022-12-16T13:44:59.940Z</time>
      </trkpt>
      <trkpt lat="47.2613" lon="-1.55216">
        <ele>50.768004</ele>
        <time>2022-12-16T13:45:02.952Z</time>
      </trkpt>
      <trkpt lat="47.26125" lon="-1.5523">
        <ele>50.75995</ele>
        <time>2022-12-16T13:45:05.953Z</time>
      </trkpt>
      <trkpt lat="47.26121" lon="-1.55244">
        <ele>50.725159</ele>
        <time>2022-12-16T13:45:08.951Z</time>
      </trkpt>
      <trkpt lat="47.26118" lon="-1.55259">
        <ele>50.687403</ele>
        <time>2022-12-16T13:45:11.949Z</time>
      </trkpt>
      <trkpt lat="47.26114" lon="-1.55274">
        <ele>50.650173</ele>
        <time>2022-12-16T13:45:14.938Z</time>
      </trkpt>
      <trkpt lat="47.26112" lon="-1.55287">
        <ele>50.619439</ele>
        <time>2022-12-16T13:45:17.941Z</time>
      </trkpt>
      <trkpt lat="47.26108" lon="-1.55301">
        <ele>50.58507</ele>
        <time>2022-12-16T13:45:21.944Z</time>
      </trkpt>
      <trkpt lat="47.26101" lon="-1.55314">
        <ele>50.547369</ele>
        <time>2022-12-16T13:45:26.940Z</time>
      </trkpt>
      <trkpt lat="47.26094" lon="-1.55328">
        <ele>50.506987</ele>
        <time>2022-12-16T13:45:30.928Z</time>
      </trkpt>
      <trkpt lat="47.26087" lon="-1.55341">
        <ele>50.468448</ele>
        <time>2022-12-16T13:45:33.953Z</time>
      </trkpt>
      <trkpt lat="47.26081" lon="-1.55356">
        <ele>50.428024</ele>
        <time>2022-12-16T13:45:36.951Z</time>
      </trkpt>
      <trkpt lat="47.26074" lon="-1.5537">
        <ele>50.388933</ele>
        <time>2022-12-16T13:45:39.956Z</time>
      </trkpt>
      <trkpt lat="47.26068" lon="-1.55383">
        <ele>50.351737</ele>
        <time>2022-12-16T13:45:42.948Z</time>
      </trkpt>
      <trkpt lat="47.26061" lon="-1.55396">
        <ele>50.314167</ele>
        <time>2022-12-16T13:45:45.953Z</time>
      </trkpt>
      <trkpt lat="47.26055" lon="-1.55409">
        <ele>50.277749</ele>
        <time>2022-12-16T13:45:48.949Z</time>
      </trkpt>
      <trkpt lat="47.26051" lon="-1.55422">
        <ele>50.244982</ele>
        <time>2022-12-16T13:45:51.952Z</time>
      </trkpt>
      <trkpt lat="47.26047" lon="-1.55435">
        <ele>50.211917</ele>
        <time>2022-12-16T13:45:54.934Z</time>
      </trkpt>
      <trkpt lat="47.26044" lon="-1.5545">
        <ele>50.176675</ele>
        <time>2022-12-16T13:45:57.932Z</time>
      </trkpt>
      <trkpt lat="47.26041" lon="-1.55463">
        <ele>50.226859</ele>
        <time>2022-12-16T13:46:00.934Z</time>
      </trkpt>
      <trkpt lat="47.26037" lon="-1.55475">
        <ele>50.41295</ele>
        <time>2022-12-16T13:46:03.936Z</time>
      </trkpt>
      <trkpt lat="47.26033" lon="-1.5549">
        <ele>50.625108</ele>
        <time>2022-12-16T13:46:06.938Z</time>
      </trkpt>
      <trkpt lat="47.26028" lon="-1.55505">
        <ele>50.850413</ele>
        <time>2022-12-16T13:46:09.942Z</time>
      </trkpt>
      <trkpt lat="47.26024" lon="-1.55517">
        <ele>51.037736</ele>
        <time>2022-12-16T13:46:12.951Z</time>
      </trkpt>
      <trkpt lat="47.26021" lon="-1.55522">
        <ele>51.120829</ele>
        <time>2022-12-16T13:46:32.521Z</time>
      </trkpt>
      <trkpt lat="47.26015" lon="-1.55543">
        <ele>51.42423</ele>
        <time>2022-12-16T13:48:10.932Z</time>
      </trkpt>
      <trkpt lat="47.2601" lon="-1.55556">
        <ele>51.632011</ele>
        <time>2022-12-16T13:48:14.933Z</time>
      </trkpt>
      <trkpt lat="47.26006" lon="-1.55572">
        <ele>51.865272</ele>
        <time>2022-12-16T13:48:18.929Z</time>
      </trkpt>
      <trkpt lat="47.26002" lon="-1.55587">
        <ele>52.084156</ele>
        <time>2022-12-16T13:48:22.951Z</time>
      </trkpt>
      <trkpt lat="47.26002" lon="-1.55603">
        <ele>52.296974</ele>
        <time>2022-12-16T13:48:27.938Z</time>
      </trkpt>
      <trkpt lat="47.26007" lon="-1.55615">
        <ele>52.484774</ele>
        <time>2022-12-16T13:48:33.936Z</time>
      </trkpt>
      <trkpt lat="47.26013" lon="-1.55626">
        <ele>52.67453</ele>
        <time>2022-12-16T13:48:49.933Z</time>
      </trkpt>
      <trkpt lat="47.26022" lon="-1.55634">
        <ele>52.892069</ele>
        <time>2022-12-16T13:48:54.934Z</time>
      </trkpt>
      <trkpt lat="47.2603" lon="-1.55641">
        <ele>53.075676</ele>
        <time>2022-12-16T13:48:58.955Z</time>
      </trkpt>
      <trkpt lat="47.26038" lon="-1.55651">
        <ele>53.289575</ele>
        <time>2022-12-16T13:49:04.932Z</time>
      </trkpt>
      <trkpt lat="47.26039" lon="-1.55665">
        <ele>53.483499</ele>
        <time>2022-12-16T13:49:08.936Z</time>
      </trkpt>
      <trkpt lat="47.26041" lon="-1.55681">
        <ele>53.706931</ele>
        <time>2022-12-16T13:49:12.928Z</time>
      </trkpt>
      <trkpt lat="47.26041" lon="-1.55694">
        <ele>53.782864</ele>
        <time>2022-12-16T13:49:15.931Z</time>
      </trkpt>
      <trkpt lat="47.26039" lon="-1.55709">
        <ele>53.832667</ele>
        <time>2022-12-16T13:49:19.937Z</time>
      </trkpt>
      <trkpt lat="47.26035" lon="-1.55722">
        <ele>53.878745</ele>
        <time>2022-12-16T13:49:23.932Z</time>
      </trkpt>
      <trkpt lat="47.26029" lon="-1.55735">
        <ele>53.931574</ele>
        <time>2022-12-16T13:49:27.942Z</time>
      </trkpt>
      <trkpt lat="47.26022" lon="-1.55745">
        <ele>53.975424</ele>
        <time>2022-12-16T13:49:30.932Z</time>
      </trkpt>
      <trkpt lat="47.26014" lon="-1.55753">
        <ele>54.023786</ele>
        <time>2022-12-16T13:49:34.950Z</time>
      </trkpt>
      <trkpt lat="47.26005" lon="-1.5576">
        <ele>54.072594</ele>
        <time>2022-12-16T13:49:38.931Z</time>
      </trkpt>
      <trkpt lat="47.25997" lon="-1.55767">
        <ele>54.116706</ele>
        <time>2022-12-16T13:49:48.946Z</time>
      </trkpt>
      <trkpt lat="47.25987" lon="-1.55768">
        <ele>54.16446</ele>
        <time>2022-12-16T13:49:54.932Z</time>
      </trkpt>
      <trkpt lat="47.25977" lon="-1.55767">
        <ele>54.215631</ele>
        <time>2022-12-16T13:49:58.934Z</time>
      </trkpt>
      <trkpt lat="47.25967" lon="-1.5576">
        <ele>54.266423</ele>
        <time>2022-12-16T13:50:02.934Z</time>
      </trkpt>
      <trkpt lat="47.25959" lon="-1.55751">
        <ele>54.316316</ele>
        <time>2022-12-16T13:50:06.954Z</time>
      </trkpt>
      <trkpt lat="47.25949" lon="-1.55745">
        <ele>54.368145</ele>
        <time>2022-12-16T13:50:10.931Z</time>
      </trkpt>
      <trkpt lat="47.25938" lon="-1.55743">
        <ele>54.422923</ele>
        <time>2022-12-16T13:50:14.938Z</time>
      </trkpt>
      <trkpt lat="47.25928" lon="-1.55741">
        <ele>54.469251</ele>
        <time>2022-12-16T13:50:17.942Z</time>
      </trkpt>
      <trkpt lat="47.25917" lon="-1.55739">
        <ele>54.523967</ele>
        <time>2022-12-16T13:50:20.929Z</time>
      </trkpt>
      <trkpt lat="47.25903" lon="-1.55737">
        <ele>54.593271</ele>
        <time>2022-12-16T13:50:23.933Z</time>
      </trkpt>
      <trkpt lat="47.25891" lon="-1.55737">
        <ele>54.667963</ele>
        <time>2022-12-16T13:50:25.947Z</time>
      </trkpt>
      <trkpt lat="47.25879" lon="-1.55736">
        <ele>54.752428</ele>
        <time>2022-12-16T13:50:27.954Z</time>
      </trkpt>
      <trkpt lat="47.25869" lon="-1.55734">
        <ele>54.825553</ele>
        <time>2022-12-16T13:50:29.956Z</time>
      </trkpt>
      <trkpt lat="47.25859" lon="-1.55733">
        <ele>54.898065</ele>
        <time>2022-12-16T13:50:31.951Z</time>
      </trkpt>
      <trkpt lat="47.2585" lon="-1.55731">
        <ele>54.962529</ele>
        <time>2022-12-16T13:50:33.934Z</time>
      </trkpt>
      <trkpt lat="47.25838" lon="-1.55729">
        <ele>55.046145</ele>
        <time>2022-12-16T13:50:36.949Z</time>
      </trkpt>
      <trkpt lat="47.25828" lon="-1.55727">
        <ele>55.117843</ele>
        <time>2022-12-16T13:50:39.937Z</time>
      </trkpt>
      <trkpt lat="47.25818" lon="-1.55724">
        <ele>55.19009</ele>
        <time>2022-12-16T13:50:42.950Z</time>
      </trkpt>
      <trkpt lat="47.25808" lon="-1.55721">
        <ele>55.26345</ele>
        <time>2022-12-16T13:50:45.944Z</time>
      </trkpt>
      <trkpt lat="47.25798" lon="-1.55717">
        <ele>55.337676</ele>
        <time>2022-12-16T13:50:48.938Z</time>
      </trkpt>
      <trkpt lat="47.25788" lon="-1.55712">
        <ele>55.411705</ele>
        <time>2022-12-16T13:50:51.948Z</time>
      </trkpt>
      <trkpt lat="47.2578" lon="-1.55707">
        <ele>55.477524</ele>
        <time>2022-12-16T13:50:54.945Z</time>
      </trkpt>
      <trkpt lat="47.25771" lon="-1.55701">
        <ele>55.547388</ele>
        <time>2022-12-16T13:50:57.931Z</time>
      </trkpt>
      <trkpt lat="47.25762" lon="-1.55694">
        <ele>55.621749</ele>
        <time>2022-12-16T13:51:00.933Z</time>
      </trkpt>
      <trkpt lat="47.25752" lon="-1.55686">
        <ele>55.701577</ele>
        <time>2022-12-16T13:51:03.951Z</time>
      </trkpt>
      <trkpt lat="47.25742" lon="-1.55676">
        <ele>55.783806</ele>
        <time>2022-12-16T13:51:06.953Z</time>
      </trkpt>
      <trkpt lat="47.25733" lon="-1.55666">
        <ele>55.867736</ele>
        <time>2022-12-16T13:51:09.947Z</time>
      </trkpt>
      <trkpt lat="47.25724" lon="-1.55655">
        <ele>55.975803</ele>
        <time>2022-12-16T13:51:12.945Z</time>
      </trkpt>
      <trkpt lat="47.25716" lon="-1.55643">
        <ele>56.102658</ele>
        <time>2022-12-16T13:51:15.947Z</time>
      </trkpt>
      <trkpt lat="47.25708" lon="-1.55631">
        <ele>56.230498</ele>
        <time>2022-12-16T13:51:18.956Z</time>
      </trkpt>
      <trkpt lat="47.257" lon="-1.55616">
        <ele>56.364961</ele>
        <time>2022-12-16T13:51:21.950Z</time>
      </trkpt>
      <trkpt lat="47.25692" lon="-1.55601">
        <ele>56.507232</ele>
        <time>2022-12-16T13:51:24.952Z</time>
      </trkpt>
      <trkpt lat="47.25686" lon="-1.55591">
        <ele>56.604352</ele>
        <time>2022-12-16T13:51:26.933Z</time>
      </trkpt>
      <trkpt lat="47.25679" lon="-1.55576">
        <ele>56.73858</ele>
        <time>2022-12-16T13:51:29.945Z</time>
      </trkpt>
      <trkpt lat="47.25672" lon="-1.55561">
        <ele>56.867795</ele>
        <time>2022-12-16T13:51:32.941Z</time>
      </trkpt>
      <trkpt lat="47.25665" lon="-1.55546">
        <ele>57.001277</ele>
        <time>2022-12-16T13:51:35.947Z</time>
      </trkpt>
      <trkpt lat="47.25658" lon="-1.55532">
        <ele>57.130558</ele>
        <time>2022-12-16T13:51:38.951Z</time>
      </trkpt>
      <trkpt lat="47.25652" lon="-1.55519">
        <ele>57.253087</ele>
        <time>2022-12-16T13:51:41.949Z</time>
      </trkpt>
      <trkpt lat="47.25646" lon="-1.55504">
        <ele>57.379266</ele>
        <time>2022-12-16T13:51:44.952Z</time>
      </trkpt>
      <trkpt lat="47.25639" lon="-1.55491">
        <ele>57.499995</ele>
        <time>2022-12-16T13:51:47.942Z</time>
      </trkpt>
      <trkpt lat="47.25632" lon="-1.55477">
        <ele>57.625617</ele>
        <time>2022-12-16T13:51:50.930Z</time>
      </trkpt>
      <trkpt lat="47.25626" lon="-1.55463">
        <ele>57.749347</ele>
        <time>2022-12-16T13:51:53.939Z</time>
      </trkpt>
      <trkpt lat="47.25619" lon="-1.5545">
        <ele>57.909089</ele>
        <time>2022-12-16T13:51:56.931Z</time>
      </trkpt>
      <trkpt lat="47.25612" lon="-1.55438">
        <ele>58.191225</ele>
        <time>2022-12-16T13:51:59.949Z</time>
      </trkpt>
      <trkpt lat="47.25606" lon="-1.55425">
        <ele>58.484767</ele>
        <time>2022-12-16T13:52:02.930Z</time>
      </trkpt>
      <trkpt lat="47.256" lon="-1.55412">
        <ele>58.767616</ele>
        <time>2022-12-16T13:52:05.945Z</time>
      </trkpt>
      <trkpt lat="47.25594" lon="-1.55399">
        <ele>59.059593</ele>
        <time>2022-12-16T13:52:08.956Z</time>
      </trkpt>
      <trkpt lat="47.25587" lon="-1.55386">
        <ele>59.361024</ele>
        <time>2022-12-16T13:52:11.936Z</time>
      </trkpt>
      <trkpt lat="47.2558" lon="-1.55373">
        <ele>59.664092</ele>
        <time>2022-12-16T13:52:14.929Z</time>
      </trkpt>
      <trkpt lat="47.25573" lon="-1.55361">
        <ele>59.95664</ele>
        <time>2022-12-16T13:52:17.940Z</time>
      </trkpt>
      <trkpt lat="47.25566" lon="-1.55352">
        <ele>60.217556</ele>
        <time>2022-12-16T13:52:20.929Z</time>
      </trkpt>
      <trkpt lat="47.25557" lon="-1.55339">
        <ele>60.540792</ele>
        <time>2022-12-16T13:52:24.950Z</time>
      </trkpt>
      <trkpt lat="47.2555" lon="-1.5533">
        <ele>60.798512</ele>
        <time>2022-12-16T13:52:27.944Z</time>
      </trkpt>
      <trkpt lat="47.25541" lon="-1.55322">
        <ele>61.084236</ele>
        <time>2022-12-16T13:52:30.934Z</time>
      </trkpt>
      <trkpt lat="47.25533" lon="-1.55313">
        <ele>61.362379</ele>
        <time>2022-12-16T13:52:33.950Z</time>
      </trkpt>
      <trkpt lat="47.25524" lon="-1.55306">
        <ele>61.635535</ele>
        <time>2022-12-16T13:52:36.930Z</time>
      </trkpt>
      <trkpt lat="47.25515" lon="-1.553">
        <ele>61.911788</ele>
        <time>2022-12-16T13:52:39.952Z</time>
      </trkpt>
      <trkpt lat="47.25505" lon="-1.55294">
        <ele>62.187482</ele>
        <time>2022-12-16T13:52:42.952Z</time>
      </trkpt>
      <trkpt lat="47.25496" lon="-1.55289">
        <ele>62.458698</ele>
        <time>2022-12-16T13:52:45.951Z</time>
      </trkpt>
      <trkpt lat="47.25486" lon="-1.55285">
        <ele>62.724995</ele>
        <time>2022-12-16T13:52:48.952Z</time>
      </trkpt>
      <trkpt lat="47.25476" lon="-1.55282">
        <ele>62.834043</ele>
        <time>2022-12-16T13:52:51.943Z</time>
      </trkpt>
      <trkpt lat="47.25467" lon="-1.5528">
        <ele>62.938516</ele>
        <time>2022-12-16T13:52:54.942Z</time>
      </trkpt>
      <trkpt lat="47.25457" lon="-1.55278">
        <ele>63.051381</ele>
        <time>2022-12-16T13:52:57.948Z</time>
      </trkpt>
      <trkpt lat="47.25446" lon="-1.55277">
        <ele>63.164518</ele>
        <time>2022-12-16T13:53:00.932Z</time>
      </trkpt>
      <trkpt lat="47.25435" lon="-1.55277">
        <ele>63.285108</ele>
        <time>2022-12-16T13:53:03.933Z</time>
      </trkpt>
      <trkpt lat="47.25425" lon="-1.55276">
        <ele>63.397027</ele>
        <time>2022-12-16T13:53:06.940Z</time>
      </trkpt>
      <trkpt lat="47.25414" lon="-1.55277">
        <ele>63.510164</ele>
        <time>2022-12-16T13:53:10.933Z</time>
      </trkpt>
      <trkpt lat="47.25406" lon="-1.5528">
        <ele>63.608881</ele>
        <time>2022-12-16T13:53:13.946Z</time>
      </trkpt>
      <trkpt lat="47.25396" lon="-1.55283">
        <ele>63.713215</ele>
        <time>2022-12-16T13:53:16.951Z</time>
      </trkpt>
      <trkpt lat="47.25387" lon="-1.55286">
        <ele>63.814853</ele>
        <time>2022-12-16T13:53:19.938Z</time>
      </trkpt>
      <trkpt lat="47.25378" lon="-1.55289">
        <ele>63.919824</ele>
        <time>2022-12-16T13:53:22.933Z</time>
      </trkpt>
      <trkpt lat="47.25366" lon="-1.55293">
        <ele>64.04928</ele>
        <time>2022-12-16T13:53:26.956Z</time>
      </trkpt>
      <trkpt lat="47.25357" lon="-1.55296">
        <ele>64.153051</ele>
        <time>2022-12-16T13:53:29.955Z</time>
      </trkpt>
      <trkpt lat="47.25347" lon="-1.55299">
        <ele>64.260577</ele>
        <time>2022-12-16T13:53:32.956Z</time>
      </trkpt>
      <trkpt lat="47.25336" lon="-1.55303">
        <ele>64.378399</ele>
        <time>2022-12-16T13:53:35.957Z</time>
      </trkpt>
      <trkpt lat="47.25325" lon="-1.55307">
        <ele>64.505958</ele>
        <time>2022-12-16T13:53:38.952Z</time>
      </trkpt>
      <trkpt lat="47.25314" lon="-1.55311">
        <ele>64.632173</ele>
        <time>2022-12-16T13:53:41.947Z</time>
      </trkpt>
      <trkpt lat="47.25302" lon="-1.55316">
        <ele>64.787974</ele>
        <time>2022-12-16T13:53:44.956Z</time>
      </trkpt>
      <trkpt lat="47.25291" lon="-1.5532">
        <ele>64.949298</ele>
        <time>2022-12-16T13:53:47.930Z</time>
      </trkpt>
      <trkpt lat="47.2528" lon="-1.55325">
        <ele>65.113479</ele>
        <time>2022-12-16T13:53:50.929Z</time>
      </trkpt>
      <trkpt lat="47.2527" lon="-1.5533">
        <ele>65.267297</ele>
        <time>2022-12-16T13:53:53.948Z</time>
      </trkpt>
      <trkpt lat="47.2526" lon="-1.55333">
        <ele>65.411407</ele>
        <time>2022-12-16T13:53:56.932Z</time>
      </trkpt>
      <trkpt lat="47.2525" lon="-1.55341">
        <ele>65.57297</ele>
        <time>2022-12-16T13:54:00.936Z</time>
      </trkpt>
      <trkpt lat="47.25242" lon="-1.5535">
        <ele>65.714038</ele>
        <time>2022-12-16T13:54:04.933Z</time>
      </trkpt>
      <trkpt lat="47.25232" lon="-1.55352">
        <ele>65.857729</ele>
        <time>2022-12-16T13:54:08.930Z</time>
      </trkpt>
      <trkpt lat="47.25223" lon="-1.55351">
        <ele>65.986054</ele>
        <time>2022-12-16T13:54:11.934Z</time>
      </trkpt>
      <trkpt lat="47.25214" lon="-1.55352">
        <ele>66.114495</ele>
        <time>2022-12-16T13:54:14.930Z</time>
      </trkpt>
      <trkpt lat="47.25205" lon="-1.55354">
        <ele>66.245499</ele>
        <time>2022-12-16T13:54:18.952Z</time>
      </trkpt>
      <trkpt lat="47.25196" lon="-1.55361">
        <ele>66.389607</ele>
        <time>2022-12-16T13:54:22.935Z</time>
      </trkpt>
      <trkpt lat="47.25186" lon="-1.55366">
        <ele>66.54372</ele>
        <time>2022-12-16T13:54:26.932Z</time>
      </trkpt>
      <trkpt lat="47.25176" lon="-1.5537">
        <ele>66.693148</ele>
        <time>2022-12-16T13:54:30.933Z</time>
      </trkpt>
      <trkpt lat="47.25166" lon="-1.55374">
        <ele>66.839314</ele>
        <time>2022-12-16T13:54:34.936Z</time>
      </trkpt>
      <trkpt lat="47.25156" lon="-1.55376">
        <ele>66.982536</ele>
        <time>2022-12-16T13:54:38.933Z</time>
      </trkpt>
      <trkpt lat="47.25145" lon="-1.5538">
        <ele>67.138579</ele>
        <time>2022-12-16T13:54:42.936Z</time>
      </trkpt>
      <trkpt lat="47.25135" lon="-1.55383">
        <ele>67.377211</ele>
        <time>2022-12-16T13:54:46.937Z</time>
      </trkpt>
      <trkpt lat="47.25126" lon="-1.55386">
        <ele>67.746517</ele>
        <time>2022-12-16T13:54:50.933Z</time>
      </trkpt>
      <trkpt lat="47.25115" lon="-1.55389">
        <ele>68.171793</ele>
        <time>2022-12-16T13:54:55.984Z</time>
      </trkpt>
      <trkpt lat="47.25107" lon="-1.55393">
        <ele>68.532703</ele>
        <time>2022-12-16T13:54:59.960Z</time>
      </trkpt>
      <trkpt lat="47.25096" lon="-1.55397">
        <ele>68.958183</ele>
        <time>2022-12-16T13:55:04.949Z</time>
      </trkpt>
      <trkpt lat="47.25086" lon="-1.55402">
        <ele>69.36333</ele>
        <time>2022-12-16T13:55:09.931Z</time>
      </trkpt>
      <trkpt lat="47.25076" lon="-1.55407">
        <ele>69.778653</ele>
        <time>2022-12-16T13:55:14.959Z</time>
      </trkpt>
      <trkpt lat="47.25068" lon="-1.55411">
        <ele>70.138026</ele>
        <time>2022-12-16T13:55:19.942Z</time>
      </trkpt>
      <trkpt lat="47.25058" lon="-1.55416">
        <ele>70.544712</ele>
        <time>2022-12-16T13:55:25.937Z</time>
      </trkpt>
      <trkpt lat="47.25048" lon="-1.5542">
        <ele>70.944607</ele>
        <time>2022-12-16T13:55:31.931Z</time>
      </trkpt>
      <trkpt lat="47.25038" lon="-1.55425">
        <ele>71.346272</ele>
        <time>2022-12-16T13:55:36.934Z</time>
      </trkpt>
      <trkpt lat="47.25028" lon="-1.55429">
        <ele>71.750827</ele>
        <time>2022-12-16T13:55:41.946Z</time>
      </trkpt>
      <trkpt lat="47.25019" lon="-1.55431">
        <ele>72.117524</ele>
        <time>2022-12-16T13:55:46.955Z</time>
      </trkpt>
      <trkpt lat="47.25009" lon="-1.55432">
        <ele>72.507674</ele>
        <time>2022-12-16T13:55:51.948Z</time>
      </trkpt>
      <trkpt lat="47.24999" lon="-1.55435">
        <ele>72.914008</ele>
        <time>2022-12-16T13:55:56.953Z</time>
      </trkpt>
      <trkpt lat="47.2499" lon="-1.55438">
        <ele>73.277741</ele>
        <time>2022-12-16T13:56:00.930Z</time>
      </trkpt>
      <trkpt lat="47.24981" lon="-1.55442">
        <ele>73.666591</ele>
        <time>2022-12-16T13:56:04.951Z</time>
      </trkpt>
      <trkpt lat="47.24971" lon="-1.55445">
        <ele>74.057979</ele>
        <time>2022-12-16T13:56:08.947Z</time>
      </trkpt>
      <trkpt lat="47.24962" lon="-1.55448">
        <ele>74.125641</ele>
        <time>2022-12-16T13:56:11.946Z</time>
      </trkpt>
      <trkpt lat="47.24952" lon="-1.55452">
        <ele>73.61995</ele>
        <time>2022-12-16T13:56:14.949Z</time>
      </trkpt>
      <trkpt lat="47.24942" lon="-1.55458">
        <ele>73.117052</ele>
        <time>2022-12-16T13:56:17.947Z</time>
      </trkpt>
      <trkpt lat="47.24935" lon="-1.55465">
        <ele>72.652044</ele>
        <time>2022-12-16T13:56:20.931Z</time>
      </trkpt>
      <trkpt lat="47.24924" lon="-1.5547">
        <ele>72.065264</ele>
        <time>2022-12-16T13:56:24.936Z</time>
      </trkpt>
      <trkpt lat="47.24913" lon="-1.55469">
        <ele>71.536799</ele>
        <time>2022-12-16T13:56:27.933Z</time>
      </trkpt>
      <trkpt lat="47.24904" lon="-1.55471">
        <ele>71.073273</ele>
        <time>2022-12-16T13:56:29.933Z</time>
      </trkpt>
      <trkpt lat="47.24891" lon="-1.55477">
        <ele>70.414308</ele>
        <time>2022-12-16T13:56:32.949Z</time>
      </trkpt>
      <trkpt lat="47.24882" lon="-1.55481">
        <ele>69.90468</ele>
        <time>2022-12-16T13:56:34.945Z</time>
      </trkpt>
      <trkpt lat="47.24872" lon="-1.55485">
        <ele>69.38447</ele>
        <time>2022-12-16T13:56:36.955Z</time>
      </trkpt>
      <trkpt lat="47.24861" lon="-1.5549">
        <ele>68.810316</ele>
        <time>2022-12-16T13:56:38.951Z</time>
      </trkpt>
      <trkpt lat="47.24849" lon="-1.55495">
        <ele>68.217981</ele>
        <time>2022-12-16T13:56:40.933Z</time>
      </trkpt>
      <trkpt lat="47.24839" lon="-1.555">
        <ele>67.674592</ele>
        <time>2022-12-16T13:56:42.944Z</time>
      </trkpt>
      <trkpt lat="47.24828" lon="-1.55503">
        <ele>67.088549</ele>
        <time>2022-12-16T13:56:44.947Z</time>
      </trkpt>
      <trkpt lat="47.24817" lon="-1.55506">
        <ele>66.528699</ele>
        <time>2022-12-16T13:56:46.942Z</time>
      </trkpt>
      <trkpt lat="47.24805" lon="-1.55509">
        <ele>65.952858</ele>
        <time>2022-12-16T13:56:48.942Z</time>
      </trkpt>
      <trkpt lat="47.24794" lon="-1.55513">
        <ele>65.37997</ele>
        <time>2022-12-16T13:56:50.930Z</time>
      </trkpt>
      <trkpt lat="47.24782" lon="-1.55517">
        <ele>64.868963</ele>
        <time>2022-12-16T13:56:52.952Z</time>
      </trkpt>
      <trkpt lat="47.24771" lon="-1.55522">
        <ele>64.399412</ele>
        <time>2022-12-16T13:56:54.951Z</time>
      </trkpt>
      <trkpt lat="47.24759" lon="-1.55526">
        <ele>63.896717</ele>
        <time>2022-12-16T13:56:56.947Z</time>
      </trkpt>
      <trkpt lat="47.24747" lon="-1.55529">
        <ele>63.423698</ele>
        <time>2022-12-16T13:56:58.953Z</time>
      </trkpt>
      <trkpt lat="47.24734" lon="-1.55534">
        <ele>62.908003</ele>
        <time>2022-12-16T13:57:00.934Z</time>
      </trkpt>
      <trkpt lat="47.24721" lon="-1.55537">
        <ele>62.385666</ele>
        <time>2022-12-16T13:57:02.958Z</time>
      </trkpt>
      <trkpt lat="47.24709" lon="-1.55542">
        <ele>61.869971</ele>
        <time>2022-12-16T13:57:04.958Z</time>
      </trkpt>
      <trkpt lat="47.24696" lon="-1.55545">
        <ele>61.35064</ele>
        <time>2022-12-16T13:57:06.925Z</time>
      </trkpt>
      <trkpt lat="47.24683" lon="-1.55549">
        <ele>60.828044</ele>
        <time>2022-12-16T13:57:08.950Z</time>
      </trkpt>
      <trkpt lat="47.24671" lon="-1.55554">
        <ele>60.358091</ele>
        <time>2022-12-16T13:57:10.933Z</time>
      </trkpt>
      <trkpt lat="47.24659" lon="-1.55555">
        <ele>59.863868</ele>
        <time>2022-12-16T13:57:12.952Z</time>
      </trkpt>
      <trkpt lat="47.24648" lon="-1.55557">
        <ele>59.410539</ele>
        <time>2022-12-16T13:57:14.930Z</time>
      </trkpt>
      <trkpt lat="47.24636" lon="-1.55556">
        <ele>58.962257</ele>
        <time>2022-12-16T13:57:16.936Z</time>
      </trkpt>
      <trkpt lat="47.24625" lon="-1.55558">
        <ele>58.500818</ele>
        <time>2022-12-16T13:57:18.938Z</time>
      </trkpt>
      <trkpt lat="47.24614" lon="-1.55559">
        <ele>58.131736</ele>
        <time>2022-12-16T13:57:20.933Z</time>
      </trkpt>
      <trkpt lat="47.24605" lon="-1.55562">
        <ele>58.119535</ele>
        <time>2022-12-16T13:57:22.930Z</time>
      </trkpt>
      <trkpt lat="47.24595" lon="-1.55566">
        <ele>58.106996</ele>
        <time>2022-12-16T13:57:24.935Z</time>
      </trkpt>
      <trkpt lat="47.24585" lon="-1.55569">
        <ele>58.094376</ele>
        <time>2022-12-16T13:57:26.936Z</time>
      </trkpt>
      <trkpt lat="47.24576" lon="-1.55573">
        <ele>58.082441</ele>
        <time>2022-12-16T13:57:28.935Z</time>
      </trkpt>
      <trkpt lat="47.24567" lon="-1.55579">
        <ele>58.069269</ele>
        <time>2022-12-16T13:57:30.933Z</time>
      </trkpt>
      <trkpt lat="47.24558" lon="-1.55586">
        <ele>58.056251</ele>
        <time>2022-12-16T13:57:32.933Z</time>
      </trkpt>
      <trkpt lat="47.24548" lon="-1.55593">
        <ele>58.042441</ele>
        <time>2022-12-16T13:57:34.928Z</time>
      </trkpt>
      <trkpt lat="47.24539" lon="-1.556">
        <ele>58.029277</ele>
        <time>2022-12-16T13:57:36.936Z</time>
      </trkpt>
      <trkpt lat="47.24529" lon="-1.55606">
        <ele>58.01645</ele>
        <time>2022-12-16T13:57:38.934Z</time>
      </trkpt>
      <trkpt lat="47.24521" lon="-1.55612">
        <ele>58.004535</ele>
        <time>2022-12-16T13:57:40.930Z</time>
      </trkpt>
      <trkpt lat="47.24509" lon="-1.55619">
        <ele>57.988355</ele>
        <time>2022-12-16T13:57:43.940Z</time>
      </trkpt>
      <trkpt lat="47.24498" lon="-1.55625">
        <ele>57.973549</ele>
        <time>2022-12-16T13:57:46.930Z</time>
      </trkpt>
      <trkpt lat="47.24488" lon="-1.5563">
        <ele>57.960493</ele>
        <time>2022-12-16T13:57:49.941Z</time>
      </trkpt>
      <trkpt lat="47.24478" lon="-1.55634">
        <ele>57.947584</ele>
        <time>2022-12-16T13:57:52.940Z</time>
      </trkpt>
      <trkpt lat="47.24468" lon="-1.55638">
        <ele>57.934569</ele>
        <time>2022-12-16T13:57:55.942Z</time>
      </trkpt>
      <trkpt lat="47.24459" lon="-1.5564">
        <ele>57.922084</ele>
        <time>2022-12-16T13:57:58.940Z</time>
      </trkpt>
      <trkpt lat="47.24449" lon="-1.55642">
        <ele>57.909552</ele>
        <time>2022-12-16T13:58:01.945Z</time>
      </trkpt>
      <trkpt lat="47.24439" lon="-1.55643">
        <ele>57.797204</ele>
        <time>2022-12-16T13:58:04.953Z</time>
      </trkpt>
      <trkpt lat="47.24428" lon="-1.55644">
        <ele>57.614496</ele>
        <time>2022-12-16T13:58:07.947Z</time>
      </trkpt>
      <trkpt lat="47.24416" lon="-1.55645">
        <ele>57.409496</ele>
        <time>2022-12-16T13:58:11.953Z</time>
      </trkpt>
      <trkpt lat="47.24405" lon="-1.55645">
        <ele>57.24378</ele>
        <time>2022-12-16T13:58:14.935Z</time>
      </trkpt>
      <trkpt lat="47.24392" lon="-1.55645">
        <ele>57.0342</ele>
        <time>2022-12-16T13:58:17.951Z</time>
      </trkpt>
      <trkpt lat="47.2438" lon="-1.55648">
        <ele>56.832324</ele>
        <time>2022-12-16T13:58:20.935Z</time>
      </trkpt>
      <trkpt lat="47.2437" lon="-1.55656">
        <ele>56.638727</ele>
        <time>2022-12-16T13:58:23.934Z</time>
      </trkpt>
      <trkpt lat="47.24361" lon="-1.55669">
        <ele>56.444372</ele>
        <time>2022-12-16T13:58:26.945Z</time>
      </trkpt>
      <trkpt lat="47.2435" lon="-1.55674">
        <ele>56.258359</ele>
        <time>2022-12-16T13:58:29.932Z</time>
      </trkpt>
      <trkpt lat="47.24337" lon="-1.55672">
        <ele>56.045365</ele>
        <time>2022-12-16T13:58:32.945Z</time>
      </trkpt>
      <trkpt lat="47.24328" lon="-1.55665">
        <ele>55.882984</ele>
        <time>2022-12-16T13:58:34.935Z</time>
      </trkpt>
      <trkpt lat="47.24319" lon="-1.55658">
        <ele>55.70893</ele>
        <time>2022-12-16T13:58:36.934Z</time>
      </trkpt>
      <trkpt lat="47.24309" lon="-1.55654">
        <ele>55.544038</ele>
        <time>2022-12-16T13:58:38.948Z</time>
      </trkpt>
      <trkpt lat="47.24299" lon="-1.55653">
        <ele>55.374559</ele>
        <time>2022-12-16T13:58:40.934Z</time>
      </trkpt>
      <trkpt lat="47.24283" lon="-1.55652">
        <ele>55.116184</ele>
        <time>2022-12-16T13:58:43.938Z</time>
      </trkpt>
      <trkpt lat="47.24271" lon="-1.55652">
        <ele>55.047937</ele>
        <time>2022-12-16T13:58:45.947Z</time>
      </trkpt>
      <trkpt lat="47.24259" lon="-1.55654">
        <ele>55.268388</ele>
        <time>2022-12-16T13:58:47.958Z</time>
      </trkpt>
      <trkpt lat="47.24248" lon="-1.55657">
        <ele>55.482544</ele>
        <time>2022-12-16T13:58:49.949Z</time>
      </trkpt>
      <trkpt lat="47.24235" lon="-1.55658">
        <ele>55.725724</ele>
        <time>2022-12-16T13:58:52.949Z</time>
      </trkpt>
      <trkpt lat="47.24225" lon="-1.55659">
        <ele>55.902468</ele>
        <time>2022-12-16T13:58:55.958Z</time>
      </trkpt>
      <trkpt lat="47.24214" lon="-1.5566">
        <ele>56.110443</ele>
        <time>2022-12-16T13:58:59.939Z</time>
      </trkpt>
      <trkpt lat="47.24203" lon="-1.5566">
        <ele>56.31827</ele>
        <time>2022-12-16T13:59:03.951Z</time>
      </trkpt>
      <trkpt lat="47.24193" lon="-1.55661">
        <ele>56.503898</ele>
        <time>2022-12-16T13:59:07.956Z</time>
      </trkpt>
      <trkpt lat="47.24183" lon="-1.55662">
        <ele>56.689889</ele>
        <time>2022-12-16T13:59:11.933Z</time>
      </trkpt>
      <trkpt lat="47.24174" lon="-1.55662">
        <ele>56.860525</ele>
        <time>2022-12-16T13:59:15.933Z</time>
      </trkpt>
      <trkpt lat="47.24165" lon="-1.55662">
        <ele>57.029325</ele>
        <time>2022-12-16T13:59:19.950Z</time>
      </trkpt>
      <trkpt lat="47.24155" lon="-1.55663">
        <ele>57.209675</ele>
        <time>2022-12-16T13:59:24.935Z</time>
      </trkpt>
      <trkpt lat="47.24144" lon="-1.55665">
        <ele>57.408048</ele>
        <time>2022-12-16T13:59:30.946Z</time>
      </trkpt>
      <trkpt lat="47.24135" lon="-1.55667">
        <ele>57.589083</ele>
        <time>2022-12-16T13:59:36.935Z</time>
      </trkpt>
      <trkpt lat="47.24126" lon="-1.55673">
        <ele>57.772988</ele>
        <time>2022-12-16T13:59:41.930Z</time>
      </trkpt>
      <trkpt lat="47.24117" lon="-1.55681">
        <ele>57.963214</ele>
        <time>2022-12-16T13:59:46.930Z</time>
      </trkpt>
      <trkpt lat="47.24109" lon="-1.5569">
        <ele>58.14528</ele>
        <time>2022-12-16T13:59:51.938Z</time>
      </trkpt>
      <trkpt lat="47.24104" lon="-1.55703">
        <ele>58.350502</ele>
        <time>2022-12-16T13:59:56.937Z</time>
      </trkpt>
      <trkpt lat="47.24099" lon="-1.55717">
        <ele>58.613267</ele>
        <time>2022-12-16T14:00:01.938Z</time>
      </trkpt>
      <trkpt lat="47.24095" lon="-1.55729">
        <ele>58.848285</ele>
        <time>2022-12-16T14:00:05.953Z</time>
      </trkpt>
      <trkpt lat="47.2409" lon="-1.55741">
        <ele>59.087527</ele>
        <time>2022-12-16T14:00:09.950Z</time>
      </trkpt>
      <trkpt lat="47.24086" lon="-1.55754">
        <ele>59.327665</ele>
        <time>2022-12-16T14:00:13.936Z</time>
      </trkpt>
      <trkpt lat="47.24082" lon="-1.55768">
        <ele>59.602421</ele>
        <time>2022-12-16T14:00:17.936Z</time>
      </trkpt>
      <trkpt lat="47.24077" lon="-1.55783">
        <ele>59.882943</ele>
        <time>2022-12-16T14:00:21.945Z</time>
      </trkpt>
      <trkpt lat="47.24073" lon="-1.55798">
        <ele>60.16396</ele>
        <time>2022-12-16T14:00:25.947Z</time>
      </trkpt>
      <trkpt lat="47.24069" lon="-1.5581">
        <ele>60.406297</ele>
        <time>2022-12-16T14:00:29.951Z</time>
      </trkpt>
      <trkpt lat="47.24065" lon="-1.55823">
        <ele>60.636465</ele>
        <time>2022-12-16T14:00:33.936Z</time>
      </trkpt>
      <trkpt lat="47.24061" lon="-1.55838">
        <ele>60.927142</ele>
        <time>2022-12-16T14:00:38.954Z</time>
      </trkpt>
      <trkpt lat="47.24056" lon="-1.5585">
        <ele>61.1676</ele>
        <time>2022-12-16T14:00:42.956Z</time>
      </trkpt>
      <trkpt lat="47.24051" lon="-1.55862">
        <ele>61.398812</ele>
        <time>2022-12-16T14:00:45.938Z</time>
      </trkpt>
      <trkpt lat="47.24046" lon="-1.55875">
        <ele>61.659523</ele>
        <time>2022-12-16T14:00:49.950Z</time>
      </trkpt>
      <trkpt lat="47.24042" lon="-1.55889">
        <ele>61.916991</ele>
        <time>2022-12-16T14:00:53.934Z</time>
      </trkpt>
      <trkpt lat="47.24037" lon="-1.55903">
        <ele>62.210526</ele>
        <time>2022-12-16T14:00:57.948Z</time>
      </trkpt>
      <trkpt lat="47.24032" lon="-1.55916">
        <ele>62.446685</ele>
        <time>2022-12-16T14:01:01.954Z</time>
      </trkpt>
      <trkpt lat="47.24027" lon="-1.5593">
        <ele>62.728621</ele>
        <time>2022-12-16T14:01:05.954Z</time>
      </trkpt>
      <trkpt lat="47.24022" lon="-1.55946">
        <ele>63.007217</ele>
        <time>2022-12-16T14:01:09.933Z</time>
      </trkpt>
      <trkpt lat="47.24019" lon="-1.55959">
        <ele>63.203285</ele>
        <time>2022-12-16T14:01:12.960Z</time>
      </trkpt>
      <trkpt lat="47.24015" lon="-1.55971">
        <ele>63.398692</ele>
        <time>2022-12-16T14:01:15.953Z</time>
      </trkpt>
      <trkpt lat="47.24011" lon="-1.55984">
        <ele>63.603551</ele>
        <time>2022-12-16T14:01:18.954Z</time>
      </trkpt>
      <trkpt lat="47.24006" lon="-1.55997">
        <ele>63.820884</ele>
        <time>2022-12-16T14:01:21.953Z</time>
      </trkpt>
      <trkpt lat="47.24002" lon="-1.5601">
        <ele>64.03338</ele>
        <time>2022-12-16T14:01:24.958Z</time>
      </trkpt>
      <trkpt lat="47.23997" lon="-1.56022">
        <ele>64.2379</ele>
        <time>2022-12-16T14:01:27.949Z</time>
      </trkpt>
      <trkpt lat="47.23991" lon="-1.56036">
        <ele>64.47517</ele>
        <time>2022-12-16T14:01:30.935Z</time>
      </trkpt>
      <trkpt lat="47.23985" lon="-1.5605">
        <ele>64.712357</ele>
        <time>2022-12-16T14:01:33.946Z</time>
      </trkpt>
      <trkpt lat="47.23979" lon="-1.56062">
        <ele>64.930337</ele>
        <time>2022-12-16T14:01:36.949Z</time>
      </trkpt>
      <trkpt lat="47.23972" lon="-1.56075">
        <ele>65.175369</ele>
        <time>2022-12-16T14:01:40.934Z</time>
      </trkpt>
      <trkpt lat="47.23966" lon="-1.56085">
        <ele>65.36853</ele>
        <time>2022-12-16T14:01:43.950Z</time>
      </trkpt>
      <trkpt lat="47.23959" lon="-1.56095">
        <ele>65.576199</ele>
        <time>2022-12-16T14:01:46.936Z</time>
      </trkpt>
      <trkpt lat="47.23951" lon="-1.56104">
        <ele>65.785921</ele>
        <time>2022-12-16T14:01:49.936Z</time>
      </trkpt>
      <trkpt lat="47.23943" lon="-1.56113">
        <ele>66.004997</ele>
        <time>2022-12-16T14:01:52.950Z</time>
      </trkpt>
      <trkpt lat="47.23934" lon="-1.56121">
        <ele>66.226162</ele>
        <time>2022-12-16T14:01:55.944Z</time>
      </trkpt>
      <trkpt lat="47.23925" lon="-1.56129">
        <ele>66.448782</ele>
        <time>2022-12-16T14:01:58.945Z</time>
      </trkpt>
      <trkpt lat="47.23916" lon="-1.56136">
        <ele>66.676692</ele>
        <time>2022-12-16T14:02:01.944Z</time>
      </trkpt>
      <trkpt lat="47.23907" lon="-1.56142">
        <ele>67.037156</ele>
        <time>2022-12-16T14:02:04.955Z</time>
      </trkpt>
      <trkpt lat="47.23899" lon="-1.5615">
        <ele>67.429458</ele>
        <time>2022-12-16T14:02:07.932Z</time>
      </trkpt>
      <trkpt lat="47.2389" lon="-1.5616">
        <ele>67.85952</ele>
        <time>2022-12-16T14:02:10.934Z</time>
      </trkpt>
      <trkpt lat="47.23882" lon="-1.56168">
        <ele>68.267044</ele>
        <time>2022-12-16T14:02:13.949Z</time>
      </trkpt>
      <trkpt lat="47.23874" lon="-1.56176">
        <ele>68.675667</ele>
        <time>2022-12-16T14:02:16.952Z</time>
      </trkpt>
      <trkpt lat="47.23867" lon="-1.56186">
        <ele>69.082072</ele>
        <time>2022-12-16T14:02:19.946Z</time>
      </trkpt>
      <trkpt lat="47.23858" lon="-1.56196">
        <ele>69.524064</ele>
        <time>2022-12-16T14:02:22.936Z</time>
      </trkpt>
      <trkpt lat="47.23849" lon="-1.56205">
        <ele>69.957667</ele>
        <time>2022-12-16T14:02:25.946Z</time>
      </trkpt>
      <trkpt lat="47.2384" lon="-1.56213">
        <ele>70.400376</ele>
        <time>2022-12-16T14:02:28.950Z</time>
      </trkpt>
      <trkpt lat="47.23832" lon="-1.56221">
        <ele>70.826239</ele>
        <time>2022-12-16T14:02:31.950Z</time>
      </trkpt>
      <trkpt lat="47.23823" lon="-1.5623">
        <ele>71.241565</ele>
        <time>2022-12-16T14:02:34.961Z</time>
      </trkpt>
      <trkpt lat="47.23816" lon="-1.56238">
        <ele>71.623937</ele>
        <time>2022-12-16T14:02:37.937Z</time>
      </trkpt>
      <trkpt lat="47.23807" lon="-1.56245">
        <ele>72.023471</ele>
        <time>2022-12-16T14:02:40.933Z</time>
      </trkpt>
      <trkpt lat="47.238" lon="-1.56253">
        <ele>72.402452</ele>
        <time>2022-12-16T14:02:43.953Z</time>
      </trkpt>
      <trkpt lat="47.23791" lon="-1.56262">
        <ele>72.837888</ele>
        <time>2022-12-16T14:02:47.933Z</time>
      </trkpt>
      <trkpt lat="47.23782" lon="-1.56271">
        <ele>73.27964</ele>
        <time>2022-12-16T14:02:51.942Z</time>
      </trkpt>
      <trkpt lat="47.23773" lon="-1.5628">
        <ele>73.735751</ele>
        <time>2022-12-16T14:02:55.958Z</time>
      </trkpt>
      <trkpt lat="47.23764" lon="-1.56289">
        <ele>74.111792</ele>
        <time>2022-12-16T14:02:59.953Z</time>
      </trkpt>
      <trkpt lat="47.23754" lon="-1.56299">
        <ele>74.076014</ele>
        <time>2022-12-16T14:03:03.933Z</time>
      </trkpt>
      <trkpt lat="47.23744" lon="-1.56308">
        <ele>74.040578</ele>
        <time>2022-12-16T14:03:07.953Z</time>
      </trkpt>
      <trkpt lat="47.23734" lon="-1.56317">
        <ele>74.007153</ele>
        <time>2022-12-16T14:03:11.944Z</time>
      </trkpt>
      <trkpt lat="47.23724" lon="-1.56325">
        <ele>73.97154</ele>
        <time>2022-12-16T14:03:15.956Z</time>
      </trkpt>
      <trkpt lat="47.23715" lon="-1.5633">
        <ele>73.943497</ele>
        <time>2022-12-16T14:03:18.958Z</time>
      </trkpt>
      <trkpt lat="47.23706" lon="-1.56334">
        <ele>73.915421</ele>
        <time>2022-12-16T14:03:21.933Z</time>
      </trkpt>
      <trkpt lat="47.23697" lon="-1.56338">
        <ele>73.88491</ele>
        <time>2022-12-16T14:03:24.925Z</time>
      </trkpt>
      <trkpt lat="47.23687" lon="-1.56341">
        <ele>73.854264</ele>
        <time>2022-12-16T14:03:27.959Z</time>
      </trkpt>
      <trkpt lat="47.23676" lon="-1.56342">
        <ele>73.823334</ele>
        <time>2022-12-16T14:03:30.942Z</time>
      </trkpt>
      <trkpt lat="47.23666" lon="-1.56343">
        <ele>73.792608</ele>
        <time>2022-12-16T14:03:33.952Z</time>
      </trkpt>
      <trkpt lat="47.23655" lon="-1.56343">
        <ele>73.760081</ele>
        <time>2022-12-16T14:03:36.935Z</time>
      </trkpt>
      <trkpt lat="47.23643" lon="-1.56343">
        <ele>73.72335</ele>
        <time>2022-12-16T14:03:39.954Z</time>
      </trkpt>
      <trkpt lat="47.2363" lon="-1.56344">
        <ele>73.684509</ele>
        <time>2022-12-16T14:03:42.937Z</time>
      </trkpt>
      <trkpt lat="47.23619" lon="-1.56343">
        <ele>73.649837</ele>
        <time>2022-12-16T14:03:45.953Z</time>
      </trkpt>
      <trkpt lat="47.23606" lon="-1.56343">
        <ele>73.611264</ele>
        <time>2022-12-16T14:03:48.931Z</time>
      </trkpt>
      <trkpt lat="47.23592" lon="-1.56343">
        <ele>73.540331</ele>
        <time>2022-12-16T14:03:51.946Z</time>
      </trkpt>
      <trkpt lat="47.23583" lon="-1.56343">
        <ele>73.357176</ele>
        <time>2022-12-16T14:03:53.947Z</time>
      </trkpt>
      <trkpt lat="47.23573" lon="-1.56343">
        <ele>73.170056</ele>
        <time>2022-12-16T14:03:55.941Z</time>
      </trkpt>
      <trkpt lat="47.23563" lon="-1.56342">
        <ele>72.96742</ele>
        <time>2022-12-16T14:03:57.938Z</time>
      </trkpt>
      <trkpt lat="47.23552" lon="-1.56342">
        <ele>72.766902</ele>
        <time>2022-12-16T14:03:59.935Z</time>
      </trkpt>
      <trkpt lat="47.23542" lon="-1.56342">
        <ele>72.574072</ele>
        <time>2022-12-16T14:04:01.942Z</time>
      </trkpt>
      <trkpt lat="47.23532" lon="-1.56342">
        <ele>72.367771</ele>
        <time>2022-12-16T14:04:03.932Z</time>
      </trkpt>
      <trkpt lat="47.23522" lon="-1.56342">
        <ele>72.178797</ele>
        <time>2022-12-16T14:04:05.942Z</time>
      </trkpt>
      <trkpt lat="47.23512" lon="-1.56342">
        <ele>71.989859</ele>
        <time>2022-12-16T14:04:07.959Z</time>
      </trkpt>
      <trkpt lat="47.23503" lon="-1.56342">
        <ele>71.806704</ele>
        <time>2022-12-16T14:04:09.948Z</time>
      </trkpt>
      <trkpt lat="47.23493" lon="-1.56342">
        <ele>71.629333</ele>
        <time>2022-12-16T14:04:11.947Z</time>
      </trkpt>
      <trkpt lat="47.23484" lon="-1.56342">
        <ele>71.442286</ele>
        <time>2022-12-16T14:04:14.000Z</time>
      </trkpt>
      <trkpt lat="47.23474" lon="-1.56342">
        <ele>71.261064</ele>
        <time>2022-12-16T14:04:15.951Z</time>
      </trkpt>
      <trkpt lat="47.23462" lon="-1.56341">
        <ele>71.015998</ele>
        <time>2022-12-16T14:04:18.929Z</time>
      </trkpt>
      <trkpt lat="47.23449" lon="-1.56341">
        <ele>70.778737</ele>
        <time>2022-12-16T14:04:21.939Z</time>
      </trkpt>
      <trkpt lat="47.23438" lon="-1.56342">
        <ele>70.562037</ele>
        <time>2022-12-16T14:04:24.934Z</time>
      </trkpt>
      <trkpt lat="47.23428" lon="-1.56345">
        <ele>70.367688</ele>
        <time>2022-12-16T14:04:29.953Z</time>
      </trkpt>
      <trkpt lat="47.23419" lon="-1.56349">
        <ele>70.186696</ele>
        <time>2022-12-16T14:04:56.931Z</time>
      </trkpt>
      <trkpt lat="47.2341" lon="-1.56342">
        <ele>70.043186</ele>
        <time>2022-12-16T14:05:03.929Z</time>
      </trkpt>
      <trkpt lat="47.23408" lon="-1.56325">
        <ele>69.924954</ele>
        <time>2022-12-16T14:05:07.947Z</time>
      </trkpt>
      <trkpt lat="47.23406" lon="-1.56311">
        <ele>69.823871</ele>
        <time>2022-12-16T14:05:10.932Z</time>
      </trkpt>
      <trkpt lat="47.23404" lon="-1.56297">
        <ele>69.727518</ele>
        <time>2022-12-16T14:05:12.929Z</time>
      </trkpt>
      <trkpt lat="47.23402" lon="-1.5628">
        <ele>69.602466</ele>
        <time>2022-12-16T14:05:15.946Z</time>
      </trkpt>
      <trkpt lat="47.23398" lon="-1.56263">
        <ele>69.475891</ele>
        <time>2022-12-16T14:05:18.955Z</time>
      </trkpt>
      <trkpt lat="47.23396" lon="-1.56249">
        <ele>69.378124</ele>
        <time>2022-12-16T14:05:20.972Z</time>
      </trkpt>
      <trkpt lat="47.23393" lon="-1.56231">
        <ele>69.246225</ele>
        <time>2022-12-16T14:05:23.958Z</time>
      </trkpt>
      <trkpt lat="47.23391" lon="-1.56213">
        <ele>69.118187</ele>
        <time>2022-12-16T14:05:26.943Z</time>
      </trkpt>
      <trkpt lat="47.23388" lon="-1.56195">
        <ele>68.987558</ele>
        <time>2022-12-16T14:05:29.939Z</time>
      </trkpt>
      <trkpt lat="47.23384" lon="-1.56176">
        <ele>68.853481</ele>
        <time>2022-12-16T14:05:32.938Z</time>
      </trkpt>
      <trkpt lat="47.2338" lon="-1.56163">
        <ele>68.752779</ele>
        <time>2022-12-16T14:05:34.956Z</time>
      </trkpt>
      <trkpt lat="47.23375" lon="-1.56144">
        <ele>68.60665</ele>
        <time>2022-12-16T14:05:37.951Z</time>
      </trkpt>
      <trkpt lat="47.23371" lon="-1.56125">
        <ele>68.469219</ele>
        <time>2022-12-16T14:05:40.932Z</time>
      </trkpt>
      <trkpt lat="47.23367" lon="-1.56107">
        <ele>68.334768</ele>
        <time>2022-12-16T14:05:43.944Z</time>
      </trkpt>
      <trkpt lat="47.23364" lon="-1.56094">
        <ele>68.255385</ele>
        <time>2022-12-16T14:05:45.951Z</time>
      </trkpt>
      <trkpt lat="47.2336" lon="-1.56081">
        <ele>68.273432</ele>
        <time>2022-12-16T14:05:47.942Z</time>
      </trkpt>
      <trkpt lat="47.23358" lon="-1.56068">
        <ele>68.290567</ele>
        <time>2022-12-16T14:05:49.948Z</time>
      </trkpt>
      <trkpt lat="47.23353" lon="-1.56051">
        <ele>68.314366</ele>
        <time>2022-12-16T14:05:52.936Z</time>
      </trkpt>
      <trkpt lat="47.23349" lon="-1.56033">
        <ele>68.338773</ele>
        <time>2022-12-16T14:05:55.938Z</time>
      </trkpt>
      <trkpt lat="47.23346" lon="-1.56016">
        <ele>68.361777</ele>
        <time>2022-12-16T14:05:58.946Z</time>
      </trkpt>
      <trkpt lat="47.23341" lon="-1.56">
        <ele>68.383867</ele>
        <time>2022-12-16T14:06:01.958Z</time>
      </trkpt>
      <trkpt lat="47.23336" lon="-1.55985">
        <ele>68.405051</ele>
        <time>2022-12-16T14:06:04.946Z</time>
      </trkpt>
      <trkpt lat="47.23332" lon="-1.5597">
        <ele>68.42671</ele>
        <time>2022-12-16T14:06:07.946Z</time>
      </trkpt>
      <trkpt lat="47.23328" lon="-1.55953">
        <ele>68.449157</ele>
        <time>2022-12-16T14:06:10.936Z</time>
      </trkpt>
      <trkpt lat="47.23325" lon="-1.55936">
        <ele>68.473118</ele>
        <time>2022-12-16T14:06:13.948Z</time>
      </trkpt>
      <trkpt lat="47.23322" lon="-1.55917">
        <ele>68.497352</ele>
        <time>2022-12-16T14:06:16.948Z</time>
      </trkpt>
      <trkpt lat="47.23319" lon="-1.55899">
        <ele>68.521239</ele>
        <time>2022-12-16T14:06:19.941Z</time>
      </trkpt>
      <trkpt lat="47.23315" lon="-1.55882">
        <ele>68.54467</ele>
        <time>2022-12-16T14:06:22.948Z</time>
      </trkpt>
      <trkpt lat="47.23311" lon="-1.55865">
        <ele>68.567797</ele>
        <time>2022-12-16T14:06:25.957Z</time>
      </trkpt>
      <trkpt lat="47.23307" lon="-1.5585">
        <ele>68.589273</ele>
        <time>2022-12-16T14:06:28.953Z</time>
      </trkpt>
      <trkpt lat="47.23305" lon="-1.55834">
        <ele>68.499066</ele>
        <time>2022-12-16T14:06:31.941Z</time>
      </trkpt>
      <trkpt lat="47.23302" lon="-1.55818">
        <ele>68.359233</ele>
        <time>2022-12-16T14:06:34.960Z</time>
      </trkpt>
      <trkpt lat="47.233" lon="-1.55801">
        <ele>68.211167</ele>
        <time>2022-12-16T14:06:37.944Z</time>
      </trkpt>
      <trkpt lat="47.23299" lon="-1.55783">
        <ele>68.061347</ele>
        <time>2022-12-16T14:06:40.933Z</time>
      </trkpt>
      <trkpt lat="47.23297" lon="-1.55765">
        <ele>67.907204</ele>
        <time>2022-12-16T14:06:43.955Z</time>
      </trkpt>
      <trkpt lat="47.23296" lon="-1.55752">
        <ele>67.794668</ele>
        <time>2022-12-16T14:06:45.952Z</time>
      </trkpt>
      <trkpt lat="47.23296" lon="-1.55733">
        <ele>67.638422</ele>
        <time>2022-12-16T14:06:48.938Z</time>
      </trkpt>
      <trkpt lat="47.23296" lon="-1.55715">
        <ele>67.486315</ele>
        <time>2022-12-16T14:06:51.949Z</time>
      </trkpt>
      <trkpt lat="47.23297" lon="-1.55697">
        <ele>67.338069</ele>
        <time>2022-12-16T14:06:54.939Z</time>
      </trkpt>
      <trkpt lat="47.23297" lon="-1.55682">
        <ele>67.209537</ele>
        <time>2022-12-16T14:06:57.935Z</time>
      </trkpt>
      <trkpt lat="47.23293" lon="-1.55667">
        <ele>67.075582</ele>
        <time>2022-12-16T14:07:02.939Z</time>
      </trkpt>
      <trkpt lat="47.2329" lon="-1.55654">
        <ele>66.957863</ele>
        <time>2022-12-16T14:07:06.937Z</time>
      </trkpt>
      <trkpt lat="47.23297" lon="-1.55638">
        <ele>66.805411</ele>
        <time>2022-12-16T14:07:10.945Z</time>
      </trkpt>
      <trkpt lat="47.23302" lon="-1.55621">
        <ele>66.650809</ele>
        <time>2022-12-16T14:07:13.947Z</time>
      </trkpt>
      <trkpt lat="47.23306" lon="-1.55603">
        <ele>66.488154</ele>
        <time>2022-12-16T14:07:16.934Z</time>
      </trkpt>
      <trkpt lat="47.23309" lon="-1.55585">
        <ele>66.297265</ele>
        <time>2022-12-16T14:07:19.940Z</time>
      </trkpt>
      <trkpt lat="47.23313" lon="-1.55568">
        <ele>66.01308</ele>
        <time>2022-12-16T14:07:22.945Z</time>
      </trkpt>
      <trkpt lat="47.23317" lon="-1.55551">
        <ele>65.731782</ele>
        <time>2022-12-16T14:07:25.936Z</time>
      </trkpt>
      <trkpt lat="47.23321" lon="-1.55534">
        <ele>65.453476</ele>
        <time>2022-12-16T14:07:28.935Z</time>
      </trkpt>
      <trkpt lat="47.23324" lon="-1.5552">
        <ele>65.217423</ele>
        <time>2022-12-16T14:07:31.948Z</time>
      </trkpt>
      <trkpt lat="47.23332" lon="-1.55507">
        <ele>64.947691</ele>
        <time>2022-12-16T14:07:35.948Z</time>
      </trkpt>
      <trkpt lat="47.23337" lon="-1.55494">
        <ele>64.70702</ele>
        <time>2022-12-16T14:07:38.939Z</time>
      </trkpt>
      <trkpt lat="47.23343" lon="-1.55479">
        <ele>64.441555</ele>
        <time>2022-12-16T14:07:41.948Z</time>
      </trkpt>
      <trkpt lat="47.2335" lon="-1.55464">
        <ele>64.160762</ele>
        <time>2022-12-16T14:07:44.932Z</time>
      </trkpt>
      <trkpt lat="47.23357" lon="-1.55449">
        <ele>63.865656</ele>
        <time>2022-12-16T14:07:47.935Z</time>
      </trkpt>
      <trkpt lat="47.23364" lon="-1.55433">
        <ele>63.559955</ele>
        <time>2022-12-16T14:07:50.935Z</time>
      </trkpt>
      <trkpt lat="47.23369" lon="-1.55421">
        <ele>63.350656</ele>
        <time>2022-12-16T14:07:52.937Z</time>
      </trkpt>
      <trkpt lat="47.23374" lon="-1.5541">
        <ele>63.130874</ele>
        <time>2022-12-16T14:07:54.951Z</time>
      </trkpt>
      <trkpt lat="47.2338" lon="-1.55398">
        <ele>62.912416</ele>
        <time>2022-12-16T14:07:56.953Z</time>
      </trkpt>
      <trkpt lat="47.23385" lon="-1.55386">
        <ele>62.683521</ele>
        <time>2022-12-16T14:07:58.933Z</time>
      </trkpt>
      <trkpt lat="47.23391" lon="-1.55373">
        <ele>62.437795</ele>
        <time>2022-12-16T14:08:00.933Z</time>
      </trkpt>
      <trkpt lat="47.23396" lon="-1.55361">
        <ele>62.21551</ele>
        <time>2022-12-16T14:08:02.930Z</time>
      </trkpt>
      <trkpt lat="47.23401" lon="-1.55348">
        <ele>61.814124</ele>
        <time>2022-12-16T14:08:04.941Z</time>
      </trkpt>
      <trkpt lat="47.23407" lon="-1.55336">
        <ele>61.434187</ele>
        <time>2022-12-16T14:08:06.950Z</time>
      </trkpt>
      <trkpt lat="47.23413" lon="-1.55323">
        <ele>61.018444</ele>
        <time>2022-12-16T14:08:08.934Z</time>
      </trkpt>
      <trkpt lat="47.23418" lon="-1.5531">
        <ele>60.620845</ele>
        <time>2022-12-16T14:08:10.934Z</time>
      </trkpt>
      <trkpt lat="47.23425" lon="-1.55297">
        <ele>60.194382</ele>
        <time>2022-12-16T14:08:12.956Z</time>
      </trkpt>
      <trkpt lat="47.23431" lon="-1.55283">
        <ele>59.742078</ele>
        <time>2022-12-16T14:08:14.953Z</time>
      </trkpt>
      <trkpt lat="47.23437" lon="-1.55268">
        <ele>59.267029</ele>
        <time>2022-12-16T14:08:16.950Z</time>
      </trkpt>
      <trkpt lat="47.23445" lon="-1.55254">
        <ele>58.79866</ele>
        <time>2022-12-16T14:08:18.957Z</time>
      </trkpt>
      <trkpt lat="47.23451" lon="-1.55239">
        <ele>58.337673</ele>
        <time>2022-12-16T14:08:20.935Z</time>
      </trkpt>
      <trkpt lat="47.23459" lon="-1.55223">
        <ele>57.819568</ele>
        <time>2022-12-16T14:08:22.951Z</time>
      </trkpt>
      <trkpt lat="47.23466" lon="-1.55209">
        <ele>57.331138</ele>
        <time>2022-12-16T14:08:24.944Z</time>
      </trkpt>
      <trkpt lat="47.23473" lon="-1.55192">
        <ele>56.81265</ele>
        <time>2022-12-16T14:08:26.939Z</time>
      </trkpt>
      <trkpt lat="47.2348" lon="-1.55176">
        <ele>56.314289</ele>
        <time>2022-12-16T14:08:28.943Z</time>
      </trkpt>
      <trkpt lat="47.23487" lon="-1.55158">
        <ele>55.775683</ele>
        <time>2022-12-16T14:08:30.938Z</time>
      </trkpt>
      <trkpt lat="47.23493" lon="-1.55139">
        <ele>55.213955</ele>
        <time>2022-12-16T14:08:32.940Z</time>
      </trkpt>
      <trkpt lat="47.23498" lon="-1.5512">
        <ele>54.936139</ele>
        <time>2022-12-16T14:08:34.931Z</time>
      </trkpt>
      <trkpt lat="47.23503" lon="-1.55101">
        <ele>54.677627</ele>
        <time>2022-12-16T14:08:36.930Z</time>
      </trkpt>
      <trkpt lat="47.23507" lon="-1.55081">
        <ele>54.417184</ele>
        <time>2022-12-16T14:08:38.931Z</time>
      </trkpt>
      <trkpt lat="47.2351" lon="-1.55061">
        <ele>54.161383</ele>
        <time>2022-12-16T14:08:40.937Z</time>
      </trkpt>
      <trkpt lat="47.23513" lon="-1.55042">
        <ele>53.923503</ele>
        <time>2022-12-16T14:08:42.936Z</time>
      </trkpt>
      <trkpt lat="47.23514" lon="-1.55026">
        <ele>53.719525</ele>
        <time>2022-12-16T14:08:44.932Z</time>
      </trkpt>
      <trkpt lat="47.23516" lon="-1.55012">
        <ele>53.534522</ele>
        <time>2022-12-16T14:08:46.941Z</time>
      </trkpt>
      <trkpt lat="47.23517" lon="-1.54998">
        <ele>53.363691</ele>
        <time>2022-12-16T14:08:48.937Z</time>
      </trkpt>
      <trkpt lat="47.23519" lon="-1.54982">
        <ele>53.153366</ele>
        <time>2022-12-16T14:08:51.943Z</time>
      </trkpt>
      <trkpt lat="47.2352" lon="-1.54966">
        <ele>52.958854</ele>
        <time>2022-12-16T14:08:54.951Z</time>
      </trkpt>
      <trkpt lat="47.23519" lon="-1.54949">
        <ele>52.738278</ele>
        <time>2022-12-16T14:08:58.933Z</time>
      </trkpt>
      <trkpt lat="47.23518" lon="-1.54933">
        <ele>52.536616</ele>
        <time>2022-12-16T14:09:01.944Z</time>
      </trkpt>
      <trkpt lat="47.2352" lon="-1.54917">
        <ele>52.342978</ele>
        <time>2022-12-16T14:09:04.935Z</time>
      </trkpt>
      <trkpt lat="47.23521" lon="-1.54904">
        <ele>52.172697</ele>
        <time>2022-12-16T14:09:07.933Z</time>
      </trkpt>
      <trkpt lat="47.23523" lon="-1.54891">
        <ele>52.006471</ele>
        <time>2022-12-16T14:09:10.931Z</time>
      </trkpt>
      <trkpt lat="47.23523" lon="-1.54877">
        <ele>51.85835</ele>
        <time>2022-12-16T14:09:13.953Z</time>
      </trkpt>
      <trkpt lat="47.23524" lon="-1.54862">
        <ele>51.843524</ele>
        <time>2022-12-16T14:09:16.938Z</time>
      </trkpt>
      <trkpt lat="47.23526" lon="-1.54845">
        <ele>51.826916</ele>
        <time>2022-12-16T14:09:19.954Z</time>
      </trkpt>
      <trkpt lat="47.23529" lon="-1.54829">
        <ele>51.810011</ele>
        <time>2022-12-16T14:09:22.933Z</time>
      </trkpt>
      <trkpt lat="47.23531" lon="-1.54811">
        <ele>51.793138</ele>
        <time>2022-12-16T14:09:25.954Z</time>
      </trkpt>
      <trkpt lat="47.23533" lon="-1.54795">
        <ele>51.777105</ele>
        <time>2022-12-16T14:09:28.939Z</time>
      </trkpt>
      <trkpt lat="47.23535" lon="-1.5478">
        <ele>51.762226</ele>
        <time>2022-12-16T14:09:31.944Z</time>
      </trkpt>
      <trkpt lat="47.23537" lon="-1.54765">
        <ele>51.746818</ele>
        <time>2022-12-16T14:09:34.951Z</time>
      </trkpt>
      <trkpt lat="47.23537" lon="-1.54749">
        <ele>51.731303</ele>
        <time>2022-12-16T14:09:37.935Z</time>
      </trkpt>
      <trkpt lat="47.23534" lon="-1.54733">
        <ele>51.714793</ele>
        <time>2022-12-16T14:09:41.936Z</time>
      </trkpt>
      <trkpt lat="47.23524" lon="-1.54734">
        <ele>51.700276</ele>
        <time>2022-12-16T14:09:44.936Z</time>
      </trkpt>
      <trkpt lat="47.23512" lon="-1.54742">
        <ele>51.681435</ele>
        <time>2022-12-16T14:09:47.937Z</time>
      </trkpt>
      <trkpt lat="47.23502" lon="-1.54753">
        <ele>51.663408</ele>
        <time>2022-12-16T14:09:50.932Z</time>
      </trkpt>
      <trkpt lat="47.23491" lon="-1.5476">
        <ele>51.646501</ele>
        <time>2022-12-16T14:09:53.931Z</time>
      </trkpt>
      <trkpt lat="47.23481" lon="-1.54763">
        <ele>51.631303</ele>
        <time>2022-12-16T14:09:58.942Z</time>
      </trkpt>
      <trkpt lat="47.2349" lon="-1.54757">
        <ele>51.616347</ele>
        <time>2022-12-16T14:10:09.934Z</time>
      </trkpt>
      <trkpt lat="47.23499" lon="-1.54749">
        <ele>51.60285</ele>
        <time>2022-12-16T14:10:13.938Z</time>
      </trkpt>
      <trkpt lat="47.23508" lon="-1.54741">
        <ele>51.625904</ele>
        <time>2022-12-16T14:10:17.935Z</time>
      </trkpt>
      <trkpt lat="47.23516" lon="-1.54733">
        <ele>51.645024</ele>
        <time>2022-12-16T14:10:20.932Z</time>
      </trkpt>
      <trkpt lat="47.23524" lon="-1.54726">
        <ele>51.665661</ele>
        <time>2022-12-16T14:10:23.933Z</time>
      </trkpt>
      <trkpt lat="47.23532" lon="-1.54719">
        <ele>51.685462</ele>
        <time>2022-12-16T14:10:27.954Z</time>
      </trkpt>
      <trkpt lat="47.23535" lon="-1.54706">
        <ele>51.705042</ele>
        <time>2022-12-16T14:10:31.936Z</time>
      </trkpt>
      <trkpt lat="47.23534" lon="-1.5469">
        <ele>51.727572</ele>
        <time>2022-12-16T14:10:35.945Z</time>
      </trkpt>
      <trkpt lat="47.23534" lon="-1.54677">
        <ele>51.746691</ele>
        <time>2022-12-16T14:10:38.935Z</time>
      </trkpt>
      <trkpt lat="47.23533" lon="-1.54662">
        <ele>51.766837</ele>
        <time>2022-12-16T14:10:41.943Z</time>
      </trkpt>
      <trkpt lat="47.23534" lon="-1.54648">
        <ele>51.787658</ele>
        <time>2022-12-16T14:10:44.936Z</time>
      </trkpt>
      <trkpt lat="47.23533" lon="-1.54632">
        <ele>51.809719</ele>
        <time>2022-12-16T14:10:48.939Z</time>
      </trkpt>
      <trkpt lat="47.23531" lon="-1.54619">
        <ele>51.82874</ele>
        <time>2022-12-16T14:10:51.934Z</time>
      </trkpt>
      <trkpt lat="47.23528" lon="-1.54604">
        <ele>51.850843</ele>
        <time>2022-12-16T14:10:55.935Z</time>
      </trkpt>
      <trkpt lat="47.23527" lon="-1.54588">
        <ele>51.874188</ele>
        <time>2022-12-16T14:11:00.934Z</time>
      </trkpt>
      <trkpt lat="47.23524" lon="-1.54571">
        <ele>51.899088</ele>
        <time>2022-12-16T14:11:04.955Z</time>
      </trkpt>
      <trkpt lat="47.23522" lon="-1.54556">
        <ele>51.921759</ele>
        <time>2022-12-16T14:11:08.955Z</time>
      </trkpt>
      <trkpt lat="47.2352" lon="-1.5454">
        <ele>51.944802</ele>
        <time>2022-12-16T14:11:12.943Z</time>
      </trkpt>
      <trkpt lat="47.23517" lon="-1.54523">
        <ele>51.968779</ele>
        <time>2022-12-16T14:11:16.936Z</time>
      </trkpt>
      <trkpt lat="47.23516" lon="-1.54507">
        <ele>52.362029</ele>
        <time>2022-12-16T14:11:20.935Z</time>
      </trkpt>
      <trkpt lat="47.23514" lon="-1.54492">
        <ele>53.070351</ele>
        <time>2022-12-16T14:11:23.954Z</time>
      </trkpt>
      <trkpt lat="47.23512" lon="-1.54476">
        <ele>53.814952</ele>
        <time>2022-12-16T14:11:27.931Z</time>
      </trkpt>
      <trkpt lat="47.2351" lon="-1.54461">
        <ele>54.473095</ele>
        <time>2022-12-16T14:11:31.953Z</time>
      </trkpt>
      <trkpt lat="47.23508" lon="-1.54446">
        <ele>55.187336</ele>
        <time>2022-12-16T14:11:35.950Z</time>
      </trkpt>
      <trkpt lat="47.23505" lon="-1.54432">
        <ele>55.887295</ele>
        <time>2022-12-16T14:11:39.950Z</time>
      </trkpt>
      <trkpt lat="47.23502" lon="-1.54418">
        <ele>56.531333</ele>
        <time>2022-12-16T14:11:43.948Z</time>
      </trkpt>
      <trkpt lat="47.23501" lon="-1.54405">
        <ele>57.149779</ele>
        <time>2022-12-16T14:11:47.933Z</time>
      </trkpt>
      <trkpt lat="47.235" lon="-1.54391">
        <ele>57.794599</ele>
        <time>2022-12-16T14:11:52.956Z</time>
      </trkpt>
      <trkpt lat="47.23498" lon="-1.54376">
        <ele>58.465262</ele>
        <time>2022-12-16T14:11:57.938Z</time>
      </trkpt>
      <trkpt lat="47.23495" lon="-1.54362">
        <ele>59.111353</ele>
        <time>2022-12-16T14:12:02.932Z</time>
      </trkpt>
      <trkpt lat="47.23493" lon="-1.54348">
        <ele>59.766511</ele>
        <time>2022-12-16T14:12:07.938Z</time>
      </trkpt>
      <trkpt lat="47.23492" lon="-1.54334">
        <ele>60.412861</ele>
        <time>2022-12-16T14:12:12.935Z</time>
      </trkpt>
      <trkpt lat="47.23489" lon="-1.54318">
        <ele>61.155386</ele>
        <time>2022-12-16T14:12:17.957Z</time>
      </trkpt>
      <trkpt lat="47.23487" lon="-1.54303">
        <ele>61.877036</ele>
        <time>2022-12-16T14:12:22.939Z</time>
      </trkpt>
      <trkpt lat="47.23485" lon="-1.54289">
        <ele>62.505525</ele>
        <time>2022-12-16T14:12:27.935Z</time>
      </trkpt>
      <trkpt lat="47.23483" lon="-1.54275">
        <ele>63.161312</ele>
        <time>2022-12-16T14:12:32.947Z</time>
      </trkpt>
      <trkpt lat="47.23481" lon="-1.54261">
        <ele>63.837475</ele>
        <time>2022-12-16T14:12:37.939Z</time>
      </trkpt>
      <trkpt lat="47.23477" lon="-1.54248">
        <ele>64.216862</ele>
        <time>2022-12-16T14:12:42.940Z</time>
      </trkpt>
      <trkpt lat="47.23475" lon="-1.54233">
        <ele>64.500436</ele>
        <time>2022-12-16T14:12:47.947Z</time>
      </trkpt>
      <trkpt lat="47.23473" lon="-1.54218">
        <ele>64.787719</ele>
        <time>2022-12-16T14:12:52.932Z</time>
      </trkpt>
      <trkpt lat="47.23473" lon="-1.54203">
        <ele>65.083116</ele>
        <time>2022-12-16T14:12:57.945Z</time>
      </trkpt>
      <trkpt lat="47.23472" lon="-1.54189">
        <ele>65.356153</ele>
        <time>2022-12-16T14:13:02.949Z</time>
      </trkpt>
      <trkpt lat="47.2347" lon="-1.54173">
        <ele>65.657058</ele>
        <time>2022-12-16T14:13:08.935Z</time>
      </trkpt>
      <trkpt lat="47.23469" lon="-1.54158">
        <ele>65.951421</ele>
        <time>2022-12-16T14:13:13.949Z</time>
      </trkpt>
      <trkpt lat="47.23468" lon="-1.54143">
        <ele>66.242531</ele>
        <time>2022-12-16T14:13:18.937Z</time>
      </trkpt>
      <trkpt lat="47.23461" lon="-1.5413">
        <ele>66.545591</ele>
        <time>2022-12-16T14:13:23.947Z</time>
      </trkpt>
      <trkpt lat="47.23458" lon="-1.54116">
        <ele>66.825362</ele>
        <time>2022-12-16T14:13:27.955Z</time>
      </trkpt>
      <trkpt lat="47.23455" lon="-1.54101">
        <ele>67.123963</ele>
        <time>2022-12-16T14:13:31.947Z</time>
      </trkpt>
      <trkpt lat="47.23453" lon="-1.54086">
        <ele>67.410299</ele>
        <time>2022-12-16T14:13:35.968Z</time>
      </trkpt>
      <trkpt lat="47.23451" lon="-1.54072">
        <ele>67.689625</ele>
        <time>2022-12-16T14:13:39.949Z</time>
      </trkpt>
      <trkpt lat="47.23449" lon="-1.54057">
        <ele>67.968991</ele>
        <time>2022-12-16T14:13:43.941Z</time>
      </trkpt>
      <trkpt lat="47.23447" lon="-1.54043">
        <ele>68.252638</ele>
        <time>2022-12-16T14:13:47.929Z</time>
      </trkpt>
      <trkpt lat="47.23446" lon="-1.54027">
        <ele>68.546776</ele>
        <time>2022-12-16T14:13:51.944Z</time>
      </trkpt>
      <trkpt lat="47.23445" lon="-1.54013">
        <ele>68.823747</ele>
        <time>2022-12-16T14:13:55.941Z</time>
      </trkpt>
      <trkpt lat="47.23444" lon="-1.53998">
        <ele>69.083736</ele>
        <time>2022-12-16T14:13:59.942Z</time>
      </trkpt>
      <trkpt lat="47.23443" lon="-1.53984">
        <ele>69.152559</ele>
        <time>2022-12-16T14:14:03.951Z</time>
      </trkpt>
      <trkpt lat="47.23441" lon="-1.53968">
        <ele>69.231042</ele>
        <time>2022-12-16T14:14:08.941Z</time>
      </trkpt>
      <trkpt lat="47.23439" lon="-1.53953">
        <ele>69.302643</ele>
        <time>2022-12-16T14:14:12.937Z</time>
      </trkpt>
      <trkpt lat="47.23436" lon="-1.53937">
        <ele>69.387357</ele>
        <time>2022-12-16T14:14:16.937Z</time>
      </trkpt>
      <trkpt lat="47.23433" lon="-1.53919">
        <ele>69.471857</ele>
        <time>2022-12-16T14:14:20.930Z</time>
      </trkpt>
      <trkpt lat="47.23431" lon="-1.53905">
        <ele>69.541731</ele>
        <time>2022-12-16T14:14:23.938Z</time>
      </trkpt>
      <trkpt lat="47.23428" lon="-1.53891">
        <ele>69.614024</ele>
        <time>2022-12-16T14:14:26.954Z</time>
      </trkpt>
      <trkpt lat="47.23427" lon="-1.53875">
        <ele>69.691807</ele>
        <time>2022-12-16T14:14:29.931Z</time>
      </trkpt>
      <trkpt lat="47.23426" lon="-1.53859">
        <ele>69.76908</ele>
        <time>2022-12-16T14:14:32.933Z</time>
      </trkpt>
      <trkpt lat="47.23423" lon="-1.53843">
        <ele>69.850452</ele>
        <time>2022-12-16T14:14:36.952Z</time>
      </trkpt>
      <trkpt lat="47.23421" lon="-1.53828">
        <ele>69.924714</ele>
        <time>2022-12-16T14:14:39.957Z</time>
      </trkpt>
      <trkpt lat="47.23419" lon="-1.53813">
        <ele>69.996461</ele>
        <time>2022-12-16T14:14:42.938Z</time>
      </trkpt>
      <trkpt lat="47.23417" lon="-1.53799">
        <ele>70.068684</ele>
        <time>2022-12-16T14:14:45.945Z</time>
      </trkpt>
      <trkpt lat="47.23415" lon="-1.53784">
        <ele>70.14335</ele>
        <time>2022-12-16T14:14:48.931Z</time>
      </trkpt>
      <trkpt lat="47.23413" lon="-1.53766">
        <ele>70.227319</ele>
        <time>2022-12-16T14:14:52.946Z</time>
      </trkpt>
      <trkpt lat="47.23411" lon="-1.53752">
        <ele>70.300556</ele>
        <time>2022-12-16T14:14:55.951Z</time>
      </trkpt>
      <trkpt lat="47.23408" lon="-1.53736">
        <ele>70.369964</ele>
        <time>2022-12-16T14:14:58.944Z</time>
      </trkpt>
      <trkpt lat="47.23403" lon="-1.5372">
        <ele>70.428784</ele>
        <time>2022-12-16T14:15:01.933Z</time>
      </trkpt>
      <trkpt lat="47.23399" lon="-1.53704">
        <ele>70.483795</ele>
        <time>2022-12-16T14:15:04.937Z</time>
      </trkpt>
      <trkpt lat="47.23396" lon="-1.53686">
        <ele>70.545302</ele>
        <time>2022-12-16T14:15:07.945Z</time>
      </trkpt>
      <trkpt lat="47.23394" lon="-1.53668">
        <ele>70.604741</ele>
        <time>2022-12-16T14:15:10.934Z</time>
      </trkpt>
      <trkpt lat="47.23392" lon="-1.53652">
        <ele>70.660672</ele>
        <time>2022-12-16T14:15:13.939Z</time>
      </trkpt>
      <trkpt lat="47.2339" lon="-1.53638">
        <ele>70.707822</ele>
        <time>2022-12-16T14:15:16.956Z</time>
      </trkpt>
      <trkpt lat="47.23387" lon="-1.53623">
        <ele>70.758426</ele>
        <time>2022-12-16T14:15:20.936Z</time>
      </trkpt>
      <trkpt lat="47.23377" lon="-1.53618">
        <ele>70.810355</ele>
        <time>2022-12-16T14:15:24.939Z</time>
      </trkpt>
      <trkpt lat="47.23366" lon="-1.53623">
        <ele>70.86787</ele>
        <time>2022-12-16T14:15:28.939Z</time>
      </trkpt>
      <trkpt lat="47.23357" lon="-1.53629">
        <ele>70.91468</ele>
        <time>2022-12-16T14:15:31.940Z</time>
      </trkpt>
      <trkpt lat="47.23346" lon="-1.53637">
        <ele>70.973518</ele>
        <time>2022-12-16T14:15:34.944Z</time>
      </trkpt>
      <trkpt lat="47.23338" lon="-1.53643">
        <ele>71.017928</ele>
        <time>2022-12-16T14:15:36.974Z</time>
      </trkpt>
      <trkpt lat="47.23328" lon="-1.53655">
        <ele>71.080134</ele>
        <time>2022-12-16T14:15:39.936Z</time>
      </trkpt>
      <trkpt lat="47.23317" lon="-1.53665">
        <ele>71.142629</ele>
        <time>2022-12-16T14:15:42.960Z</time>
      </trkpt>
      <trkpt lat="47.23306" lon="-1.53675">
        <ele>71.202784</ele>
        <time>2022-12-16T14:15:45.956Z</time>
      </trkpt>
      <trkpt lat="47.23296" lon="-1.53685">
        <ele>71.122477</ele>
        <time>2022-12-16T14:15:48.951Z</time>
      </trkpt>
      <trkpt lat="47.23286" lon="-1.53694">
        <ele>70.95089</ele>
        <time>2022-12-16T14:15:51.954Z</time>
      </trkpt>
      <trkpt lat="47.23277" lon="-1.53705">
        <ele>70.783109</ele>
        <time>2022-12-16T14:15:54.935Z</time>
      </trkpt>
      <trkpt lat="47.23267" lon="-1.53713">
        <ele>70.620933</ele>
        <time>2022-12-16T14:15:57.936Z</time>
      </trkpt>
      <trkpt lat="47.23258" lon="-1.53721">
        <ele>70.467401</ele>
        <time>2022-12-16T14:16:00.935Z</time>
      </trkpt>
      <trkpt lat="47.23248" lon="-1.53731">
        <ele>70.2981</ele>
        <time>2022-12-16T14:16:03.955Z</time>
      </trkpt>
      <trkpt lat="47.23239" lon="-1.53741">
        <ele>70.13291</ele>
        <time>2022-12-16T14:16:06.956Z</time>
      </trkpt>
      <trkpt lat="47.23229" lon="-1.53751">
        <ele>69.962976</ele>
        <time>2022-12-16T14:16:09.960Z</time>
      </trkpt>
      <trkpt lat="47.23218" lon="-1.53761">
        <ele>69.768354</ele>
        <time>2022-12-16T14:16:12.958Z</time>
      </trkpt>
      <trkpt lat="47.23209" lon="-1.53769">
        <ele>69.630898</ele>
        <time>2022-12-16T14:16:14.952Z</time>
      </trkpt>
      <trkpt lat="47.23199" lon="-1.53776">
        <ele>69.471188</ele>
        <time>2022-12-16T14:16:16.953Z</time>
      </trkpt>
      <trkpt lat="47.23191" lon="-1.53786">
        <ele>69.32142</ele>
        <time>2022-12-16T14:16:18.953Z</time>
      </trkpt>
      <trkpt lat="47.23184" lon="-1.53794">
        <ele>69.190305</ele>
        <time>2022-12-16T14:16:20.938Z</time>
      </trkpt>
      <trkpt lat="47.23174" lon="-1.53804">
        <ele>69.019822</ele>
        <time>2022-12-16T14:16:23.961Z</time>
      </trkpt>
      <trkpt lat="47.23163" lon="-1.53813">
        <ele>68.837124</ele>
        <time>2022-12-16T14:16:26.955Z</time>
      </trkpt>
      <trkpt lat="47.23153" lon="-1.53823">
        <ele>68.665455</ele>
        <time>2022-12-16T14:16:30.935Z</time>
      </trkpt>
      <trkpt lat="47.23144" lon="-1.53833">
        <ele>68.5566</ele>
        <time>2022-12-16T14:16:35.942Z</time>
      </trkpt>
      <trkpt lat="47.23137" lon="-1.53842">
        <ele>68.467831</ele>
        <time>2022-12-16T14:16:38.956Z</time>
      </trkpt>
      <trkpt lat="47.23127" lon="-1.53851">
        <ele>68.362705</ele>
        <time>2022-12-16T14:16:41.937Z</time>
      </trkpt>
      <trkpt lat="47.23119" lon="-1.53859">
        <ele>68.272136</ele>
        <time>2022-12-16T14:16:43.942Z</time>
      </trkpt>
      <trkpt lat="47.23111" lon="-1.53867">
        <ele>68.183362</ele>
        <time>2022-12-16T14:16:45.956Z</time>
      </trkpt>
      <trkpt lat="47.23103" lon="-1.53875">
        <ele>68.094669</ele>
        <time>2022-12-16T14:16:47.947Z</time>
      </trkpt>
      <trkpt lat="47.23094" lon="-1.53884">
        <ele>68.002177</ele>
        <time>2022-12-16T14:16:49.957Z</time>
      </trkpt>
      <trkpt lat="47.23087" lon="-1.53891">
        <ele>67.920057</ele>
        <time>2022-12-16T14:16:51.956Z</time>
      </trkpt>
      <trkpt lat="47.23079" lon="-1.53901">
        <ele>67.826568</ele>
        <time>2022-12-16T14:16:53.940Z</time>
      </trkpt>
      <trkpt lat="47.23071" lon="-1.53908">
        <ele>67.742636</ele>
        <time>2022-12-16T14:16:55.943Z</time>
      </trkpt>
      <trkpt lat="47.23063" lon="-1.53917">
        <ele>67.651715</ele>
        <time>2022-12-16T14:16:57.941Z</time>
      </trkpt>
      <trkpt lat="47.23054" lon="-1.53925">
        <ele>67.55383</ele>
        <time>2022-12-16T14:16:59.951Z</time>
      </trkpt>
      <trkpt lat="47.23045" lon="-1.53932">
        <ele>67.46505</ele>
        <time>2022-12-16T14:17:01.938Z</time>
      </trkpt>
      <trkpt lat="47.23037" lon="-1.5394">
        <ele>67.377781</ele>
        <time>2022-12-16T14:17:03.951Z</time>
      </trkpt>
      <trkpt lat="47.23029" lon="-1.53949">
        <ele>67.284526</ele>
        <time>2022-12-16T14:17:05.940Z</time>
      </trkpt>
      <trkpt lat="47.23021" lon="-1.53956">
        <ele>67.196851</ele>
        <time>2022-12-16T14:17:07.948Z</time>
      </trkpt>
      <trkpt lat="47.23014" lon="-1.53965">
        <ele>67.112904</ele>
        <time>2022-12-16T14:17:09.957Z</time>
      </trkpt>
      <trkpt lat="47.23006" lon="-1.53973">
        <ele>67.022748</ele>
        <time>2022-12-16T14:17:11.932Z</time>
      </trkpt>
      <trkpt lat="47.22997" lon="-1.53981">
        <ele>66.957279</ele>
        <time>2022-12-16T14:17:13.943Z</time>
      </trkpt>
      <trkpt lat="47.2299" lon="-1.53989">
        <ele>66.899567</ele>
        <time>2022-12-16T14:17:15.944Z</time>
      </trkpt>
      <trkpt lat="47.22982" lon="-1.53997">
        <ele>66.838812</ele>
        <time>2022-12-16T14:17:17.938Z</time>
      </trkpt>
      <trkpt lat="47.22972" lon="-1.54008">
        <ele>66.75865</ele>
        <time>2022-12-16T14:17:20.935Z</time>
      </trkpt>
      <trkpt lat="47.22961" lon="-1.54019">
        <ele>66.675143</ele>
        <time>2022-12-16T14:17:23.960Z</time>
      </trkpt>
      <trkpt lat="47.22951" lon="-1.54028">
        <ele>66.59831</ele>
        <time>2022-12-16T14:17:26.954Z</time>
      </trkpt>
      <trkpt lat="47.22941" lon="-1.54038">
        <ele>66.519891</ele>
        <time>2022-12-16T14:17:29.962Z</time>
      </trkpt>
      <trkpt lat="47.2293" lon="-1.54048">
        <ele>66.441069</ele>
        <time>2022-12-16T14:17:32.959Z</time>
      </trkpt>
      <trkpt lat="47.22921" lon="-1.54058">
        <ele>66.371372</ele>
        <time>2022-12-16T14:17:35.931Z</time>
      </trkpt>
      <trkpt lat="47.22912" lon="-1.54066">
        <ele>66.302813</ele>
        <time>2022-12-16T14:17:38.957Z</time>
      </trkpt>
      <trkpt lat="47.22904" lon="-1.54076">
        <ele>66.234892</ele>
        <time>2022-12-16T14:17:41.944Z</time>
      </trkpt>
      <trkpt lat="47.22894" lon="-1.54086">
        <ele>66.160849</ele>
        <time>2022-12-16T14:17:44.950Z</time>
      </trkpt>
      <trkpt lat="47.22884" lon="-1.54097">
        <ele>66.083495</ele>
        <time>2022-12-16T14:17:47.956Z</time>
      </trkpt>
      <trkpt lat="47.22874" lon="-1.54107">
        <ele>66.005621</ele>
        <time>2022-12-16T14:17:50.943Z</time>
      </trkpt>
      <trkpt lat="47.22864" lon="-1.54117">
        <ele>65.926392</ele>
        <time>2022-12-16T14:17:53.954Z</time>
      </trkpt>
      <trkpt lat="47.22854" lon="-1.54127">
        <ele>65.907808</ele>
        <time>2022-12-16T14:17:56.939Z</time>
      </trkpt>
      <trkpt lat="47.22845" lon="-1.54135">
        <ele>66.060306</ele>
        <time>2022-12-16T14:17:59.936Z</time>
      </trkpt>
      <trkpt lat="47.22836" lon="-1.54144">
        <ele>66.220453</ele>
        <time>2022-12-16T14:18:03.958Z</time>
      </trkpt>
      <trkpt lat="47.22827" lon="-1.54152">
        <ele>66.368552</ele>
        <time>2022-12-16T14:18:06.953Z</time>
      </trkpt>
      <trkpt lat="47.22817" lon="-1.5416">
        <ele>66.527823</ele>
        <time>2022-12-16T14:18:09.944Z</time>
      </trkpt>
      <trkpt lat="47.22808" lon="-1.54171">
        <ele>66.695356</ele>
        <time>2022-12-16T14:18:12.932Z</time>
      </trkpt>
      <trkpt lat="47.228" lon="-1.54179">
        <ele>66.844364</ele>
        <time>2022-12-16T14:18:15.952Z</time>
      </trkpt>
      <trkpt lat="47.22791" lon="-1.54188">
        <ele>67.001707</ele>
        <time>2022-12-16T14:18:18.941Z</time>
      </trkpt>
      <trkpt lat="47.22782" lon="-1.54196">
        <ele>67.144405</ele>
        <time>2022-12-16T14:18:21.955Z</time>
      </trkpt>
      <trkpt lat="47.22773" lon="-1.54205">
        <ele>67.306724</ele>
        <time>2022-12-16T14:18:25.942Z</time>
      </trkpt>
      <trkpt lat="47.22763" lon="-1.54215">
        <ele>67.476577</ele>
        <time>2022-12-16T14:18:29.952Z</time>
      </trkpt>
      <trkpt lat="47.22754" lon="-1.54225">
        <ele>67.646935</ele>
        <time>2022-12-16T14:18:32.953Z</time>
      </trkpt>
      <trkpt lat="47.22744" lon="-1.54237">
        <ele>67.827854</ele>
        <time>2022-12-16T14:18:35.951Z</time>
      </trkpt>
      <trkpt lat="47.22733" lon="-1.54247">
        <ele>68.016256</ele>
        <time>2022-12-16T14:18:38.935Z</time>
      </trkpt>
      <trkpt lat="47.22725" lon="-1.54258">
        <ele>68.182027</ele>
        <time>2022-12-16T14:18:41.944Z</time>
      </trkpt>
      <trkpt lat="47.22716" lon="-1.54267">
        <ele>68.329191</ele>
        <time>2022-12-16T14:18:44.951Z</time>
      </trkpt>
      <trkpt lat="47.22706" lon="-1.54272">
        <ele>68.4792</ele>
        <time>2022-12-16T14:18:47.932Z</time>
      </trkpt>
      <trkpt lat="47.22696" lon="-1.54278">
        <ele>68.645925</ele>
        <time>2022-12-16T14:18:50.933Z</time>
      </trkpt>
      <trkpt lat="47.22686" lon="-1.54285">
        <ele>68.815337</ele>
        <time>2022-12-16T14:18:53.955Z</time>
      </trkpt>
      <trkpt lat="47.22674" lon="-1.54293">
        <ele>69.002296</ele>
        <time>2022-12-16T14:18:56.942Z</time>
      </trkpt>
      <trkpt lat="47.22665" lon="-1.54298">
        <ele>69.140936</ele>
        <time>2022-12-16T14:18:58.936Z</time>
      </trkpt>
      <trkpt lat="47.22657" lon="-1.54304">
        <ele>69.282156</ele>
        <time>2022-12-16T14:19:00.934Z</time>
      </trkpt>
      <trkpt lat="47.22645" lon="-1.54314">
        <ele>69.482623</ele>
        <time>2022-12-16T14:19:03.954Z</time>
      </trkpt>
      <trkpt lat="47.22637" lon="-1.54322">
        <ele>69.619603</ele>
        <time>2022-12-16T14:19:05.948Z</time>
      </trkpt>
      <trkpt lat="47.22629" lon="-1.54328">
        <ele>69.754663</ele>
        <time>2022-12-16T14:19:07.954Z</time>
      </trkpt>
      <trkpt lat="47.22618" lon="-1.54338">
        <ele>69.944737</ele>
        <time>2022-12-16T14:19:10.934Z</time>
      </trkpt>
      <trkpt lat="47.2261" lon="-1.54346">
        <ele>70.090449</ele>
        <time>2022-12-16T14:19:12.942Z</time>
      </trkpt>
      <trkpt lat="47.22601" lon="-1.54354">
        <ele>70.245771</ele>
        <time>2022-12-16T14:19:14.956Z</time>
      </trkpt>
      <trkpt lat="47.2259" lon="-1.54358">
        <ele>70.407003</ele>
        <time>2022-12-16T14:19:16.954Z</time>
      </trkpt>
      <trkpt lat="47.22578" lon="-1.54366">
        <ele>70.605254</ele>
        <time>2022-12-16T14:19:19.955Z</time>
      </trkpt>
      <trkpt lat="47.22569" lon="-1.54372">
        <ele>70.743315</ele>
        <time>2022-12-16T14:19:21.941Z</time>
      </trkpt>
      <trkpt lat="47.22561" lon="-1.54378">
        <ele>70.881096</ele>
        <time>2022-12-16T14:19:23.950Z</time>
      </trkpt>
      <trkpt lat="47.2255" lon="-1.54386">
        <ele>71.062431</ele>
        <time>2022-12-16T14:19:26.935Z</time>
      </trkpt>
      <trkpt lat="47.22539" lon="-1.54394">
        <ele>71.088099</ele>
        <time>2022-12-16T14:19:29.937Z</time>
      </trkpt>
      <trkpt lat="47.22529" lon="-1.54403">
        <ele>71.048886</ele>
        <time>2022-12-16T14:19:32.933Z</time>
      </trkpt>
      <trkpt lat="47.22521" lon="-1.54413">
        <ele>71.010502</ele>
        <time>2022-12-16T14:19:35.958Z</time>
      </trkpt>
      <trkpt lat="47.22511" lon="-1.54422">
        <ele>70.971096</ele>
        <time>2022-12-16T14:19:38.952Z</time>
      </trkpt>
      <trkpt lat="47.22501" lon="-1.54431">
        <ele>70.930997</ele>
        <time>2022-12-16T14:19:41.946Z</time>
      </trkpt>
      <trkpt lat="47.2249" lon="-1.5444">
        <ele>70.886428</ele>
        <time>2022-12-16T14:19:44.955Z</time>
      </trkpt>
      <trkpt lat="47.22482" lon="-1.54447">
        <ele>70.853004</ele>
        <time>2022-12-16T14:19:46.942Z</time>
      </trkpt>
      <trkpt lat="47.22473" lon="-1.54453">
        <ele>70.820573</ele>
        <time>2022-12-16T14:19:48.951Z</time>
      </trkpt>
      <trkpt lat="47.22461" lon="-1.54462">
        <ele>70.774051</ele>
        <time>2022-12-16T14:19:51.944Z</time>
      </trkpt>
      <trkpt lat="47.22453" lon="-1.54471">
        <ele>70.737376</ele>
        <time>2022-12-16T14:19:53.938Z</time>
      </trkpt>
      <trkpt lat="47.22444" lon="-1.54479">
        <ele>70.703827</ele>
        <time>2022-12-16T14:19:55.945Z</time>
      </trkpt>
      <trkpt lat="47.22434" lon="-1.54487">
        <ele>70.661551</ele>
        <time>2022-12-16T14:19:58.947Z</time>
      </trkpt>
      <trkpt lat="47.22424" lon="-1.54495">
        <ele>70.623421</ele>
        <time>2022-12-16T14:20:01.946Z</time>
      </trkpt>
      <trkpt lat="47.22415" lon="-1.545">
        <ele>70.590927</ele>
        <time>2022-12-16T14:20:04.943Z</time>
      </trkpt>
      <trkpt lat="47.22406" lon="-1.54503">
        <ele>70.556946</ele>
        <time>2022-12-16T14:20:08.954Z</time>
      </trkpt>
      <trkpt lat="47.22397" lon="-1.54508">
        <ele>70.525016</ele>
        <time>2022-12-16T14:20:11.953Z</time>
      </trkpt>
      <trkpt lat="47.22388" lon="-1.54516">
        <ele>70.490211</ele>
        <time>2022-12-16T14:20:14.952Z</time>
      </trkpt>
      <trkpt lat="47.22379" lon="-1.54524">
        <ele>70.46521</ele>
        <time>2022-12-16T14:20:17.956Z</time>
      </trkpt>
      <trkpt lat="47.22369" lon="-1.54532">
        <ele>70.438528</ele>
        <time>2022-12-16T14:20:20.938Z</time>
      </trkpt>
      <trkpt lat="47.22359" lon="-1.5454">
        <ele>70.410311</ele>
        <time>2022-12-16T14:20:23.934Z</time>
      </trkpt>
      <trkpt lat="47.22348" lon="-1.54547">
        <ele>70.382543</ele>
        <time>2022-12-16T14:20:26.953Z</time>
      </trkpt>
      <trkpt lat="47.22338" lon="-1.54554">
        <ele>70.355717</ele>
        <time>2022-12-16T14:20:29.942Z</time>
      </trkpt>
      <trkpt lat="47.22329" lon="-1.54562">
        <ele>70.330122</ele>
        <time>2022-12-16T14:20:32.954Z</time>
      </trkpt>
      <trkpt lat="47.2232" lon="-1.5457">
        <ele>70.305315</ele>
        <time>2022-12-16T14:20:35.934Z</time>
      </trkpt>
      <trkpt lat="47.2231" lon="-1.54576">
        <ele>70.278755</ele>
        <time>2022-12-16T14:20:38.939Z</time>
      </trkpt>
      <trkpt lat="47.22299" lon="-1.54584">
        <ele>70.24967</ele>
        <time>2022-12-16T14:20:41.964Z</time>
      </trkpt>
      <trkpt lat="47.22288" lon="-1.54592">
        <ele>70.220687</ele>
        <time>2022-12-16T14:20:44.951Z</time>
      </trkpt>
      <trkpt lat="47.22278" lon="-1.54599">
        <ele>70.192999</ele>
        <time>2022-12-16T14:20:47.941Z</time>
      </trkpt>
      <trkpt lat="47.2227" lon="-1.54607">
        <ele>70.169886</ele>
        <time>2022-12-16T14:20:50.935Z</time>
      </trkpt>
      <trkpt lat="47.22262" lon="-1.54616">
        <ele>70.144772</ele>
        <time>2022-12-16T14:20:53.934Z</time>
      </trkpt>
      <trkpt lat="47.22253" lon="-1.54627">
        <ele>70.117395</ele>
        <time>2022-12-16T14:20:56.943Z</time>
      </trkpt>
      <trkpt lat="47.22245" lon="-1.54641">
        <ele>70.087687</ele>
        <time>2022-12-16T14:20:59.946Z</time>
      </trkpt>
      <trkpt lat="47.22237" lon="-1.54656">
        <ele>69.951788</ele>
        <time>2022-12-16T14:21:02.943Z</time>
      </trkpt>
      <trkpt lat="47.22229" lon="-1.54669">
        <ele>69.401809</ele>
        <time>2022-12-16T14:21:05.944Z</time>
      </trkpt>
      <trkpt lat="47.22221" lon="-1.54682">
        <ele>68.860325</ele>
        <time>2022-12-16T14:21:08.951Z</time>
      </trkpt>
      <trkpt lat="47.22211" lon="-1.54694">
        <ele>68.279717</ele>
        <time>2022-12-16T14:21:11.953Z</time>
      </trkpt>
      <trkpt lat="47.22202" lon="-1.54706">
        <ele>67.722769</ele>
        <time>2022-12-16T14:21:14.959Z</time>
      </trkpt>
      <trkpt lat="47.22192" lon="-1.54715">
        <ele>67.180864</ele>
        <time>2022-12-16T14:21:17.945Z</time>
      </trkpt>
      <trkpt lat="47.22183" lon="-1.54724">
        <ele>66.70004</ele>
        <time>2022-12-16T14:21:20.936Z</time>
      </trkpt>
      <trkpt lat="47.22177" lon="-1.54733">
        <ele>66.278293</ele>
        <time>2022-12-16T14:21:24.954Z</time>
      </trkpt>
      <trkpt lat="47.22169" lon="-1.54747">
        <ele>65.728416</ele>
        <time>2022-12-16T14:21:28.945Z</time>
      </trkpt>
      <trkpt lat="47.2216" lon="-1.54756">
        <ele>65.251222</ele>
        <time>2022-12-16T14:21:31.951Z</time>
      </trkpt>
      <trkpt lat="47.22151" lon="-1.54755">
        <ele>64.808094</ele>
        <time>2022-12-16T14:21:34.937Z</time>
      </trkpt>
      <trkpt lat="47.22143" lon="-1.5474">
        <ele>64.21598</ele>
        <time>2022-12-16T14:21:38.940Z</time>
      </trkpt>
      <trkpt lat="47.22137" lon="-1.54728">
        <ele>63.775118</ele>
        <time>2022-12-16T14:21:40.940Z</time>
      </trkpt>
      <trkpt lat="47.22131" lon="-1.54717">
        <ele>63.331776</ele>
        <time>2022-12-16T14:21:42.950Z</time>
      </trkpt>
      <trkpt lat="47.22126" lon="-1.54705">
        <ele>62.893805</ele>
        <time>2022-12-16T14:21:44.958Z</time>
      </trkpt>
      <trkpt lat="47.2212" lon="-1.54695">
        <ele>62.480594</ele>
        <time>2022-12-16T14:21:46.941Z</time>
      </trkpt>
      <trkpt lat="47.22112" lon="-1.54679">
        <ele>61.875579</ele>
        <time>2022-12-16T14:21:49.954Z</time>
      </trkpt>
      <trkpt lat="47.22106" lon="-1.54669">
        <ele>61.731381</ele>
        <time>2022-12-16T14:21:51.939Z</time>
      </trkpt>
      <trkpt lat="47.22099" lon="-1.54655">
        <ele>61.549148</ele>
        <time>2022-12-16T14:21:54.952Z</time>
      </trkpt>
      <trkpt lat="47.22093" lon="-1.54642">
        <ele>61.390138</ele>
        <time>2022-12-16T14:21:57.955Z</time>
      </trkpt>
      <trkpt lat="47.22088" lon="-1.54629">
        <ele>61.233477</ele>
        <time>2022-12-16T14:22:00.934Z</time>
      </trkpt>
      <trkpt lat="47.22082" lon="-1.54615">
        <ele>61.061742</ele>
        <time>2022-12-16T14:22:03.952Z</time>
      </trkpt>
      <trkpt lat="47.22075" lon="-1.546">
        <ele>60.87466</ele>
        <time>2022-12-16T14:22:06.950Z</time>
      </trkpt>
      <trkpt lat="47.22067" lon="-1.54588">
        <ele>60.69685</ele>
        <time>2022-12-16T14:22:09.942Z</time>
      </trkpt>
      <trkpt lat="47.2206" lon="-1.54575">
        <ele>60.525252</ele>
        <time>2022-12-16T14:22:12.955Z</time>
      </trkpt>
      <trkpt lat="47.22053" lon="-1.54563">
        <ele>60.370378</ele>
        <time>2022-12-16T14:22:15.947Z</time>
      </trkpt>
      <trkpt lat="47.22047" lon="-1.54552">
        <ele>60.225951</ele>
        <time>2022-12-16T14:22:18.966Z</time>
      </trkpt>
      <trkpt lat="47.2204" lon="-1.5454">
        <ele>60.065965</ele>
        <time>2022-12-16T14:22:21.935Z</time>
      </trkpt>
      <trkpt lat="47.22033" lon="-1.54531">
        <ele>59.918731</ele>
        <time>2022-12-16T14:22:24.938Z</time>
      </trkpt>
      <trkpt lat="47.22024" lon="-1.5452">
        <ele>59.737384</ele>
        <time>2022-12-16T14:22:28.954Z</time>
      </trkpt>
      <trkpt lat="47.22016" lon="-1.54512">
        <ele>59.597796</ele>
        <time>2022-12-16T14:22:31.947Z</time>
      </trkpt>
      <trkpt lat="47.22008" lon="-1.54505">
        <ele>59.455607</ele>
        <time>2022-12-16T14:22:34.960Z</time>
      </trkpt>
      <trkpt lat="47.22001" lon="-1.54496">
        <ele>59.308626</ele>
        <time>2022-12-16T14:22:37.944Z</time>
      </trkpt>
      <trkpt lat="47.21992" lon="-1.54487">
        <ele>59.148855</ele>
        <time>2022-12-16T14:22:40.938Z</time>
      </trkpt>
      <trkpt lat="47.21983" lon="-1.54477">
        <ele>58.766366</ele>
        <time>2022-12-16T14:22:43.934Z</time>
      </trkpt>
      <trkpt lat="47.21972" lon="-1.54466">
        <ele>58.334305</ele>
        <time>2022-12-16T14:22:46.929Z</time>
      </trkpt>
      <trkpt lat="47.21961" lon="-1.54457">
        <ele>57.890237</ele>
        <time>2022-12-16T14:22:49.951Z</time>
      </trkpt>
      <trkpt lat="47.21949" lon="-1.54449">
        <ele>57.438317</ele>
        <time>2022-12-16T14:22:52.936Z</time>
      </trkpt>
      <trkpt lat="47.2194" lon="-1.54442">
        <ele>57.108334</ele>
        <time>2022-12-16T14:22:54.938Z</time>
      </trkpt>
      <trkpt lat="47.21928" lon="-1.54433">
        <ele>56.647159</ele>
        <time>2022-12-16T14:22:57.937Z</time>
      </trkpt>
      <trkpt lat="47.2192" lon="-1.54426">
        <ele>56.304641</ele>
        <time>2022-12-16T14:22:59.936Z</time>
      </trkpt>
      <trkpt lat="47.2191" lon="-1.54418">
        <ele>55.933932</ele>
        <time>2022-12-16T14:23:01.936Z</time>
      </trkpt>
      <trkpt lat="47.21902" lon="-1.54411">
        <ele>55.583917</ele>
        <time>2022-12-16T14:23:03.954Z</time>
      </trkpt>
      <trkpt lat="47.21893" lon="-1.54404">
        <ele>55.238381</ele>
        <time>2022-12-16T14:23:05.948Z</time>
      </trkpt>
      <trkpt lat="47.21881" lon="-1.54393">
        <ele>54.76916</ele>
        <time>2022-12-16T14:23:08.958Z</time>
      </trkpt>
      <trkpt lat="47.21873" lon="-1.54386">
        <ele>54.452211</ele>
        <time>2022-12-16T14:23:10.937Z</time>
      </trkpt>
      <trkpt lat="47.21862" lon="-1.54376">
        <ele>54.007795</ele>
        <time>2022-12-16T14:23:13.939Z</time>
      </trkpt>
      <trkpt lat="47.2185" lon="-1.54367">
        <ele>53.546125</ele>
        <time>2022-12-16T14:23:16.957Z</time>
      </trkpt>
      <trkpt lat="47.21842" lon="-1.54359">
        <ele>53.227957</ele>
        <time>2022-12-16T14:23:18.956Z</time>
      </trkpt>
      <trkpt lat="47.21832" lon="-1.5435">
        <ele>52.932141</ele>
        <time>2022-12-16T14:23:21.945Z</time>
      </trkpt>
      <trkpt lat="47.21823" lon="-1.54344">
        <ele>52.853625</ele>
        <time>2022-12-16T14:23:25.937Z</time>
      </trkpt>
      <trkpt lat="47.21814" lon="-1.54337">
        <ele>52.773556</ele>
        <time>2022-12-16T14:23:30.937Z</time>
      </trkpt>
      <trkpt lat="47.21811" lon="-1.54324">
        <ele>52.69955</ele>
        <time>2022-12-16T14:23:45.941Z</time>
      </trkpt>
      <trkpt lat="47.21804" lon="-1.54311">
        <ele>52.607739</ele>
        <time>2022-12-16T14:23:50.932Z</time>
      </trkpt>
      <trkpt lat="47.21795" lon="-1.54307">
        <ele>52.5272</ele>
        <time>2022-12-16T14:23:54.942Z</time>
      </trkpt>
      <trkpt lat="47.21786" lon="-1.54315">
        <ele>52.447353</ele>
        <time>2022-12-16T14:23:59.939Z</time>
      </trkpt>
      <trkpt lat="47.21768" lon="-1.54312">
        <ele>52.298941</ele>
        <time>2022-12-16T14:24:46.943Z</time>
      </trkpt>
      <trkpt lat="47.21763" lon="-1.54325">
        <ele>52.209555</ele>
        <time>2022-12-16T14:24:50.937Z</time>
      </trkpt>
      <trkpt lat="47.21759" lon="-1.54341">
        <ele>52.120467</ele>
        <time>2022-12-16T14:24:54.941Z</time>
      </trkpt>
      <trkpt lat="47.21755" lon="-1.54352">
        <ele>52.047016</ele>
        <time>2022-12-16T14:24:57.954Z</time>
      </trkpt>
      <trkpt lat="47.2175" lon="-1.54365">
        <ele>51.964287</ele>
        <time>2022-12-16T14:25:00.935Z</time>
      </trkpt>
      <trkpt lat="47.21746" lon="-1.54381">
        <ele>51.873029</ele>
        <time>2022-12-16T14:25:03.942Z</time>
      </trkpt>
      <trkpt lat="47.2174" lon="-1.54396">
        <ele>51.776714</ele>
        <time>2022-12-16T14:25:06.944Z</time>
      </trkpt>
      <trkpt lat="47.21735" lon="-1.54411">
        <ele>51.686946</ele>
        <time>2022-12-16T14:25:09.953Z</time>
      </trkpt>
      <trkpt lat="47.21731" lon="-1.54425">
        <ele>51.599524</ele>
        <time>2022-12-16T14:25:12.954Z</time>
      </trkpt>
      <trkpt lat="47.21725" lon="-1.54439">
        <ele>51.50994</ele>
        <time>2022-12-16T14:25:15.956Z</time>
      </trkpt>
      <trkpt lat="47.2172" lon="-1.54453">
        <ele>51.430119</ele>
        <time>2022-12-16T14:25:19.956Z</time>
      </trkpt>
      <trkpt lat="47.21715" lon="-1.54466">
        <ele>51.353121</ele>
        <time>2022-12-16T14:25:25.940Z</time>
      </trkpt>
      <trkpt lat="47.21709" lon="-1.54478">
        <ele>51.282196</ele>
        <time>2022-12-16T14:25:29.941Z</time>
      </trkpt>
      <trkpt lat="47.217" lon="-1.54483">
        <ele>51.209635</ele>
        <time>2022-12-16T14:25:34.933Z</time>
      </trkpt>
      <trkpt lat="47.21696" lon="-1.54495">
        <ele>51.142355</ele>
        <time>2022-12-16T14:25:37.943Z</time>
      </trkpt>
      <trkpt lat="47.21691" lon="-1.54508">
        <ele>51.067007</ele>
        <time>2022-12-16T14:25:40.936Z</time>
      </trkpt>
      <trkpt lat="47.21682" lon="-1.5452">
        <ele>50.983348</ele>
        <time>2022-12-16T14:25:43.937Z</time>
      </trkpt>
      <trkpt lat="47.21674" lon="-1.54531">
        <ele>50.904027</ele>
        <time>2022-12-16T14:25:46.941Z</time>
      </trkpt>
      <trkpt lat="47.21667" lon="-1.54541">
        <ele>50.829131</ele>
        <time>2022-12-16T14:25:49.952Z</time>
      </trkpt>
      <trkpt lat="47.21657" lon="-1.54548">
        <ele>50.750621</ele>
        <time>2022-12-16T14:25:53.947Z</time>
      </trkpt>
      <trkpt lat="47.21646" lon="-1.54547">
        <ele>50.66539</ele>
        <time>2022-12-16T14:25:57.939Z</time>
      </trkpt>
      <trkpt lat="47.21635" lon="-1.54548">
        <ele>50.588303</ele>
        <time>2022-12-16T14:26:00.944Z</time>
      </trkpt>
      <trkpt lat="47.21627" lon="-1.54555">
        <ele>50.51747</ele>
        <time>2022-12-16T14:26:03.940Z</time>
      </trkpt>
      <trkpt lat="47.21622" lon="-1.54568">
        <ele>50.444787</ele>
        <time>2022-12-16T14:26:06.943Z</time>
      </trkpt>
      <trkpt lat="47.21618" lon="-1.5458">
        <ele>50.376478</ele>
        <time>2022-12-16T14:26:09.941Z</time>
      </trkpt>
      <trkpt lat="47.21614" lon="-1.54592">
        <ele>50.30774</ele>
        <time>2022-12-16T14:26:12.953Z</time>
      </trkpt>
      <trkpt lat="47.21607" lon="-1.54603">
        <ele>50.234457</ele>
        <time>2022-12-16T14:26:15.941Z</time>
      </trkpt>
      <trkpt lat="47.21599" lon="-1.54614">
        <ele>50.08282</ele>
        <time>2022-12-16T14:26:18.953Z</time>
      </trkpt>
      <trkpt lat="47.21592" lon="-1.54626">
        <ele>49.854036</ele>
        <time>2022-12-16T14:26:21.954Z</time>
      </trkpt>
      <trkpt lat="47.21585" lon="-1.54639">
        <ele>49.607409</ele>
        <time>2022-12-16T14:26:24.956Z</time>
      </trkpt>
      <trkpt lat="47.21578" lon="-1.54653">
        <ele>49.346135</ele>
        <time>2022-12-16T14:26:27.952Z</time>
      </trkpt>
      <trkpt lat="47.21572" lon="-1.54668">
        <ele>49.101665</ele>
        <time>2022-12-16T14:26:30.935Z</time>
      </trkpt>
      <trkpt lat="47.21568" lon="-1.54684">
        <ele>48.842612</ele>
        <time>2022-12-16T14:26:33.933Z</time>
      </trkpt>
      <trkpt lat="47.21562" lon="-1.547">
        <ele>48.571511</ele>
        <time>2022-12-16T14:26:36.960Z</time>
      </trkpt>
      <trkpt lat="47.21554" lon="-1.54714">
        <ele>48.304006</ele>
        <time>2022-12-16T14:26:39.951Z</time>
      </trkpt>
      <trkpt lat="47.21545" lon="-1.54724">
        <ele>48.069646</ele>
        <time>2022-12-16T14:26:42.945Z</time>
      </trkpt>
      <trkpt lat="47.21539" lon="-1.54735">
        <ele>47.861987</ele>
        <time>2022-12-16T14:26:45.939Z</time>
      </trkpt>
      <trkpt lat="47.21534" lon="-1.54746">
        <ele>47.652152</ele>
        <time>2022-12-16T14:26:48.936Z</time>
      </trkpt>
      <trkpt lat="47.21528" lon="-1.54757">
        <ele>47.450757</ele>
        <time>2022-12-16T14:26:51.953Z</time>
      </trkpt>
      <trkpt lat="47.21522" lon="-1.54771">
        <ele>47.207706</ele>
        <time>2022-12-16T14:26:54.935Z</time>
      </trkpt>
      <trkpt lat="47.21516" lon="-1.54786">
        <ele>46.948806</ele>
        <time>2022-12-16T14:26:57.944Z</time>
      </trkpt>
      <trkpt lat="47.21509" lon="-1.54803">
        <ele>46.659697</ele>
        <time>2022-12-16T14:27:00.934Z</time>
      </trkpt>
      <trkpt lat="47.21503" lon="-1.54814">
        <ele>46.450978</ele>
        <time>2022-12-16T14:27:02.958Z</time>
      </trkpt>
      <trkpt lat="47.21498" lon="-1.54825">
        <ele>46.281845</ele>
        <time>2022-12-16T14:27:04.939Z</time>
      </trkpt>
      <trkpt lat="47.2149" lon="-1.5484">
        <ele>46.256157</ele>
        <time>2022-12-16T14:27:07.952Z</time>
      </trkpt>
      <trkpt lat="47.21485" lon="-1.54851">
        <ele>46.23807</ele>
        <time>2022-12-16T14:27:09.947Z</time>
      </trkpt>
      <trkpt lat="47.21477" lon="-1.54866">
        <ele>46.212507</ele>
        <time>2022-12-16T14:27:12.937Z</time>
      </trkpt>
      <trkpt lat="47.21471" lon="-1.54876">
        <ele>46.194107</ele>
        <time>2022-12-16T14:27:14.953Z</time>
      </trkpt>
      <trkpt lat="47.21466" lon="-1.54888">
        <ele>46.175363</ele>
        <time>2022-12-16T14:27:16.947Z</time>
      </trkpt>
      <trkpt lat="47.21459" lon="-1.54903">
        <ele>46.150345</ele>
        <time>2022-12-16T14:27:19.947Z</time>
      </trkpt>
      <trkpt lat="47.21451" lon="-1.54919">
        <ele>46.123647</ele>
        <time>2022-12-16T14:27:22.955Z</time>
      </trkpt>
      <trkpt lat="47.21444" lon="-1.54934">
        <ele>46.098855</ele>
        <time>2022-12-16T14:27:25.935Z</time>
      </trkpt>
      <trkpt lat="47.21437" lon="-1.54948">
        <ele>46.074381</ele>
        <time>2022-12-16T14:27:28.946Z</time>
      </trkpt>
      <trkpt lat="47.2143" lon="-1.54962">
        <ele>46.051565</ele>
        <time>2022-12-16T14:27:31.949Z</time>
      </trkpt>
      <trkpt lat="47.21424" lon="-1.54974">
        <ele>46.031456</ele>
        <time>2022-12-16T14:27:34.948Z</time>
      </trkpt>
      <trkpt lat="47.21418" lon="-1.54988">
        <ele>46.009802</ele>
        <time>2022-12-16T14:27:37.938Z</time>
      </trkpt>
      <trkpt lat="47.21412" lon="-1.55001">
        <ele>45.987136</ele>
        <time>2022-12-16T14:27:40.936Z</time>
      </trkpt>
      <trkpt lat="47.21406" lon="-1.55016">
        <ele>45.9644</ele>
        <time>2022-12-16T14:27:43.954Z</time>
      </trkpt>
      <trkpt lat="47.21401" lon="-1.5503">
        <ele>45.942949</ele>
        <time>2022-12-16T14:27:46.936Z</time>
      </trkpt>
      <trkpt lat="47.21396" lon="-1.55043">
        <ele>45.935945</ele>
        <time>2022-12-16T14:27:49.947Z</time>
      </trkpt>
      <trkpt lat="47.2139" lon="-1.55056">
        <ele>45.995356</ele>
        <time>2022-12-16T14:27:52.937Z</time>
      </trkpt>
      <trkpt lat="47.21383" lon="-1.55071">
        <ele>46.066188</ele>
        <time>2022-12-16T14:27:55.953Z</time>
      </trkpt>
      <trkpt lat="47.21378" lon="-1.55084">
        <ele>46.121125</ele>
        <time>2022-12-16T14:27:57.950Z</time>
      </trkpt>
      <trkpt lat="47.21374" lon="-1.55095">
        <ele>46.17348</ele>
        <time>2022-12-16T14:27:59.956Z</time>
      </trkpt>
      <trkpt lat="47.21369" lon="-1.55108">
        <ele>46.230418</ele>
        <time>2022-12-16T14:28:01.949Z</time>
      </trkpt>
      <trkpt lat="47.21364" lon="-1.55119">
        <ele>46.282747</ele>
        <time>2022-12-16T14:28:03.955Z</time>
      </trkpt>
      <trkpt lat="47.21359" lon="-1.5513">
        <ele>46.334443</ele>
        <time>2022-12-16T14:28:05.958Z</time>
      </trkpt>
      <trkpt lat="47.21354" lon="-1.55143">
        <ele>46.389679</ele>
        <time>2022-12-16T14:28:07.936Z</time>
      </trkpt>
      <trkpt lat="47.21348" lon="-1.55155">
        <ele>46.447761</ele>
        <time>2022-12-16T14:28:09.946Z</time>
      </trkpt>
      <trkpt lat="47.21343" lon="-1.5517">
        <ele>46.514222</ele>
        <time>2022-12-16T14:28:12.953Z</time>
      </trkpt>
      <trkpt lat="47.21337" lon="-1.55184">
        <ele>46.579419</ele>
        <time>2022-12-16T14:28:15.945Z</time>
      </trkpt>
      <trkpt lat="47.21332" lon="-1.55198">
        <ele>46.637428</ele>
        <time>2022-12-16T14:28:18.956Z</time>
      </trkpt>
      <trkpt lat="47.21327" lon="-1.55211">
        <ele>46.69541</ele>
        <time>2022-12-16T14:28:22.946Z</time>
      </trkpt>
      <trkpt lat="47.21335" lon="-1.5522">
        <ele>46.752216</ele>
        <time>2022-12-16T14:29:00.947Z</time>
      </trkpt>
      <trkpt lat="47.21341" lon="-1.55233">
        <ele>46.813278</ele>
        <time>2022-12-16T14:29:13.937Z</time>
      </trkpt>
      <trkpt lat="47.21337" lon="-1.55248">
        <ele>46.873699</ele>
        <time>2022-12-16T14:29:20.940Z</time>
      </trkpt>
      <trkpt lat="47.21337" lon="-1.55262">
        <ele>46.929558</ele>
        <time>2022-12-16T14:29:26.943Z</time>
      </trkpt>
      <trkpt lat="47.21346" lon="-1.55272">
        <ele>47.081465</ele>
        <time>2022-12-16T14:29:31.933Z</time>
      </trkpt>
      <trkpt lat="47.21353" lon="-1.55284">
        <ele>47.260789</ele>
        <time>2022-12-16T14:29:36.941Z</time>
      </trkpt>
      <trkpt lat="47.21346" lon="-1.55294">
        <ele>47.433968</ele>
        <time>2022-12-16T14:29:41.941Z</time>
      </trkpt>
      <trkpt lat="47.21338" lon="-1.55303">
        <ele>47.60238</ele>
        <time>2022-12-16T14:29:45.936Z</time>
      </trkpt>
      <trkpt lat="47.21334" lon="-1.55318">
        <ele>47.800884</ele>
        <time>2022-12-16T14:29:50.948Z</time>
      </trkpt>
      <trkpt lat="47.21329" lon="-1.55333">
        <ele>48.00285</ele>
        <time>2022-12-16T14:29:54.955Z</time>
      </trkpt>
      <trkpt lat="47.21324" lon="-1.55344">
        <ele>48.167278</ele>
        <time>2022-12-16T14:29:57.948Z</time>
      </trkpt>
      <trkpt lat="47.21318" lon="-1.55357">
        <ele>48.348515</ele>
        <time>2022-12-16T14:30:00.935Z</time>
      </trkpt>
      <trkpt lat="47.21312" lon="-1.5537">
        <ele>48.541705</ele>
        <time>2022-12-16T14:30:03.955Z</time>
      </trkpt>
      <trkpt lat="47.21306" lon="-1.55384">
        <ele>48.737931</ele>
        <time>2022-12-16T14:30:06.950Z</time>
      </trkpt>
      <trkpt lat="47.21302" lon="-1.55399">
        <ele>48.925007</ele>
        <time>2022-12-16T14:30:10.947Z</time>
      </trkpt>
      <trkpt lat="47.21297" lon="-1.55412">
        <ele>49.103697</ele>
        <time>2022-12-16T14:30:18.945Z</time>
      </trkpt>
      <trkpt lat="47.21293" lon="-1.55425">
        <ele>49.276039</ele>
        <time>2022-12-16T14:30:24.936Z</time>
      </trkpt>
      <trkpt lat="47.21283" lon="-1.55426">
        <ele>49.447938</ele>
        <time>2022-12-16T14:30:29.943Z</time>
      </trkpt>
      <trkpt lat="47.21276" lon="-1.55418">
        <ele>49.615483</ele>
        <time>2022-12-16T14:30:35.939Z</time>
      </trkpt>
      <trkpt lat="47.21266" lon="-1.55411">
        <ele>49.806407</ele>
        <time>2022-12-16T14:30:43.939Z</time>
      </trkpt>
      <trkpt lat="47.21258" lon="-1.55405">
        <ele>49.966309</ele>
        <time>2022-12-16T14:30:47.941Z</time>
      </trkpt>
      <trkpt lat="47.2125" lon="-1.55396">
        <ele>50.11239</ele>
        <time>2022-12-16T14:30:51.946Z</time>
      </trkpt>
      <trkpt lat="47.21241" lon="-1.55384">
        <ele>50.032802</ele>
        <time>2022-12-16T14:30:55.940Z</time>
      </trkpt>
      <trkpt lat="47.21232" lon="-1.55373">
        <ele>49.950206</ele>
        <time>2022-12-16T14:30:59.955Z</time>
      </trkpt>
      <trkpt lat="47.21225" lon="-1.55364">
        <ele>49.886237</ele>
        <time>2022-12-16T14:31:02.937Z</time>
      </trkpt>
      <trkpt lat="47.21219" lon="-1.55354">
        <ele>49.820121</ele>
        <time>2022-12-16T14:31:05.961Z</time>
      </trkpt>
      <trkpt lat="47.21211" lon="-1.55346">
        <ele>49.756557</ele>
        <time>2022-12-16T14:31:08.944Z</time>
      </trkpt>
      <trkpt lat="47.21204" lon="-1.55338">
        <ele>49.693573</ele>
        <time>2022-12-16T14:31:11.946Z</time>
      </trkpt>
      <trkpt lat="47.21196" lon="-1.5533">
        <ele>49.623271</ele>
        <time>2022-12-16T14:31:14.953Z</time>
      </trkpt>
      <trkpt lat="47.21188" lon="-1.55322">
        <ele>49.559693</ele>
        <time>2022-12-16T14:31:17.946Z</time>
      </trkpt>
      <trkpt lat="47.21181" lon="-1.55314">
        <ele>49.495576</ele>
        <time>2022-12-16T14:31:20.939Z</time>
      </trkpt>
      <trkpt lat="47.21174" lon="-1.55306">
        <ele>49.431745</ele>
        <time>2022-12-16T14:31:23.960Z</time>
      </trkpt>
      <trkpt lat="47.21165" lon="-1.55296">
        <ele>49.354871</ele>
        <time>2022-12-16T14:31:26.934Z</time>
      </trkpt>
      <trkpt lat="47.21156" lon="-1.55285">
        <ele>49.276113</ele>
        <time>2022-12-16T14:31:29.955Z</time>
      </trkpt>
      <trkpt lat="47.21146" lon="-1.55274">
        <ele>49.184161</ele>
        <time>2022-12-16T14:31:32.957Z</time>
      </trkpt>
      <trkpt lat="47.21137" lon="-1.55261">
        <ele>49.095391</ele>
        <time>2022-12-16T14:31:35.935Z</time>
      </trkpt>
      <trkpt lat="47.21128" lon="-1.55251">
        <ele>49.016836</ele>
        <time>2022-12-16T14:31:38.945Z</time>
      </trkpt>
      <trkpt lat="47.21119" lon="-1.5524">
        <ele>48.935512</ele>
        <time>2022-12-16T14:31:41.954Z</time>
      </trkpt>
      <trkpt lat="47.2111" lon="-1.55229">
        <ele>48.861679</ele>
        <time>2022-12-16T14:31:44.952Z</time>
      </trkpt>
      <trkpt lat="47.21101" lon="-1.55218">
        <ele>48.816294</ele>
        <time>2022-12-16T14:31:47.951Z</time>
      </trkpt>
      <trkpt lat="47.21091" lon="-1.55207">
        <ele>48.770206</ele>
        <time>2022-12-16T14:31:50.939Z</time>
      </trkpt>
      <trkpt lat="47.21081" lon="-1.55196">
        <ele>48.724124</ele>
        <time>2022-12-16T14:31:53.955Z</time>
      </trkpt>
      <trkpt lat="47.21072" lon="-1.55185">
        <ele>48.679221</ele>
        <time>2022-12-16T14:31:56.957Z</time>
      </trkpt>
      <trkpt lat="47.21063" lon="-1.55174">
        <ele>48.634736</ele>
        <time>2022-12-16T14:31:59.935Z</time>
      </trkpt>
      <trkpt lat="47.21054" lon="-1.55166">
        <ele>48.598127</ele>
        <time>2022-12-16T14:32:02.952Z</time>
      </trkpt>
      <trkpt lat="47.21046" lon="-1.55157">
        <ele>48.55897</ele>
        <time>2022-12-16T14:32:05.955Z</time>
      </trkpt>
      <trkpt lat="47.21036" lon="-1.55146">
        <ele>48.512882</ele>
        <time>2022-12-16T14:32:08.959Z</time>
      </trkpt>
      <trkpt lat="47.21026" lon="-1.55133">
        <ele>48.462373</ele>
        <time>2022-12-16T14:32:11.965Z</time>
      </trkpt>
      <trkpt lat="47.21015" lon="-1.55122">
        <ele>48.412951</ele>
        <time>2022-12-16T14:32:14.956Z</time>
      </trkpt>
      <trkpt lat="47.21008" lon="-1.55114">
        <ele>48.378886</ele>
        <time>2022-12-16T14:32:16.953Z</time>
      </trkpt>
      <trkpt lat="47.20998" lon="-1.55102">
        <ele>48.331298</ele>
        <time>2022-12-16T14:32:19.956Z</time>
      </trkpt>
      <trkpt lat="47.20988" lon="-1.55091">
        <ele>48.284292</ele>
        <time>2022-12-16T14:32:22.948Z</time>
      </trkpt>
      <trkpt lat="47.20979" lon="-1.55081">
        <ele>48.242276</ele>
        <time>2022-12-16T14:32:25.944Z</time>
      </trkpt>
      <trkpt lat="47.2097" lon="-1.55073">
        <ele>48.202444</ele>
        <time>2022-12-16T14:32:28.942Z</time>
      </trkpt>
      <trkpt lat="47.20961" lon="-1.55065">
        <ele>48.057329</ele>
        <time>2022-12-16T14:32:32.946Z</time>
      </trkpt>
      <trkpt lat="47.20953" lon="-1.55057">
        <ele>47.899565</ele>
        <time>2022-12-16T14:32:36.933Z</time>
      </trkpt>
      <trkpt lat="47.20945" lon="-1.55048">
        <ele>47.737287</ele>
        <time>2022-12-16T14:32:41.957Z</time>
      </trkpt>
      <trkpt lat="47.20937" lon="-1.5504">
        <ele>47.582918</ele>
        <time>2022-12-16T14:32:45.947Z</time>
      </trkpt>
      <trkpt lat="47.2093" lon="-1.55032">
        <ele>47.435096</ele>
        <time>2022-12-16T14:32:48.956Z</time>
      </trkpt>
      <trkpt lat="47.20922" lon="-1.55023">
        <ele>47.279414</ele>
        <time>2022-12-16T14:32:51.955Z</time>
      </trkpt>
      <trkpt lat="47.20914" lon="-1.55015">
        <ele>47.11645</ele>
        <time>2022-12-16T14:32:54.939Z</time>
      </trkpt>
      <trkpt lat="47.20905" lon="-1.55004">
        <ele>46.929001</ele>
        <time>2022-12-16T14:32:58.959Z</time>
      </trkpt>
      <trkpt lat="47.20898" lon="-1.54994">
        <ele>46.765136</ele>
        <time>2022-12-16T14:33:02.946Z</time>
      </trkpt>
      <trkpt lat="47.20887" lon="-1.54994">
        <ele>46.595485</ele>
        <time>2022-12-16T14:33:16.948Z</time>
      </trkpt>
      <trkpt lat="47.20884" lon="-1.55009">
        <ele>46.42692</ele>
        <time>2022-12-16T14:33:21.937Z</time>
      </trkpt>
      <trkpt lat="47.20885" lon="-1.55023">
        <ele>46.269485</ele>
        <time>2022-12-16T14:33:24.947Z</time>
      </trkpt>
      <trkpt lat="47.20882" lon="-1.55036">
        <ele>46.112582</ele>
        <time>2022-12-16T14:33:27.954Z</time>
      </trkpt>
      <trkpt lat="47.20882" lon="-1.55053">
        <ele>45.930661</ele>
        <time>2022-12-16T14:33:30.945Z</time>
      </trkpt>
      <trkpt lat="47.20885" lon="-1.55068">
        <ele>45.759507</ele>
        <time>2022-12-16T14:33:33.946Z</time>
      </trkpt>
      <trkpt lat="47.20887" lon="-1.55081">
        <ele>45.604584</ele>
        <time>2022-12-16T14:33:36.952Z</time>
      </trkpt>
      <trkpt lat="47.20889" lon="-1.55097">
        <ele>45.433781</ele>
        <time>2022-12-16T14:33:39.954Z</time>
      </trkpt>
      <trkpt lat="47.20892" lon="-1.55111">
        <ele>45.263778</ele>
        <time>2022-12-16T14:33:43.949Z</time>
      </trkpt>
      <trkpt lat="47.20894" lon="-1.55127">
        <ele>45.482189</ele>
        <time>2022-12-16T14:33:48.940Z</time>
      </trkpt>
      <trkpt lat="47.20895" lon="-1.55143">
        <ele>45.69903</ele>
        <time>2022-12-16T14:33:53.950Z</time>
      </trkpt>
      <trkpt lat="47.20897" lon="-1.55157">
        <ele>45.897366</ele>
        <time>2022-12-16T14:33:56.942Z</time>
      </trkpt>
      <trkpt lat="47.209" lon="-1.55171">
        <ele>46.10272</ele>
        <time>2022-12-16T14:33:59.938Z</time>
      </trkpt>
      <trkpt lat="47.20902" lon="-1.55189">
        <ele>46.348846</ele>
        <time>2022-12-16T14:34:02.953Z</time>
      </trkpt>
      <trkpt lat="47.20904" lon="-1.55207">
        <ele>46.61009</ele>
        <time>2022-12-16T14:34:05.956Z</time>
      </trkpt>
      <trkpt lat="47.20905" lon="-1.55226">
        <ele>46.875408</ele>
        <time>2022-12-16T14:34:08.951Z</time>
      </trkpt>
      <trkpt lat="47.20906" lon="-1.55245">
        <ele>47.139061</ele>
        <time>2022-12-16T14:34:11.938Z</time>
      </trkpt>
      <trkpt lat="47.20907" lon="-1.55264">
        <ele>47.392519</ele>
        <time>2022-12-16T14:34:14.943Z</time>
      </trkpt>
      <trkpt lat="47.20909" lon="-1.55283">
        <ele>47.661133</ele>
        <time>2022-12-16T14:34:17.952Z</time>
      </trkpt>
      <trkpt lat="47.2091" lon="-1.553">
        <ele>47.903847</ele>
        <time>2022-12-16T14:34:20.935Z</time>
      </trkpt>
      <trkpt lat="47.20912" lon="-1.55316">
        <ele>48.117946</ele>
        <time>2022-12-16T14:34:23.953Z</time>
      </trkpt>
      <trkpt lat="47.20913" lon="-1.55329">
        <ele>48.30626</ele>
        <time>2022-12-16T14:34:26.956Z</time>
      </trkpt>
      <trkpt lat="47.20916" lon="-1.55344">
        <ele>48.517705</ele>
        <time>2022-12-16T14:34:29.956Z</time>
      </trkpt>
      <trkpt lat="47.20918" lon="-1.55359">
        <ele>48.734735</ele>
        <time>2022-12-16T14:34:32.934Z</time>
      </trkpt>
      <trkpt lat="47.2092" lon="-1.55375">
        <ele>48.963006</ele>
        <time>2022-12-16T14:34:35.946Z</time>
      </trkpt>
      <trkpt lat="47.20923" lon="-1.55392">
        <ele>49.236889</ele>
        <time>2022-12-16T14:34:38.941Z</time>
      </trkpt>
      <trkpt lat="47.20923" lon="-1.5541">
        <ele>49.526761</ele>
        <time>2022-12-16T14:34:41.944Z</time>
      </trkpt>
      <trkpt lat="47.20923" lon="-1.55426">
        <ele>49.785266</ele>
        <time>2022-12-16T14:34:44.944Z</time>
      </trkpt>
      <trkpt lat="47.20925" lon="-1.55439">
        <ele>49.996097</ele>
        <time>2022-12-16T14:34:47.950Z</time>
      </trkpt>
      <trkpt lat="47.20927" lon="-1.55453">
        <ele>50.223925</ele>
        <time>2022-12-16T14:34:51.947Z</time>
      </trkpt>
      <trkpt lat="47.20928" lon="-1.55468">
        <ele>50.469777</ele>
        <time>2022-12-16T14:34:54.949Z</time>
      </trkpt>
      <trkpt lat="47.2093" lon="-1.55483">
        <ele>50.712768</ele>
        <time>2022-12-16T14:34:58.941Z</time>
      </trkpt>
      <trkpt lat="47.20932" lon="-1.555">
        <ele>50.978614</ele>
        <time>2022-12-16T14:35:02.944Z</time>
      </trkpt>
      <trkpt lat="47.20933" lon="-1.55514">
        <ele>51.209408</ele>
        <time>2022-12-16T14:35:07.948Z</time>
      </trkpt>
      <trkpt lat="47.20929" lon="-1.55526">
        <ele>51.42125</ele>
        <time>2022-12-16T14:35:13.953Z</time>
      </trkpt>
      <trkpt lat="47.20919" lon="-1.55529">
        <ele>51.645176</ele>
        <time>2022-12-16T14:35:20.945Z</time>
      </trkpt>
      <trkpt lat="47.20911" lon="-1.55537">
        <ele>51.879296</ele>
        <time>2022-12-16T14:35:25.944Z</time>
      </trkpt>
      <trkpt lat="47.20897" lon="-1.55538">
        <ele>52.219344</ele>
        <time>2022-12-16T14:35:51.950Z</time>
      </trkpt>
      <trkpt lat="47.20891" lon="-1.55549">
        <ele>52.447951</ele>
        <time>2022-12-16T14:36:03.948Z</time>
      </trkpt>
      <trkpt lat="47.20882" lon="-1.55551">
        <ele>52.667264</ele>
        <time>2022-12-16T14:36:13.942Z</time>
      </trkpt>
      <trkpt lat="47.20872" lon="-1.55548">
        <ele>52.888159</ele>
        <time>2022-12-16T14:36:24.948Z</time>
      </trkpt>
      <trkpt lat="47.20863" lon="-1.55546">
        <ele>53.120316</ele>
        <time>2022-12-16T14:36:29.936Z</time>
      </trkpt>
      <trkpt lat="47.20851" lon="-1.55542">
        <ele>52.838814</ele>
        <time>2022-12-16T14:36:33.944Z</time>
      </trkpt>
      <trkpt lat="47.2084" lon="-1.55539">
        <ele>52.512998</ele>
        <time>2022-12-16T14:36:37.949Z</time>
      </trkpt>
      <trkpt lat="47.2083" lon="-1.55537">
        <ele>52.248041</ele>
        <time>2022-12-16T14:36:40.938Z</time>
      </trkpt>
      <trkpt lat="47.20821" lon="-1.55535">
        <ele>51.974714</ele>
        <time>2022-12-16T14:36:43.955Z</time>
      </trkpt>
      <trkpt lat="47.2081" lon="-1.55533">
        <ele>51.670146</ele>
        <time>2022-12-16T14:36:46.957Z</time>
      </trkpt>
      <trkpt lat="47.208" lon="-1.5553">
        <ele>51.369985</ele>
        <time>2022-12-16T14:36:49.958Z</time>
      </trkpt>
      <trkpt lat="47.20789" lon="-1.55528">
        <ele>51.062881</ele>
        <time>2022-12-16T14:36:52.939Z</time>
      </trkpt>
      <trkpt lat="47.20777" lon="-1.55526">
        <ele>50.732916</ele>
        <time>2022-12-16T14:36:55.947Z</time>
      </trkpt>
      <trkpt lat="47.20765" lon="-1.55523">
        <ele>50.381444</ele>
        <time>2022-12-16T14:36:58.950Z</time>
      </trkpt>
      <trkpt lat="47.20752" lon="-1.5552">
        <ele>50.02556</ele>
        <time>2022-12-16T14:37:01.950Z</time>
      </trkpt>
      <trkpt lat="47.20743" lon="-1.55518">
        <ele>49.746649</ele>
        <time>2022-12-16T14:37:04.948Z</time>
      </trkpt>
      <trkpt lat="47.20732" lon="-1.55514">
        <ele>49.431249</ele>
        <time>2022-12-16T14:37:07.937Z</time>
      </trkpt>
      <trkpt lat="47.20722" lon="-1.55512">
        <ele>49.152069</ele>
        <time>2022-12-16T14:37:09.947Z</time>
      </trkpt>
      <trkpt lat="47.20713" lon="-1.5551">
        <ele>48.884042</ele>
        <time>2022-12-16T14:37:11.936Z</time>
      </trkpt>
      <trkpt lat="47.20704" lon="-1.55507">
        <ele>48.626196</ele>
        <time>2022-12-16T14:37:13.955Z</time>
      </trkpt>
      <trkpt lat="47.20689" lon="-1.55504">
        <ele>48.19497</ele>
        <time>2022-12-16T14:37:16.944Z</time>
      </trkpt>
      <trkpt lat="47.20679" lon="-1.55502">
        <ele>48.035582</ele>
        <time>2022-12-16T14:37:18.958Z</time>
      </trkpt>
      <trkpt lat="47.2067" lon="-1.55499">
        <ele>47.965713</ele>
        <time>2022-12-16T14:37:21.950Z</time>
      </trkpt>
      <trkpt lat="47.20658" lon="-1.55497">
        <ele>47.879881</ele>
        <time>2022-12-16T14:37:24.937Z</time>
      </trkpt>
      <trkpt lat="47.20646" lon="-1.55495">
        <ele>47.796808</ele>
        <time>2022-12-16T14:37:27.946Z</time>
      </trkpt>
      <trkpt lat="47.20634" lon="-1.55492">
        <ele>47.704893</ele>
        <time>2022-12-16T14:37:30.936Z</time>
      </trkpt>
      <trkpt lat="47.20622" lon="-1.5549">
        <ele>47.617724</ele>
        <time>2022-12-16T14:37:33.954Z</time>
      </trkpt>
      <trkpt lat="47.20611" lon="-1.55487">
        <ele>47.535842</ele>
        <time>2022-12-16T14:37:36.947Z</time>
      </trkpt>
      <trkpt lat="47.20601" lon="-1.55484">
        <ele>47.46488</ele>
        <time>2022-12-16T14:37:39.947Z</time>
      </trkpt>
      <trkpt lat="47.20592" lon="-1.55481">
        <ele>47.396339</ele>
        <time>2022-12-16T14:37:42.940Z</time>
      </trkpt>
      <trkpt lat="47.20582" lon="-1.5548">
        <ele>47.327394</ele>
        <time>2022-12-16T14:37:45.953Z</time>
      </trkpt>
      <trkpt lat="47.20573" lon="-1.55484">
        <ele>47.255811</ele>
        <time>2022-12-16T14:37:48.945Z</time>
      </trkpt>
      <trkpt lat="47.20563" lon="-1.55492">
        <ele>47.174928</ele>
        <time>2022-12-16T14:37:51.941Z</time>
      </trkpt>
      <trkpt lat="47.20554" lon="-1.55499">
        <ele>47.099195</ele>
        <time>2022-12-16T14:37:54.957Z</time>
      </trkpt>
      <trkpt lat="47.20545" lon="-1.5551">
        <ele>47.013108</ele>
        <time>2022-12-16T14:37:58.951Z</time>
      </trkpt>
      <trkpt lat="47.20537" lon="-1.55518">
        <ele>46.946428</ele>
        <time>2022-12-16T14:38:01.956Z</time>
      </trkpt>
      <trkpt lat="47.20531" lon="-1.5553">
        <ele>46.872941</ele>
        <time>2022-12-16T14:38:04.946Z</time>
      </trkpt>
      <trkpt lat="47.20528" lon="-1.55547">
        <ele>46.787657</ele>
        <time>2022-12-16T14:38:07.952Z</time>
      </trkpt>
      <trkpt lat="47.20524" lon="-1.55564">
        <ele>46.886015</ele>
        <time>2022-12-16T14:38:10.935Z</time>
      </trkpt>
      <trkpt lat="47.20521" lon="-1.55581">
        <ele>47.022959</ele>
        <time>2022-12-16T14:38:13.935Z</time>
      </trkpt>
      <trkpt lat="47.20519" lon="-1.556">
        <ele>47.165956</ele>
        <time>2022-12-16T14:38:16.936Z</time>
      </trkpt>
      <trkpt lat="47.20516" lon="-1.55619">
        <ele>47.309284</ele>
        <time>2022-12-16T14:38:19.958Z</time>
      </trkpt>
      <trkpt lat="47.20516" lon="-1.55634">
        <ele>47.418728</ele>
        <time>2022-12-16T14:38:21.983Z</time>
      </trkpt>
      <trkpt lat="47.20514" lon="-1.55652">
        <ele>47.558171</ele>
        <time>2022-12-16T14:38:24.953Z</time>
      </trkpt>
      <trkpt lat="47.20511" lon="-1.55669">
        <ele>47.690695</ele>
        <time>2022-12-16T14:38:27.943Z</time>
      </trkpt>
      <trkpt lat="47.20509" lon="-1.55683">
        <ele>47.796174</ele>
        <time>2022-12-16T14:38:29.954Z</time>
      </trkpt>
      <trkpt lat="47.20507" lon="-1.55696">
        <ele>47.896316</ele>
        <time>2022-12-16T14:38:31.954Z</time>
      </trkpt>
      <trkpt lat="47.20505" lon="-1.5571">
        <ele>47.999616</ele>
        <time>2022-12-16T14:38:33.954Z</time>
      </trkpt>
      <trkpt lat="47.20504" lon="-1.55724">
        <ele>48.111736</ele>
        <time>2022-12-16T14:38:35.940Z</time>
      </trkpt>
      <trkpt lat="47.20503" lon="-1.55738">
        <ele>48.213104</ele>
        <time>2022-12-16T14:38:37.956Z</time>
      </trkpt>
      <trkpt lat="47.20501" lon="-1.55756">
        <ele>48.353488</ele>
        <time>2022-12-16T14:38:40.935Z</time>
      </trkpt>
      <trkpt lat="47.20499" lon="-1.55776">
        <ele>48.501252</ele>
        <time>2022-12-16T14:38:43.947Z</time>
      </trkpt>
      <trkpt lat="47.20497" lon="-1.55795">
        <ele>48.644746</ele>
        <time>2022-12-16T14:38:46.949Z</time>
      </trkpt>
      <trkpt lat="47.20495" lon="-1.55808">
        <ele>48.749095</ele>
        <time>2022-12-16T14:38:48.955Z</time>
      </trkpt>
      <trkpt lat="47.20493" lon="-1.55823">
        <ele>48.878693</ele>
        <time>2022-12-16T14:38:50.935Z</time>
      </trkpt>
      <trkpt lat="47.20492" lon="-1.55838">
        <ele>49.011401</ele>
        <time>2022-12-16T14:38:52.954Z</time>
      </trkpt>
      <trkpt lat="47.20491" lon="-1.55853">
        <ele>49.147735</ele>
        <time>2022-12-16T14:38:54.940Z</time>
      </trkpt>
      <trkpt lat="47.2049" lon="-1.55868">
        <ele>49.282293</ele>
        <time>2022-12-16T14:38:56.938Z</time>
      </trkpt>
      <trkpt lat="47.20489" lon="-1.55881">
        <ele>49.402276</ele>
        <time>2022-12-16T14:38:58.953Z</time>
      </trkpt>
      <trkpt lat="47.20488" lon="-1.55895">
        <ele>49.525154</ele>
        <time>2022-12-16T14:39:00.936Z</time>
      </trkpt>
      <trkpt lat="47.20486" lon="-1.55915">
        <ele>49.702612</ele>
        <time>2022-12-16T14:39:03.947Z</time>
      </trkpt>
      <trkpt lat="47.20486" lon="-1.55929">
        <ele>49.830709</ele>
        <time>2022-12-16T14:39:05.943Z</time>
      </trkpt>
      <trkpt lat="47.20484" lon="-1.55943">
        <ele>49.9558</ele>
        <time>2022-12-16T14:39:07.955Z</time>
      </trkpt>
      <trkpt lat="47.20483" lon="-1.55958">
        <ele>50.090358</ele>
        <time>2022-12-16T14:39:09.955Z</time>
      </trkpt>
      <trkpt lat="47.20481" lon="-1.55972">
        <ele>50.220441</ele>
        <time>2022-12-16T14:39:11.954Z</time>
      </trkpt>
      <trkpt lat="47.20479" lon="-1.55985">
        <ele>50.342052</ele>
        <time>2022-12-16T14:39:13.949Z</time>
      </trkpt>
      <trkpt lat="47.20477" lon="-1.56003">
        <ele>50.501816</ele>
        <time>2022-12-16T14:39:16.957Z</time>
      </trkpt>
      <trkpt lat="47.20476" lon="-1.56023">
        <ele>50.677196</ele>
        <time>2022-12-16T14:39:19.955Z</time>
      </trkpt>
      <trkpt lat="47.20474" lon="-1.56042">
        <ele>50.854141</ele>
        <time>2022-12-16T14:39:22.947Z</time>
      </trkpt>
      <trkpt lat="47.20471" lon="-1.56062">
        <ele>51.036411</ele>
        <time>2022-12-16T14:39:25.944Z</time>
      </trkpt>
      <trkpt lat="47.20469" lon="-1.56075">
        <ele>51.091828</ele>
        <time>2022-12-16T14:39:27.939Z</time>
      </trkpt>
      <trkpt lat="47.20468" lon="-1.56095">
        <ele>50.96272</ele>
        <time>2022-12-16T14:39:30.936Z</time>
      </trkpt>
      <trkpt lat="47.20466" lon="-1.56109">
        <ele>50.877413</ele>
        <time>2022-12-16T14:39:32.936Z</time>
      </trkpt>
      <trkpt lat="47.20463" lon="-1.56128">
        <ele>50.74938</ele>
        <time>2022-12-16T14:39:35.939Z</time>
      </trkpt>
      <trkpt lat="47.20462" lon="-1.56141">
        <ele>50.663591</ele>
        <time>2022-12-16T14:39:37.959Z</time>
      </trkpt>
      <trkpt lat="47.2046" lon="-1.56159">
        <ele>50.545974</ele>
        <time>2022-12-16T14:39:40.936Z</time>
      </trkpt>
      <trkpt lat="47.20459" lon="-1.56176">
        <ele>50.435256</ele>
        <time>2022-12-16T14:39:43.936Z</time>
      </trkpt>
      <trkpt lat="47.20457" lon="-1.56192">
        <ele>50.333014</ele>
        <time>2022-12-16T14:39:46.938Z</time>
      </trkpt>
      <trkpt lat="47.20456" lon="-1.56208">
        <ele>50.233195</ele>
        <time>2022-12-16T14:39:49.938Z</time>
      </trkpt>
      <trkpt lat="47.20456" lon="-1.56226">
        <ele>50.116932</ele>
        <time>2022-12-16T14:39:53.949Z</time>
      </trkpt>
      <trkpt lat="47.20459" lon="-1.56242">
        <ele>50.007949</ele>
        <time>2022-12-16T14:39:57.935Z</time>
      </trkpt>
      <trkpt lat="47.20458" lon="-1.56257">
        <ele>49.915638</ele>
        <time>2022-12-16T14:40:00.945Z</time>
      </trkpt>
      <trkpt lat="47.20454" lon="-1.56273">
        <ele>49.805148</ele>
        <time>2022-12-16T14:40:03.948Z</time>
      </trkpt>
      <trkpt lat="47.20452" lon="-1.5629">
        <ele>49.690188</ele>
        <time>2022-12-16T14:40:06.939Z</time>
      </trkpt>
      <trkpt lat="47.2045" lon="-1.56304">
        <ele>49.598061</ele>
        <time>2022-12-16T14:40:08.939Z</time>
      </trkpt>
      <trkpt lat="47.20447" lon="-1.56319">
        <ele>49.499836</ele>
        <time>2022-12-16T14:40:10.934Z</time>
      </trkpt>
      <trkpt lat="47.20445" lon="-1.56334">
        <ele>49.429047</ele>
        <time>2022-12-16T14:40:12.955Z</time>
      </trkpt>
      <trkpt lat="47.20444" lon="-1.56351">
        <ele>49.484902</ele>
        <time>2022-12-16T14:40:14.938Z</time>
      </trkpt>
      <trkpt lat="47.20442" lon="-1.56368">
        <ele>49.537512</ele>
        <time>2022-12-16T14:40:16.957Z</time>
      </trkpt>
      <trkpt lat="47.20439" lon="-1.56383">
        <ele>49.588635</ele>
        <time>2022-12-16T14:40:18.952Z</time>
      </trkpt>
      <trkpt lat="47.20434" lon="-1.56399">
        <ele>49.64632</ele>
        <time>2022-12-16T14:40:21.944Z</time>
      </trkpt>
      <trkpt lat="47.20431" lon="-1.56416">
        <ele>49.703017</ele>
        <time>2022-12-16T14:40:24.957Z</time>
      </trkpt>
      <trkpt lat="47.20431" lon="-1.5643">
        <ele>49.747633</ele>
        <time>2022-12-16T14:40:26.961Z</time>
      </trkpt>
      <trkpt lat="47.2043" lon="-1.56444">
        <ele>49.791759</ele>
        <time>2022-12-16T14:40:28.942Z</time>
      </trkpt>
      <trkpt lat="47.20428" lon="-1.56458">
        <ele>49.836685</ele>
        <time>2022-12-16T14:40:30.937Z</time>
      </trkpt>
      <trkpt lat="47.20427" lon="-1.56473">
        <ele>49.885791</ele>
        <time>2022-12-16T14:40:32.953Z</time>
      </trkpt>
      <trkpt lat="47.20426" lon="-1.56492">
        <ele>49.946946</ele>
        <time>2022-12-16T14:40:35.956Z</time>
      </trkpt>
      <trkpt lat="47.20425" lon="-1.56506">
        <ele>49.992547</ele>
        <time>2022-12-16T14:40:37.958Z</time>
      </trkpt>
      <trkpt lat="47.20423" lon="-1.56519">
        <ele>50.036678</ele>
        <time>2022-12-16T14:40:39.959Z</time>
      </trkpt>
      <trkpt lat="47.20422" lon="-1.56533">
        <ele>50.08037</ele>
        <time>2022-12-16T14:40:41.947Z</time>
      </trkpt>
      <trkpt lat="47.20421" lon="-1.56551">
        <ele>50.139925</ele>
        <time>2022-12-16T14:40:44.958Z</time>
      </trkpt>
      <trkpt lat="47.2042" lon="-1.56568">
        <ele>50.193405</ele>
        <time>2022-12-16T14:40:47.956Z</time>
      </trkpt>
      <trkpt lat="47.20417" lon="-1.56584">
        <ele>50.246856</ele>
        <time>2022-12-16T14:40:50.939Z</time>
      </trkpt>
      <trkpt lat="47.20414" lon="-1.56603">
        <ele>50.378393</ele>
        <time>2022-12-16T14:40:53.956Z</time>
      </trkpt>
      <trkpt lat="47.20412" lon="-1.56622">
        <ele>50.544288</ele>
        <time>2022-12-16T14:40:56.957Z</time>
      </trkpt>
      <trkpt lat="47.20409" lon="-1.5664">
        <ele>50.70641</ele>
        <time>2022-12-16T14:40:59.941Z</time>
      </trkpt>
      <trkpt lat="47.20408" lon="-1.56661">
        <ele>50.892445</ele>
        <time>2022-12-16T14:41:02.953Z</time>
      </trkpt>
      <trkpt lat="47.20408" lon="-1.56675">
        <ele>51.014513</ele>
        <time>2022-12-16T14:41:04.948Z</time>
      </trkpt>
      <trkpt lat="47.20408" lon="-1.56694">
        <ele>51.176699</ele>
        <time>2022-12-16T14:41:08.942Z</time>
      </trkpt>
      <trkpt lat="47.20406" lon="-1.56712">
        <ele>51.334037</ele>
        <time>2022-12-16T14:41:11.938Z</time>
      </trkpt>
      <trkpt lat="47.20405" lon="-1.56725">
        <ele>51.449682</ele>
        <time>2022-12-16T14:41:13.954Z</time>
      </trkpt>
      <trkpt lat="47.20402" lon="-1.56744">
        <ele>51.622434</ele>
        <time>2022-12-16T14:41:16.933Z</time>
      </trkpt>
      <trkpt lat="47.20397" lon="-1.5676">
        <ele>51.772796</ele>
        <time>2022-12-16T14:41:19.961Z</time>
      </trkpt>
      <trkpt lat="47.20391" lon="-1.56772">
        <ele>51.904794</ele>
        <time>2022-12-16T14:41:22.941Z</time>
      </trkpt>
      <trkpt lat="47.20389" lon="-1.56792">
        <ele>52.081837</ele>
        <time>2022-12-16T14:41:25.946Z</time>
      </trkpt>
      <trkpt lat="47.20388" lon="-1.56811">
        <ele>52.246838</ele>
        <time>2022-12-16T14:41:28.943Z</time>
      </trkpt>
      <trkpt lat="47.20385" lon="-1.56828">
        <ele>52.400792</ele>
        <time>2022-12-16T14:41:31.939Z</time>
      </trkpt>
      <trkpt lat="47.20383" lon="-1.56844">
        <ele>52.537715</ele>
        <time>2022-12-16T14:41:34.959Z</time>
      </trkpt>
      <trkpt lat="47.20382" lon="-1.56857">
        <ele>52.449401</ele>
        <time>2022-12-16T14:41:36.949Z</time>
      </trkpt>
      <trkpt lat="47.20383" lon="-1.56876">
        <ele>52.168723</ele>
        <time>2022-12-16T14:41:38.950Z</time>
      </trkpt>
      <trkpt lat="47.2038" lon="-1.56893">
        <ele>51.913585</ele>
        <time>2022-12-16T14:41:40.935Z</time>
      </trkpt>
      <trkpt lat="47.20378" lon="-1.56906">
        <ele>51.713539</ele>
        <time>2022-12-16T14:41:42.944Z</time>
      </trkpt>
      <trkpt lat="47.20379" lon="-1.56922">
        <ele>51.479414</ele>
        <time>2022-12-16T14:41:44.948Z</time>
      </trkpt>
      <trkpt lat="47.20377" lon="-1.5694">
        <ele>51.205657</ele>
        <time>2022-12-16T14:41:47.942Z</time>
      </trkpt>
      <trkpt lat="47.20376" lon="-1.56959">
        <ele>50.93142</ele>
        <time>2022-12-16T14:41:50.938Z</time>
      </trkpt>
      <trkpt lat="47.20375" lon="-1.56976">
        <ele>50.683531</ele>
        <time>2022-12-16T14:41:53.956Z</time>
      </trkpt>
      <trkpt lat="47.20373" lon="-1.56994">
        <ele>50.408747</ele>
        <time>2022-12-16T14:41:56.941Z</time>
      </trkpt>
      <trkpt lat="47.20372" lon="-1.57008">
        <ele>50.204689</ele>
        <time>2022-12-16T14:41:58.955Z</time>
      </trkpt>
      <trkpt lat="47.20369" lon="-1.57027">
        <ele>49.919005</ele>
        <time>2022-12-16T14:42:01.947Z</time>
      </trkpt>
      <trkpt lat="47.20365" lon="-1.57044">
        <ele>49.649662</ele>
        <time>2022-12-16T14:42:04.944Z</time>
      </trkpt>
      <trkpt lat="47.20361" lon="-1.57056">
        <ele>49.449662</ele>
        <time>2022-12-16T14:42:06.949Z</time>
      </trkpt>
      <trkpt lat="47.20356" lon="-1.57067">
        <ele>49.253383</ele>
        <time>2022-12-16T14:42:08.955Z</time>
      </trkpt>
      <trkpt lat="47.20349" lon="-1.57082">
        <ele>48.994032</ele>
        <time>2022-12-16T14:42:11.955Z</time>
      </trkpt>
      <trkpt lat="47.20341" lon="-1.57096">
        <ele>48.710037</ele>
        <time>2022-12-16T14:42:14.939Z</time>
      </trkpt>
      <trkpt lat="47.2033" lon="-1.57107">
        <ele>48.639555</ele>
        <time>2022-12-16T14:42:17.936Z</time>
      </trkpt>
      <trkpt lat="47.20322" lon="-1.57114">
        <ele>48.603812</ele>
        <time>2022-12-16T14:42:19.940Z</time>
      </trkpt>
      <trkpt lat="47.20312" lon="-1.57124">
        <ele>48.560688</ele>
        <time>2022-12-16T14:42:21.937Z</time>
      </trkpt>
      <trkpt lat="47.20303" lon="-1.57131">
        <ele>48.520674</ele>
        <time>2022-12-16T14:42:23.952Z</time>
      </trkpt>
      <trkpt lat="47.20293" lon="-1.57137">
        <ele>48.48198</ele>
        <time>2022-12-16T14:42:25.936Z</time>
      </trkpt>
      <trkpt lat="47.20285" lon="-1.57143">
        <ele>48.447979</ele>
        <time>2022-12-16T14:42:27.947Z</time>
      </trkpt>
      <trkpt lat="47.20275" lon="-1.57148">
        <ele>48.412288</ele>
        <time>2022-12-16T14:42:29.955Z</time>
      </trkpt>
      <trkpt lat="47.20267" lon="-1.57154">
        <ele>48.377457</ele>
        <time>2022-12-16T14:42:31.956Z</time>
      </trkpt>
      <trkpt lat="47.20258" lon="-1.5716">
        <ele>48.340861</ele>
        <time>2022-12-16T14:42:33.957Z</time>
      </trkpt>
      <trkpt lat="47.20248" lon="-1.57166">
        <ele>48.301521</ele>
        <time>2022-12-16T14:42:35.955Z</time>
      </trkpt>
      <trkpt lat="47.20238" lon="-1.57171">
        <ele>48.262779</ele>
        <time>2022-12-16T14:42:37.963Z</time>
      </trkpt>
      <trkpt lat="47.2023" lon="-1.57178">
        <ele>48.226821</ele>
        <time>2022-12-16T14:42:39.965Z</time>
      </trkpt>
      <trkpt lat="47.2022" lon="-1.57183">
        <ele>48.188881</ele>
        <time>2022-12-16T14:42:41.950Z</time>
      </trkpt>
      <trkpt lat="47.20211" lon="-1.57188">
        <ele>48.153764</ele>
        <time>2022-12-16T14:42:43.952Z</time>
      </trkpt>
      <trkpt lat="47.20202" lon="-1.57193">
        <ele>48.120061</ele>
        <time>2022-12-16T14:42:45.954Z</time>
      </trkpt>
      <trkpt lat="47.20194" lon="-1.57199">
        <ele>48.086523</ele>
        <time>2022-12-16T14:42:47.956Z</time>
      </trkpt>
      <trkpt lat="47.20185" lon="-1.57206">
        <ele>48.049597</ele>
        <time>2022-12-16T14:42:49.956Z</time>
      </trkpt>
      <trkpt lat="47.20177" lon="-1.57212">
        <ele>48.026289</ele>
        <time>2022-12-16T14:42:51.947Z</time>
      </trkpt>
      <trkpt lat="47.20167" lon="-1.57218">
        <ele>48.095951</ele>
        <time>2022-12-16T14:42:53.946Z</time>
      </trkpt>
      <trkpt lat="47.20158" lon="-1.57225">
        <ele>48.161836</ele>
        <time>2022-12-16T14:42:55.957Z</time>
      </trkpt>
      <trkpt lat="47.20149" lon="-1.57231">
        <ele>48.224954</ele>
        <time>2022-12-16T14:42:57.959Z</time>
      </trkpt>
      <trkpt lat="47.20141" lon="-1.57237">
        <ele>48.286497</ele>
        <time>2022-12-16T14:42:59.941Z</time>
      </trkpt>
      <trkpt lat="47.20132" lon="-1.57242">
        <ele>48.347929</ele>
        <time>2022-12-16T14:43:01.957Z</time>
      </trkpt>
      <trkpt lat="47.20123" lon="-1.57248">
        <ele>48.411957</ele>
        <time>2022-12-16T14:43:03.960Z</time>
      </trkpt>
      <trkpt lat="47.20112" lon="-1.57255">
        <ele>48.492611</ele>
        <time>2022-12-16T14:43:06.959Z</time>
      </trkpt>
      <trkpt lat="47.201" lon="-1.57263">
        <ele>48.578929</ele>
        <time>2022-12-16T14:43:09.946Z</time>
      </trkpt>
      <trkpt lat="47.20092" lon="-1.57269">
        <ele>48.638512</ele>
        <time>2022-12-16T14:43:11.956Z</time>
      </trkpt>
      <trkpt lat="47.20083" lon="-1.57274">
        <ele>48.699101</ele>
        <time>2022-12-16T14:43:13.946Z</time>
      </trkpt>
      <trkpt lat="47.20075" lon="-1.57282">
        <ele>48.763251</ele>
        <time>2022-12-16T14:43:15.956Z</time>
      </trkpt>
      <trkpt lat="47.20067" lon="-1.5729">
        <ele>48.82716</ele>
        <time>2022-12-16T14:43:17.936Z</time>
      </trkpt>
      <trkpt lat="47.20059" lon="-1.57297">
        <ele>48.887339</ele>
        <time>2022-12-16T14:43:19.940Z</time>
      </trkpt>
      <trkpt lat="47.20047" lon="-1.57305">
        <ele>48.97594</ele>
        <time>2022-12-16T14:43:22.935Z</time>
      </trkpt>
      <trkpt lat="47.20036" lon="-1.57313">
        <ele>49.05757</ele>
        <time>2022-12-16T14:43:25.956Z</time>
      </trkpt>
      <trkpt lat="47.20025" lon="-1.5732">
        <ele>49.131112</ele>
        <time>2022-12-16T14:43:28.962Z</time>
      </trkpt>
      <trkpt lat="47.20015" lon="-1.57326">
        <ele>49.200711</ele>
        <time>2022-12-16T14:43:32.955Z</time>
      </trkpt>
      <trkpt lat="47.20005" lon="-1.57333">
        <ele>49.216725</ele>
        <time>2022-12-16T14:43:36.940Z</time>
      </trkpt>
      <trkpt lat="47.19995" lon="-1.57334">
        <ele>49.232007</ele>
        <time>2022-12-16T14:43:40.940Z</time>
      </trkpt>
      <trkpt lat="47.19985" lon="-1.57328">
        <ele>49.247016</ele>
        <time>2022-12-16T14:43:44.953Z</time>
      </trkpt>
      <trkpt lat="47.19982" lon="-1.57316">
        <ele>49.26051</ele>
        <time>2022-12-16T14:43:48.938Z</time>
      </trkpt>
      <trkpt lat="47.1998" lon="-1.57299">
        <ele>49.277531</ele>
        <time>2022-12-16T14:43:52.956Z</time>
      </trkpt>
      <trkpt lat="47.19979" lon="-1.57285">
        <ele>49.291566</ele>
        <time>2022-12-16T14:43:55.951Z</time>
      </trkpt>
      <trkpt lat="47.19979" lon="-1.5727">
        <ele>49.306498</ele>
        <time>2022-12-16T14:43:58.957Z</time>
      </trkpt>
      <trkpt lat="47.19979" lon="-1.57254">
        <ele>49.322032</ele>
        <time>2022-12-16T14:44:01.954Z</time>
      </trkpt>
      <trkpt lat="47.19979" lon="-1.57238">
        <ele>49.337857</ele>
        <time>2022-12-16T14:44:04.959Z</time>
      </trkpt>
      <trkpt lat="47.19979" lon="-1.57221">
        <ele>49.354585</ele>
        <time>2022-12-16T14:44:07.957Z</time>
      </trkpt>
      <trkpt lat="47.19979" lon="-1.57205">
        <ele>49.371309</ele>
        <time>2022-12-16T14:44:10.938Z</time>
      </trkpt>
      <trkpt lat="47.19979" lon="-1.57187">
        <ele>49.388434</ele>
        <time>2022-12-16T14:44:13.950Z</time>
      </trkpt>
      <trkpt lat="47.19979" lon="-1.57172">
        <ele>49.404262</ele>
        <time>2022-12-16T14:44:16.950Z</time>
      </trkpt>
      <trkpt lat="47.19979" lon="-1.57157">
        <ele>49.419</ele>
        <time>2022-12-16T14:44:19.954Z</time>
      </trkpt>
      <trkpt lat="47.19976" lon="-1.5714">
        <ele>49.435665</ele>
        <time>2022-12-16T14:44:22.938Z</time>
      </trkpt>
      <trkpt lat="47.19973" lon="-1.57123">
        <ele>49.453549</ele>
        <time>2022-12-16T14:44:25.949Z</time>
      </trkpt>
      <trkpt lat="47.19969" lon="-1.57106">
        <ele>49.412076</ele>
        <time>2022-12-16T14:44:28.958Z</time>
      </trkpt>
      <trkpt lat="47.19965" lon="-1.57088">
        <ele>49.293489</ele>
        <time>2022-12-16T14:44:31.950Z</time>
      </trkpt>
      <trkpt lat="47.19961" lon="-1.57071">
        <ele>49.177523</ele>
        <time>2022-12-16T14:44:34.945Z</time>
      </trkpt>
      <trkpt lat="47.19956" lon="-1.57054">
        <ele>49.058483</ele>
        <time>2022-12-16T14:44:37.940Z</time>
      </trkpt>
      <trkpt lat="47.19952" lon="-1.57035">
        <ele>48.938102</ele>
        <time>2022-12-16T14:44:40.937Z</time>
      </trkpt>
      <trkpt lat="47.19951" lon="-1.57017">
        <ele>48.821496</ele>
        <time>2022-12-16T14:44:43.941Z</time>
      </trkpt>
      <trkpt lat="47.19951" lon="-1.56998">
        <ele>48.705006</ele>
        <time>2022-12-16T14:44:46.944Z</time>
      </trkpt>
      <trkpt lat="47.19951" lon="-1.56979">
        <ele>48.587901</ele>
        <time>2022-12-16T14:44:49.939Z</time>
      </trkpt>
      <trkpt lat="47.19951" lon="-1.5696">
        <ele>48.46828</ele>
        <time>2022-12-16T14:44:52.937Z</time>
      </trkpt>
      <trkpt lat="47.19951" lon="-1.56942">
        <ele>48.356754</ele>
        <time>2022-12-16T14:44:55.954Z</time>
      </trkpt>
      <trkpt lat="47.19951" lon="-1.56926">
        <ele>48.254644</ele>
        <time>2022-12-16T14:44:58.958Z</time>
      </trkpt>
      <trkpt lat="47.19951" lon="-1.56911">
        <ele>48.162587</ele>
        <time>2022-12-16T14:45:01.959Z</time>
      </trkpt>
      <trkpt lat="47.19951" lon="-1.56895">
        <ele>48.057993</ele>
        <time>2022-12-16T14:45:05.947Z</time>
      </trkpt>
      <trkpt lat="47.19952" lon="-1.56879">
        <ele>47.962165</ele>
        <time>2022-12-16T14:45:09.958Z</time>
      </trkpt>
      <trkpt lat="47.19952" lon="-1.56861">
        <ele>47.847535</ele>
        <time>2022-12-16T14:45:13.939Z</time>
      </trkpt>
      <trkpt lat="47.19952" lon="-1.56845">
        <ele>47.808481</ele>
        <time>2022-12-16T14:45:16.940Z</time>
      </trkpt>
      <trkpt lat="47.19952" lon="-1.56828">
        <ele>47.814366</ele>
        <time>2022-12-16T14:45:19.955Z</time>
      </trkpt>
      <trkpt lat="47.19952" lon="-1.5681">
        <ele>47.820522</ele>
        <time>2022-12-16T14:45:22.937Z</time>
      </trkpt>
      <trkpt lat="47.19952" lon="-1.56792">
        <ele>47.826718</ele>
        <time>2022-12-16T14:45:25.955Z</time>
      </trkpt>
      <trkpt lat="47.19952" lon="-1.56774">
        <ele>47.832908</ele>
        <time>2022-12-16T14:45:28.955Z</time>
      </trkpt>
      <trkpt lat="47.19952" lon="-1.56757">
        <ele>47.839029</ele>
        <time>2022-12-16T14:45:31.956Z</time>
      </trkpt>
      <trkpt lat="47.19952" lon="-1.56738">
        <ele>47.845322</ele>
        <time>2022-12-16T14:45:34.942Z</time>
      </trkpt>
      <trkpt lat="47.19952" lon="-1.56721">
        <ele>47.85127</ele>
        <time>2022-12-16T14:45:37.959Z</time>
      </trkpt>
      <trkpt lat="47.19952" lon="-1.56706">
        <ele>47.856566</ele>
        <time>2022-12-16T14:45:40.939Z</time>
      </trkpt>
      <trkpt lat="47.19951" lon="-1.56689">
        <ele>47.862208</ele>
        <time>2022-12-16T14:45:44.955Z</time>
      </trkpt>
      <trkpt lat="47.19952" lon="-1.56674">
        <ele>47.867519</ele>
        <time>2022-12-16T14:45:48.953Z</time>
      </trkpt>
      <trkpt lat="47.19953" lon="-1.56659">
        <ele>47.872511</ele>
        <time>2022-12-16T14:45:51.959Z</time>
      </trkpt>
      <trkpt lat="47.19952" lon="-1.56644">
        <ele>47.877773</ele>
        <time>2022-12-16T14:45:54.939Z</time>
      </trkpt>
      <trkpt lat="47.19952" lon="-1.56629">
        <ele>47.882966</ele>
        <time>2022-12-16T14:45:57.947Z</time>
      </trkpt>
      <trkpt lat="47.19953" lon="-1.56614">
        <ele>47.888193</ele>
        <time>2022-12-16T14:46:00.937Z</time>
      </trkpt>
      <trkpt lat="47.19953" lon="-1.56598">
        <ele>47.893729</ele>
        <time>2022-12-16T14:46:03.940Z</time>
      </trkpt>
      <trkpt lat="47.19953" lon="-1.56582">
        <ele>47.902477</ele>
        <time>2022-12-16T14:46:06.947Z</time>
      </trkpt>
      <trkpt lat="47.19953" lon="-1.56566">
        <ele>47.91438</ele>
        <time>2022-12-16T14:46:09.948Z</time>
      </trkpt>
      <trkpt lat="47.19953" lon="-1.5655">
        <ele>47.926663</ele>
        <time>2022-12-16T14:46:12.939Z</time>
      </trkpt>
      <trkpt lat="47.19953" lon="-1.56533">
        <ele>47.939175</ele>
        <time>2022-12-16T14:46:15.954Z</time>
      </trkpt>
      <trkpt lat="47.19954" lon="-1.56516">
        <ele>47.952233</ele>
        <time>2022-12-16T14:46:18.937Z</time>
      </trkpt>
      <trkpt lat="47.19955" lon="-1.56499">
        <ele>47.965256</ele>
        <time>2022-12-16T14:46:21.958Z</time>
      </trkpt>
      <trkpt lat="47.19955" lon="-1.56484">
        <ele>47.976856</ele>
        <time>2022-12-16T14:46:24.939Z</time>
      </trkpt>
      <trkpt lat="47.19956" lon="-1.56469">
        <ele>47.988145</ele>
        <time>2022-12-16T14:46:27.953Z</time>
      </trkpt>
      <trkpt lat="47.19959" lon="-1.56453">
        <ele>48.000423</ele>
        <time>2022-12-16T14:46:30.945Z</time>
      </trkpt>
      <trkpt lat="47.19963" lon="-1.56438">
        <ele>48.012813</ele>
        <time>2022-12-16T14:46:33.955Z</time>
      </trkpt>
      <trkpt lat="47.19966" lon="-1.56423">
        <ele>48.024623</ele>
        <time>2022-12-16T14:46:36.956Z</time>
      </trkpt>
      <trkpt lat="47.1997" lon="-1.56408">
        <ele>48.036756</ele>
        <time>2022-12-16T14:46:39.942Z</time>
      </trkpt>
      <trkpt lat="47.19971" lon="-1.56392">
        <ele>48.048902</ele>
        <time>2022-12-16T14:46:42.939Z</time>
      </trkpt>
      <trkpt lat="47.19972" lon="-1.56377">
        <ele>48.060773</ele>
        <time>2022-12-16T14:46:45.954Z</time>
      </trkpt>
      <trkpt lat="47.19973" lon="-1.56363">
        <ele>48.071553</ele>
        <time>2022-12-16T14:46:48.946Z</time>
      </trkpt>
      <trkpt lat="47.19974" lon="-1.56347">
        <ele>48.083381</ele>
        <time>2022-12-16T14:46:52.948Z</time>
      </trkpt>
      <trkpt lat="47.19975" lon="-1.56331">
        <ele>48.095373</ele>
        <time>2022-12-16T14:46:56.942Z</time>
      </trkpt>
      <trkpt lat="47.19976" lon="-1.56318">
        <ele>48.267899</ele>
        <time>2022-12-16T14:46:59.957Z</time>
      </trkpt>
      <trkpt lat="47.19977" lon="-1.56304">
        <ele>48.489458</ele>
        <time>2022-12-16T14:47:02.960Z</time>
      </trkpt>
      <trkpt lat="47.19978" lon="-1.5629">
        <ele>48.70422</ele>
        <time>2022-12-16T14:47:05.955Z</time>
      </trkpt>
      <trkpt lat="47.19978" lon="-1.56275">
        <ele>48.936689</ele>
        <time>2022-12-16T14:47:08.949Z</time>
      </trkpt>
      <trkpt lat="47.19978" lon="-1.56259">
        <ele>49.175704</ele>
        <time>2022-12-16T14:47:11.956Z</time>
      </trkpt>
      <trkpt lat="47.19977" lon="-1.56245">
        <ele>49.39702</ele>
        <time>2022-12-16T14:47:14.959Z</time>
      </trkpt>
      <trkpt lat="47.19976" lon="-1.56229">
        <ele>49.649666</ele>
        <time>2022-12-16T14:47:18.954Z</time>
      </trkpt>
      <trkpt lat="47.19977" lon="-1.56214">
        <ele>49.880173</ele>
        <time>2022-12-16T14:47:22.938Z</time>
      </trkpt>
      <trkpt lat="47.19977" lon="-1.56196">
        <ele>50.14809</ele>
        <time>2022-12-16T14:47:26.958Z</time>
      </trkpt>
      <trkpt lat="47.19977" lon="-1.56183">
        <ele>50.359116</ele>
        <time>2022-12-16T14:47:29.940Z</time>
      </trkpt>
      <trkpt lat="47.1997" lon="-1.56171">
        <ele>50.596945</ele>
        <time>2022-12-16T14:47:34.939Z</time>
      </trkpt>
      <trkpt lat="47.1996" lon="-1.56174">
        <ele>50.825666</ele>
        <time>2022-12-16T14:47:40.946Z</time>
      </trkpt>
      <trkpt lat="47.1994" lon="-1.56169">
        <ele>51.275552</ele>
        <time>2022-12-16T14:48:37.968Z</time>
      </trkpt>
      <trkpt lat="47.19929" lon="-1.56172">
        <ele>51.537691</ele>
        <time>2022-12-16T14:48:41.948Z</time>
      </trkpt>
      <trkpt lat="47.1992" lon="-1.56174">
        <ele>51.745511</ele>
        <time>2022-12-16T14:48:44.955Z</time>
      </trkpt>
      <trkpt lat="47.19911" lon="-1.56176">
        <ele>51.951112</ele>
        <time>2022-12-16T14:48:47.954Z</time>
      </trkpt>
      <trkpt lat="47.199" lon="-1.56178">
        <ele>52.175164</ele>
        <time>2022-12-16T14:48:51.960Z</time>
      </trkpt>
      <trkpt lat="47.19889" lon="-1.5618">
        <ele>52.190706</ele>
        <time>2022-12-16T14:48:55.947Z</time>
      </trkpt>
      <trkpt lat="47.19878" lon="-1.56182">
        <ele>52.206597</ele>
        <time>2022-12-16T14:48:59.958Z</time>
      </trkpt>
      <trkpt lat="47.19867" lon="-1.56184">
        <ele>52.222375</ele>
        <time>2022-12-16T14:49:03.957Z</time>
      </trkpt>
      <trkpt lat="47.19856" lon="-1.56186">
        <ele>52.237115</ele>
        <time>2022-12-16T14:49:07.957Z</time>
      </trkpt>
      <trkpt lat="47.19846" lon="-1.56189">
        <ele>52.252347</ele>
        <time>2022-12-16T14:49:11.956Z</time>
      </trkpt>
      <trkpt lat="47.19834" lon="-1.56191">
        <ele>52.268788</ele>
        <time>2022-12-16T14:49:15.956Z</time>
      </trkpt>
      <trkpt lat="47.19825" lon="-1.56192">
        <ele>52.281921</ele>
        <time>2022-12-16T14:49:18.946Z</time>
      </trkpt>
      <trkpt lat="47.19814" lon="-1.56195">
        <ele>52.297728</ele>
        <time>2022-12-16T14:49:22.942Z</time>
      </trkpt>
      <trkpt lat="47.19803" lon="-1.56196">
        <ele>52.312687</ele>
        <time>2022-12-16T14:49:26.947Z</time>
      </trkpt>
      <trkpt lat="47.19793" lon="-1.56199">
        <ele>52.327827</ele>
        <time>2022-12-16T14:49:30.938Z</time>
      </trkpt>
      <trkpt lat="47.19781" lon="-1.56201">
        <ele>52.34468</ele>
        <time>2022-12-16T14:49:34.959Z</time>
      </trkpt>
      <trkpt lat="47.19771" lon="-1.56202">
        <ele>52.359206</ele>
        <time>2022-12-16T14:49:37.956Z</time>
      </trkpt>
      <trkpt lat="47.1976" lon="-1.56204">
        <ele>52.37504</ele>
        <time>2022-12-16T14:49:40.937Z</time>
      </trkpt>
      <trkpt lat="47.19749" lon="-1.56207">
        <ele>52.391127</ele>
        <time>2022-12-16T14:49:43.955Z</time>
      </trkpt>
      <trkpt lat="47.19738" lon="-1.56209">
        <ele>52.406302</ele>
        <time>2022-12-16T14:49:46.948Z</time>
      </trkpt>
      <trkpt lat="47.19727" lon="-1.56211">
        <ele>52.422825</ele>
        <time>2022-12-16T14:49:49.950Z</time>
      </trkpt>
      <trkpt lat="47.19714" lon="-1.56214">
        <ele>52.125229</ele>
        <time>2022-12-16T14:49:52.963Z</time>
      </trkpt>
      <trkpt lat="47.19702" lon="-1.56216">
        <ele>51.71063</ele>
        <time>2022-12-16T14:49:55.961Z</time>
      </trkpt>
      <trkpt lat="47.1969" lon="-1.56218">
        <ele>51.32266</ele>
        <time>2022-12-16T14:49:58.977Z</time>
      </trkpt>
      <trkpt lat="47.1968" lon="-1.5622">
        <ele>50.964321</ele>
        <time>2022-12-16T14:50:01.958Z</time>
      </trkpt>
      <trkpt lat="47.19669" lon="-1.56224">
        <ele>50.597124</ele>
        <time>2022-12-16T14:50:04.939Z</time>
      </trkpt>
      <trkpt lat="47.19659" lon="-1.56228">
        <ele>50.252213</ele>
        <time>2022-12-16T14:50:07.947Z</time>
      </trkpt>
      <trkpt lat="47.1965" lon="-1.56229">
        <ele>49.949447</ele>
        <time>2022-12-16T14:50:10.939Z</time>
      </trkpt>
      <trkpt lat="47.19641" lon="-1.56236">
        <ele>49.616448</ele>
        <time>2022-12-16T14:50:14.945Z</time>
      </trkpt>
      <trkpt lat="47.1964" lon="-1.56239">
        <ele>49.544782</ele>
        <time>2022-12-16T14:50:31.302Z</time>
      </trkpt>
      <trkpt lat="47.19636" lon="-1.56255">
        <ele>49.134901</ele>
        <time>2022-12-16T14:55:28.986Z</time>
      </trkpt>
      <trkpt lat="47.19635" lon="-1.56269">
        <ele>48.823487</ele>
        <time>2022-12-16T14:55:32.950Z</time>
      </trkpt>
      <trkpt lat="47.19633" lon="-1.56285">
        <ele>48.461558</ele>
        <time>2022-12-16T14:55:36.945Z</time>
      </trkpt>
      <trkpt lat="47.19633" lon="-1.56298">
        <ele>48.15533</ele>
        <time>2022-12-16T14:55:39.960Z</time>
      </trkpt>
      <trkpt lat="47.19632" lon="-1.56313">
        <ele>47.817341</ele>
        <time>2022-12-16T14:55:42.944Z</time>
      </trkpt>
      <trkpt lat="47.19631" lon="-1.56328">
        <ele>47.472788</ele>
        <time>2022-12-16T14:55:45.956Z</time>
      </trkpt>
      <trkpt lat="47.19631" lon="-1.56343">
        <ele>47.135264</ele>
        <time>2022-12-16T14:55:48.950Z</time>
      </trkpt>
      <trkpt lat="47.19629" lon="-1.5636">
        <ele>46.745813</ele>
        <time>2022-12-16T14:55:51.950Z</time>
      </trkpt>
      <trkpt lat="47.1963" lon="-1.56378">
        <ele>46.453425</ele>
        <time>2022-12-16T14:55:54.996Z</time>
      </trkpt>
      <trkpt lat="47.1963" lon="-1.56398">
        <ele>46.758776</ele>
        <time>2022-12-16T14:55:57.944Z</time>
      </trkpt>
      <trkpt lat="47.1963" lon="-1.56418">
        <ele>47.068754</ele>
        <time>2022-12-16T14:56:00.943Z</time>
      </trkpt>
      <trkpt lat="47.1963" lon="-1.56437">
        <ele>47.370931</ele>
        <time>2022-12-16T14:56:03.959Z</time>
      </trkpt>
      <trkpt lat="47.19631" lon="-1.56456">
        <ele>47.672574</ele>
        <time>2022-12-16T14:56:06.953Z</time>
      </trkpt>
      <trkpt lat="47.19632" lon="-1.56474">
        <ele>47.960774</ele>
        <time>2022-12-16T14:56:09.950Z</time>
      </trkpt>
      <trkpt lat="47.19633" lon="-1.56494">
        <ele>48.266473</ele>
        <time>2022-12-16T14:56:12.965Z</time>
      </trkpt>
      <trkpt lat="47.19633" lon="-1.56514">
        <ele>48.57332</ele>
        <time>2022-12-16T14:56:15.953Z</time>
      </trkpt>
      <trkpt lat="47.19633" lon="-1.56528">
        <ele>48.795621</ele>
        <time>2022-12-16T14:56:17.951Z</time>
      </trkpt>
      <trkpt lat="47.19632" lon="-1.56541">
        <ele>49.010144</ele>
        <time>2022-12-16T14:56:19.955Z</time>
      </trkpt>
      <trkpt lat="47.19632" lon="-1.56556">
        <ele>49.237247</ele>
        <time>2022-12-16T14:56:21.940Z</time>
      </trkpt>
      <trkpt lat="47.19631" lon="-1.56571">
        <ele>49.469502</ele>
        <time>2022-12-16T14:56:23.954Z</time>
      </trkpt>
      <trkpt lat="47.19631" lon="-1.56585">
        <ele>49.692233</ele>
        <time>2022-12-16T14:56:25.965Z</time>
      </trkpt>
      <trkpt lat="47.19631" lon="-1.566">
        <ele>49.923973</ele>
        <time>2022-12-16T14:56:27.949Z</time>
      </trkpt>
      <trkpt lat="47.1963" lon="-1.56613">
        <ele>50.139447</ele>
        <time>2022-12-16T14:56:29.947Z</time>
      </trkpt>
      <trkpt lat="47.19629" lon="-1.56627">
        <ele>50.349426</ele>
        <time>2022-12-16T14:56:31.952Z</time>
      </trkpt>
      <trkpt lat="47.19629" lon="-1.5664">
        <ele>50.542719</ele>
        <time>2022-12-16T14:56:33.941Z</time>
      </trkpt>
      <trkpt lat="47.19629" lon="-1.56654">
        <ele>50.494338</ele>
        <time>2022-12-16T14:56:35.944Z</time>
      </trkpt>
      <trkpt lat="47.19627" lon="-1.56668">
        <ele>50.446869</ele>
        <time>2022-12-16T14:56:37.947Z</time>
      </trkpt>
      <trkpt lat="47.19626" lon="-1.56683">
        <ele>50.395543</ele>
        <time>2022-12-16T14:56:39.945Z</time>
      </trkpt>
      <trkpt lat="47.19625" lon="-1.56697">
        <ele>50.345412</ele>
        <time>2022-12-16T14:56:41.942Z</time>
      </trkpt>
      <trkpt lat="47.19624" lon="-1.56711">
        <ele>50.298257</ele>
        <time>2022-12-16T14:56:43.966Z</time>
      </trkpt>
      <trkpt lat="47.19622" lon="-1.56724">
        <ele>50.250003</ele>
        <time>2022-12-16T14:56:45.953Z</time>
      </trkpt>
      <trkpt lat="47.19621" lon="-1.56738">
        <ele>50.200828</ele>
        <time>2022-12-16T14:56:47.946Z</time>
      </trkpt>
      <trkpt lat="47.19619" lon="-1.56753">
        <ele>50.151104</ele>
        <time>2022-12-16T14:56:49.953Z</time>
      </trkpt>
      <trkpt lat="47.19619" lon="-1.56767">
        <ele>50.102766</ele>
        <time>2022-12-16T14:56:51.942Z</time>
      </trkpt>
      <trkpt lat="47.19618" lon="-1.56781">
        <ele>50.052759</ele>
        <time>2022-12-16T14:56:53.942Z</time>
      </trkpt>
      <trkpt lat="47.19617" lon="-1.56796">
        <ele>50.000527</ele>
        <time>2022-12-16T14:56:55.970Z</time>
      </trkpt>
      <trkpt lat="47.19617" lon="-1.56811">
        <ele>49.950051</ele>
        <time>2022-12-16T14:56:57.940Z</time>
      </trkpt>
      <trkpt lat="47.19616" lon="-1.56824">
        <ele>49.904269</ele>
        <time>2022-12-16T14:56:59.947Z</time>
      </trkpt>
      <trkpt lat="47.19614" lon="-1.56844">
        <ele>49.835571</ele>
        <time>2022-12-16T14:57:02.944Z</time>
      </trkpt>
      <trkpt lat="47.19614" lon="-1.56858">
        <ele>49.786198</ele>
        <time>2022-12-16T14:57:04.960Z</time>
      </trkpt>
      <trkpt lat="47.19613" lon="-1.56873">
        <ele>49.735306</ele>
        <time>2022-12-16T14:57:06.953Z</time>
      </trkpt>
      <trkpt lat="47.19612" lon="-1.56887">
        <ele>49.687698</ele>
        <time>2022-12-16T14:57:08.949Z</time>
      </trkpt>
      <trkpt lat="47.19611" lon="-1.56901">
        <ele>49.636462</ele>
        <time>2022-12-16T14:57:10.945Z</time>
      </trkpt>
      <trkpt lat="47.1961" lon="-1.56916">
        <ele>49.547052</ele>
        <time>2022-12-16T14:57:12.942Z</time>
      </trkpt>
      <trkpt lat="47.19609" lon="-1.56929">
        <ele>49.461483</ele>
        <time>2022-12-16T14:57:14.947Z</time>
      </trkpt>
      <trkpt lat="47.19607" lon="-1.56947">
        <ele>49.348285</ele>
        <time>2022-12-16T14:57:17.947Z</time>
      </trkpt>
      <trkpt lat="47.19607" lon="-1.56964">
        <ele>49.238519</ele>
        <time>2022-12-16T14:57:20.942Z</time>
      </trkpt>
      <trkpt lat="47.19608" lon="-1.56983">
        <ele>49.11845</ele>
        <time>2022-12-16T14:57:23.948Z</time>
      </trkpt>
      <trkpt lat="47.19607" lon="-1.56996">
        <ele>49.029978</ele>
        <time>2022-12-16T14:57:25.945Z</time>
      </trkpt>
      <trkpt lat="47.19606" lon="-1.5701">
        <ele>48.940038</ele>
        <time>2022-12-16T14:57:27.938Z</time>
      </trkpt>
      <trkpt lat="47.19604" lon="-1.57025">
        <ele>48.848469</ele>
        <time>2022-12-16T14:57:29.944Z</time>
      </trkpt>
      <trkpt lat="47.19604" lon="-1.57039">
        <ele>48.756819</ele>
        <time>2022-12-16T14:57:31.939Z</time>
      </trkpt>
      <trkpt lat="47.19602" lon="-1.57053">
        <ele>48.666513</ele>
        <time>2022-12-16T14:57:33.956Z</time>
      </trkpt>
      <trkpt lat="47.19602" lon="-1.57066">
        <ele>48.580869</ele>
        <time>2022-12-16T14:57:35.939Z</time>
      </trkpt>
      <trkpt lat="47.196" lon="-1.57085">
        <ele>48.458688</ele>
        <time>2022-12-16T14:57:38.947Z</time>
      </trkpt>
      <trkpt lat="47.19599" lon="-1.57102">
        <ele>48.350506</ele>
        <time>2022-12-16T14:57:41.945Z</time>
      </trkpt>
      <trkpt lat="47.19599" lon="-1.57117">
        <ele>48.256014</ele>
        <time>2022-12-16T14:57:44.947Z</time>
      </trkpt>
      <trkpt lat="47.19598" lon="-1.57132">
        <ele>48.157091</ele>
        <time>2022-12-16T14:57:47.947Z</time>
      </trkpt>
      <trkpt lat="47.19596" lon="-1.57151">
        <ele>48.040938</ele>
        <time>2022-12-16T14:57:50.941Z</time>
      </trkpt>
      <trkpt lat="47.19594" lon="-1.5717">
        <ele>47.935783</ele>
        <time>2022-12-16T14:57:53.958Z</time>
      </trkpt>
      <trkpt lat="47.19594" lon="-1.57184">
        <ele>47.91197</ele>
        <time>2022-12-16T14:57:55.964Z</time>
      </trkpt>
      <trkpt lat="47.19594" lon="-1.57198">
        <ele>47.888331</ele>
        <time>2022-12-16T14:57:57.945Z</time>
      </trkpt>
      <trkpt lat="47.19594" lon="-1.57213">
        <ele>47.863828</ele>
        <time>2022-12-16T14:57:59.944Z</time>
      </trkpt>
      <trkpt lat="47.19592" lon="-1.57226">
        <ele>47.84114</ele>
        <time>2022-12-16T14:58:01.942Z</time>
      </trkpt>
      <trkpt lat="47.19591" lon="-1.57239">
        <ele>47.818319</ele>
        <time>2022-12-16T14:58:03.940Z</time>
      </trkpt>
      <trkpt lat="47.1959" lon="-1.57254">
        <ele>47.793959</ele>
        <time>2022-12-16T14:58:05.943Z</time>
      </trkpt>
      <trkpt lat="47.19588" lon="-1.57268">
        <ele>47.769656</ele>
        <time>2022-12-16T14:58:07.943Z</time>
      </trkpt>
      <trkpt lat="47.19588" lon="-1.57282">
        <ele>47.745296</ele>
        <time>2022-12-16T14:58:09.940Z</time>
      </trkpt>
      <trkpt lat="47.19587" lon="-1.57296">
        <ele>47.721931</ele>
        <time>2022-12-16T14:58:11.947Z</time>
      </trkpt>
      <trkpt lat="47.19586" lon="-1.5731">
        <ele>47.697464</ele>
        <time>2022-12-16T14:58:13.949Z</time>
      </trkpt>
      <trkpt lat="47.19584" lon="-1.57325">
        <ele>47.672827</ele>
        <time>2022-12-16T14:58:15.945Z</time>
      </trkpt>
      <trkpt lat="47.19582" lon="-1.57338">
        <ele>47.649383</ele>
        <time>2022-12-16T14:58:17.962Z</time>
      </trkpt>
      <trkpt lat="47.19578" lon="-1.57357">
        <ele>47.616524</ele>
        <time>2022-12-16T14:58:20.943Z</time>
      </trkpt>
      <trkpt lat="47.19574" lon="-1.57376">
        <ele>47.582381</ele>
        <time>2022-12-16T14:58:23.942Z</time>
      </trkpt>
      <trkpt lat="47.19572" lon="-1.57389">
        <ele>47.559372</ele>
        <time>2022-12-16T14:58:25.951Z</time>
      </trkpt>
      <trkpt lat="47.19568" lon="-1.57403">
        <ele>47.534728</ele>
        <time>2022-12-16T14:58:27.943Z</time>
      </trkpt>
      <trkpt lat="47.19564" lon="-1.57416">
        <ele>47.511042</ele>
        <time>2022-12-16T14:58:29.950Z</time>
      </trkpt>
      <trkpt lat="47.19561" lon="-1.57431">
        <ele>47.46291</ele>
        <time>2022-12-16T14:58:31.953Z</time>
      </trkpt>
      <trkpt lat="47.19559" lon="-1.57447">
        <ele>47.385105</ele>
        <time>2022-12-16T14:58:33.952Z</time>
      </trkpt>
      <trkpt lat="47.19556" lon="-1.57461">
        <ele>47.313326</ele>
        <time>2022-12-16T14:58:35.946Z</time>
      </trkpt>
      <trkpt lat="47.19553" lon="-1.57476">
        <ele>47.240198</ele>
        <time>2022-12-16T14:58:37.943Z</time>
      </trkpt>
      <trkpt lat="47.1955" lon="-1.57491">
        <ele>47.165849</ele>
        <time>2022-12-16T14:58:39.952Z</time>
      </trkpt>
      <trkpt lat="47.19546" lon="-1.57507">
        <ele>47.086623</ele>
        <time>2022-12-16T14:58:41.942Z</time>
      </trkpt>
      <trkpt lat="47.19545" lon="-1.57524">
        <ele>47.004128</ele>
        <time>2022-12-16T14:58:43.947Z</time>
      </trkpt>
      <trkpt lat="47.19542" lon="-1.57537">
        <ele>46.937292</ele>
        <time>2022-12-16T14:58:45.948Z</time>
      </trkpt>
      <trkpt lat="47.19539" lon="-1.57551">
        <ele>46.865745</ele>
        <time>2022-12-16T14:58:47.957Z</time>
      </trkpt>
      <trkpt lat="47.19536" lon="-1.57567">
        <ele>46.787011</ele>
        <time>2022-12-16T14:58:49.947Z</time>
      </trkpt>
      <trkpt lat="47.19534" lon="-1.57583">
        <ele>46.711662</ele>
        <time>2022-12-16T14:58:51.947Z</time>
      </trkpt>
      <trkpt lat="47.19531" lon="-1.57598">
        <ele>46.636762</ele>
        <time>2022-12-16T14:58:53.953Z</time>
      </trkpt>
      <trkpt lat="47.19529" lon="-1.57612">
        <ele>46.567897</ele>
        <time>2022-12-16T14:58:55.961Z</time>
      </trkpt>
      <trkpt lat="47.19526" lon="-1.57625">
        <ele>46.504247</ele>
        <time>2022-12-16T14:58:57.945Z</time>
      </trkpt>
      <trkpt lat="47.19521" lon="-1.57644">
        <ele>46.408183</ele>
        <time>2022-12-16T14:59:00.949Z</time>
      </trkpt>
      <trkpt lat="47.19519" lon="-1.57657">
        <ele>46.340436</ele>
        <time>2022-12-16T14:59:02.941Z</time>
      </trkpt>
      <trkpt lat="47.19515" lon="-1.57672">
        <ele>46.265942</ele>
        <time>2022-12-16T14:59:04.955Z</time>
      </trkpt>
      <trkpt lat="47.19512" lon="-1.57687">
        <ele>46.259519</ele>
        <time>2022-12-16T14:59:06.939Z</time>
      </trkpt>
      <trkpt lat="47.19509" lon="-1.577">
        <ele>46.300952</ele>
        <time>2022-12-16T14:59:08.956Z</time>
      </trkpt>
      <trkpt lat="47.19506" lon="-1.57713">
        <ele>46.340316</ele>
        <time>2022-12-16T14:59:10.958Z</time>
      </trkpt>
      <trkpt lat="47.19503" lon="-1.57726">
        <ele>46.378598</ele>
        <time>2022-12-16T14:59:12.944Z</time>
      </trkpt>
      <trkpt lat="47.195" lon="-1.57745">
        <ele>46.433346</ele>
        <time>2022-12-16T14:59:15.940Z</time>
      </trkpt>
      <trkpt lat="47.19496" lon="-1.57761">
        <ele>46.485298</ele>
        <time>2022-12-16T14:59:18.941Z</time>
      </trkpt>
      <trkpt lat="47.19492" lon="-1.57778">
        <ele>46.535575</ele>
        <time>2022-12-16T14:59:21.945Z</time>
      </trkpt>
      <trkpt lat="47.19489" lon="-1.57795">
        <ele>46.586005</ele>
        <time>2022-12-16T14:59:24.940Z</time>
      </trkpt>
      <trkpt lat="47.19486" lon="-1.57812">
        <ele>46.636813</ele>
        <time>2022-12-16T14:59:27.943Z</time>
      </trkpt>
      <trkpt lat="47.19482" lon="-1.57827">
        <ele>46.683326</ele>
        <time>2022-12-16T14:59:30.940Z</time>
      </trkpt>
      <trkpt lat="47.19471" lon="-1.57833">
        <ele>46.730942</ele>
        <time>2022-12-16T14:59:34.947Z</time>
      </trkpt>
      <trkpt lat="47.19462" lon="-1.5783">
        <ele>46.772548</ele>
        <time>2022-12-16T14:59:37.938Z</time>
      </trkpt>
      <trkpt lat="47.19452" lon="-1.57826">
        <ele>46.814491</ele>
        <time>2022-12-16T14:59:40.940Z</time>
      </trkpt>
      <trkpt lat="47.19442" lon="-1.57823">
        <ele>46.859776</ele>
        <time>2022-12-16T14:59:43.940Z</time>
      </trkpt>
      <trkpt lat="47.1943" lon="-1.57821">
        <ele>46.907446</ele>
        <time>2022-12-16T14:59:46.941Z</time>
      </trkpt>
      <trkpt lat="47.1942" lon="-1.5782">
        <ele>46.951994</ele>
        <time>2022-12-16T14:59:49.952Z</time>
      </trkpt>
      <trkpt lat="47.19409" lon="-1.57817">
        <ele>46.994996</ele>
        <time>2022-12-16T14:59:52.942Z</time>
      </trkpt>
      <trkpt lat="47.194" lon="-1.57813">
        <ele>46.985368</ele>
        <time>2022-12-16T14:59:55.980Z</time>
      </trkpt>
      <trkpt lat="47.19391" lon="-1.57819">
        <ele>46.975875</ele>
        <time>2022-12-16T14:59:58.953Z</time>
      </trkpt>
      <trkpt lat="47.19387" lon="-1.57833">
        <ele>46.965036</ele>
        <time>2022-12-16T15:00:01.943Z</time>
      </trkpt>
      <trkpt lat="47.19383" lon="-1.5785">
        <ele>46.953444</ele>
        <time>2022-12-16T15:00:04.944Z</time>
      </trkpt>
      <trkpt lat="47.19379" lon="-1.57867">
        <ele>46.940914</ele>
        <time>2022-12-16T15:00:07.941Z</time>
      </trkpt>
      <trkpt lat="47.19375" lon="-1.57886">
        <ele>46.927282</ele>
        <time>2022-12-16T15:00:10.947Z</time>
      </trkpt>
      <trkpt lat="47.19372" lon="-1.57905">
        <ele>46.91399</ele>
        <time>2022-12-16T15:00:13.942Z</time>
      </trkpt>
      <trkpt lat="47.19369" lon="-1.57918">
        <ele>46.904828</ele>
        <time>2022-12-16T15:00:15.952Z</time>
      </trkpt>
      <trkpt lat="47.19367" lon="-1.57931">
        <ele>46.895712</ele>
        <time>2022-12-16T15:00:17.942Z</time>
      </trkpt>
      <trkpt lat="47.19364" lon="-1.57949">
        <ele>46.882814</ele>
        <time>2022-12-16T15:00:20.943Z</time>
      </trkpt>
      <trkpt lat="47.1936" lon="-1.57966">
        <ele>46.870153</ele>
        <time>2022-12-16T15:00:23.938Z</time>
      </trkpt>
      <trkpt lat="47.19358" lon="-1.5798">
        <ele>46.860858</ele>
        <time>2022-12-16T15:00:25.942Z</time>
      </trkpt>
      <trkpt lat="47.19356" lon="-1.57994">
        <ele>46.850997</ele>
        <time>2022-12-16T15:00:27.944Z</time>
      </trkpt>
      <trkpt lat="47.19355" lon="-1.58008">
        <ele>46.841333</ele>
        <time>2022-12-16T15:00:29.944Z</time>
      </trkpt>
      <trkpt lat="47.19353" lon="-1.58021">
        <ele>46.831928</ele>
        <time>2022-12-16T15:00:31.961Z</time>
      </trkpt>
      <trkpt lat="47.19351" lon="-1.58035">
        <ele>46.822404</ele>
        <time>2022-12-16T15:00:33.947Z</time>
      </trkpt>
      <trkpt lat="47.19349" lon="-1.58048">
        <ele>46.817924</ele>
        <time>2022-12-16T15:00:35.948Z</time>
      </trkpt>
      <trkpt lat="47.19345" lon="-1.58065">
        <ele>46.852366</ele>
        <time>2022-12-16T15:00:38.951Z</time>
      </trkpt>
      <trkpt lat="47.19342" lon="-1.58083">
        <ele>46.886303</ele>
        <time>2022-12-16T15:00:41.942Z</time>
      </trkpt>
      <trkpt lat="47.19339" lon="-1.58099">
        <ele>46.917931</ele>
        <time>2022-12-16T15:00:44.942Z</time>
      </trkpt>
      <trkpt lat="47.19334" lon="-1.58115">
        <ele>46.951159</ele>
        <time>2022-12-16T15:00:47.945Z</time>
      </trkpt>
      <trkpt lat="47.19329" lon="-1.58132">
        <ele>46.98677</ele>
        <time>2022-12-16T15:00:50.943Z</time>
      </trkpt>
      <trkpt lat="47.19325" lon="-1.58145">
        <ele>47.012662</ele>
        <time>2022-12-16T15:00:52.944Z</time>
      </trkpt>
      <trkpt lat="47.19322" lon="-1.58159">
        <ele>47.040292</ele>
        <time>2022-12-16T15:00:54.963Z</time>
      </trkpt>
      <trkpt lat="47.19318" lon="-1.58173">
        <ele>47.067406</ele>
        <time>2022-12-16T15:00:56.946Z</time>
      </trkpt>
      <trkpt lat="47.19315" lon="-1.58187">
        <ele>47.095496</ele>
        <time>2022-12-16T15:00:58.945Z</time>
      </trkpt>
      <trkpt lat="47.19312" lon="-1.58201">
        <ele>47.124192</ele>
        <time>2022-12-16T15:01:00.944Z</time>
      </trkpt>
      <trkpt lat="47.19308" lon="-1.58216">
        <ele>47.153422</ele>
        <time>2022-12-16T15:01:02.947Z</time>
      </trkpt>
      <trkpt lat="47.19304" lon="-1.58231">
        <ele>47.183561</ele>
        <time>2022-12-16T15:01:04.950Z</time>
      </trkpt>
      <trkpt lat="47.193" lon="-1.58245">
        <ele>47.211879</ele>
        <time>2022-12-16T15:01:06.946Z</time>
      </trkpt>
      <trkpt lat="47.19297" lon="-1.58258">
        <ele>47.238545</ele>
        <time>2022-12-16T15:01:08.954Z</time>
      </trkpt>
      <trkpt lat="47.19294" lon="-1.58271">
        <ele>47.263599</ele>
        <time>2022-12-16T15:01:10.962Z</time>
      </trkpt>
      <trkpt lat="47.19289" lon="-1.58288">
        <ele>47.299292</ele>
        <time>2022-12-16T15:01:13.963Z</time>
      </trkpt>
      <trkpt lat="47.19284" lon="-1.58305">
        <ele>47.316247</ele>
        <time>2022-12-16T15:01:16.952Z</time>
      </trkpt>
      <trkpt lat="47.1928" lon="-1.5832">
        <ele>47.323339</ele>
        <time>2022-12-16T15:01:19.942Z</time>
      </trkpt>
      <trkpt lat="47.19278" lon="-1.58333">
        <ele>47.329536</ele>
        <time>2022-12-16T15:01:22.944Z</time>
      </trkpt>
      <trkpt lat="47.19274" lon="-1.58348">
        <ele>47.336669</ele>
        <time>2022-12-16T15:01:26.952Z</time>
      </trkpt>
      <trkpt lat="47.19266" lon="-1.58357">
        <ele>47.343342</ele>
        <time>2022-12-16T15:01:29.965Z</time>
      </trkpt>
      <trkpt lat="47.19256" lon="-1.58365">
        <ele>47.350717</ele>
        <time>2022-12-16T15:01:32.945Z</time>
      </trkpt>
      <trkpt lat="47.19246" lon="-1.58374">
        <ele>47.358551</ele>
        <time>2022-12-16T15:01:35.955Z</time>
      </trkpt>
      <trkpt lat="47.19236" lon="-1.58384">
        <ele>47.366249</ele>
        <time>2022-12-16T15:01:38.951Z</time>
      </trkpt>
      <trkpt lat="47.19228" lon="-1.58392">
        <ele>47.372133</ele>
        <time>2022-12-16T15:01:41.966Z</time>
      </trkpt>
      <trkpt lat="47.1922" lon="-1.58401">
        <ele>47.378567</ele>
        <time>2022-12-16T15:01:45.952Z</time>
      </trkpt>
      <trkpt lat="47.19212" lon="-1.58407">
        <ele>47.384656</ele>
        <time>2022-12-16T15:01:48.955Z</time>
      </trkpt>
      <trkpt lat="47.19203" lon="-1.58416">
        <ele>47.391631</ele>
        <time>2022-12-16T15:01:51.954Z</time>
      </trkpt>
      <trkpt lat="47.19194" lon="-1.58424">
        <ele>47.398873</ele>
        <time>2022-12-16T15:01:54.962Z</time>
      </trkpt>
      <trkpt lat="47.19183" lon="-1.58434">
        <ele>47.406719</ele>
        <time>2022-12-16T15:01:57.942Z</time>
      </trkpt>
      <trkpt lat="47.19173" lon="-1.58443">
        <ele>47.414581</ele>
        <time>2022-12-16T15:02:00.940Z</time>
      </trkpt>
      <trkpt lat="47.19164" lon="-1.58452">
        <ele>47.421862</ele>
        <time>2022-12-16T15:02:03.955Z</time>
      </trkpt>
      <trkpt lat="47.19156" lon="-1.58463">
        <ele>47.431613</ele>
        <time>2022-12-16T15:02:06.948Z</time>
      </trkpt>
      <trkpt lat="47.19147" lon="-1.58472">
        <ele>47.460564</ele>
        <time>2022-12-16T15:02:09.940Z</time>
      </trkpt>
      <trkpt lat="47.19139" lon="-1.58478">
        <ele>47.487305</ele>
        <time>2022-12-16T15:02:12.947Z</time>
      </trkpt>
      <trkpt lat="47.1913" lon="-1.58486">
        <ele>47.515751</ele>
        <time>2022-12-16T15:02:15.952Z</time>
      </trkpt>
      <trkpt lat="47.1912" lon="-1.58495">
        <ele>47.548415</ele>
        <time>2022-12-16T15:02:18.944Z</time>
      </trkpt>
      <trkpt lat="47.1911" lon="-1.58504">
        <ele>47.582493</ele>
        <time>2022-12-16T15:02:21.947Z</time>
      </trkpt>
      <trkpt lat="47.19099" lon="-1.58514">
        <ele>47.616928</ele>
        <time>2022-12-16T15:02:24.940Z</time>
      </trkpt>
      <trkpt lat="47.19088" lon="-1.58525">
        <ele>47.654085</ele>
        <time>2022-12-16T15:02:27.948Z</time>
      </trkpt>
      <trkpt lat="47.19077" lon="-1.58534">
        <ele>47.690818</ele>
        <time>2022-12-16T15:02:30.940Z</time>
      </trkpt>
      <trkpt lat="47.19067" lon="-1.58545">
        <ele>47.724893</ele>
        <time>2022-12-16T15:02:33.945Z</time>
      </trkpt>
      <trkpt lat="47.19058" lon="-1.58556">
        <ele>47.757213</ele>
        <time>2022-12-16T15:02:36.947Z</time>
      </trkpt>
      <trkpt lat="47.19051" lon="-1.58565">
        <ele>47.7841</ele>
        <time>2022-12-16T15:02:39.943Z</time>
      </trkpt>
      <trkpt lat="47.19042" lon="-1.58574">
        <ele>47.814917</ele>
        <time>2022-12-16T15:02:43.949Z</time>
      </trkpt>
      <trkpt lat="47.19034" lon="-1.58582">
        <ele>47.840782</ele>
        <time>2022-12-16T15:02:46.957Z</time>
      </trkpt>
      <trkpt lat="47.19026" lon="-1.58592">
        <ele>47.871271</ele>
        <time>2022-12-16T15:02:49.946Z</time>
      </trkpt>
      <trkpt lat="47.19017" lon="-1.58602">
        <ele>47.902084</ele>
        <time>2022-12-16T15:02:52.946Z</time>
      </trkpt>
      <trkpt lat="47.19007" lon="-1.58612">
        <ele>47.9284</ele>
        <time>2022-12-16T15:02:55.961Z</time>
      </trkpt>
      <trkpt lat="47.18998" lon="-1.58621">
        <ele>47.914872</ele>
        <time>2022-12-16T15:02:58.964Z</time>
      </trkpt>
      <trkpt lat="47.1899" lon="-1.58628">
        <ele>47.902829</ele>
        <time>2022-12-16T15:03:01.951Z</time>
      </trkpt>
      <trkpt lat="47.18982" lon="-1.58636">
        <ele>47.890756</ele>
        <time>2022-12-16T15:03:04.957Z</time>
      </trkpt>
      <trkpt lat="47.18973" lon="-1.58644">
        <ele>47.877156</ele>
        <time>2022-12-16T15:03:07.952Z</time>
      </trkpt>
      <trkpt lat="47.18964" lon="-1.58653">
        <ele>47.863388</ele>
        <time>2022-12-16T15:03:10.956Z</time>
      </trkpt>
      <trkpt lat="47.18955" lon="-1.58662">
        <ele>47.850528</ele>
        <time>2022-12-16T15:03:13.953Z</time>
      </trkpt>
      <trkpt lat="47.18946" lon="-1.58671">
        <ele>47.837047</ele>
        <time>2022-12-16T15:03:16.960Z</time>
      </trkpt>
      <trkpt lat="47.18936" lon="-1.5868">
        <ele>47.822567</ele>
        <time>2022-12-16T15:03:19.944Z</time>
      </trkpt>
      <trkpt lat="47.18927" lon="-1.58689">
        <ele>47.808496</ele>
        <time>2022-12-16T15:03:22.952Z</time>
      </trkpt>
      <trkpt lat="47.18918" lon="-1.58698">
        <ele>47.795002</ele>
        <time>2022-12-16T15:03:25.955Z</time>
      </trkpt>
      <trkpt lat="47.18911" lon="-1.58705">
        <ele>47.783402</ele>
        <time>2022-12-16T15:03:28.958Z</time>
      </trkpt>
      <trkpt lat="47.18901" lon="-1.58712">
        <ele>47.769724</ele>
        <time>2022-12-16T15:03:32.956Z</time>
      </trkpt>
      <trkpt lat="47.1889" lon="-1.58718">
        <ele>47.755683</ele>
        <time>2022-12-16T15:03:36.939Z</time>
      </trkpt>
      <trkpt lat="47.18881" lon="-1.58724">
        <ele>47.743037</ele>
        <time>2022-12-16T15:03:40.942Z</time>
      </trkpt>
      <trkpt lat="47.18872" lon="-1.58728">
        <ele>47.731291</ele>
        <time>2022-12-16T15:03:44.975Z</time>
      </trkpt>
      <trkpt lat="47.18863" lon="-1.58734">
        <ele>47.719601</ele>
        <time>2022-12-16T15:03:48.944Z</time>
      </trkpt>
      <trkpt lat="47.18853" lon="-1.58738">
        <ele>47.705638</ele>
        <time>2022-12-16T15:03:53.939Z</time>
      </trkpt>
      <trkpt lat="47.18843" lon="-1.58743">
        <ele>47.605332</ele>
        <time>2022-12-16T15:03:57.947Z</time>
      </trkpt>
      <trkpt lat="47.18834" lon="-1.58751">
        <ele>47.4961</ele>
        <time>2022-12-16T15:04:01.941Z</time>
      </trkpt>
      <trkpt lat="47.18832" lon="-1.58769">
        <ele>47.372695</ele>
        <time>2022-12-16T15:04:05.946Z</time>
      </trkpt>
      <trkpt lat="47.18827" lon="-1.58784">
        <ele>47.256675</ele>
        <time>2022-12-16T15:04:09.976Z</time>
      </trkpt>
      <trkpt lat="47.1882" lon="-1.58796">
        <ele>47.145165</ele>
        <time>2022-12-16T15:04:13.939Z</time>
      </trkpt>
      <trkpt lat="47.18812" lon="-1.58804">
        <ele>47.048603</ele>
        <time>2022-12-16T15:04:17.948Z</time>
      </trkpt>
      <trkpt lat="47.18815" lon="-1.58809">
        <ele>47.004071</ele>
        <time>2022-12-16T15:05:03.233Z</time>
      </trkpt>
      <trkpt lat="47.18823" lon="-1.58824">
        <ele>46.875586</ele>
        <time>2022-12-16T16:19:26.341Z</time>
      </trkpt>
      <trkpt lat="47.18818" lon="-1.58838">
        <ele>46.767378</ele>
        <time>2022-12-16T16:20:21.040Z</time>
      </trkpt>
      <trkpt lat="47.18815" lon="-1.58852">
        <ele>46.666934</ele>
        <time>2022-12-16T16:20:25.939Z</time>
      </trkpt>
      <trkpt lat="47.18818" lon="-1.58867">
        <ele>46.560415</ele>
        <time>2022-12-16T16:20:32.944Z</time>
      </trkpt>
      <trkpt lat="47.18815" lon="-1.58881">
        <ele>46.458936</ele>
        <time>2022-12-16T16:20:36.945Z</time>
      </trkpt>
      <trkpt lat="47.1881" lon="-1.58893">
        <ele>46.361443</ele>
        <time>2022-12-16T16:20:39.939Z</time>
      </trkpt>
      <trkpt lat="47.18805" lon="-1.58905">
        <ele>46.260948</ele>
        <time>2022-12-16T16:20:42.949Z</time>
      </trkpt>
      <trkpt lat="47.188" lon="-1.58919">
        <ele>46.154692</ele>
        <time>2022-12-16T16:20:45.947Z</time>
      </trkpt>
      <trkpt lat="47.18795" lon="-1.58931">
        <ele>46.057955</ele>
        <time>2022-12-16T16:20:48.948Z</time>
      </trkpt>
      <trkpt lat="47.1879" lon="-1.58947">
        <ele>45.936481</ele>
        <time>2022-12-16T16:20:52.949Z</time>
      </trkpt>
      <trkpt lat="47.18786" lon="-1.58961">
        <ele>45.843323</ele>
        <time>2022-12-16T16:20:55.945Z</time>
      </trkpt>
      <trkpt lat="47.18783" lon="-1.58978">
        <ele>45.754793</ele>
        <time>2022-12-16T16:20:58.940Z</time>
      </trkpt>
      <trkpt lat="47.1878" lon="-1.58993">
        <ele>45.675185</ele>
        <time>2022-12-16T16:21:01.967Z</time>
      </trkpt>
      <trkpt lat="47.18779" lon="-1.59008">
        <ele>45.600132</ele>
        <time>2022-12-16T16:21:04.970Z</time>
      </trkpt>
      <trkpt lat="47.18779" lon="-1.59023">
        <ele>45.527379</ele>
        <time>2022-12-16T16:21:07.940Z</time>
      </trkpt>
      <trkpt lat="47.18778" lon="-1.5904">
        <ele>45.442533</ele>
        <time>2022-12-16T16:21:10.949Z</time>
      </trkpt>
      <trkpt lat="47.18776" lon="-1.59057">
        <ele>45.358769</ele>
        <time>2022-12-16T16:21:13.980Z</time>
      </trkpt>
      <trkpt lat="47.18775" lon="-1.59072">
        <ele>45.283223</ele>
        <time>2022-12-16T16:21:16.952Z</time>
      </trkpt>
      <trkpt lat="47.18773" lon="-1.59086">
        <ele>45.214852</ele>
        <time>2022-12-16T16:21:19.957Z</time>
      </trkpt>
      <trkpt lat="47.18772" lon="-1.59099">
        <ele>45.146888</ele>
        <time>2022-12-16T16:21:22.938Z</time>
      </trkpt>
      <trkpt lat="47.1877" lon="-1.59114">
        <ele>45.070432</ele>
        <time>2022-12-16T16:21:25.942Z</time>
      </trkpt>
      <trkpt lat="47.18769" lon="-1.59131">
        <ele>44.989531</ele>
        <time>2022-12-16T16:21:28.954Z</time>
      </trkpt>
      <trkpt lat="47.18768" lon="-1.59148">
        <ele>44.904236</ele>
        <time>2022-12-16T16:21:31.950Z</time>
      </trkpt>
      <trkpt lat="47.18766" lon="-1.59166">
        <ele>44.815101</ele>
        <time>2022-12-16T16:21:34.945Z</time>
      </trkpt>
      <trkpt lat="47.18764" lon="-1.59183">
        <ele>44.726669</ele>
        <time>2022-12-16T16:21:37.944Z</time>
      </trkpt>
      <trkpt lat="47.18763" lon="-1.59201">
        <ele>44.640883</ele>
        <time>2022-12-16T16:21:40.951Z</time>
      </trkpt>
      <trkpt lat="47.1876" lon="-1.59216">
        <ele>44.563365</ele>
        <time>2022-12-16T16:21:43.952Z</time>
      </trkpt>
      <trkpt lat="47.18758" lon="-1.5923">
        <ele>44.58257</ele>
        <time>2022-12-16T16:21:46.941Z</time>
      </trkpt>
      <trkpt lat="47.18757" lon="-1.59244">
        <ele>44.604975</ele>
        <time>2022-12-16T16:21:49.955Z</time>
      </trkpt>
      <trkpt lat="47.18756" lon="-1.59259">
        <ele>44.629063</ele>
        <time>2022-12-16T16:21:52.946Z</time>
      </trkpt>
      <trkpt lat="47.18754" lon="-1.59276">
        <ele>44.655494</ele>
        <time>2022-12-16T16:21:55.948Z</time>
      </trkpt>
      <trkpt lat="47.18752" lon="-1.59293">
        <ele>44.682971</ele>
        <time>2022-12-16T16:21:58.944Z</time>
      </trkpt>
      <trkpt lat="47.1875" lon="-1.59311">
        <ele>44.712307</ele>
        <time>2022-12-16T16:22:01.958Z</time>
      </trkpt>
      <trkpt lat="47.18747" lon="-1.5933">
        <ele>44.741656</ele>
        <time>2022-12-16T16:22:04.942Z</time>
      </trkpt>
      <trkpt lat="47.18745" lon="-1.59347">
        <ele>44.768978</ele>
        <time>2022-12-16T16:22:07.949Z</time>
      </trkpt>
      <trkpt lat="47.18744" lon="-1.59363">
        <ele>44.794373</ele>
        <time>2022-12-16T16:22:10.947Z</time>
      </trkpt>
      <trkpt lat="47.18742" lon="-1.5938">
        <ele>44.822185</ele>
        <time>2022-12-16T16:22:13.943Z</time>
      </trkpt>
      <trkpt lat="47.18741" lon="-1.59399">
        <ele>44.851538</ele>
        <time>2022-12-16T16:22:16.944Z</time>
      </trkpt>
      <trkpt lat="47.1874" lon="-1.59413">
        <ele>44.873073</ele>
        <time>2022-12-16T16:22:18.944Z</time>
      </trkpt>
      <trkpt lat="47.18739" lon="-1.59426">
        <ele>44.893931</ele>
        <time>2022-12-16T16:22:20.943Z</time>
      </trkpt>
      <trkpt lat="47.18737" lon="-1.59443">
        <ele>44.921793</ele>
        <time>2022-12-16T16:22:23.942Z</time>
      </trkpt>
      <trkpt lat="47.18736" lon="-1.59461">
        <ele>44.949292</ele>
        <time>2022-12-16T16:22:26.942Z</time>
      </trkpt>
      <trkpt lat="47.18734" lon="-1.59478">
        <ele>44.976599</ele>
        <time>2022-12-16T16:22:29.949Z</time>
      </trkpt>
      <trkpt lat="47.18733" lon="-1.59498">
        <ele>44.93792</ele>
        <time>2022-12-16T16:22:32.947Z</time>
      </trkpt>
      <trkpt lat="47.18732" lon="-1.59512">
        <ele>44.911782</ele>
        <time>2022-12-16T16:22:34.944Z</time>
      </trkpt>
      <trkpt lat="47.18731" lon="-1.59525">
        <ele>44.885454</ele>
        <time>2022-12-16T16:22:36.945Z</time>
      </trkpt>
      <trkpt lat="47.1873" lon="-1.59544">
        <ele>44.849609</ele>
        <time>2022-12-16T16:22:39.945Z</time>
      </trkpt>
      <trkpt lat="47.18729" lon="-1.59561">
        <ele>44.815824</ele>
        <time>2022-12-16T16:22:42.943Z</time>
      </trkpt>
      <trkpt lat="47.18727" lon="-1.5958">
        <ele>44.780424</ele>
        <time>2022-12-16T16:22:45.946Z</time>
      </trkpt>
      <trkpt lat="47.18724" lon="-1.59598">
        <ele>44.744114</ele>
        <time>2022-12-16T16:22:48.949Z</time>
      </trkpt>
      <trkpt lat="47.18722" lon="-1.59611">
        <ele>44.718218</ele>
        <time>2022-12-16T16:22:50.948Z</time>
      </trkpt>
      <trkpt lat="47.18721" lon="-1.59625">
        <ele>44.692237</ele>
        <time>2022-12-16T16:22:52.953Z</time>
      </trkpt>
      <trkpt lat="47.1872" lon="-1.59644">
        <ele>44.65558</ele>
        <time>2022-12-16T16:22:55.970Z</time>
      </trkpt>
      <trkpt lat="47.18718" lon="-1.59662">
        <ele>44.620783</ele>
        <time>2022-12-16T16:22:58.947Z</time>
      </trkpt>
      <trkpt lat="47.18717" lon="-1.5968">
        <ele>44.585383</ele>
        <time>2022-12-16T16:23:01.950Z</time>
      </trkpt>
      <trkpt lat="47.18716" lon="-1.59693">
        <ele>44.559818</ele>
        <time>2022-12-16T16:23:03.953Z</time>
      </trkpt>
      <trkpt lat="47.18715" lon="-1.59707">
        <ele>44.532883</ele>
        <time>2022-12-16T16:23:05.959Z</time>
      </trkpt>
      <trkpt lat="47.18713" lon="-1.59721">
        <ele>44.50652</ele>
        <time>2022-12-16T16:23:07.945Z</time>
      </trkpt>
      <trkpt lat="47.18712" lon="-1.59739">
        <ele>44.470323</ele>
        <time>2022-12-16T16:23:10.947Z</time>
      </trkpt>
      <trkpt lat="47.1871" lon="-1.59757">
        <ele>44.520617</ele>
        <time>2022-12-16T16:23:13.968Z</time>
      </trkpt>
      <trkpt lat="47.18708" lon="-1.59773">
        <ele>44.575191</ele>
        <time>2022-12-16T16:23:16.953Z</time>
      </trkpt>
      <trkpt lat="47.18706" lon="-1.59789">
        <ele>44.626648</ele>
        <time>2022-12-16T16:23:19.948Z</time>
      </trkpt>
      <trkpt lat="47.18706" lon="-1.59804">
        <ele>44.674642</ele>
        <time>2022-12-16T16:23:22.959Z</time>
      </trkpt>
      <trkpt lat="47.18705" lon="-1.59818">
        <ele>44.719181</ele>
        <time>2022-12-16T16:23:25.945Z</time>
      </trkpt>
      <trkpt lat="47.18706" lon="-1.59835">
        <ele>44.771713</ele>
        <time>2022-12-16T16:23:29.970Z</time>
      </trkpt>
      <trkpt lat="47.18708" lon="-1.5985">
        <ele>44.822353</ele>
        <time>2022-12-16T16:23:33.958Z</time>
      </trkpt>
      <trkpt lat="47.18704" lon="-1.59864">
        <ele>44.868784</ele>
        <time>2022-12-16T16:23:36.947Z</time>
      </trkpt>
      <trkpt lat="47.18701" lon="-1.59878">
        <ele>44.916654</ele>
        <time>2022-12-16T16:23:39.948Z</time>
      </trkpt>
      <trkpt lat="47.18699" lon="-1.59892">
        <ele>44.962907</ele>
        <time>2022-12-16T16:23:42.960Z</time>
      </trkpt>
      <trkpt lat="47.18691" lon="-1.59905">
        <ele>45.015174</ele>
        <time>2022-12-16T16:23:46.946Z</time>
      </trkpt>
      <trkpt lat="47.18681" lon="-1.59908">
        <ele>45.065393</ele>
        <time>2022-12-16T16:23:50.951Z</time>
      </trkpt>
      <trkpt lat="47.18672" lon="-1.59904">
        <ele>45.111233</ele>
        <time>2022-12-16T16:23:54.944Z</time>
      </trkpt>
      <trkpt lat="47.18661" lon="-1.59905">
        <ele>45.159108</ele>
        <time>2022-12-16T16:23:59.945Z</time>
      </trkpt>
      <trkpt lat="47.18654" lon="-1.59913">
        <ele>45.205066</ele>
        <time>2022-12-16T16:24:03.955Z</time>
      </trkpt>
      <trkpt lat="47.18649" lon="-1.59924">
        <ele>45.247546</ele>
        <time>2022-12-16T16:24:06.949Z</time>
      </trkpt>
      <trkpt lat="47.18643" lon="-1.59939">
        <ele>45.300344</ele>
        <time>2022-12-16T16:24:09.944Z</time>
      </trkpt>
      <trkpt lat="47.18638" lon="-1.59954">
        <ele>45.330917</ele>
        <time>2022-12-16T16:24:12.948Z</time>
      </trkpt>
      <trkpt lat="47.18633" lon="-1.59968">
        <ele>45.353409</ele>
        <time>2022-12-16T16:24:15.966Z</time>
      </trkpt>
      <trkpt lat="47.18629" lon="-1.5998">
        <ele>45.373944</ele>
        <time>2022-12-16T16:24:18.948Z</time>
      </trkpt>
      <trkpt lat="47.18624" lon="-1.59993">
        <ele>45.395134</ele>
        <time>2022-12-16T16:24:22.961Z</time>
      </trkpt>
      <trkpt lat="47.18627" lon="-1.60007">
        <ele>45.416513</ele>
        <time>2022-12-16T16:24:30.942Z</time>
      </trkpt>
      <trkpt lat="47.18621" lon="-1.60022">
        <ele>45.440573</ele>
        <time>2022-12-16T16:24:36.942Z</time>
      </trkpt>
      <trkpt lat="47.18617" lon="-1.60038">
        <ele>45.466355</ele>
        <time>2022-12-16T16:24:40.947Z</time>
      </trkpt>
      <trkpt lat="47.18613" lon="-1.60053">
        <ele>45.488892</ele>
        <time>2022-12-16T16:24:43.946Z</time>
      </trkpt>
      <trkpt lat="47.18607" lon="-1.60067">
        <ele>45.512599</ele>
        <time>2022-12-16T16:24:46.949Z</time>
      </trkpt>
      <trkpt lat="47.18603" lon="-1.60081">
        <ele>45.534783</ele>
        <time>2022-12-16T16:24:49.947Z</time>
      </trkpt>
      <trkpt lat="47.18598" lon="-1.60096">
        <ele>45.558058</ele>
        <time>2022-12-16T16:24:52.951Z</time>
      </trkpt>
      <trkpt lat="47.18593" lon="-1.60112">
        <ele>45.583176</ele>
        <time>2022-12-16T16:24:55.943Z</time>
      </trkpt>
      <trkpt lat="47.18588" lon="-1.60127">
        <ele>45.607982</ele>
        <time>2022-12-16T16:24:58.940Z</time>
      </trkpt>
      <trkpt lat="47.18583" lon="-1.60144">
        <ele>45.63414</ele>
        <time>2022-12-16T16:25:01.945Z</time>
      </trkpt>
      <trkpt lat="47.18578" lon="-1.6016">
        <ele>45.659821</ele>
        <time>2022-12-16T16:25:04.947Z</time>
      </trkpt>
      <trkpt lat="47.18573" lon="-1.60175">
        <ele>45.6835</ele>
        <time>2022-12-16T16:25:07.945Z</time>
      </trkpt>
      <trkpt lat="47.18567" lon="-1.6019">
        <ele>45.709206</ele>
        <time>2022-12-16T16:25:10.946Z</time>
      </trkpt>
      <trkpt lat="47.18562" lon="-1.60207">
        <ele>45.736286</ele>
        <time>2022-12-16T16:25:13.944Z</time>
      </trkpt>
      <trkpt lat="47.18556" lon="-1.60223">
        <ele>45.76363</ele>
        <time>2022-12-16T16:25:16.947Z</time>
      </trkpt>
      <trkpt lat="47.1855" lon="-1.6024">
        <ele>45.791436</ele>
        <time>2022-12-16T16:25:19.944Z</time>
      </trkpt>
      <trkpt lat="47.18543" lon="-1.60256">
        <ele>45.819704</ele>
        <time>2022-12-16T16:25:22.947Z</time>
      </trkpt>
      <trkpt lat="47.18538" lon="-1.60273">
        <ele>45.847772</ele>
        <time>2022-12-16T16:25:25.950Z</time>
      </trkpt>
      <trkpt lat="47.18531" lon="-1.6029">
        <ele>45.876548</ele>
        <time>2022-12-16T16:25:28.951Z</time>
      </trkpt>
      <trkpt lat="47.18526" lon="-1.60302">
        <ele>45.896389</ele>
        <time>2022-12-16T16:25:30.959Z</time>
      </trkpt>
      <trkpt lat="47.18522" lon="-1.60313">
        <ele>45.915885</ele>
        <time>2022-12-16T16:25:32.948Z</time>
      </trkpt>
      <trkpt lat="47.18517" lon="-1.60325">
        <ele>45.936583</ele>
        <time>2022-12-16T16:25:34.946Z</time>
      </trkpt>
      <trkpt lat="47.18513" lon="-1.60338">
        <ele>45.957848</ele>
        <time>2022-12-16T16:25:36.953Z</time>
      </trkpt>
      <trkpt lat="47.18509" lon="-1.60351">
        <ele>45.979288</ele>
        <time>2022-12-16T16:25:38.950Z</time>
      </trkpt>
      <trkpt lat="47.18504" lon="-1.60365">
        <ele>46.001872</ele>
        <time>2022-12-16T16:25:40.946Z</time>
      </trkpt>
      <trkpt lat="47.18499" lon="-1.60379">
        <ele>46.024642</ele>
        <time>2022-12-16T16:25:42.954Z</time>
      </trkpt>
      <trkpt lat="47.18494" lon="-1.60393">
        <ele>46.047521</ele>
        <time>2022-12-16T16:25:44.952Z</time>
      </trkpt>
      <trkpt lat="47.1849" lon="-1.60407">
        <ele>46.070668</ele>
        <time>2022-12-16T16:25:46.954Z</time>
      </trkpt>
      <trkpt lat="47.18486" lon="-1.60421">
        <ele>46.080472</ele>
        <time>2022-12-16T16:25:48.947Z</time>
      </trkpt>
      <trkpt lat="47.18482" lon="-1.60435">
        <ele>46.072292</ele>
        <time>2022-12-16T16:25:50.953Z</time>
      </trkpt>
      <trkpt lat="47.18478" lon="-1.60448">
        <ele>46.065047</ele>
        <time>2022-12-16T16:25:52.950Z</time>
      </trkpt>
      <trkpt lat="47.18475" lon="-1.60461">
        <ele>46.058082</ele>
        <time>2022-12-16T16:25:54.945Z</time>
      </trkpt>
      <trkpt lat="47.1847" lon="-1.60479">
        <ele>46.047539</ele>
        <time>2022-12-16T16:25:57.947Z</time>
      </trkpt>
      <trkpt lat="47.18467" lon="-1.60492">
        <ele>46.040578</ele>
        <time>2022-12-16T16:25:59.954Z</time>
      </trkpt>
      <trkpt lat="47.18464" lon="-1.60505">
        <ele>46.033294</ele>
        <time>2022-12-16T16:26:01.953Z</time>
      </trkpt>
      <trkpt lat="47.18461" lon="-1.60518">
        <ele>46.025935</ele>
        <time>2022-12-16T16:26:03.962Z</time>
      </trkpt>
      <trkpt lat="47.18458" lon="-1.60531">
        <ele>46.018624</ele>
        <time>2022-12-16T16:26:05.944Z</time>
      </trkpt>
      <trkpt lat="47.18455" lon="-1.60545">
        <ele>46.011017</ele>
        <time>2022-12-16T16:26:07.941Z</time>
      </trkpt>
      <trkpt lat="47.18451" lon="-1.60558">
        <ele>46.003657</ele>
        <time>2022-12-16T16:26:09.945Z</time>
      </trkpt>
      <trkpt lat="47.18448" lon="-1.60572">
        <ele>45.996099</ele>
        <time>2022-12-16T16:26:11.951Z</time>
      </trkpt>
      <trkpt lat="47.18446" lon="-1.60586">
        <ele>45.988447</ele>
        <time>2022-12-16T16:26:13.951Z</time>
      </trkpt>
      <trkpt lat="47.18443" lon="-1.606">
        <ele>45.980985</ele>
        <time>2022-12-16T16:26:15.955Z</time>
      </trkpt>
      <trkpt lat="47.18441" lon="-1.60614">
        <ele>45.973212</ele>
        <time>2022-12-16T16:26:17.947Z</time>
      </trkpt>
      <trkpt lat="47.18438" lon="-1.60629">
        <ele>45.965145</ele>
        <time>2022-12-16T16:26:19.947Z</time>
      </trkpt>
      <trkpt lat="47.18435" lon="-1.60643">
        <ele>45.957359</ele>
        <time>2022-12-16T16:26:21.949Z</time>
      </trkpt>
      <trkpt lat="47.18433" lon="-1.60658">
        <ele>45.94942</ele>
        <time>2022-12-16T16:26:23.949Z</time>
      </trkpt>
      <trkpt lat="47.18431" lon="-1.60672">
        <ele>45.940483</ele>
        <time>2022-12-16T16:26:25.952Z</time>
      </trkpt>
      <trkpt lat="47.18429" lon="-1.60687">
        <ele>45.930159</ele>
        <time>2022-12-16T16:26:27.942Z</time>
      </trkpt>
      <trkpt lat="47.18427" lon="-1.607">
        <ele>45.920276</ele>
        <time>2022-12-16T16:26:29.954Z</time>
      </trkpt>
      <trkpt lat="47.18424" lon="-1.6072">
        <ele>45.906278</ele>
        <time>2022-12-16T16:26:32.953Z</time>
      </trkpt>
      <trkpt lat="47.18423" lon="-1.60733">
        <ele>45.896807</ele>
        <time>2022-12-16T16:26:34.937Z</time>
      </trkpt>
      <trkpt lat="47.18422" lon="-1.60747">
        <ele>45.887142</ele>
        <time>2022-12-16T16:26:36.955Z</time>
      </trkpt>
      <trkpt lat="47.1842" lon="-1.60761">
        <ele>45.877272</ele>
        <time>2022-12-16T16:26:38.955Z</time>
      </trkpt>
      <trkpt lat="47.18419" lon="-1.60774">
        <ele>45.867703</ele>
        <time>2022-12-16T16:26:40.952Z</time>
      </trkpt>
      <trkpt lat="47.18418" lon="-1.60788">
        <ele>45.858122</ele>
        <time>2022-12-16T16:26:42.962Z</time>
      </trkpt>
      <trkpt lat="47.18416" lon="-1.60803">
        <ele>45.847397</ele>
        <time>2022-12-16T16:26:44.950Z</time>
      </trkpt>
      <trkpt lat="47.18416" lon="-1.60817">
        <ele>45.837588</ele>
        <time>2022-12-16T16:26:46.951Z</time>
      </trkpt>
      <trkpt lat="47.18414" lon="-1.60831">
        <ele>45.827597</ele>
        <time>2022-12-16T16:26:48.947Z</time>
      </trkpt>
      <trkpt lat="47.18413" lon="-1.60845">
        <ele>45.817387</ele>
        <time>2022-12-16T16:26:50.951Z</time>
      </trkpt>
      <trkpt lat="47.18413" lon="-1.60859">
        <ele>45.807459</ele>
        <time>2022-12-16T16:26:52.964Z</time>
      </trkpt>
      <trkpt lat="47.18412" lon="-1.60873">
        <ele>45.79758</ele>
        <time>2022-12-16T16:26:54.942Z</time>
      </trkpt>
      <trkpt lat="47.18411" lon="-1.60893">
        <ele>45.783843</ele>
        <time>2022-12-16T16:26:57.952Z</time>
      </trkpt>
      <trkpt lat="47.18411" lon="-1.60907">
        <ele>45.774056</ele>
        <time>2022-12-16T16:26:59.953Z</time>
      </trkpt>
      <trkpt lat="47.18411" lon="-1.60921">
        <ele>45.76399</ele>
        <time>2022-12-16T16:27:01.945Z</time>
      </trkpt>
      <trkpt lat="47.18411" lon="-1.60935">
        <ele>45.732374</ele>
        <time>2022-12-16T16:27:03.945Z</time>
      </trkpt>
      <trkpt lat="47.1841" lon="-1.60949">
        <ele>45.676937</ele>
        <time>2022-12-16T16:27:05.954Z</time>
      </trkpt>
      <trkpt lat="47.18411" lon="-1.60963">
        <ele>45.623488</ele>
        <time>2022-12-16T16:27:07.942Z</time>
      </trkpt>
      <trkpt lat="47.18411" lon="-1.60977">
        <ele>45.568422</ele>
        <time>2022-12-16T16:27:09.943Z</time>
      </trkpt>
      <trkpt lat="47.18411" lon="-1.60992">
        <ele>45.508285</ele>
        <time>2022-12-16T16:27:11.952Z</time>
      </trkpt>
      <trkpt lat="47.18412" lon="-1.61007">
        <ele>45.44966</ele>
        <time>2022-12-16T16:27:13.948Z</time>
      </trkpt>
      <trkpt lat="47.18412" lon="-1.61022">
        <ele>45.390642</ele>
        <time>2022-12-16T16:27:15.944Z</time>
      </trkpt>
      <trkpt lat="47.18413" lon="-1.61037">
        <ele>45.332409</ele>
        <time>2022-12-16T16:27:17.942Z</time>
      </trkpt>
      <trkpt lat="47.18413" lon="-1.61051">
        <ele>45.27538</ele>
        <time>2022-12-16T16:27:19.945Z</time>
      </trkpt>
      <trkpt lat="47.18413" lon="-1.61065">
        <ele>45.221121</ele>
        <time>2022-12-16T16:27:21.962Z</time>
      </trkpt>
      <trkpt lat="47.18415" lon="-1.61084">
        <ele>45.147123</ele>
        <time>2022-12-16T16:27:24.965Z</time>
      </trkpt>
      <trkpt lat="47.18416" lon="-1.61103">
        <ele>45.069882</ele>
        <time>2022-12-16T16:27:27.944Z</time>
      </trkpt>
      <trkpt lat="47.18417" lon="-1.61118">
        <ele>45.014325</ele>
        <time>2022-12-16T16:27:29.956Z</time>
      </trkpt>
      <trkpt lat="47.18418" lon="-1.61131">
        <ele>44.959331</ele>
        <time>2022-12-16T16:27:31.946Z</time>
      </trkpt>
      <trkpt lat="47.18418" lon="-1.61146">
        <ele>44.902553</ele>
        <time>2022-12-16T16:27:33.959Z</time>
      </trkpt>
      <trkpt lat="47.1842" lon="-1.61161">
        <ele>44.84359</ele>
        <time>2022-12-16T16:27:35.968Z</time>
      </trkpt>
      <trkpt lat="47.1842" lon="-1.61176">
        <ele>44.785325</ele>
        <time>2022-12-16T16:27:37.961Z</time>
      </trkpt>
      <trkpt lat="47.18421" lon="-1.6119">
        <ele>44.726589</ele>
        <time>2022-12-16T16:27:39.953Z</time>
      </trkpt>
      <trkpt lat="47.18422" lon="-1.61205">
        <ele>44.755597</ele>
        <time>2022-12-16T16:27:41.944Z</time>
      </trkpt>
      <trkpt lat="47.18423" lon="-1.61219">
        <ele>44.796175</ele>
        <time>2022-12-16T16:27:43.943Z</time>
      </trkpt>
      <trkpt lat="47.18424" lon="-1.61238">
        <ele>44.85347</ele>
        <time>2022-12-16T16:27:46.945Z</time>
      </trkpt>
      <trkpt lat="47.18425" lon="-1.61258">
        <ele>44.910633</ele>
        <time>2022-12-16T16:27:49.947Z</time>
      </trkpt>
      <trkpt lat="47.18426" lon="-1.61271">
        <ele>44.951568</ele>
        <time>2022-12-16T16:27:51.947Z</time>
      </trkpt>
      <trkpt lat="47.18427" lon="-1.61285">
        <ele>44.991665</ele>
        <time>2022-12-16T16:27:53.960Z</time>
      </trkpt>
      <trkpt lat="47.18428" lon="-1.61299">
        <ele>45.033769</ele>
        <time>2022-12-16T16:27:55.944Z</time>
      </trkpt>
      <trkpt lat="47.18429" lon="-1.61313">
        <ele>45.07436</ele>
        <time>2022-12-16T16:27:57.953Z</time>
      </trkpt>
      <trkpt lat="47.18431" lon="-1.61332">
        <ele>45.130541</ele>
        <time>2022-12-16T16:28:00.946Z</time>
      </trkpt>
      <trkpt lat="47.18432" lon="-1.6135">
        <ele>45.183281</ele>
        <time>2022-12-16T16:28:03.960Z</time>
      </trkpt>
      <trkpt lat="47.18432" lon="-1.61368">
        <ele>45.23763</ele>
        <time>2022-12-16T16:28:06.946Z</time>
      </trkpt>
      <trkpt lat="47.18433" lon="-1.61387">
        <ele>45.291685</ele>
        <time>2022-12-16T16:28:09.965Z</time>
      </trkpt>
      <trkpt lat="47.18434" lon="-1.61401">
        <ele>45.333756</ele>
        <time>2022-12-16T16:28:11.943Z</time>
      </trkpt>
      <trkpt lat="47.18434" lon="-1.61415">
        <ele>45.373163</ele>
        <time>2022-12-16T16:28:13.945Z</time>
      </trkpt>
      <trkpt lat="47.18437" lon="-1.61433">
        <ele>45.429173</ele>
        <time>2022-12-16T16:28:16.944Z</time>
      </trkpt>
      <trkpt lat="47.18438" lon="-1.61447">
        <ele>45.470773</ele>
        <time>2022-12-16T16:28:18.946Z</time>
      </trkpt>
      <trkpt lat="47.18439" lon="-1.61463">
        <ele>45.482424</ele>
        <time>2022-12-16T16:28:20.943Z</time>
      </trkpt>
      <trkpt lat="47.18439" lon="-1.61478">
        <ele>45.455835</ele>
        <time>2022-12-16T16:28:22.958Z</time>
      </trkpt>
      <trkpt lat="47.1844" lon="-1.61493">
        <ele>45.42883</ele>
        <time>2022-12-16T16:28:24.938Z</time>
      </trkpt>
      <trkpt lat="47.18441" lon="-1.61508">
        <ele>45.402576</ele>
        <time>2022-12-16T16:28:26.963Z</time>
      </trkpt>
      <trkpt lat="47.18442" lon="-1.61522">
        <ele>45.377945</ele>
        <time>2022-12-16T16:28:28.951Z</time>
      </trkpt>
      <trkpt lat="47.18442" lon="-1.61536">
        <ele>45.353706</ele>
        <time>2022-12-16T16:28:30.946Z</time>
      </trkpt>
      <trkpt lat="47.18444" lon="-1.61553">
        <ele>45.321668</ele>
        <time>2022-12-16T16:28:33.947Z</time>
      </trkpt>
      <trkpt lat="47.18445" lon="-1.6157">
        <ele>45.29222</ele>
        <time>2022-12-16T16:28:36.947Z</time>
      </trkpt>
      <trkpt lat="47.18446" lon="-1.61588">
        <ele>45.260588</ele>
        <time>2022-12-16T16:28:39.952Z</time>
      </trkpt>
      <trkpt lat="47.18447" lon="-1.61606">
        <ele>45.227593</ele>
        <time>2022-12-16T16:28:42.945Z</time>
      </trkpt>
      <trkpt lat="47.18448" lon="-1.61627">
        <ele>45.192002</ele>
        <time>2022-12-16T16:28:45.942Z</time>
      </trkpt>
      <trkpt lat="47.18449" lon="-1.6164">
        <ele>45.167838</ele>
        <time>2022-12-16T16:28:47.945Z</time>
      </trkpt>
      <trkpt lat="47.1845" lon="-1.61654">
        <ele>45.143587</ele>
        <time>2022-12-16T16:28:49.957Z</time>
      </trkpt>
      <trkpt lat="47.18451" lon="-1.61674">
        <ele>45.108384</ele>
        <time>2022-12-16T16:28:52.941Z</time>
      </trkpt>
      <trkpt lat="47.18452" lon="-1.61687">
        <ele>45.084841</ele>
        <time>2022-12-16T16:28:54.948Z</time>
      </trkpt>
      <trkpt lat="47.18453" lon="-1.61704">
        <ele>45.053649</ele>
        <time>2022-12-16T16:28:57.944Z</time>
      </trkpt>
      <trkpt lat="47.18454" lon="-1.61721">
        <ele>45.022123</ele>
        <time>2022-12-16T16:29:00.947Z</time>
      </trkpt>
      <trkpt lat="47.18454" lon="-1.61737">
        <ele>44.979782</ele>
        <time>2022-12-16T16:29:03.955Z</time>
      </trkpt>
      <trkpt lat="47.18455" lon="-1.61751">
        <ele>44.940939</ele>
        <time>2022-12-16T16:29:06.948Z</time>
      </trkpt>
      <trkpt lat="47.18455" lon="-1.61764">
        <ele>44.904773</ele>
        <time>2022-12-16T16:29:09.949Z</time>
      </trkpt>
      <trkpt lat="47.18456" lon="-1.61779">
        <ele>44.866068</ele>
        <time>2022-12-16T16:29:12.962Z</time>
      </trkpt>
      <trkpt lat="47.18457" lon="-1.61794">
        <ele>44.823114</ele>
        <time>2022-12-16T16:29:15.951Z</time>
      </trkpt>
      <trkpt lat="47.18458" lon="-1.61811">
        <ele>44.776669</ele>
        <time>2022-12-16T16:29:18.949Z</time>
      </trkpt>
      <trkpt lat="47.1846" lon="-1.61828">
        <ele>44.730428</ele>
        <time>2022-12-16T16:29:21.960Z</time>
      </trkpt>
      <trkpt lat="47.18461" lon="-1.61846">
        <ele>44.681531</ele>
        <time>2022-12-16T16:29:24.951Z</time>
      </trkpt>
      <trkpt lat="47.18463" lon="-1.61859">
        <ele>44.645157</ele>
        <time>2022-12-16T16:29:26.946Z</time>
      </trkpt>
      <trkpt lat="47.18463" lon="-1.61874">
        <ele>44.606797</ele>
        <time>2022-12-16T16:29:28.954Z</time>
      </trkpt>
      <trkpt lat="47.18465" lon="-1.61888">
        <ele>44.566656</ele>
        <time>2022-12-16T16:29:30.945Z</time>
      </trkpt>
      <trkpt lat="47.18465" lon="-1.61904">
        <ele>44.52286</ele>
        <time>2022-12-16T16:29:32.944Z</time>
      </trkpt>
      <trkpt lat="47.18467" lon="-1.61921">
        <ele>44.478096</ele>
        <time>2022-12-16T16:29:34.949Z</time>
      </trkpt>
      <trkpt lat="47.18468" lon="-1.61937">
        <ele>44.434766</ele>
        <time>2022-12-16T16:29:36.948Z</time>
      </trkpt>
      <trkpt lat="47.18469" lon="-1.61953">
        <ele>44.391124</ele>
        <time>2022-12-16T16:29:38.952Z</time>
      </trkpt>
      <trkpt lat="47.1847" lon="-1.61968">
        <ele>44.348064</ele>
        <time>2022-12-16T16:29:40.949Z</time>
      </trkpt>
      <trkpt lat="47.18471" lon="-1.61983">
        <ele>44.307701</ele>
        <time>2022-12-16T16:29:42.947Z</time>
      </trkpt>
      <trkpt lat="47.18473" lon="-1.62003">
        <ele>44.243373</ele>
        <time>2022-12-16T16:29:45.942Z</time>
      </trkpt>
      <trkpt lat="47.18474" lon="-1.62016">
        <ele>44.199945</ele>
        <time>2022-12-16T16:29:47.943Z</time>
      </trkpt>
      <trkpt lat="47.18474" lon="-1.62035">
        <ele>44.137515</ele>
        <time>2022-12-16T16:29:50.945Z</time>
      </trkpt>
      <trkpt lat="47.18475" lon="-1.62049">
        <ele>44.094132</ele>
        <time>2022-12-16T16:29:52.974Z</time>
      </trkpt>
      <trkpt lat="47.18476" lon="-1.62062">
        <ele>44.05075</ele>
        <time>2022-12-16T16:29:54.955Z</time>
      </trkpt>
      <trkpt lat="47.18477" lon="-1.62076">
        <ele>44.003071</ele>
        <time>2022-12-16T16:29:56.965Z</time>
      </trkpt>
      <trkpt lat="47.18477" lon="-1.62091">
        <ele>43.956871</ele>
        <time>2022-12-16T16:29:58.953Z</time>
      </trkpt>
      <trkpt lat="47.18478" lon="-1.62105">
        <ele>43.911546</ele>
        <time>2022-12-16T16:30:00.965Z</time>
      </trkpt>
      <trkpt lat="47.18478" lon="-1.62118">
        <ele>43.868332</ele>
        <time>2022-12-16T16:30:02.951Z</time>
      </trkpt>
      <trkpt lat="47.18479" lon="-1.62131">
        <ele>43.824581</ele>
        <time>2022-12-16T16:30:04.948Z</time>
      </trkpt>
      <trkpt lat="47.1848" lon="-1.6215">
        <ele>43.762801</ele>
        <time>2022-12-16T16:30:07.945Z</time>
      </trkpt>
      <trkpt lat="47.1848" lon="-1.62168">
        <ele>43.705614</ele>
        <time>2022-12-16T16:30:10.945Z</time>
      </trkpt>
      <trkpt lat="47.1848" lon="-1.62183">
        <ele>43.654917</ele>
        <time>2022-12-16T16:30:13.945Z</time>
      </trkpt>
      <trkpt lat="47.1848" lon="-1.62198">
        <ele>43.609042</ele>
        <time>2022-12-16T16:30:16.949Z</time>
      </trkpt>
      <trkpt lat="47.18481" lon="-1.62215">
        <ele>43.552758</ele>
        <time>2022-12-16T16:30:20.947Z</time>
      </trkpt>
      <trkpt lat="47.18481" lon="-1.6223">
        <ele>43.5027</ele>
        <time>2022-12-16T16:30:24.944Z</time>
      </trkpt>
      <trkpt lat="47.18481" lon="-1.62245">
        <ele>43.455825</ele>
        <time>2022-12-16T16:30:28.945Z</time>
      </trkpt>
      <trkpt lat="47.18474" lon="-1.62257">
        <ele>43.457908</ele>
        <time>2022-12-16T16:30:32.946Z</time>
      </trkpt>
      <trkpt lat="47.18464" lon="-1.62263">
        <ele>43.466474</ele>
        <time>2022-12-16T16:30:35.951Z</time>
      </trkpt>
      <trkpt lat="47.18454" lon="-1.6227">
        <ele>43.475747</ele>
        <time>2022-12-16T16:30:38.944Z</time>
      </trkpt>
      <trkpt lat="47.18443" lon="-1.62277">
        <ele>43.485459</ele>
        <time>2022-12-16T16:30:41.950Z</time>
      </trkpt>
      <trkpt lat="47.18434" lon="-1.62285">
        <ele>43.494764</ele>
        <time>2022-12-16T16:30:44.949Z</time>
      </trkpt>
      <trkpt lat="47.18425" lon="-1.62297">
        <ele>43.504527</ele>
        <time>2022-12-16T16:30:47.948Z</time>
      </trkpt>
      <trkpt lat="47.18417" lon="-1.62311">
        <ele>43.514467</ele>
        <time>2022-12-16T16:30:50.953Z</time>
      </trkpt>
      <trkpt lat="47.18411" lon="-1.62326">
        <ele>43.524605</ele>
        <time>2022-12-16T16:30:53.955Z</time>
      </trkpt>
      <trkpt lat="47.18407" lon="-1.62338">
        <ele>43.532139</ele>
        <time>2022-12-16T16:30:55.946Z</time>
      </trkpt>
      <trkpt lat="47.18399" lon="-1.62355">
        <ele>43.543231</ele>
        <time>2022-12-16T16:30:58.942Z</time>
      </trkpt>
      <trkpt lat="47.18391" lon="-1.62363">
        <ele>43.551243</ele>
        <time>2022-12-16T16:31:00.948Z</time>
      </trkpt>
      <trkpt lat="47.18382" lon="-1.62367">
        <ele>43.558971</ele>
        <time>2022-12-16T16:31:02.961Z</time>
      </trkpt>
      <trkpt lat="47.18373" lon="-1.62369">
        <ele>43.566785</ele>
        <time>2022-12-16T16:31:04.947Z</time>
      </trkpt>
      <trkpt lat="47.18364" lon="-1.62372">
        <ele>43.574771</ele>
        <time>2022-12-16T16:31:06.941Z</time>
      </trkpt>
      <trkpt lat="47.18354" lon="-1.62377">
        <ele>43.582792</ele>
        <time>2022-12-16T16:31:08.945Z</time>
      </trkpt>
      <trkpt lat="47.18342" lon="-1.62384">
        <ele>43.5935</ele>
        <time>2022-12-16T16:31:11.945Z</time>
      </trkpt>
      <trkpt lat="47.18333" lon="-1.62394">
        <ele>43.653887</ele>
        <time>2022-12-16T16:31:14.948Z</time>
      </trkpt>
      <trkpt lat="47.18324" lon="-1.62407">
        <ele>43.779263</ele>
        <time>2022-12-16T16:31:17.946Z</time>
      </trkpt>
      <trkpt lat="47.18315" lon="-1.6242">
        <ele>43.908438</ele>
        <time>2022-12-16T16:31:20.945Z</time>
      </trkpt>
      <trkpt lat="47.18306" lon="-1.62434">
        <ele>44.039998</ele>
        <time>2022-12-16T16:31:23.958Z</time>
      </trkpt>
      <trkpt lat="47.18296" lon="-1.62446">
        <ele>44.16787</ele>
        <time>2022-12-16T16:31:26.947Z</time>
      </trkpt>
      <trkpt lat="47.18286" lon="-1.62454">
        <ele>44.284979</ele>
        <time>2022-12-16T16:31:29.951Z</time>
      </trkpt>
      <trkpt lat="47.18276" lon="-1.62458">
        <ele>44.389779</ele>
        <time>2022-12-16T16:31:32.948Z</time>
      </trkpt>
      <trkpt lat="47.18267" lon="-1.62463">
        <ele>44.482559</ele>
        <time>2022-12-16T16:31:35.946Z</time>
      </trkpt>
      <trkpt lat="47.18258" lon="-1.62469">
        <ele>44.575848</ele>
        <time>2022-12-16T16:31:38.964Z</time>
      </trkpt>
      <trkpt lat="47.18249" lon="-1.62475">
        <ele>44.67977</ele>
        <time>2022-12-16T16:31:41.955Z</time>
      </trkpt>
      <trkpt lat="47.18239" lon="-1.62482">
        <ele>44.793876</ele>
        <time>2022-12-16T16:31:44.946Z</time>
      </trkpt>
      <trkpt lat="47.18228" lon="-1.62479">
        <ele>44.906112</ele>
        <time>2022-12-16T16:31:47.946Z</time>
      </trkpt>
      <trkpt lat="47.18218" lon="-1.62466">
        <ele>45.033081</ele>
        <time>2022-12-16T16:31:50.958Z</time>
      </trkpt>
      <trkpt lat="47.18212" lon="-1.62457">
        <ele>45.127871</ele>
        <time>2022-12-16T16:31:52.970Z</time>
      </trkpt>
      <trkpt lat="47.18206" lon="-1.62446">
        <ele>45.218813</ele>
        <time>2022-12-16T16:31:54.946Z</time>
      </trkpt>
      <trkpt lat="47.18202" lon="-1.62434">
        <ele>45.309403</ele>
        <time>2022-12-16T16:31:56.964Z</time>
      </trkpt>
      <trkpt lat="47.18197" lon="-1.62424">
        <ele>45.400797</ele>
        <time>2022-12-16T16:31:58.951Z</time>
      </trkpt>
      <trkpt lat="47.18191" lon="-1.62412">
        <ele>45.446683</ele>
        <time>2022-12-16T16:32:00.961Z</time>
      </trkpt>
      <trkpt lat="47.18184" lon="-1.62397">
        <ele>45.505306</ele>
        <time>2022-12-16T16:32:03.947Z</time>
      </trkpt>
      <trkpt lat="47.18177" lon="-1.62382">
        <ele>45.561021</ele>
        <time>2022-12-16T16:32:06.968Z</time>
      </trkpt>
      <trkpt lat="47.18171" lon="-1.62369">
        <ele>45.612687</ele>
        <time>2022-12-16T16:32:09.951Z</time>
      </trkpt>
      <trkpt lat="47.18163" lon="-1.62356">
        <ele>45.668749</ele>
        <time>2022-12-16T16:32:12.965Z</time>
      </trkpt>
      <trkpt lat="47.18155" lon="-1.62342">
        <ele>45.724855</ele>
        <time>2022-12-16T16:32:15.957Z</time>
      </trkpt>
      <trkpt lat="47.1815" lon="-1.62328">
        <ele>45.777018</ele>
        <time>2022-12-16T16:32:18.947Z</time>
      </trkpt>
      <trkpt lat="47.18148" lon="-1.62312">
        <ele>45.825904</ele>
        <time>2022-12-16T16:32:21.952Z</time>
      </trkpt>
      <trkpt lat="47.18149" lon="-1.62297">
        <ele>45.875213</ele>
        <time>2022-12-16T16:32:24.950Z</time>
      </trkpt>
      <trkpt lat="47.18151" lon="-1.62282">
        <ele>45.922324</ele>
        <time>2022-12-16T16:32:27.950Z</time>
      </trkpt>
      <trkpt lat="47.18152" lon="-1.62268">
        <ele>45.967164</ele>
        <time>2022-12-16T16:32:30.948Z</time>
      </trkpt>
      <trkpt lat="47.18148" lon="-1.62255">
        <ele>46.013246</ele>
        <time>2022-12-16T16:32:33.953Z</time>
      </trkpt>
      <trkpt lat="47.18139" lon="-1.62244">
        <ele>46.067511</ele>
        <time>2022-12-16T16:32:36.957Z</time>
      </trkpt>
      <trkpt lat="47.18129" lon="-1.62237">
        <ele>46.119002</ele>
        <time>2022-12-16T16:32:39.961Z</time>
      </trkpt>
      <trkpt lat="47.18121" lon="-1.62229">
        <ele>46.165325</ele>
        <time>2022-12-16T16:32:42.948Z</time>
      </trkpt>
      <trkpt lat="47.18117" lon="-1.62217">
        <ele>46.209537</ele>
        <time>2022-12-16T16:32:45.945Z</time>
      </trkpt>
      <trkpt lat="47.18114" lon="-1.62204">
        <ele>46.227867</ele>
        <time>2022-12-16T16:32:48.945Z</time>
      </trkpt>
      <trkpt lat="47.18111" lon="-1.62188">
        <ele>46.132079</ele>
        <time>2022-12-16T16:32:52.945Z</time>
      </trkpt>
      <trkpt lat="47.181" lon="-1.62188">
        <ele>46.041504</ele>
        <time>2022-12-16T16:32:56.945Z</time>
      </trkpt>
      <trkpt lat="47.18092" lon="-1.62198">
        <ele>45.948031</ele>
        <time>2022-12-16T16:33:00.952Z</time>
      </trkpt>
      <trkpt lat="47.18084" lon="-1.62207">
        <ele>45.862218</ele>
        <time>2022-12-16T16:33:04.944Z</time>
      </trkpt>
      <trkpt lat="47.18077" lon="-1.62219">
        <ele>45.765354</ele>
        <time>2022-12-16T16:33:08.949Z</time>
      </trkpt>
      <trkpt lat="47.18071" lon="-1.62233">
        <ele>45.673128</ele>
        <time>2022-12-16T16:33:13.947Z</time>
      </trkpt>
      <trkpt lat="47.18072" lon="-1.62248">
        <ele>45.582428</ele>
        <time>2022-12-16T16:33:18.951Z</time>
      </trkpt>
      <trkpt lat="47.18077" lon="-1.62261">
        <ele>45.4965</ele>
        <time>2022-12-16T16:33:21.947Z</time>
      </trkpt>
      <trkpt lat="47.18082" lon="-1.62276">
        <ele>45.398633</ele>
        <time>2022-12-16T16:33:24.949Z</time>
      </trkpt>
      <trkpt lat="47.18088" lon="-1.62291">
        <ele>45.295498</ele>
        <time>2022-12-16T16:33:27.954Z</time>
      </trkpt>
      <trkpt lat="47.18094" lon="-1.62305">
        <ele>45.196515</ele>
        <time>2022-12-16T16:33:30.950Z</time>
      </trkpt>
      <trkpt lat="47.18099" lon="-1.62319">
        <ele>45.104818</ele>
        <time>2022-12-16T16:33:33.948Z</time>
      </trkpt>
      <trkpt lat="47.18102" lon="-1.62334">
        <ele>45.015656</ele>
        <time>2022-12-16T16:33:36.957Z</time>
      </trkpt>
      <trkpt lat="47.18107" lon="-1.62348">
        <ele>44.920042</ele>
        <time>2022-12-16T16:33:39.948Z</time>
      </trkpt>
      <trkpt lat="47.18112" lon="-1.62364">
        <ele>44.821224</ele>
        <time>2022-12-16T16:33:42.951Z</time>
      </trkpt>
      <trkpt lat="47.18116" lon="-1.62381">
        <ele>44.715725</ele>
        <time>2022-12-16T16:33:45.960Z</time>
      </trkpt>
      <trkpt lat="47.1812" lon="-1.62397">
        <ele>44.758695</ele>
        <time>2022-12-16T16:33:48.958Z</time>
      </trkpt>
      <trkpt lat="47.18124" lon="-1.62413">
        <ele>44.841458</ele>
        <time>2022-12-16T16:33:51.950Z</time>
      </trkpt>
      <trkpt lat="47.18126" lon="-1.62428">
        <ele>44.91706</ele>
        <time>2022-12-16T16:33:54.956Z</time>
      </trkpt>
      <trkpt lat="47.18129" lon="-1.62444">
        <ele>44.995444</ele>
        <time>2022-12-16T16:33:57.946Z</time>
      </trkpt>
      <trkpt lat="47.1813" lon="-1.6246">
        <ele>45.074145</ele>
        <time>2022-12-16T16:34:00.954Z</time>
      </trkpt>
      <trkpt lat="47.1813" lon="-1.62478">
        <ele>45.163044</ele>
        <time>2022-12-16T16:34:03.950Z</time>
      </trkpt>
      <trkpt lat="47.18128" lon="-1.62498">
        <ele>45.260114</ele>
        <time>2022-12-16T16:34:06.951Z</time>
      </trkpt>
      <trkpt lat="47.18127" lon="-1.62511">
        <ele>45.325055</ele>
        <time>2022-12-16T16:34:08.944Z</time>
      </trkpt>
      <trkpt lat="47.18126" lon="-1.62525">
        <ele>45.392992</ele>
        <time>2022-12-16T16:34:10.953Z</time>
      </trkpt>
      <trkpt lat="47.18125" lon="-1.62538">
        <ele>45.459386</ele>
        <time>2022-12-16T16:34:12.943Z</time>
      </trkpt>
      <trkpt lat="47.18125" lon="-1.62552">
        <ele>45.525325</ele>
        <time>2022-12-16T16:34:14.949Z</time>
      </trkpt>
      <trkpt lat="47.18128" lon="-1.62565">
        <ele>45.591917</ele>
        <time>2022-12-16T16:34:16.949Z</time>
      </trkpt>
      <trkpt lat="47.18132" lon="-1.62577">
        <ele>45.660657</ele>
        <time>2022-12-16T16:34:18.954Z</time>
      </trkpt>
      <trkpt lat="47.18138" lon="-1.6259">
        <ele>45.736583</ele>
        <time>2022-12-16T16:34:20.944Z</time>
      </trkpt>
      <trkpt lat="47.18144" lon="-1.62603">
        <ele>45.811309</ele>
        <time>2022-12-16T16:34:22.945Z</time>
      </trkpt>
      <trkpt lat="47.18149" lon="-1.62617">
        <ele>45.888752</ele>
        <time>2022-12-16T16:34:24.952Z</time>
      </trkpt>
      <trkpt lat="47.18154" lon="-1.62631">
        <ele>45.968476</ele>
        <time>2022-12-16T16:34:26.944Z</time>
      </trkpt>
      <trkpt lat="47.18159" lon="-1.62647">
        <ele>45.980482</ele>
        <time>2022-12-16T16:34:28.943Z</time>
      </trkpt>
      <trkpt lat="47.18162" lon="-1.62662">
        <ele>45.975515</ele>
        <time>2022-12-16T16:34:30.943Z</time>
      </trkpt>
      <trkpt lat="47.18165" lon="-1.62677">
        <ele>45.9709</ele>
        <time>2022-12-16T16:34:32.965Z</time>
      </trkpt>
      <trkpt lat="47.18168" lon="-1.62691">
        <ele>45.966403</ele>
        <time>2022-12-16T16:34:34.954Z</time>
      </trkpt>
      <trkpt lat="47.18171" lon="-1.62705">
        <ele>45.961782</ele>
        <time>2022-12-16T16:34:36.962Z</time>
      </trkpt>
      <trkpt lat="47.18175" lon="-1.62724">
        <ele>45.95573</ele>
        <time>2022-12-16T16:34:39.942Z</time>
      </trkpt>
      <trkpt lat="47.18178" lon="-1.62738">
        <ele>45.951226</ele>
        <time>2022-12-16T16:34:41.948Z</time>
      </trkpt>
      <trkpt lat="47.18181" lon="-1.62753">
        <ele>45.946404</ele>
        <time>2022-12-16T16:34:43.951Z</time>
      </trkpt>
      <trkpt lat="47.18183" lon="-1.62768">
        <ele>45.941941</ele>
        <time>2022-12-16T16:34:45.951Z</time>
      </trkpt>
      <trkpt lat="47.18184" lon="-1.62782">
        <ele>45.937496</ele>
        <time>2022-12-16T16:34:47.941Z</time>
      </trkpt>
      <trkpt lat="47.18185" lon="-1.62797">
        <ele>45.932927</ele>
        <time>2022-12-16T16:34:49.953Z</time>
      </trkpt>
      <trkpt lat="47.18187" lon="-1.62811">
        <ele>45.92848</ele>
        <time>2022-12-16T16:34:51.945Z</time>
      </trkpt>
      <trkpt lat="47.18188" lon="-1.62826">
        <ele>45.923957</ele>
        <time>2022-12-16T16:34:53.947Z</time>
      </trkpt>
      <trkpt lat="47.1819" lon="-1.6284">
        <ele>45.919639</ele>
        <time>2022-12-16T16:34:55.966Z</time>
      </trkpt>
      <trkpt lat="47.18191" lon="-1.62854">
        <ele>45.915318</ele>
        <time>2022-12-16T16:34:57.941Z</time>
      </trkpt>
      <trkpt lat="47.18192" lon="-1.62867">
        <ele>45.91127</ele>
        <time>2022-12-16T16:34:59.945Z</time>
      </trkpt>
      <trkpt lat="47.18192" lon="-1.6288">
        <ele>45.907163</ele>
        <time>2022-12-16T16:35:01.943Z</time>
      </trkpt>
      <trkpt lat="47.18192" lon="-1.62899">
        <ele>45.887256</ele>
        <time>2022-12-16T16:35:04.950Z</time>
      </trkpt>
      <trkpt lat="47.1819" lon="-1.62918">
        <ele>45.847156</ele>
        <time>2022-12-16T16:35:07.943Z</time>
      </trkpt>
      <trkpt lat="47.18188" lon="-1.62931">
        <ele>45.818664</ele>
        <time>2022-12-16T16:35:09.946Z</time>
      </trkpt>
      <trkpt lat="47.18186" lon="-1.62944">
        <ele>45.789417</ele>
        <time>2022-12-16T16:35:11.943Z</time>
      </trkpt>
      <trkpt lat="47.18184" lon="-1.62958">
        <ele>45.759756</ele>
        <time>2022-12-16T16:35:13.950Z</time>
      </trkpt>
      <trkpt lat="47.18183" lon="-1.62973">
        <ele>45.728028</ele>
        <time>2022-12-16T16:35:15.955Z</time>
      </trkpt>
      <trkpt lat="47.18184" lon="-1.62988">
        <ele>45.694837</ele>
        <time>2022-12-16T16:35:17.947Z</time>
      </trkpt>
      <trkpt lat="47.18185" lon="-1.63003">
        <ele>45.6639</ele>
        <time>2022-12-16T16:35:19.944Z</time>
      </trkpt>
      <trkpt lat="47.18185" lon="-1.63017">
        <ele>45.632824</ele>
        <time>2022-12-16T16:35:21.943Z</time>
      </trkpt>
      <trkpt lat="47.18185" lon="-1.63031">
        <ele>45.604536</ele>
        <time>2022-12-16T16:35:23.955Z</time>
      </trkpt>
      <trkpt lat="47.18185" lon="-1.63044">
        <ele>45.575475</ele>
        <time>2022-12-16T16:35:25.950Z</time>
      </trkpt>
      <trkpt lat="47.18183" lon="-1.63064">
        <ele>45.532469</ele>
        <time>2022-12-16T16:35:28.953Z</time>
      </trkpt>
      <trkpt lat="47.18182" lon="-1.63078">
        <ele>45.502459</ele>
        <time>2022-12-16T16:35:30.947Z</time>
      </trkpt>
      <trkpt lat="47.18179" lon="-1.63091">
        <ele>45.473638</ele>
        <time>2022-12-16T16:35:32.954Z</time>
      </trkpt>
      <trkpt lat="47.18177" lon="-1.63104">
        <ele>45.444905</ele>
        <time>2022-12-16T16:35:34.955Z</time>
      </trkpt>
      <trkpt lat="47.18171" lon="-1.63121">
        <ele>45.405246</ele>
        <time>2022-12-16T16:35:37.946Z</time>
      </trkpt>
      <trkpt lat="47.18165" lon="-1.63135">
        <ele>45.370591</ele>
        <time>2022-12-16T16:35:40.952Z</time>
      </trkpt>
      <trkpt lat="47.1816" lon="-1.63149">
        <ele>45.357677</ele>
        <time>2022-12-16T16:35:43.952Z</time>
      </trkpt>
      <trkpt lat="47.18154" lon="-1.63165">
        <ele>45.472649</ele>
        <time>2022-12-16T16:35:46.955Z</time>
      </trkpt>
      <trkpt lat="47.18149" lon="-1.63181">
        <ele>45.586539</ele>
        <time>2022-12-16T16:35:49.957Z</time>
      </trkpt>
      <trkpt lat="47.18146" lon="-1.63198">
        <ele>45.702552</ele>
        <time>2022-12-16T16:35:52.947Z</time>
      </trkpt>
      <trkpt lat="47.18142" lon="-1.63214">
        <ele>45.816453</ele>
        <time>2022-12-16T16:35:55.965Z</time>
      </trkpt>
      <trkpt lat="47.18137" lon="-1.63229">
        <ele>45.919822</ele>
        <time>2022-12-16T16:35:58.946Z</time>
      </trkpt>
      <trkpt lat="47.18134" lon="-1.63242">
        <ele>46.012948</ele>
        <time>2022-12-16T16:36:01.958Z</time>
      </trkpt>
      <trkpt lat="47.18131" lon="-1.63256">
        <ele>46.109487</ele>
        <time>2022-12-16T16:36:04.967Z</time>
      </trkpt>
      <trkpt lat="47.18128" lon="-1.6327">
        <ele>46.205379</ele>
        <time>2022-12-16T16:36:07.947Z</time>
      </trkpt>
      <trkpt lat="47.18125" lon="-1.63283">
        <ele>46.293268</ele>
        <time>2022-12-16T16:36:10.954Z</time>
      </trkpt>
      <trkpt lat="47.18116" lon="-1.6329">
        <ele>46.386229</ele>
        <time>2022-12-16T16:36:15.964Z</time>
      </trkpt>
      <trkpt lat="47.18108" lon="-1.63279">
        <ele>46.492616</ele>
        <time>2022-12-16T16:36:21.954Z</time>
      </trkpt>
      <trkpt lat="47.18099" lon="-1.63271">
        <ele>46.591592</ele>
        <time>2022-12-16T16:36:25.949Z</time>
      </trkpt>
      <trkpt lat="47.18091" lon="-1.63262">
        <ele>46.687363</ele>
        <time>2022-12-16T16:36:29.946Z</time>
      </trkpt>
      <trkpt lat="47.18085" lon="-1.63252">
        <ele>46.776628</ele>
        <time>2022-12-16T16:36:33.950Z</time>
      </trkpt>
      <trkpt lat="47.18074" lon="-1.63261">
        <ele>46.906572</ele>
        <time>2022-12-16T16:37:21.997Z</time>
      </trkpt>
      <trkpt lat="47.18075" lon="-1.63274">
        <ele>46.993866</ele>
        <time>2022-12-16T16:37:28.962Z</time>
      </trkpt>
      <trkpt lat="47.18075" lon="-1.63259">
        <ele>47.033815</ele>
        <time>2022-12-16T16:37:51.956Z</time>
      </trkpt>
      <trkpt lat="47.1808" lon="-1.63247">
        <ele>46.903892</ele>
        <time>2022-12-16T16:37:56.963Z</time>
      </trkpt>
      <trkpt lat="47.18077" lon="-1.63232">
        <ele>46.762462</ele>
        <time>2022-12-16T16:38:01.954Z</time>
      </trkpt>
      <trkpt lat="47.18073" lon="-1.63217">
        <ele>46.610185</ele>
        <time>2022-12-16T16:38:05.951Z</time>
      </trkpt>
      <trkpt lat="47.18068" lon="-1.63203">
        <ele>46.461357</ele>
        <time>2022-12-16T16:38:09.948Z</time>
      </trkpt>
      <trkpt lat="47.18064" lon="-1.6319">
        <ele>46.326801</ele>
        <time>2022-12-16T16:38:13.947Z</time>
      </trkpt>
      <trkpt lat="47.18057" lon="-1.63177">
        <ele>46.174224</ele>
        <time>2022-12-16T16:38:18.946Z</time>
      </trkpt>
      <trkpt lat="47.18048" lon="-1.63177">
        <ele>46.04274</ele>
        <time>2022-12-16T16:38:23.947Z</time>
      </trkpt>
      <trkpt lat="47.1804" lon="-1.63188">
        <ele>45.888893</ele>
        <time>2022-12-16T16:38:28.940Z</time>
      </trkpt>
      <trkpt lat="47.18032" lon="-1.632">
        <ele>45.727487</ele>
        <time>2022-12-16T16:38:32.958Z</time>
      </trkpt>
      <trkpt lat="47.18025" lon="-1.63212">
        <ele>45.584285</ele>
        <time>2022-12-16T16:38:35.957Z</time>
      </trkpt>
      <trkpt lat="47.18018" lon="-1.63222">
        <ele>45.451548</ele>
        <time>2022-12-16T16:38:38.951Z</time>
      </trkpt>
      <trkpt lat="47.1801" lon="-1.63233">
        <ele>45.296106</ele>
        <time>2022-12-16T16:38:41.965Z</time>
      </trkpt>
      <trkpt lat="47.18" lon="-1.63244">
        <ele>45.123295</ele>
        <time>2022-12-16T16:38:44.960Z</time>
      </trkpt>
      <trkpt lat="47.17989" lon="-1.63254">
        <ele>44.953013</ele>
        <time>2022-12-16T16:38:47.948Z</time>
      </trkpt>
      <trkpt lat="47.17981" lon="-1.63263">
        <ele>44.806374</ele>
        <time>2022-12-16T16:38:50.951Z</time>
      </trkpt>
      <trkpt lat="47.17976" lon="-1.63277">
        <ele>44.654256</ele>
        <time>2022-12-16T16:38:54.949Z</time>
      </trkpt>
      <trkpt lat="47.17975" lon="-1.63291">
        <ele>44.596351</ele>
        <time>2022-12-16T16:38:58.950Z</time>
      </trkpt>
      <trkpt lat="47.1797" lon="-1.63306">
        <ele>44.639193</ele>
        <time>2022-12-16T16:39:01.955Z</time>
      </trkpt>
      <trkpt lat="47.17966" lon="-1.63323">
        <ele>44.687583</ele>
        <time>2022-12-16T16:39:04.957Z</time>
      </trkpt>
      <trkpt lat="47.17965" lon="-1.6334">
        <ele>44.732679</ele>
        <time>2022-12-16T16:39:07.947Z</time>
      </trkpt>
      <trkpt lat="47.17963" lon="-1.63359">
        <ele>44.780746</ele>
        <time>2022-12-16T16:39:10.947Z</time>
      </trkpt>
      <trkpt lat="47.1796" lon="-1.63378">
        <ele>44.833372</ele>
        <time>2022-12-16T16:39:13.953Z</time>
      </trkpt>
      <trkpt lat="47.17957" lon="-1.63391">
        <ele>44.869205</ele>
        <time>2022-12-16T16:39:15.957Z</time>
      </trkpt>
      <trkpt lat="47.17956" lon="-1.63409">
        <ele>44.915292</ele>
        <time>2022-12-16T16:39:18.956Z</time>
      </trkpt>
      <trkpt lat="47.17957" lon="-1.63422">
        <ele>44.952473</ele>
        <time>2022-12-16T16:39:21.947Z</time>
      </trkpt>
      <trkpt lat="47.17965" lon="-1.63435">
        <ele>44.996738</ele>
        <time>2022-12-16T16:39:24.953Z</time>
      </trkpt>
      <trkpt lat="47.17973" lon="-1.6345">
        <ele>45.04634</ele>
        <time>2022-12-16T16:39:27.956Z</time>
      </trkpt>
      <trkpt lat="47.17976" lon="-1.63466">
        <ele>45.089387</ele>
        <time>2022-12-16T16:39:30.953Z</time>
      </trkpt>
      <trkpt lat="47.17976" lon="-1.63483">
        <ele>45.135109</ele>
        <time>2022-12-16T16:39:33.963Z</time>
      </trkpt>
      <trkpt lat="47.17976" lon="-1.635">
        <ele>45.179523</ele>
        <time>2022-12-16T16:39:36.961Z</time>
      </trkpt>
      <trkpt lat="47.17976" lon="-1.63516">
        <ele>45.220783</ele>
        <time>2022-12-16T16:39:39.958Z</time>
      </trkpt>
      <trkpt lat="47.17981" lon="-1.63528">
        <ele>45.257736</ele>
        <time>2022-12-16T16:39:41.961Z</time>
      </trkpt>
      <trkpt lat="47.17987" lon="-1.63539">
        <ele>45.355613</ele>
        <time>2022-12-16T16:39:43.955Z</time>
      </trkpt>
      <trkpt lat="47.17992" lon="-1.63556">
        <ele>45.566564</ele>
        <time>2022-12-16T16:39:46.965Z</time>
      </trkpt>
      <trkpt lat="47.17995" lon="-1.6357">
        <ele>45.734328</ele>
        <time>2022-12-16T16:39:49.949Z</time>
      </trkpt>
      <trkpt lat="47.17987" lon="-1.6358">
        <ele>45.906898</ele>
        <time>2022-12-16T16:39:53.956Z</time>
      </trkpt>
      <trkpt lat="47.17979" lon="-1.63587">
        <ele>46.074754</ele>
        <time>2022-12-16T16:39:56.951Z</time>
      </trkpt>
      <trkpt lat="47.17969" lon="-1.63592">
        <ele>46.248505</ele>
        <time>2022-12-16T16:39:59.968Z</time>
      </trkpt>
      <trkpt lat="47.17957" lon="-1.63596">
        <ele>46.450339</ele>
        <time>2022-12-16T16:40:02.955Z</time>
      </trkpt>
      <trkpt lat="47.17946" lon="-1.63601">
        <ele>46.643583</ele>
        <time>2022-12-16T16:40:05.956Z</time>
      </trkpt>
      <trkpt lat="47.17936" lon="-1.63605">
        <ele>46.810681</ele>
        <time>2022-12-16T16:40:08.950Z</time>
      </trkpt>
      <trkpt lat="47.17927" lon="-1.63608">
        <ele>46.970203</ele>
        <time>2022-12-16T16:40:11.958Z</time>
      </trkpt>
      <trkpt lat="47.17916" lon="-1.63614">
        <ele>47.154614</ele>
        <time>2022-12-16T16:40:14.951Z</time>
      </trkpt>
      <trkpt lat="47.17906" lon="-1.63621">
        <ele>47.347418</ele>
        <time>2022-12-16T16:40:17.948Z</time>
      </trkpt>
      <trkpt lat="47.17898" lon="-1.63632">
        <ele>47.531872</ele>
        <time>2022-12-16T16:40:21.950Z</time>
      </trkpt>
      <trkpt lat="47.17891" lon="-1.63644">
        <ele>47.709339</ele>
        <time>2022-12-16T16:40:36.962Z</time>
      </trkpt>
      <trkpt lat="47.17883" lon="-1.63657">
        <ele>47.906394</ele>
        <time>2022-12-16T16:40:40.959Z</time>
      </trkpt>
      <trkpt lat="47.17876" lon="-1.63668">
        <ele>48.072171</ele>
        <time>2022-12-16T16:40:43.960Z</time>
      </trkpt>
      <trkpt lat="47.17868" lon="-1.63678">
        <ele>48.250923</ele>
        <time>2022-12-16T16:40:46.948Z</time>
      </trkpt>
      <trkpt lat="47.17857" lon="-1.63683">
        <ele>48.283414</ele>
        <time>2022-12-16T16:40:49.945Z</time>
      </trkpt>
      <trkpt lat="47.17847" lon="-1.63681">
        <ele>48.295102</ele>
        <time>2022-12-16T16:40:52.955Z</time>
      </trkpt>
      <trkpt lat="47.17837" lon="-1.63676">
        <ele>48.307991</ele>
        <time>2022-12-16T16:40:57.944Z</time>
      </trkpt>
      <trkpt lat="47.17828" lon="-1.63678">
        <ele>48.319003</ele>
        <time>2022-12-16T16:41:01.948Z</time>
      </trkpt>
      <trkpt lat="47.17819" lon="-1.63685">
        <ele>48.33169</ele>
        <time>2022-12-16T16:41:07.949Z</time>
      </trkpt>
      <trkpt lat="47.17813" lon="-1.63676">
        <ele>48.342753</ele>
        <time>2022-12-16T16:41:13.962Z</time>
      </trkpt>
      <trkpt lat="47.17807" lon="-1.63665">
        <ele>48.354637</ele>
        <time>2022-12-16T16:41:19.951Z</time>
      </trkpt>
      <trkpt lat="47.178" lon="-1.63654">
        <ele>48.36697</ele>
        <time>2022-12-16T16:41:25.954Z</time>
      </trkpt>
      <trkpt lat="47.17791" lon="-1.63661">
        <ele>48.379392</ele>
        <time>2022-12-16T16:41:33.957Z</time>
      </trkpt>
      <trkpt lat="47.17784" lon="-1.6367">
        <ele>48.39124</ele>
        <time>2022-12-16T16:41:38.948Z</time>
      </trkpt>
      <trkpt lat="47.17774" lon="-1.63669">
        <ele>48.403368</ele>
        <time>2022-12-16T16:41:44.943Z</time>
      </trkpt>
      <trkpt lat="47.17765" lon="-1.63662">
        <ele>48.415589</ele>
        <time>2022-12-16T16:41:48.951Z</time>
      </trkpt>
      <trkpt lat="47.17766" lon="-1.63646">
        <ele>48.428714</ele>
        <time>2022-12-16T16:41:51.952Z</time>
      </trkpt>
      <trkpt lat="47.17776" lon="-1.63633">
        <ele>48.444871</ele>
        <time>2022-12-16T16:41:54.949Z</time>
      </trkpt>
      <trkpt lat="47.17782" lon="-1.63623">
        <ele>48.456491</ele>
        <time>2022-12-16T16:41:56.948Z</time>
      </trkpt>
      <trkpt lat="47.17788" lon="-1.63611">
        <ele>48.468441</ele>
        <time>2022-12-16T16:41:58.944Z</time>
      </trkpt>
      <trkpt lat="47.17793" lon="-1.63599">
        <ele>48.479896</ele>
        <time>2022-12-16T16:42:00.949Z</time>
      </trkpt>
      <trkpt lat="47.17797" lon="-1.63587">
        <ele>48.510706</ele>
        <time>2022-12-16T16:42:02.956Z</time>
      </trkpt>
      <trkpt lat="47.17801" lon="-1.6357">
        <ele>48.714511</ele>
        <time>2022-12-16T16:42:05.956Z</time>
      </trkpt>
      <trkpt lat="47.17804" lon="-1.63555">
        <ele>48.891974</ele>
        <time>2022-12-16T16:42:08.944Z</time>
      </trkpt>
      <trkpt lat="47.17807" lon="-1.63542">
        <ele>49.04607</ele>
        <time>2022-12-16T16:42:11.947Z</time>
      </trkpt>
      <trkpt lat="47.1781" lon="-1.63528">
        <ele>49.218216</ele>
        <time>2022-12-16T16:42:15.960Z</time>
      </trkpt>
      <trkpt lat="47.17813" lon="-1.63511">
        <ele>49.413574</ele>
        <time>2022-12-16T16:42:19.947Z</time>
      </trkpt>
      <trkpt lat="47.17816" lon="-1.63495">
        <ele>49.606271</ele>
        <time>2022-12-16T16:42:23.946Z</time>
      </trkpt>
      <trkpt lat="47.17818" lon="-1.63481">
        <ele>49.770674</ele>
        <time>2022-12-16T16:42:27.944Z</time>
      </trkpt>
      <trkpt lat="47.17819" lon="-1.63464">
        <ele>49.966482</ele>
        <time>2022-12-16T16:42:31.967Z</time>
      </trkpt>
      <trkpt lat="47.17813" lon="-1.63451">
        <ele>50.136538</ele>
        <time>2022-12-16T16:42:34.954Z</time>
      </trkpt>
      <trkpt lat="47.17806" lon="-1.63443">
        <ele>50.289981</ele>
        <time>2022-12-16T16:42:37.947Z</time>
      </trkpt>
      <trkpt lat="47.17798" lon="-1.63435">
        <ele>50.456211</ele>
        <time>2022-12-16T16:42:41.956Z</time>
      </trkpt>
      <trkpt lat="47.17789" lon="-1.63426">
        <ele>50.637552</ele>
        <time>2022-12-16T16:42:45.956Z</time>
      </trkpt>
      <trkpt lat="47.17779" lon="-1.63421">
        <ele>50.814218</ele>
        <time>2022-12-16T16:42:49.944Z</time>
      </trkpt>
      <trkpt lat="47.17768" lon="-1.63417">
        <ele>50.996336</ele>
        <time>2022-12-16T16:42:53.944Z</time>
      </trkpt>
      <trkpt lat="47.17758" lon="-1.63413">
        <ele>51.177289</ele>
        <time>2022-12-16T16:42:57.943Z</time>
      </trkpt>
      <trkpt lat="47.17748" lon="-1.63409">
        <ele>51.338586</ele>
        <time>2022-12-16T16:43:01.956Z</time>
      </trkpt>
      <trkpt lat="47.17738" lon="-1.63411">
        <ele>51.494994</ele>
        <time>2022-12-16T16:43:06.946Z</time>
      </trkpt>
      <trkpt lat="47.17724" lon="-1.63418">
        <ele>51.494994</ele>
        <time>2022-12-16T16:43:28.957Z</time>
      </trkpt>
      <trkpt lat="47.17714" lon="-1.63419">
        <ele>51.494994</ele>
        <time>2022-12-16T16:43:32.960Z</time>
      </trkpt>
      <trkpt lat="47.17704" lon="-1.63424">
        <ele>51.494994</ele>
        <time>2022-12-16T16:43:37.958Z</time>
      </trkpt>
      <trkpt lat="47.17696" lon="-1.6343">
        <ele>51.494994</ele>
        <time>2022-12-16T16:43:42.948Z</time>
      </trkpt>
      <trkpt lat="47.17687" lon="-1.63433">
        <ele>51.494994</ele>
        <time>2022-12-16T16:43:47.949Z</time>
      </trkpt>
      <trkpt lat="47.17702" lon="-1.63431">
        <ele>51.494994</ele>
        <time>2022-12-16T16:47:31.981Z</time>
      </trkpt>
      <trkpt lat="47.17711" lon="-1.63424">
        <ele>51.494994</ele>
        <time>2022-12-16T16:48:08.970Z</time>
      </trkpt>
      <trkpt lat="47.17701" lon="-1.63425">
        <ele>51.494994</ele>
        <time>2022-12-16T16:48:19.970Z</time>
      </trkpt>
      <trkpt lat="47.17691" lon="-1.63428">
        <ele>51.494994</ele>
        <time>2022-12-16T16:48:32.944Z</time>
      </trkpt>
      <trkpt lat="47.17682" lon="-1.63434">
        <ele>51.494994</ele>
        <time>2022-12-16T16:48:42.033Z</time>
      </trkpt>
      <trkpt lat="47.17673" lon="-1.63431">
        <ele>51.494994</ele>
        <time>2022-12-16T16:49:04.940Z</time>
      </trkpt>
      <trkpt lat="47.17663" lon="-1.63434">
        <ele>51.494994</ele>
        <time>2022-12-16T16:49:11.944Z</time>
      </trkpt>
      <trkpt lat="47.17654" lon="-1.63432">
        <ele>51.494994</ele>
        <time>2022-12-16T17:06:07.123Z</time>
        <extensions>
          <visugpx:TrkExtension xmlns:visugpx="https://www.visugpx.com/editgpx/">
            <visugpx:node>1</visugpx:node>
            </visugpx:TrkExtension>
        </extensions>
      </trkpt>
    </trkseg>
  </trk>
</gpx>